
Distance (Route):
Temperature : 7.1°C
Humidity : 0%
Pressure : 775.9hPa| Receiver | Frames | First received | Last received |
|---|---|---|---|
| DO3MHA-11 | 438 | 2026-08-30 10:47:47 | 2026-08-30 13:07:40 |
| OE5MMP-10 | 228 | 2026-08-30 11:20:26 | 2026-08-30 13:04:23 |
| DL6DJ-15 | 161 | 2026-08-30 10:50:31 | 2026-08-30 13:03:35 |
| OE5DRO-10 | 119 | 2026-08-30 11:06:02 | 2026-08-30 13:03:17 |
| SONDE2-11 | 109 | 2026-08-30 11:15:51 | 2026-08-30 12:58:19 |
| EDDB2-11 | 108 | 2026-08-30 11:18:11 | 2026-08-30 12:57:31 |
| PG1ADW-2 | 98 | 2026-08-30 11:18:24 | 2026-08-30 12:56:42 |
| EDDB2-12 | 89 | 2026-08-30 11:21:55 | 2026-08-30 12:57:38 |
| PETON7-10 | 80 | 2026-08-30 11:38:15 | 2026-08-30 12:45:46 |
| OE5DXL-15 | 76 | 2026-08-30 11:03:41 | 2026-08-30 12:56:30 |
| OE5WHR-10 | 76 | 2026-08-30 11:13:03 | 2026-08-30 12:49:04 |
| ANDY1245 | 75 | 2026-08-30 11:19:26 | 2026-08-30 13:00:17 |
| SONCRA | 71 | 2026-08-30 11:13:40 | 2026-08-30 12:46:49 |
| DF8AY | 71 | 2026-08-30 11:38:34 | 2026-08-30 12:46:20 |
| DO9HM | 66 | 2026-08-30 10:52:26 | 2026-08-30 11:29:29 |
| DO8TBO-1 | 48 | 2026-08-30 10:56:46 | 2026-08-30 12:58:13 |
| NBG1-10 | 46 | 2026-08-30 10:48:17 | 2026-08-30 12:49:38 |
| OM5KV | 37 | 2026-08-30 11:36:30 | 2026-08-30 12:00:29 |
| DL1XH-west | 35 | 2026-08-30 12:25:25 | 2026-08-30 12:37:33 |
| SP3BTT-10 | 32 | 2026-08-30 11:29:06 | 2026-08-30 12:51:04 |
| HSKMA3-T | 32 | 2026-08-30 12:04:19 | 2026-08-30 12:41:35 |
| BAUMI2-15 | 27 | 2026-08-30 12:21:06 | 2026-08-30 12:38:15 |
| DL1JEZ-13 | 22 | 2026-08-30 11:27:10 | 2026-08-30 12:47:28 |
| DB0NH | 18 | 2026-08-30 10:48:33 | 2026-08-30 11:08:49 |
| OE5REO-15 | 15 | 2026-08-30 11:25:56 | 2026-08-30 12:26:03 |
| DK5PH-5 | 13 | 2026-08-30 11:55:38 | 2026-08-30 12:39:23 |
| DL2RXE-15 | 8 | 2026-08-30 11:53:23 | 2026-08-30 12:45:23 |
| S52SK | 6 | 2026-08-30 11:32:23 | 2026-08-30 11:38:25 |
| OE3JTB-15 | 3 | 2026-08-30 11:17:48 | 2026-08-30 11:20:05 |
| AA1-15 | 1 | 2026-08-30 12:34:51 | 2026-08-30 12:34:51 |
| DG1MFX-10 | 1 | 2026-08-30 12:50:26 | 2026-08-30 12:50:26 |
| Receiver | Date | Latitude | Longitude | Direction | Speed | Altitude | Climb | Temperature | Humidity | Pressure | Voltage | Killtimer | Uptime | BKT | XDATA |
|---|---|---|---|---|---|---|---|---|---|---|---|---|---|---|---|
| DO3MHA-11 | 2026-08-30 13:07:40 | 49.58272 | 13.18862 | 73° | 55km/h | 2321m | -8.0m/s | 7.1°C | 0% | 775.9hPa | 2.6V | 00:00:00 | 02:48:27 | 00:00:00 | |
| DO3MHA-11 | 2026-08-30 13:07:35 | 49.58253 | 13.18758 | 77° | 58km/h | 2362m | -8.1m/s | 6.8°C | 99.8% | 772.0hPa | 2.6V | 02:59:00 | 02:48:22 | 00:00:00 | |
| DO3MHA-11 | 2026-08-30 13:07:30 | 49.58234 | 13.18646 | 75° | 62km/h | 2401m | -8.1m/s | 7.1°C | 91.5% | 768.3hPa | 2.7V | 00:00:00 | 02:48:17 | 00:00:00 | |
| DO3MHA-11 | 2026-08-30 13:07:25 | 49.58214 | 13.18530 | 75° | 62km/h | 2442m | -8.1m/s | 6.8°C | 91.8% | 764.4hPa | 2.7V | 00:00:00 | 02:48:12 | 00:00:00 | |
| DO3MHA-11 | 2026-08-30 13:07:20 | 49.58193 | 13.18412 | 75° | 64km/h | 2483m | -8.1m/s | 7.2°C | 82.7% | 760.8hPa | 2.7V | 03:00:00 | 02:48:07 | 00:00:00 | |
| DO3MHA-11 | 2026-08-30 13:07:15 | 49.58171 | 13.18292 | 74° | 64km/h | 2525m | -8.9m/s | 7.3°C | 78.2% | 756.8hPa | 2.7V | 00:00:00 | 02:48:02 | 00:00:00 | |
| DO3MHA-11 | 2026-08-30 13:07:10 | 49.58149 | 13.18174 | 75° | 62km/h | 2570m | -9.0m/s | 6.9°C | 79.6% | 752.7hPa | 2.7V | 00:00:00 | 02:47:57 | 00:00:00 | |
| DO3MHA-11 | 2026-08-30 13:07:05 | 49.58127 | 13.18056 | 75° | 62km/h | 2614m | -8.7m/s | 6.5°C | 81.0% | 748.5hPa | 2.7V | 00:00:00 | 02:47:52 | 00:00:00 | |
| DO3MHA-11 | 2026-08-30 13:07:00 | 49.58106 | 13.17940 | 75° | 62km/h | 2659m | -9.1m/s | 6.1°C | 81.8% | 744.4hPa | 2.7V | 03:00:00 | 02:47:47 | 00:00:00 | |
| DO3MHA-11 | 2026-08-30 13:06:55 | 49.58086 | 13.17823 | 76° | 62km/h | 2704m | -9.3m/s | 5.7°C | 83.7% | 740.2hPa | 2.7V | 00:00:00 | 02:47:42 | 00:00:00 | |
| DO3MHA-11 | 2026-08-30 13:06:50 | 49.58068 | 13.17707 | 78° | 62km/h | 2750m | -9.7m/s | 5.4°C | 84.2% | 736.2hPa | 2.7V | 00:00:00 | 02:47:37 | 00:00:00 | |
| DO3MHA-11 | 2026-08-30 13:06:45 | 49.58051 | 13.17591 | 79° | 58km/h | 2798m | -9.5m/s | 5.5°C | 75.6% | 731.7hPa | 2.7V | 00:00:00 | 02:47:32 | 00:00:00 | |
| DO3MHA-11 | 2026-08-30 13:06:40 | 49.58036 | 13.17478 | 80° | 57km/h | 2847m | -9.8m/s | 5.4°C | 63.3% | 727.3hPa | 2.7V | 03:00:00 | 02:47:27 | 00:00:00 | |
| DO3MHA-11 | 2026-08-30 13:06:35 | 49.58024 | 13.17371 | 82° | 53km/h | 2896m | -9.8m/s | 6.3°C | 32.9% | 723.0hPa | 2.7V | 00:00:00 | 02:47:22 | 00:00:00 | |
| DO3MHA-11 | 2026-08-30 13:06:30 | 49.58015 | 13.17268 | 83° | 53km/h | 2945m | -9.8m/s | 6.4°C | 17.0% | 718.6hPa | 2.7V | 00:00:00 | 02:47:17 | 00:00:00 | |
| DO3MHA-11 | 2026-08-30 13:06:25 | 49.58008 | 13.17167 | 85° | 51km/h | 2993m | -9.7m/s | 6.6°C | 10.5% | 714.5hPa | 2.7V | 00:00:00 | 02:47:12 | 00:00:00 | |
| DO3MHA-11 | 2026-08-30 13:06:20 | 49.58003 | 13.17069 | 90° | 49km/h | 3041m | -9.7m/s | 6.3°C | 10.5% | 710.2hPa | 2.7V | 03:01:00 | 02:47:07 | 00:00:00 | |
| DO3MHA-11 | 2026-08-30 13:06:15 | 49.58004 | 13.16972 | 92° | 49km/h | 3090m | -9.4m/s | 5.8°C | 10.6% | 706.1hPa | 2.6V | 00:00:00 | 02:47:02 | 00:00:00 | |
| DO3MHA-11 | 2026-08-30 13:06:10 | 49.58006 | 13.16875 | 93° | 49km/h | 3137m | -9.4m/s | 5.5°C | 10.9% | 702.1hPa | 2.6V | 00:00:00 | 02:46:57 | 00:00:00 | |
| DO3MHA-11 | 2026-08-30 13:06:05 | 49.58008 | 13.16777 | 91° | 51km/h | 3185m | -9.5m/s | 5.0°C | 11.1% | 698.1hPa | 2.6V | 00:00:00 | 02:46:52 | 00:00:00 | |
| DO3MHA-11 | 2026-08-30 13:06:00 | 49.58010 | 13.16677 | 92° | 51km/h | 3232m | -9.7m/s | 4.6°C | 11.1% | 693.9hPa | 2.6V | 03:01:00 | 02:46:47 | 00:00:00 | |
| DO3MHA-11 | 2026-08-30 13:05:55 | 49.58011 | 13.16576 | 90° | 53km/h | 3280m | -9.5m/s | 4.3°C | 10.4% | 689.9hPa | 2.6V | 00:00:00 | 02:46:42 | 00:00:00 | |
| DO3MHA-11 | 2026-08-30 13:05:50 | 49.58010 | 13.16473 | 88° | 53km/h | 3328m | -9.3m/s | 4.0°C | 10.2% | 685.8hPa | 2.6V | 00:00:00 | 02:46:37 | 00:00:00 | |
| DO3MHA-11 | 2026-08-30 13:05:45 | 49.58006 | 13.16370 | 85° | 53km/h | 3374m | -9.0m/s | 3.7°C | 9.9% | 681.9hPa | 2.7V | 00:00:00 | 02:46:32 | 00:00:00 | |
| DO3MHA-11 | 2026-08-30 13:05:40 | 49.57999 | 13.16269 | 85° | 51km/h | 3420m | -9.1m/s | 3.4°C | 13.4% | 678.1hPa | 2.7V | 03:01:00 | 02:46:27 | 00:00:00 | |
| DO3MHA-11 | 2026-08-30 13:05:35 | 49.57991 | 13.16169 | 83° | 51km/h | 3465m | -9.6m/s | 3.4°C | 10.0% | 674.4hPa | 2.7V | 00:00:00 | 02:46:22 | 00:00:00 | |
| DO3MHA-11 | 2026-08-30 13:05:30 | 49.57982 | 13.16072 | 83° | 51km/h | 3511m | -9.5m/s | 3.1°C | 8.7% | 670.5hPa | 2.7V | 00:00:00 | 02:46:17 | 00:00:00 | |
| DO3MHA-11 | 2026-08-30 13:05:25 | 49.57973 | 13.15973 | 83° | 51km/h | 3557m | -8.9m/s | 2.7°C | 8.9% | 666.7hPa | 2.7V | 00:00:00 | 02:46:12 | 00:00:00 | |
| DO3MHA-11 | 2026-08-30 13:05:20 | 49.57964 | 13.15875 | 81° | 51km/h | 3604m | -9.3m/s | 2.4°C | 9.7% | 663.0hPa | 2.7V | 03:02:00 | 02:46:07 | 00:00:00 | |
| DO3MHA-11 | 2026-08-30 13:04:55 | 49.57890 | 13.15410 | 73° | 51km/h | 3839m | -9.8m/s | 1.1°C | 9.9% | 643.9hPa | 2.7V | 00:00:00 | 02:45:42 | 00:00:00 | |
| DO3MHA-11 | 2026-08-30 13:04:50 | 49.57872 | 13.15314 | 73° | 51km/h | 3889m | -10.2m/s | 0.8°C | 9.2% | 639.9hPa | 2.7V | 00:00:00 | 02:45:37 | 00:00:00 | |
| DO3MHA-11 | 2026-08-30 13:04:45 | 49.57851 | 13.15218 | 72° | 51km/h | 3938m | -9.7m/s | 0.7°C | 7.2% | 635.9hPa | 2.7V | 00:00:00 | 02:45:32 | 00:00:00 | |
| DO3MHA-11 | 2026-08-30 13:04:36 | 49.57815 | 13.15047 | 74° | 49km/h | 4024m | -9.7m/s | 0.2°C | 8.0% | 629.2hPa | 2.7V | 03:02:00 | 02:45:23 | 00:00:00 | |
| DO3MHA-11 | 2026-08-30 13:04:31 | 49.57796 | 13.14955 | 73° | 49km/h | 4071m | -9.0m/s | -0.0°C | 8.6% | 625.4hPa | 2.7V | 00:00:00 | 02:45:18 | 00:00:00 | |
| DO3MHA-11 | 2026-08-30 13:04:26 | 49.57777 | 13.14863 | 74° | 49km/h | 4117m | -9.3m/s | -0.3°C | 8.1% | 621.9hPa | 2.7V | 00:00:00 | 02:45:13 | 00:00:00 | |
| OE5MMP-10 | 2026-08-30 13:04:23 | 49.57767 | 13.14807 | 74° | 58km/h | 4144m | -9.4m/s | -0.4°C | 7.6% | 619.8hPa | 2.6V | 00:00:00 | 02:45:10 | 00:00:00 | |
| DO3MHA-11 | 2026-08-30 13:04:21 | 49.57760 | 13.14770 | 74° | 51km/h | 4163m | -9.0m/s | -0.4°C | 7.3% | 618.5hPa | 2.6V | 00:00:00 | 02:45:08 | 00:00:00 | |
| DO3MHA-11 | 2026-08-30 13:04:16 | 49.57741 | 13.14675 | 73° | 51km/h | 4208m | -8.9m/s | -0.6°C | 7.6% | 614.8hPa | 2.6V | 03:03:00 | 02:45:03 | 00:00:00 | |
| DO3MHA-11 | 2026-08-30 13:04:11 | 49.57722 | 13.14580 | 73° | 51km/h | 4252m | -8.6m/s | -0.9°C | 8.3% | 611.5hPa | 2.6V | 00:00:00 | 02:44:58 | 00:00:00 | |
| DO3MHA-11 | 2026-08-30 13:04:06 | 49.57702 | 13.14487 | 73° | 49km/h | 4297m | -8.5m/s | -1.2°C | 11.9% | 608.0hPa | 2.7V | 00:00:00 | 02:44:53 | 00:00:00 | |
| DO3MHA-11 | 2026-08-30 13:04:01 | 49.57683 | 13.14394 | 74° | 49km/h | 4341m | -9.0m/s | -1.5°C | 11.7% | 604.7hPa | 2.7V | 00:00:00 | 02:44:48 | 00:00:00 | |
| DO3MHA-11 | 2026-08-30 13:03:56 | 49.57666 | 13.14301 | 76° | 49km/h | 4386m | -8.9m/s | -1.8°C | 11.0% | 601.4hPa | 2.7V | 03:03:00 | 02:44:43 | 00:00:00 | |
| DO3MHA-11 | 2026-08-30 13:03:51 | 49.57650 | 13.14207 | 76° | 51km/h | 4429m | -8.9m/s | -2.2°C | 11.0% | 598.0hPa | 2.7V | 00:00:00 | 02:44:38 | 00:00:00 | |
| DO3MHA-11 | 2026-08-30 13:03:46 | 49.57636 | 13.14111 | 80° | 51km/h | 4473m | -8.5m/s | -2.6°C | 11.7% | 594.7hPa | 2.7V | 00:00:00 | 02:44:33 | 00:00:00 | |
| DO3MHA-11 | 2026-08-30 13:03:41 | 49.57625 | 13.14014 | 81° | 51km/h | 4514m | -8.5m/s | -2.9°C | 9.3% | 591.6hPa | 2.7V | 00:00:00 | 02:44:28 | 00:00:00 | |
| DO3MHA-11 | 2026-08-30 13:03:36 | 49.57617 | 13.13916 | 84° | 51km/h | 4557m | -8.2m/s | -3.1°C | 5.9% | 588.4hPa | 2.6V | 03:03:00 | 02:44:23 | 00:00:00 | |
| DL6DJ-15 | 2026-08-30 13:03:35 | 49.57612 | 13.13857 | 84° | 49km/h | 4581m | -8.6m/s | -3.4°C | 5.7% | 586.6hPa | 2.6V | 00:00:00 | 00:00:00 | 00:00:00 | |
| DO3MHA-11 | 2026-08-30 13:03:31 | 49.57609 | 13.13817 | 84° | 49km/h | 4599m | -8.4m/s | -3.4°C | 6.4% | 585.3hPa | 2.6V | 00:00:00 | 02:44:18 | 00:00:00 | |
| OE5DRO-10 | 2026-08-30 13:03:17 | 49.57592 | 13.13541 | 86° | 53km/h | 4715m | -8.6m/s | -4.3°C | 6.6% | 576.6hPa | 2.6V | 00:00:00 | 00:00:00 | 00:00:00 | |
| DL6DJ-15 | 2026-08-30 13:03:05 | 49.57579 | 13.13259 | 85° | 53km/h | 4832m | -8.9m/s | -5.1°C | 8.7% | 568.1hPa | 2.6V | 00:00:00 | 00:00:00 | 00:00:00 | |
| OE5DRO-10 | 2026-08-30 13:02:46 | 49.57563 | 13.12902 | 87° | 57km/h | 4974m | -8.3m/s | -6.3°C | 13.6% | 557.9hPa | 2.6V | 00:00:00 | 00:00:00 | 00:00:00 | |
| DO3MHA-11 | 2026-08-30 13:02:40 | 49.57559 | 13.12772 | 88° | 53km/h | 5023m | -8.4m/s | -6.7°C | 14.0% | 554.4hPa | 2.6V | 00:00:00 | 02:43:27 | 00:00:00 | |
| OE5DRO-10 | 2026-08-30 13:02:30 | 49.57555 | 13.12556 | 90° | 51km/h | 5106m | -8.2m/s | -6.9°C | 10.7% | 548.6hPa | 2.7V | 00:00:00 | 00:00:00 | 00:00:00 | |
| OE5DRO-10 | 2026-08-30 13:02:14 | 49.57553 | 13.12233 | 88° | 47km/h | 5238m | -8.2m/s | -7.9°C | 10.1% | 539.3hPa | 2.7V | 03:05:00 | 00:00:00 | 00:00:00 | |
| DL6DJ-15 | 2026-08-30 13:02:02 | 49.57549 | 13.12013 | 89° | 47km/h | 5339m | -8.1m/s | -8.6°C | 8.6% | 532.5hPa | 2.7V | 00:00:00 | 00:00:00 | 00:00:00 | |
| DO3MHA-11 | 2026-08-30 13:01:59 | 49.57548 | 13.11957 | 90° | 49km/h | 5364m | -8.4m/s | -8.7°C | 8.8% | 530.6hPa | 2.7V | 00:00:00 | 02:42:46 | 00:00:00 | |
| OE5DRO-10 | 2026-08-30 13:01:58 | 49.57548 | 13.11938 | 89° | 49km/h | 5372m | -8.4m/s | -8.7°C | 8.4% | 530.2hPa | 2.7V | 00:00:00 | 00:00:00 | 00:00:00 | |
| DO3MHA-11 | 2026-08-30 13:01:49 | 49.57548 | 13.11768 | 91° | 51km/h | 5449m | -8.9m/s | -9.1°C | 9.2% | 524.9hPa | 2.7V | 03:05:00 | 02:42:36 | 00:00:00 | |
| OE5DRO-10 | 2026-08-30 13:01:42 | 49.57547 | 13.11630 | 90° | 53km/h | 5509m | -8.2m/s | -9.4°C | 11.0% | 520.9hPa | 2.7V | 00:00:00 | 00:00:00 | 00:00:00 | |
| DO3MHA-11 | 2026-08-30 13:01:39 | 49.57546 | 13.11569 | 90° | 55km/h | 5533m | -8.6m/s | -9.5°C | 11.3% | 519.2hPa | 2.7V | 00:00:00 | 02:42:26 | 00:00:00 | |
| DL6DJ-15 | 2026-08-30 13:01:31 | 49.57543 | 13.11401 | 87° | 55km/h | 5600m | -8.3m/s | -9.9°C | 10.0% | 514.7hPa | 2.6V | 00:00:00 | 00:00:00 | 00:00:00 | |
| DO3MHA-11 | 2026-08-30 13:01:27 | 49.57541 | 13.11316 | 88° | 55km/h | 5634m | -7.9m/s | -10.1°C | 10.1% | 512.4hPa | 2.6V | 00:00:00 | 02:42:14 | 00:00:00 | |
| OE5DRO-10 | 2026-08-30 13:01:23 | 49.57538 | 13.11233 | 88° | 51km/h | 5667m | -8.5m/s | -10.3°C | 9.8% | 510.1hPa | 2.6V | 00:00:00 | 00:00:00 | 00:00:00 | |
| OE5DRO-10 | 2026-08-30 13:01:04 | 49.57521 | 13.10852 | 88° | 55km/h | 5828m | -8.6m/s | -11.2°C | 9.0% | 499.5hPa | 2.6V | 03:06:00 | 00:00:00 | 00:00:00 | |
| DL6DJ-15 | 2026-08-30 13:01:00 | 49.57518 | 13.10767 | 88° | 53km/h | 5862m | -8.5m/s | -11.5°C | 7.9% | 497.4hPa | 2.6V | 00:00:00 | 00:00:00 | 00:00:00 | |
| DO3MHA-11 | 2026-08-30 13:00:50 | 49.57513 | 13.10550 | 88° | 57km/h | 5950m | -8.8m/s | -12.0°C | 8.2% | 491.7hPa | 2.6V | 00:00:00 | 02:41:37 | 00:00:00 | |
| OE5DRO-10 | 2026-08-30 13:00:45 | 49.57510 | 13.10439 | 87° | 58km/h | 5994m | -8.7m/s | -12.2°C | 7.8% | 488.9hPa | 2.6V | 00:00:00 | 00:00:00 | 00:00:00 | |
| DO3MHA-11 | 2026-08-30 13:00:40 | 49.57506 | 13.10328 | 87° | 58km/h | 6037m | -8.6m/s | -12.6°C | 8.0% | 486.1hPa | 2.6V | 03:06:00 | 02:41:27 | 00:00:00 | |
| DO3MHA-11 | 2026-08-30 13:00:30 | 49.57491 | 13.10103 | 83° | 58km/h | 6126m | -9.0m/s | -13.3°C | 8.1% | 480.4hPa | 2.6V | 00:00:00 | 02:41:17 | 00:00:00 | |
| DL6DJ-15 | 2026-08-30 13:00:29 | 49.57489 | 13.10080 | 81° | 58km/h | 6134m | -8.8m/s | -13.4°C | 7.5% | 479.9hPa | 2.6V | 00:00:00 | 00:00:00 | 00:00:00 | |
| OE5DRO-10 | 2026-08-30 13:00:25 | 49.57481 | 13.09990 | 84° | 60km/h | 6170m | -9.1m/s | -13.4°C | 8.3% | 477.7hPa | 2.6V | 00:00:00 | 00:00:00 | 00:00:00 | |
| DO3MHA-11 | 2026-08-30 13:00:20 | 49.57471 | 13.09876 | 84° | 60km/h | 6215m | -9.1m/s | -13.8°C | 8.0% | 474.7hPa | 2.6V | 00:00:00 | 02:41:07 | 00:00:00 | |
| ANDY1245 | 2026-08-30 13:00:17 | 49.57467 | 13.09807 | 84° | 60km/h | 6243m | -9.3m/s | -14.1°C | 7.5% | 473.1hPa | 2.6V | 00:00:00 | 00:00:00 | 00:00:00 | |
| DO3MHA-11 | 2026-08-30 13:00:10 | 49.57456 | 13.09645 | 85° | 62km/h | 6307m | -9.2m/s | -14.6°C | 9.4% | 469.0hPa | 2.6V | 00:00:00 | 02:40:57 | 00:00:00 | |
| OE5DRO-10 | 2026-08-30 13:00:06 | 49.57447 | 13.09502 | 84° | 62km/h | 6361m | -9.4m/s | -15.0°C | 9.8% | 465.6hPa | 2.6V | 00:00:00 | 00:00:00 | 00:00:00 | |
| DL6DJ-15 | 2026-08-30 12:59:58 | 49.57436 | 13.09360 | 82° | 62km/h | 6418m | -9.4m/s | -15.5°C | 9.2% | 462.3hPa | 2.7V | 00:00:00 | 00:00:00 | 00:00:00 | |
| DO3MHA-11 | 2026-08-30 12:59:50 | 49.57418 | 13.09169 | 82° | 64km/h | 6492m | -9.1m/s | -16.0°C | 10.5% | 457.6hPa | 2.7V | 00:00:00 | 02:40:37 | 00:00:00 | |
| OE5DRO-10 | 2026-08-30 12:59:43 | 49.57402 | 13.08997 | 83° | 64km/h | 6558m | -9.1m/s | -16.6°C | 10.5% | 453.6hPa | 2.7V | 03:07:00 | 00:00:00 | 00:00:00 | |
| DO3MHA-11 | 2026-08-30 12:59:40 | 49.57395 | 13.08924 | 83° | 64km/h | 6585m | -10.1m/s | -16.8°C | 9.9% | 451.8hPa | 2.7V | 00:00:00 | 02:40:27 | 00:00:00 | |
| DO3MHA-11 | 2026-08-30 12:59:30 | 49.57374 | 13.08677 | 84° | 64km/h | 6682m | -9.6m/s | -17.6°C | 9.9% | 446.2hPa | 2.6V | 00:00:00 | 02:40:17 | 00:00:00 | |
| DL6DJ-15 | 2026-08-30 12:59:27 | 49.57368 | 13.08603 | 83° | 62km/h | 6710m | -9.9m/s | -17.9°C | 9.7% | 444.5hPa | 2.6V | 00:00:00 | 00:00:00 | 00:00:00 | |
| OE5DRO-10 | 2026-08-30 12:59:24 | 49.57362 | 13.08529 | 84° | 64km/h | 6739m | -10.0m/s | -18.0°C | 10.2% | 442.8hPa | 2.6V | 00:00:00 | 00:00:00 | 00:00:00 | |
| DO3MHA-11 | 2026-08-30 12:59:13 | 49.57345 | 13.08257 | 86° | 66km/h | 6844m | -9.5m/s | -18.8°C | 8.7% | 436.5hPa | 2.6V | 03:08:00 | 02:40:00 | 00:00:00 | |
| OE5DRO-10 | 2026-08-30 12:59:05 | 49.57339 | 13.08053 | 90° | 68km/h | 6920m | -9.8m/s | -19.3°C | 8.6% | 432.1hPa | 2.6V | 00:00:00 | 00:00:00 | 00:00:00 | |
| DO3MHA-11 | 2026-08-30 12:59:03 | 49.57338 | 13.08001 | 90° | 68km/h | 6939m | -10.2m/s | -19.4°C | 8.6% | 430.9hPa | 2.7V | 00:00:00 | 02:39:50 | 00:00:00 | |
| DL6DJ-15 | 2026-08-30 12:58:56 | 49.57338 | 13.07792 | 89° | 66km/h | 7017m | -9.8m/s | -20.0°C | 8.5% | 426.6hPa | 2.6V | 00:00:00 | 00:00:00 | 00:00:00 | |
| DO3MHA-11 | 2026-08-30 12:58:53 | 49.57338 | 13.07740 | 92° | 68km/h | 7036m | -9.2m/s | -20.1°C | 10.8% | 425.4hPa | 2.6V | 00:00:00 | 02:39:40 | 00:00:00 | |
| OE5DRO-10 | 2026-08-30 12:58:46 | 49.57338 | 13.07558 | 90° | 69km/h | 7104m | -10.1m/s | -20.7°C | 16.6% | 421.6hPa | 2.6V | 00:00:00 | 00:00:00 | 00:00:00 | |
| DO3MHA-11 | 2026-08-30 12:58:43 | 49.57337 | 13.07479 | 89° | 69km/h | 7134m | -9.5m/s | -21.0°C | 17.3% | 420.0hPa | 2.6V | 00:00:00 | 02:39:30 | 00:00:00 | |
| DO3MHA-11 | 2026-08-30 12:58:33 | 49.57333 | 13.07210 | 90° | 69km/h | 7231m | -9.5m/s | -21.8°C | 18.4% | 414.4hPa | 2.6V | 03:08:00 | 02:39:20 | 00:00:00 | |
| OE5DRO-10 | 2026-08-30 12:58:27 | 49.57330 | 13.07047 | 88° | 69km/h | 7290m | -9.9m/s | -22.3°C | 18.5% | 411.0hPa | 2.6V | 03:09:00 | 00:00:00 | 00:00:00 | |
| DL6DJ-15 | 2026-08-30 12:58:25 | 49.57328 | 13.06966 | 88° | 69km/h | 7319m | -9.8m/s | -22.6°C | 17.2% | 409.4hPa | 2.6V | 00:00:00 | 00:00:00 | 00:00:00 | |
| DO3MHA-11 | 2026-08-30 12:58:22 | 49.57327 | 13.06886 | 90° | 73km/h | 7349m | -9.6m/s | -22.9°C | 20.1% | 407.8hPa | 2.6V | 00:00:00 | 02:39:08 | 00:00:00 | |
| SONDE2-11 | 2026-08-30 12:58:19 | 49.57326 | 13.06832 | 89° | 69km/h | 7368m | -10.3m/s | -23.1°C | 18.7% | 406.7hPa | 2.6V | 00:00:00 | 00:00:00 | 00:00:00 | |
| DO8TBO-1 | 2026-08-30 12:58:13 | 49.57324 | 13.06668 | 89° | 73km/h | 7427m | -10.1m/s | -23.5°C | 21.7% | 403.4hPa | 2.6V | 00:00:00 | 02:39:00 | 00:00:00 | |
| OE5DRO-10 | 2026-08-30 12:58:08 | 49.57323 | 13.06531 | 90° | 69km/h | 7476m | -9.9m/s | -23.8°C | 21.8% | 400.6hPa | 2.6V | 00:00:00 | 00:00:00 | 00:00:00 | |
| DL6DJ-15 | 2026-08-30 12:57:54 | 49.57319 | 13.06122 | 89° | 68km/h | 7626m | -10.3m/s | -24.6°C | 17.4% | 392.6hPa | 2.6V | 00:00:00 | 00:00:00 | 00:00:00 | |
| SONDE2-11 | 2026-08-30 12:57:48 | 49.57318 | 13.05960 | 89° | 68km/h | 7687m | -10.0m/s | -25.1°C | 19.2% | 389.3hPa | 2.6V | 00:00:00 | 00:00:00 | 00:00:00 | |
| EDDB2-12 | 2026-08-30 12:57:38 | 49.57313 | 13.05712 | 88° | 69km/h | 7779m | -10.4m/s | -25.8°C | 17.0% | 384.4hPa | 2.6V | 00:00:00 | 00:00:00 | 00:00:00 | |
| EDDB2-11 | 2026-08-30 12:57:31 | 49.57311 | 13.05518 | 90° | 71km/h | 7850m | -10.7m/s | -26.3°C | 18.1% | 380.7hPa | 2.6V | 00:00:00 | 00:00:00 | 00:00:00 | |
| OE5DRO-10 | 2026-08-30 12:57:30 | 49.57311 | 13.05490 | 91° | 75km/h | 7860m | -10.4m/s | -26.4°C | 20.2% | 380.1hPa | 2.6V | 00:00:00 | 00:00:00 | 00:00:00 | |
| DL6DJ-15 | 2026-08-30 12:57:23 | 49.57316 | 13.05260 | 92° | 73km/h | 7943m | -10.7m/s | -27.1°C | 20.2% | 375.8hPa | 2.6V | 00:00:00 | 00:00:00 | 00:00:00 | |
| OE5MMP-10 | 2026-08-30 12:57:21 | 49.57317 | 13.05232 | 94° | 77km/h | 7954m | -10.2m/s | -27.1°C | 24.3% | 375.2hPa | 2.6V | 00:00:00 | 02:38:08 | 00:00:00 | |
| SONDE2-11 | 2026-08-30 12:57:17 | 49.57319 | 13.05086 | 91° | 73km/h | 8006m | -10.4m/s | -27.5°C | 31.5% | 372.5hPa | 2.6V | 00:00:00 | 00:00:00 | 00:00:00 | |
| DO3MHA-11 | 2026-08-30 12:57:13 | 49.57320 | 13.04997 | 89° | 77km/h | 8037m | -10.3m/s | -27.7°C | 34.3% | 370.8hPa | 2.6V | 00:00:00 | 02:38:00 | 00:00:00 | |
| DO8TBO-1 | 2026-08-30 12:57:12 | 49.57320 | 13.04968 | 91° | 82km/h | 8047m | -10.1m/s | -27.8°C | 34.3% | 370.3hPa | 2.6V | 00:00:00 | 02:37:59 | 00:00:00 | |
| OE5DRO-10 | 2026-08-30 12:57:11 | 49.57319 | 13.04939 | 89° | 77km/h | 8057m | -10.4m/s | -27.9°C | 34.8% | 369.8hPa | 2.6V | 03:10:00 | 00:00:00 | 00:00:00 | |
| EDDB2-12 | 2026-08-30 12:57:07 | 49.57318 | 13.04790 | 89° | 75km/h | 8109m | -10.9m/s | -28.3°C | 37.3% | 367.1hPa | 2.6V | 00:00:00 | 00:00:00 | 00:00:00 | |
| OE5MMP-10 | 2026-08-30 12:57:06 | 49.57318 | 13.04790 | 90° | 77km/h | 8109m | -10.8m/s | -28.2°C | 41.0% | 367.1hPa | 2.6V | 03:10:00 | 02:37:53 | 00:00:00 | |
| DO3MHA-11 | 2026-08-30 12:57:03 | 49.57317 | 13.04700 | 91° | 77km/h | 8141m | -10.6m/s | -28.4°C | 48.3% | 365.5hPa | 2.7V | 00:00:00 | 02:37:50 | 00:00:00 | |
| EDDB2-11 | 2026-08-30 12:57:00 | 49.57317 | 13.04612 | 88° | 77km/h | 8173m | -10.8m/s | -28.7°C | 44.1% | 363.9hPa | 2.6V | 00:00:00 | 00:00:00 | 00:00:00 | |
| DL6DJ-15 | 2026-08-30 12:56:52 | 49.57317 | 13.04342 | 90° | 77km/h | 8269m | -11.1m/s | -29.6°C | 41.9% | 359.0hPa | 2.6V | 00:00:00 | 00:00:00 | 00:00:00 | |
| OE5MMP-10 | 2026-08-30 12:56:46 | 49.57319 | 13.04192 | 93° | 78km/h | 8324m | -10.7m/s | -30.1°C | 48.0% | 356.2hPa | 2.6V | 00:00:00 | 02:37:33 | 00:00:00 | |
| PG1ADW-2 | 2026-08-30 12:56:42 | 49.57321 | 13.04071 | 92° | 78km/h | 8367m | -10.9m/s | -30.5°C | 49.1% | 354.1hPa | 2.6V | 00:00:00 | 00:00:00 | 00:00:00 | |
| OE5MMP-10 | 2026-08-30 12:56:36 | 49.57325 | 13.03888 | 93° | 78km/h | 8431m | -11.3m/s | -31.0°C | 48.4% | 350.8hPa | 2.6V | 00:00:00 | 02:37:23 | 00:00:00 | |
| OE5DRO-10 | 2026-08-30 12:56:33 | 49.57328 | 13.03795 | 93° | 78km/h | 8465m | -11.2m/s | -31.2°C | 47.6% | 349.2hPa | 2.7V | 00:00:00 | 00:00:00 | 00:00:00 | |
| OE5DXL-15 | 2026-08-30 12:56:30 | 49.57329 | 13.03703 | 91° | 78km/h | 8497m | -11.2m/s | -31.4°C | 47.5% | 347.6hPa | 2.7V | 00:00:00 | 00:00:00 | 00:00:00 | |
| EDDB2-11 | 2026-08-30 12:56:29 | 49.57329 | 13.03672 | 90° | 80km/h | 8508m | -11.3m/s | -31.5°C | 42.9% | 347.1hPa | 2.7V | 00:00:00 | 00:00:00 | 00:00:00 | |
| OE5MMP-10 | 2026-08-30 12:56:26 | 49.57330 | 13.03580 | 93° | 78km/h | 8541m | -11.4m/s | -31.7°C | 47.9% | 345.4hPa | 2.7V | 03:11:00 | 02:37:13 | 00:00:00 | |
| PG1ADW-2 | 2026-08-30 12:56:22 | 49.57332 | 13.03459 | 92° | 78km/h | 8586m | -10.8m/s | -32.1°C | 47.7% | 343.3hPa | 2.7V | 00:00:00 | 02:37:09 | 00:00:00 | |
| DL6DJ-15 | 2026-08-30 12:56:21 | 49.57332 | 13.03399 | 91° | 78km/h | 8608m | -11.3m/s | -32.3°C | 43.0% | 342.2hPa | 2.7V | 00:00:00 | 00:00:00 | 00:00:00 | |
| OE5MMP-10 | 2026-08-30 12:56:16 | 49.57335 | 13.03278 | 92° | 82km/h | 8653m | -11.6m/s | -32.7°C | 47.5% | 340.0hPa | 2.7V | 00:00:00 | 02:37:03 | 00:00:00 | |
| SONDE2-11 | 2026-08-30 12:56:15 | 49.57336 | 13.03218 | 91° | 78km/h | 8676m | -11.4m/s | -32.9°C | 41.7% | 339.0hPa | 2.7V | 00:00:00 | 00:00:00 | 00:00:00 | |
| OE5DRO-10 | 2026-08-30 12:56:14 | 49.57336 | 13.03218 | 92° | 82km/h | 8676m | -11.3m/s | -32.8°C | 46.6% | 339.0hPa | 2.7V | 00:00:00 | 00:00:00 | 00:00:00 | |
| EDDB2-12 | 2026-08-30 12:56:05 | 49.57340 | 13.02906 | 90° | 82km/h | 8787m | -11.5m/s | -33.7°C | 38.8% | 333.6hPa | 2.6V | 00:00:00 | 00:00:00 | 00:00:00 | |
| EDDB2-11 | 2026-08-30 12:55:58 | 49.57342 | 13.02711 | 91° | 84km/h | 8855m | -11.5m/s | -34.1°C | 42.1% | 330.4hPa | 2.6V | 00:00:00 | 00:00:00 | 00:00:00 | |
| DL6DJ-15 | 2026-08-30 12:55:49 | 49.57339 | 13.02410 | 89° | 86km/h | 8957m | -11.7m/s | -34.9°C | 42.4% | 325.6hPa | 2.6V | 00:00:00 | 00:00:00 | 00:00:00 | |
| SONDE2-11 | 2026-08-30 12:55:44 | 49.57336 | 13.02209 | 86° | 88km/h | 9025m | -11.7m/s | -35.4°C | 46.4% | 322.4hPa | 2.6V | 00:00:00 | 00:00:00 | 00:00:00 | |
| PG1ADW-2 | 2026-08-30 12:55:43 | 49.57335 | 13.02174 | 87° | 91km/h | 9037m | -11.7m/s | -35.5°C | 52.5% | 321.8hPa | 2.6V | 03:11:00 | 00:00:00 | 00:00:00 | |
| OE5MMP-10 | 2026-08-30 12:55:41 | 49.57334 | 13.02140 | 87° | 91km/h | 9049m | -11.6m/s | -35.6°C | 52.5% | 321.3hPa | 2.6V | 03:11:00 | 02:36:28 | 00:00:00 | |
| OE5DRO-10 | 2026-08-30 12:55:36 | 49.57328 | 13.01963 | 88° | 91km/h | 9106m | -11.5m/s | -36.0°C | 52.0% | 318.7hPa | 2.6V | 00:00:00 | 00:00:00 | 00:00:00 | |
| EDDB2-12 | 2026-08-30 12:55:34 | 49.57325 | 13.01857 | 87° | 89km/h | 9140m | -11.9m/s | -36.3°C | 47.0% | 317.1hPa | 2.6V | 00:00:00 | 00:00:00 | 00:00:00 | |
| OE5MMP-10 | 2026-08-30 12:55:31 | 49.57322 | 13.01786 | 88° | 89km/h | 9164m | -12.2m/s | -36.4°C | 52.8% | 316.0hPa | 2.6V | 00:00:00 | 02:36:18 | 00:00:00 | |
| OE5DXL-15 | 2026-08-30 12:55:30 | 49.57321 | 13.01751 | 88° | 91km/h | 9176m | -12.2m/s | -36.5°C | 52.8% | 315.5hPa | 2.6V | 00:00:00 | 00:00:00 | 00:00:00 | |
| EDDB2-11 | 2026-08-30 12:55:27 | 49.57319 | 13.01647 | 88° | 88km/h | 9211m | -11.8m/s | -36.9°C | 46.8% | 313.9hPa | 2.6V | 00:00:00 | 00:00:00 | 00:00:00 | |
| PG1ADW-2 | 2026-08-30 12:55:22 | 49.57316 | 13.01472 | 88° | 93km/h | 9270m | -11.9m/s | -37.3°C | 56.5% | 311.3hPa | 2.6V | 00:00:00 | 00:00:00 | 00:00:00 | |
| OE5MMP-10 | 2026-08-30 12:55:21 | 49.57315 | 13.01436 | 88° | 91km/h | 9282m | -11.6m/s | -37.4°C | 56.8% | 310.8hPa | 2.6V | 00:00:00 | 02:36:08 | 00:00:00 | |
| DL6DJ-15 | 2026-08-30 12:55:18 | 49.57311 | 13.01328 | 87° | 91km/h | 9316m | -12.1m/s | -37.7°C | 50.2% | 309.2hPa | 2.6V | 00:00:00 | 00:00:00 | 00:00:00 | |
| OE5DRO-10 | 2026-08-30 12:55:17 | 49.57310 | 13.01292 | 88° | 93km/h | 9328m | -12.0m/s | -37.7°C | 57.0% | 308.6hPa | 2.6V | 00:00:00 | 00:00:00 | 00:00:00 | |
| SONDE2-11 | 2026-08-30 12:55:13 | 49.57304 | 13.01116 | 86° | 89km/h | 9386m | -12.1m/s | -38.3°C | 51.4% | 306.1hPa | 2.6V | 00:00:00 | 00:00:00 | 00:00:00 | |
| OE5MMP-10 | 2026-08-30 12:55:11 | 49.57303 | 13.01081 | 86° | 93km/h | 9398m | -12.1m/s | -38.3°C | 58.7% | 305.5hPa | 2.6V | 00:00:00 | 02:35:58 | 00:00:00 | |
| ANDY1245 | 2026-08-30 12:55:06 | 49.57295 | 13.00938 | 86° | 93km/h | 9446m | -12.1m/s | -38.8°C | 53.7% | 303.4hPa | 2.6V | 00:00:00 | 00:00:00 | 00:00:00 | |
| EDDB2-12 | 2026-08-30 12:55:03 | 49.57286 | 13.00755 | 85° | 95km/h | 9506m | -12.2m/s | -39.3°C | 56.5% | 300.8hPa | 2.6V | 00:00:00 | 00:00:00 | 00:00:00 | |
| EDDB2-11 | 2026-08-30 12:54:56 | 49.57276 | 13.00536 | 86° | 93km/h | 9577m | -12.3m/s | -39.9°C | 58.4% | 297.6hPa | 2.6V | 00:00:00 | 00:00:00 | 00:00:00 | |
| DL6DJ-15 | 2026-08-30 12:54:47 | 49.57260 | 13.00206 | 85° | 93km/h | 9687m | -12.2m/s | -40.9°C | 60.5% | 292.9hPa | 2.6V | 00:00:00 | 00:00:00 | 00:00:00 | |
| SONDE2-11 | 2026-08-30 12:54:42 | 49.57253 | 12.99985 | 87° | 93km/h | 9759m | -12.4m/s | -41.6°C | 60.4% | 289.9hPa | 2.6V | 00:00:00 | 00:00:00 | 00:00:00 | |
| OE5MMP-10 | 2026-08-30 12:54:41 | 49.57253 | 12.99984 | 88° | 95km/h | 9759m | -12.4m/s | -41.5°C | 68.9% | 289.8hPa | 2.6V | 00:00:00 | 02:35:28 | 00:00:00 | |
| OE5DRO-10 | 2026-08-30 12:54:40 | 49.57250 | 12.99910 | 88° | 97km/h | 9784m | -12.1m/s | -41.8°C | 69.0% | 288.8hPa | 2.6V | 03:12:00 | 00:00:00 | 00:00:00 | |
| DO3MHA-11 | 2026-08-30 12:54:39 | 49.57250 | 12.99910 | 88° | 95km/h | 9784m | -12.1m/s | -41.8°C | 69.0% | 288.8hPa | 2.6V | 00:00:00 | 02:35:26 | 00:00:00 | |
| ANDY1245 | 2026-08-30 12:54:33 | 49.57246 | 12.99727 | 89° | 93km/h | 9844m | -12.2m/s | -42.4°C | 59.7% | 286.3hPa | 2.6V | 00:00:00 | 00:00:00 | 00:00:00 | |
| EDDB2-12 | 2026-08-30 12:54:32 | 49.57243 | 12.99616 | 88° | 93km/h | 9880m | -12.3m/s | -42.7°C | 58.6% | 284.8hPa | 2.6V | 00:00:00 | 00:00:00 | 00:00:00 | |
| OE5MMP-10 | 2026-08-30 12:54:31 | 49.57243 | 12.99616 | 89° | 97km/h | 9880m | -12.2m/s | -42.7°C | 67.3% | 284.7hPa | 2.6V | 00:00:00 | 02:35:18 | 00:00:00 | |
| OE5DXL-15 | 2026-08-30 12:54:30 | 49.57242 | 12.99579 | 88° | 99km/h | 9893m | -12.2m/s | -42.8°C | 66.7% | 284.1hPa | 2.6V | 00:00:00 | 00:00:00 | 00:00:00 | |
| DO3MHA-11 | 2026-08-30 12:54:29 | 49.57242 | 12.99542 | 89° | 97km/h | 9904m | -11.8m/s | -42.9°C | 66.2% | 283.6hPa | 2.6V | 03:13:00 | 02:35:16 | 00:00:00 | |
| EDDB2-11 | 2026-08-30 12:54:25 | 49.57238 | 12.99393 | 87° | 95km/h | 9953m | -12.4m/s | -43.3°C | 57.7% | 281.6hPa | 2.6V | 00:00:00 | 00:00:00 | 00:00:00 | |
| PG1ADW-2 | 2026-08-30 12:54:22 | 49.57236 | 12.99279 | 89° | 100km/h | 9990m | -12.3m/s | -43.6°C | 67.9% | 280.1hPa | 2.6V | 03:13:00 | 00:00:00 | 00:00:00 | |
| OE5MMP-10 | 2026-08-30 12:54:21 | 49.57235 | 12.99241 | 88° | 100km/h | 10003m | -12.4m/s | -43.7°C | 68.4% | 279.5hPa | 2.6V | 03:13:00 | 02:35:08 | 00:00:00 | |
| OE5DRO-10 | 2026-08-30 12:54:20 | 49.57234 | 12.99202 | 89° | 100km/h | 10015m | -12.3m/s | -43.9°C | 69.1% | 279.0hPa | 2.6V | 00:00:00 | 00:00:00 | 00:00:00 | |
| DO3MHA-11 | 2026-08-30 12:54:19 | 49.57234 | 12.99164 | 90° | 100km/h | 10028m | -12.1m/s | -44.0°C | 69.9% | 278.5hPa | 2.6V | 00:00:00 | 02:35:06 | 00:00:00 | |
| DL6DJ-15 | 2026-08-30 12:54:16 | 49.57231 | 12.99047 | 88° | 100km/h | 10063m | -12.2m/s | -44.3°C | 60.5% | 277.1hPa | 2.7V | 00:00:00 | 00:00:00 | 00:00:00 | |
| SONDE2-11 | 2026-08-30 12:54:11 | 49.57228 | 12.98812 | 89° | 100km/h | 10137m | -12.2m/s | -44.9°C | 60.7% | 274.1hPa | 2.7V | 00:00:00 | 00:00:00 | 00:00:00 | |
| DO3MHA-11 | 2026-08-30 12:54:09 | 49.57227 | 12.98773 | 89° | 100km/h | 10149m | -12.3m/s | -45.0°C | 70.2% | 273.5hPa | 2.7V | 00:00:00 | 02:34:56 | 00:00:00 | |
| EDDB2-12 | 2026-08-30 12:54:01 | 49.57228 | 12.98420 | 90° | 102km/h | 10260m | -12.7m/s | -46.1°C | 56.8% | 269.1hPa | 2.7V | 00:00:00 | 00:00:00 | 00:00:00 | |
| EDDB2-11 | 2026-08-30 12:53:54 | 49.57231 | 12.98180 | 91° | 104km/h | 10335m | -12.7m/s | -46.5°C | 49.9% | 266.0hPa | 2.7V | 00:00:00 | 00:00:00 | 00:00:00 | |
| DL6DJ-15 | 2026-08-30 12:53:45 | 49.57243 | 12.97812 | 94° | 106km/h | 10448m | -12.5m/s | -47.6°C | 49.3% | 261.5hPa | 2.7V | 00:00:00 | 00:00:00 | 00:00:00 | |
| PG1ADW-2 | 2026-08-30 12:53:42 | 49.57250 | 12.97686 | 97° | 111km/h | 10487m | -13.0m/s | -47.8°C | 59.1% | 260.0hPa | 2.7V | 00:00:00 | 02:34:29 | 00:00:00 | |
| SONDE2-11 | 2026-08-30 12:53:40 | 49.57260 | 12.97560 | 97° | 110km/h | 10525m | -12.6m/s | -48.1°C | 50.9% | 258.5hPa | 2.7V | 00:00:00 | 00:00:00 | 00:00:00 | |
| DO3MHA-11 | 2026-08-30 12:53:38 | 49.57263 | 12.97517 | 97° | 111km/h | 10538m | -12.7m/s | -48.1°C | 60.6% | 258.0hPa | 2.7V | 03:13:00 | 02:34:25 | 00:00:00 | |
| OE5MMP-10 | 2026-08-30 12:53:33 | 49.57280 | 12.97302 | 97° | 111km/h | 10603m | -12.8m/s | -48.6°C | 62.7% | 255.5hPa | 2.7V | 00:00:00 | 02:34:20 | 00:00:00 | |
| OE5DXL-15 | 2026-08-30 12:53:30 | 49.57294 | 12.97132 | 97° | 120km/h | 10654m | -12.4m/s | -49.1°C | 64.9% | 253.5hPa | 2.7V | 00:00:00 | 00:00:00 | 00:00:00 | |
| EDDB2-12 | 2026-08-30 12:53:29 | 49.57294 | 12.97132 | 96° | 108km/h | 10654m | -12.5m/s | -49.1°C | 54.7% | 253.6hPa | 2.7V | 00:00:00 | 00:00:00 | 00:00:00 | |
| DO3MHA-11 | 2026-08-30 12:53:28 | 49.57297 | 12.97089 | 97° | 120km/h | 10666m | -12.6m/s | -49.2°C | 65.5% | 253.0hPa | 2.7V | 00:00:00 | 02:34:15 | 00:00:00 | |
| OE5MMP-10 | 2026-08-30 12:53:23 | 49.57312 | 12.96873 | 97° | 117km/h | 10729m | -12.3m/s | -49.7°C | 70.3% | 250.6hPa | 2.7V | 03:14:00 | 02:34:10 | 00:00:00 | |
| PG1ADW-2 | 2026-08-30 12:53:22 | 49.57315 | 12.96829 | 97° | 122km/h | 10742m | -12.5m/s | -49.8°C | 70.8% | 250.1hPa | 2.7V | 00:00:00 | 00:00:00 | 00:00:00 | |
| DL6DJ-15 | 2026-08-30 12:53:14 | 49.57344 | 12.96465 | 98° | 120km/h | 10844m | -13.0m/s | -50.2°C | 58.9% | 246.3hPa | 2.7V | 00:00:00 | 00:00:00 | 00:00:00 | |
| OE5MMP-10 | 2026-08-30 12:53:13 | 49.57349 | 12.96419 | 99° | 124km/h | 10857m | -12.8m/s | -50.2°C | 69.8% | 245.8hPa | 2.7V | 00:00:00 | 02:34:00 | 00:00:00 | |
| SONDE2-11 | 2026-08-30 12:53:08 | 49.57371 | 12.96182 | 98° | 122km/h | 10921m | -13.2m/s | -50.8°C | 57.7% | 243.4hPa | 2.7V | 00:00:00 | 00:00:00 | 00:00:00 | |
| OE5DRO-10 | 2026-08-30 12:53:04 | 49.57392 | 12.95989 | 101° | 133km/h | 10973m | -12.6m/s | -51.2°C | 68.5% | 241.5hPa | 2.7V | 00:00:00 | 00:00:00 | 00:00:00 | |
| EDDB2-12 | 2026-08-30 12:52:58 | 49.57428 | 12.95696 | 101° | 128km/h | 11050m | -12.8m/s | -51.9°C | 56.2% | 238.6hPa | 2.7V | 00:00:00 | 00:00:00 | 00:00:00 | |
| EDDB2-11 | 2026-08-30 12:52:52 | 49.57469 | 12.95392 | 102° | 137km/h | 11128m | -13.2m/s | -52.3°C | 54.2% | 235.8hPa | 2.7V | 00:00:00 | 00:00:00 | 00:00:00 | |
| OE5MMP-10 | 2026-08-30 12:52:51 | 49.57476 | 12.95340 | 103° | 141km/h | 11141m | -13.4m/s | -52.4°C | 65.3% | 235.2hPa | 2.7V | 00:00:00 | 02:33:38 | 00:00:00 | |
| OE5DRO-10 | 2026-08-30 12:52:45 | 49.57523 | 12.95023 | 104° | 142km/h | 11221m | -12.9m/s | -52.9°C | 62.7% | 232.4hPa | 2.7V | 00:00:00 | 00:00:00 | 00:00:00 | |
| DL6DJ-15 | 2026-08-30 12:52:43 | 49.57540 | 12.94916 | 102° | 141km/h | 11247m | -12.8m/s | -53.1°C | 49.8% | 231.4hPa | 2.7V | 00:00:00 | 00:00:00 | 00:00:00 | |
| DO3MHA-11 | 2026-08-30 12:52:42 | 49.57548 | 12.94862 | 104° | 144km/h | 11260m | -12.9m/s | -53.2°C | 60.0% | 230.9hPa | 2.7V | 00:00:00 | 02:33:29 | 00:00:00 | |
| OE5MMP-10 | 2026-08-30 12:52:41 | 49.57556 | 12.94808 | 104° | 142km/h | 11273m | -13.2m/s | -53.3°C | 59.0% | 230.4hPa | 2.7V | 03:14:00 | 02:33:28 | 00:00:00 | |
| SONDE2-11 | 2026-08-30 12:52:37 | 49.57590 | 12.94593 | 104° | 142km/h | 11326m | -13.7m/s | -53.8°C | 44.9% | 228.6hPa | 2.7V | 00:00:00 | 00:00:00 | 00:00:00 | |
| OE5MMP-10 | 2026-08-30 12:52:31 | 49.57644 | 12.94269 | 106° | 142km/h | 11407m | -13.4m/s | -54.3°C | 50.7% | 225.7hPa | 2.7V | 00:00:00 | 02:33:18 | 00:00:00 | |
| OE5DXL-15 | 2026-08-30 12:52:30 | 49.57673 | 12.94107 | 106° | 139km/h | 11449m | -13.7m/s | -54.2°C | 47.6% | 224.3hPa | 2.7V | 00:00:00 | 00:00:00 | 00:00:00 | |
| DO3MHA-11 | 2026-08-30 12:52:28 | 49.57692 | 12.94000 | 106° | 141km/h | 11476m | -13.5m/s | -54.4°C | 46.8% | 223.3hPa | 2.6V | 00:00:00 | 02:33:13 | 00:00:00 | |
| PG1ADW-2 | 2026-08-30 12:52:22 | 49.57730 | 12.93786 | 106° | 139km/h | 11529m | -13.1m/s | -54.9°C | 46.5% | 221.5hPa | 2.6V | 00:00:00 | 02:33:09 | 00:00:00 | |
| OE5MMP-10 | 2026-08-30 12:52:21 | 49.57739 | 12.93733 | 105° | 142km/h | 11542m | -13.0m/s | -55.0°C | 45.9% | 221.0hPa | 2.6V | 00:00:00 | 02:33:08 | 00:00:00 | |
| ANDY1245 | 2026-08-30 12:52:15 | 49.57784 | 12.93464 | 105° | 142km/h | 11610m | -13.5m/s | -55.7°C | 32.9% | 218.7hPa | 2.6V | 00:00:00 | 00:00:00 | 00:00:00 | |
| DL6DJ-15 | 2026-08-30 12:52:12 | 49.57818 | 12.93251 | 103° | 141km/h | 11663m | -13.7m/s | -56.1°C | 30.0% | 216.9hPa | 2.6V | 00:00:00 | 00:00:00 | 00:00:00 | |
| DO3MHA-11 | 2026-08-30 12:52:11 | 49.57826 | 12.93197 | 104° | 139km/h | 11677m | -13.5m/s | -56.1°C | 37.9% | 216.4hPa | 2.6V | 03:15:00 | 02:32:58 | 00:00:00 | |
| OE5DRO-10 | 2026-08-30 12:52:07 | 49.57859 | 12.92988 | 104° | 126km/h | 11731m | -13.5m/s | -56.1°C | 33.6% | 214.5hPa | 2.6V | 03:15:00 | 00:00:00 | 00:00:00 | |
| SONDE2-11 | 2026-08-30 12:52:06 | 49.57867 | 12.92936 | 103° | 135km/h | 11744m | -13.5m/s | -56.3°C | 24.8% | 214.1hPa | 2.6V | 00:00:00 | 00:00:00 | 00:00:00 | |
| EDDB2-12 | 2026-08-30 12:51:57 | 49.57945 | 12.92447 | 103° | 122km/h | 11878m | -13.5m/s | -56.9°C | 18.0% | 209.7hPa | 2.6V | 00:00:00 | 00:00:00 | 00:00:00 | |
| EDDB2-11 | 2026-08-30 12:51:50 | 49.57992 | 12.92128 | 101° | 115km/h | 11972m | -13.6m/s | -57.1°C | 14.0% | 206.6hPa | 2.6V | 00:00:00 | 00:00:00 | 00:00:00 | |
| OE5DRO-10 | 2026-08-30 12:51:48 | 49.57998 | 12.92084 | 102° | 104km/h | 11986m | -13.6m/s | -57.1°C | 19.9% | 206.0hPa | 2.6V | 00:00:00 | 00:00:00 | 00:00:00 | |
| PG1ADW-2 | 2026-08-30 12:51:42 | 49.58027 | 12.91828 | 99° | 100km/h | 12066m | -13.4m/s | -56.5°C | 16.1% | 203.4hPa | 2.6V | 03:15:00 | 00:00:00 | 00:00:00 | |
| OE5MMP-10 | 2026-08-30 12:51:41 | 49.58031 | 12.91787 | 98° | 100km/h | 12080m | -13.1m/s | -56.3°C | 15.4% | 203.0hPa | 2.6V | 00:00:00 | 02:32:28 | 00:00:00 | |
| DO3MHA-11 | 2026-08-30 12:51:35 | 49.58045 | 12.91553 | 92° | 97km/h | 12161m | -13.5m/s | -55.9°C | 13.1% | 200.4hPa | 2.6V | 00:00:00 | 02:32:22 | 00:00:00 | |
| OE5MMP-10 | 2026-08-30 12:51:31 | 49.58045 | 12.91401 | 89° | 102km/h | 12215m | -13.6m/s | -55.9°C | 11.9% | 198.7hPa | 2.6V | 00:00:00 | 02:32:18 | 00:00:00 | |
| OE5DRO-10 | 2026-08-30 12:51:30 | 49.58044 | 12.91324 | 88° | 110km/h | 12242m | -13.6m/s | -55.7°C | 11.1% | 197.9hPa | 2.6V | 00:00:00 | 00:00:00 | 00:00:00 | |
| DO8TBO-1 | 2026-08-30 12:51:25 | 49.58038 | 12.91167 | 86° | 104km/h | 12295m | -13.1m/s | -55.5°C | 10.0% | 196.3hPa | 2.7V | 03:16:00 | 02:32:12 | 00:00:00 | |
| PG1ADW-2 | 2026-08-30 12:51:22 | 49.58034 | 12.91045 | 88° | 115km/h | 12334m | -13.7m/s | -55.4°C | 9.6% | 195.0hPa | 2.7V | 00:00:00 | 00:00:00 | 00:00:00 | |
| OE5MMP-10 | 2026-08-30 12:51:21 | 49.58032 | 12.91003 | 87° | 113km/h | 12348m | -14.0m/s | -55.2°C | 9.3% | 194.6hPa | 2.7V | 03:16:00 | 02:32:08 | 00:00:00 | |
| EDDB2-11 | 2026-08-30 12:51:19 | 49.58028 | 12.90874 | 86° | 111km/h | 12389m | -13.8m/s | -55.0°C | 5.1% | 193.4hPa | 2.7V | 00:00:00 | 00:00:00 | 00:00:00 | |
| ANDY1245 | 2026-08-30 12:51:16 | 49.58026 | 12.90830 | 88° | 113km/h | 12403m | -14.0m/s | -55.1°C | 5.1% | 192.9hPa | 2.7V | 00:00:00 | 00:00:00 | 00:00:00 | |
| OE5MMP-10 | 2026-08-30 12:51:11 | 49.58015 | 12.90562 | 87° | 117km/h | 12487m | -14.0m/s | -55.6°C | 8.9% | 190.4hPa | 2.7V | 00:00:00 | 02:31:58 | 00:00:00 | |
| DL6DJ-15 | 2026-08-30 12:51:10 | 49.58011 | 12.90471 | 86° | 115km/h | 12514m | -13.4m/s | -55.6°C | 4.8% | 189.6hPa | 2.7V | 00:00:00 | 00:00:00 | 00:00:00 | |
| SP3BTT-10 | 2026-08-30 12:51:04 | 49.58005 | 12.90246 | 90° | 95km/h | 12582m | -13.7m/s | -55.4°C | 8.3% | 187.5hPa | 2.7V | 00:00:00 | 00:00:00 | 00:00:00 | |
| EDDB2-12 | 2026-08-30 12:50:54 | 49.58024 | 12.89804 | 96° | 111km/h | 12720m | -13.8m/s | -54.5°C | 3.9% | 183.6hPa | 2.7V | 00:00:00 | 00:00:00 | 00:00:00 | |
| EDDB2-11 | 2026-08-30 12:50:48 | 49.58043 | 12.89508 | 93° | 106km/h | 12817m | -13.9m/s | -54.3°C | 3.6% | 180.8hPa | 2.7V | 00:00:00 | 00:00:00 | 00:00:00 | |
| ANDY1245 | 2026-08-30 12:50:46 | 49.58043 | 12.89508 | 94° | 106km/h | 12817m | -13.9m/s | -54.3°C | 3.6% | 180.8hPa | 2.7V | 00:00:00 | 00:00:00 | 00:00:00 | |
| PG1ADW-2 | 2026-08-30 12:50:42 | 49.58045 | 12.89304 | 89° | 102km/h | 12887m | -13.8m/s | -54.0°C | 6.7% | 178.8hPa | 2.7V | 00:00:00 | 00:00:00 | 00:00:00 | |
| OE5MMP-10 | 2026-08-30 12:50:41 | 49.58044 | 12.89264 | 88° | 104km/h | 12901m | -14.1m/s | -53.9°C | 6.6% | 178.4hPa | 2.7V | 03:16:00 | 02:31:28 | 00:00:00 | |
| DL6DJ-15 | 2026-08-30 12:50:39 | 49.58040 | 12.89143 | 86° | 102km/h | 12942m | -14.0m/s | -54.2°C | 3.3% | 177.3hPa | 2.6V | 00:00:00 | 00:00:00 | 00:00:00 | |
| OE5DRO-10 | 2026-08-30 12:50:33 | 49.58034 | 12.88904 | 89° | 99km/h | 13028m | -14.9m/s | -54.4°C | 6.5% | 174.9hPa | 2.6V | 00:00:00 | 00:00:00 | 00:00:00 | |
| OE5MMP-10 | 2026-08-30 12:50:31 | 49.58034 | 12.88864 | 90° | 100km/h | 13043m | -14.4m/s | -54.2°C | 6.4% | 174.5hPa | 2.6V | 00:00:00 | 02:31:18 | 00:00:00 | |
| OE5DXL-15 | 2026-08-30 12:50:30 | 49.58034 | 12.88747 | 91° | 99km/h | 13085m | -14.4m/s | -54.0°C | 6.1% | 173.4hPa | 2.6V | 00:00:00 | 00:00:00 | 00:00:00 | |
| DG1MFX-10 | 2026-08-30 12:50:26 | 49.58033 | 12.88708 | 90° | 100km/h | 13100m | -14.3m/s | 0°C | 0% | 173.0hPa | 2.6V | 00:00:00 | 00:00:00 | 00:00:00 | |
| EDDB2-12 | 2026-08-30 12:50:23 | 49.58032 | 12.88554 | 88° | 99km/h | 13156m | -14.3m/s | -53.7°C | 2.7% | 171.5hPa | 2.6V | 00:00:00 | 00:00:00 | 00:00:00 | |
| PG1ADW-2 | 2026-08-30 12:50:22 | 49.58031 | 12.88515 | 88° | 97km/h | 13170m | -14.1m/s | -53.6°C | 5.8% | 171.1hPa | 2.6V | 03:17:00 | 00:00:00 | 00:00:00 | |
| OE5MMP-10 | 2026-08-30 12:50:21 | 49.58030 | 12.88477 | 88° | 97km/h | 13185m | -14.3m/s | -53.7°C | 5.8% | 170.7hPa | 2.6V | 00:00:00 | 02:31:08 | 00:00:00 | |
| EDDB2-11 | 2026-08-30 12:50:17 | 49.58024 | 12.88289 | 86° | 95km/h | 13256m | -13.9m/s | -53.7°C | 2.6% | 168.9hPa | 2.6V | 00:00:00 | 00:00:00 | 00:00:00 | |
| OE5DRO-10 | 2026-08-30 12:50:13 | 49.58020 | 12.88177 | 87° | 95km/h | 13299m | -14.8m/s | -53.2°C | 5.6% | 167.7hPa | 2.6V | 00:00:00 | 00:00:00 | 00:00:00 | |
| DO3MHA-11 | 2026-08-30 12:50:12 | 49.58019 | 12.88140 | 87° | 97km/h | 13314m | -14.6m/s | -53.1°C | 5.5% | 167.3hPa | 2.6V | 00:00:00 | 02:30:59 | 00:00:00 | |
| OE5MMP-10 | 2026-08-30 12:50:11 | 49.58017 | 12.88103 | 87° | 97km/h | 13328m | -14.2m/s | -52.9°C | 5.4% | 166.9hPa | 2.6V | 00:00:00 | 02:30:58 | 00:00:00 | |
| DL6DJ-15 | 2026-08-30 12:50:08 | 49.58013 | 12.87952 | 88° | 97km/h | 13386m | -14.6m/s | -53.2°C | 2.4% | 165.5hPa | 2.7V | 00:00:00 | 00:00:00 | 00:00:00 | |
| DO8TBO-1 | 2026-08-30 12:50:05 | 49.58014 | 12.87877 | 92° | 78km/h | 13415m | -14.3m/s | -53.2°C | 5.5% | 164.7hPa | 2.7V | 00:00:00 | 02:30:52 | 00:00:00 | |
| SONDE2-11 | 2026-08-30 12:50:02 | 49.58016 | 12.87767 | 93° | 93km/h | 13458m | -14.5m/s | -52.7°C | 2.3% | 163.6hPa | 2.7V | 00:00:00 | 00:00:00 | 00:00:00 | |
| EDDB2-12 | 2026-08-30 12:49:52 | 49.58028 | 12.87419 | 89° | 82km/h | 13604m | -14.9m/s | -52.4°C | 2.1% | 159.9hPa | 2.7V | 00:00:00 | 00:00:00 | 00:00:00 | |
| EDDB2-11 | 2026-08-30 12:49:46 | 49.58023 | 12.87201 | 86° | 77km/h | 13710m | -15.1m/s | -52.4°C | 2.1% | 157.4hPa | 2.7V | 00:00:00 | 00:00:00 | 00:00:00 | |
| DO3MHA-11 | 2026-08-30 12:49:42 | 49.58019 | 12.87112 | 88° | 69km/h | 13755m | -14.9m/s | -52.4°C | 5.0% | 156.3hPa | 2.7V | 00:00:00 | 02:30:29 | 00:00:00 | |
| OE5MMP-10 | 2026-08-30 12:49:41 | 49.58019 | 12.87083 | 89° | 69km/h | 13770m | -15.2m/s | -52.3°C | 5.0% | 155.9hPa | 2.7V | 00:00:00 | 02:30:28 | 00:00:00 | |
| NBG1-10 | 2026-08-30 12:49:38 | 49.58018 | 12.86998 | 91° | 53km/h | 13816m | -15.4m/s | -52.2°C | 4.9% | 154.8hPa | 2.7V | 03:17:00 | 02:30:25 | 00:00:00 | |
| DL6DJ-15 | 2026-08-30 12:49:37 | 49.58018 | 12.86944 | 90° | 68km/h | 13846m | -15.2m/s | -52.4°C | 2.1% | 154.2hPa | 2.7V | 00:00:00 | 00:00:00 | 00:00:00 | |
| DO8TBO-1 | 2026-08-30 12:49:35 | 49.58018 | 12.86918 | 92° | 49km/h | 13862m | -15.1m/s | -52.4°C | 5.0% | 153.7hPa | 2.7V | 00:00:00 | 02:30:22 | 00:00:00 | |
| DO3MHA-11 | 2026-08-30 12:49:32 | 49.58019 | 12.86840 | 91° | 58km/h | 13907m | -15.0m/s | -52.5°C | 5.1% | 152.7hPa | 2.7V | 00:00:00 | 02:30:19 | 00:00:00 | |
| OE5MMP-10 | 2026-08-30 12:49:31 | 49.58019 | 12.86815 | 90° | 60km/h | 13922m | -15.4m/s | -52.6°C | 5.2% | 152.3hPa | 2.7V | 00:00:00 | 02:30:18 | 00:00:00 | |
| ANDY1245 | 2026-08-30 12:49:29 | 49.58019 | 12.86790 | 89° | 62km/h | 13937m | -15.5m/s | -52.7°C | 2.3% | 152.0hPa | 2.7V | 00:00:00 | 00:00:00 | 00:00:00 | |
| ANDY1245 | 2026-08-30 12:49:24 | 49.58014 | 12.86673 | 83° | 58km/h | 14014m | -15.5m/s | -52.7°C | 2.3% | 150.2hPa | 2.7V | 00:00:00 | 00:00:00 | 00:00:00 | |
| DO3MHA-11 | 2026-08-30 12:49:21 | 49.58006 | 12.86587 | 82° | 51km/h | 14076m | -15.4m/s | -53.0°C | 5.3% | 148.7hPa | 2.7V | 03:18:00 | 02:30:08 | 00:00:00 | |
| ANDY1245 | 2026-08-30 12:49:18 | 49.58002 | 12.86545 | 86° | 51km/h | 14107m | -15.5m/s | -53.1°C | 2.4% | 148.1hPa | 2.6V | 00:00:00 | 00:00:00 | 00:00:00 | |
| OE5DRO-10 | 2026-08-30 12:49:16 | 49.57997 | 12.86465 | 87° | 42km/h | 14169m | -15.7m/s | -53.3°C | 5.5% | 146.6hPa | 2.6V | 00:00:00 | 00:00:00 | 00:00:00 | |
| EDDB2-11 | 2026-08-30 12:49:15 | 49.57997 | 12.86446 | 89° | 47km/h | 14185m | -15.7m/s | -53.4°C | 2.4% | 146.3hPa | 2.6V | 00:00:00 | 00:00:00 | 00:00:00 | |
| OE5MMP-10 | 2026-08-30 12:49:11 | 49.57996 | 12.86392 | 89° | 40km/h | 14232m | -15.7m/s | -53.4°C | 5.4% | 145.2hPa | 2.6V | 00:00:00 | 02:29:58 | 00:00:00 | |
| DO3MHA-11 | 2026-08-30 12:49:10 | 49.57996 | 12.86374 | 90° | 44km/h | 14248m | -15.8m/s | -53.5°C | 5.4% | 144.8hPa | 2.6V | 00:00:00 | 02:29:57 | 00:00:00 | |
| DL6DJ-15 | 2026-08-30 12:49:06 | 49.57994 | 12.86292 | 88° | 40km/h | 14328m | -16.2m/s | -53.4°C | 2.3% | 143.1hPa | 2.6V | 00:00:00 | 00:00:00 | 00:00:00 | |
| OE5WHR-10 | 2026-08-30 12:49:04 | 49.57994 | 12.86277 | 85° | 31km/h | 14344m | -16.0m/s | -53.4°C | 5.3% | 142.7hPa | 2.6V | 00:00:00 | 00:00:00 | 00:00:00 | |
| SONDE2-11 | 2026-08-30 12:49:00 | 49.57990 | 12.86219 | 82° | 37km/h | 14408m | -16.3m/s | -53.6°C | 2.3% | 141.3hPa | 2.6V | 00:00:00 | 00:00:00 | 00:00:00 | |
| EDDB2-12 | 2026-08-30 12:48:51 | 49.57972 | 12.86082 | 74° | 38km/h | 14569m | -16.2m/s | -54.4°C | 2.3% | 137.8hPa | 2.6V | 00:00:00 | 00:00:00 | 00:00:00 | |
| EDDB2-11 | 2026-08-30 12:48:44 | 49.57946 | 12.85980 | 67° | 38km/h | 14683m | -16.1m/s | -55.2°C | 2.3% | 135.4hPa | 2.6V | 00:00:00 | 00:00:00 | 00:00:00 | |
| PG1ADW-2 | 2026-08-30 12:48:43 | 49.57946 | 12.85980 | 68° | 42km/h | 14683m | -16.1m/s | -55.1°C | 5.6% | 135.4hPa | 2.6V | 00:00:00 | 02:29:30 | 00:00:00 | |
| OE5MMP-10 | 2026-08-30 12:48:41 | 49.57938 | 12.85951 | 66° | 44km/h | 14715m | -15.9m/s | -55.2°C | 5.5% | 134.7hPa | 2.6V | 03:18:00 | 02:29:28 | 00:00:00 | |
| OE5DRO-10 | 2026-08-30 12:48:37 | 49.57919 | 12.85891 | 63° | 46km/h | 14779m | -16.3m/s | -55.3°C | 5.4% | 133.3hPa | 2.7V | 00:00:00 | 00:00:00 | 00:00:00 | |
| DL6DJ-15 | 2026-08-30 12:48:35 | 49.57902 | 12.85845 | 60° | 44km/h | 14828m | -15.9m/s | -55.7°C | 2.3% | 132.4hPa | 2.6V | 00:00:00 | 00:00:00 | 00:00:00 | |
| DO3MHA-11 | 2026-08-30 12:48:34 | 49.57902 | 12.85845 | 61° | 44km/h | 14828m | -15.8m/s | -55.7°C | 5.6% | 132.3hPa | 2.6V | 03:18:00 | 02:29:21 | 00:00:00 | |
| OE5MMP-10 | 2026-08-30 12:48:31 | 49.57886 | 12.85799 | 62° | 44km/h | 14875m | -15.5m/s | -56.0°C | 5.8% | 131.3hPa | 2.6V | 00:00:00 | 02:29:18 | 00:00:00 | |
| SONDE2-11 | 2026-08-30 12:48:29 | 49.57876 | 12.85770 | 63° | 42km/h | 14906m | -15.8m/s | -55.9°C | 2.3% | 130.8hPa | 2.6V | 00:00:00 | 00:00:00 | 00:00:00 | |
| DO3MHA-11 | 2026-08-30 12:48:24 | 49.57855 | 12.85694 | 71° | 51km/h | 14986m | -16.1m/s | -56.0°C | 5.7% | 129.1hPa | 2.6V | 00:00:00 | 02:29:11 | 00:00:00 | |
| PG1ADW-2 | 2026-08-30 12:48:23 | 49.57851 | 12.85678 | 73° | 53km/h | 15003m | -16.4m/s | -56.1°C | 5.7% | 128.7hPa | 2.6V | 00:00:00 | 00:00:00 | 00:00:00 | |
| OE5MMP-10 | 2026-08-30 12:48:21 | 49.57845 | 12.85642 | 78° | 53km/h | 15035m | -16.1m/s | -56.4°C | 5.9% | 128.1hPa | 2.6V | 00:00:00 | 02:29:08 | 00:00:00 | |
| EDDB2-12 | 2026-08-30 12:48:19 | 49.57840 | 12.85603 | 79° | 53km/h | 15067m | -16.3m/s | -56.5°C | 2.4% | 127.5hPa | 2.6V | 00:00:00 | 00:00:00 | 00:00:00 | |
| OE5DRO-10 | 2026-08-30 12:48:18 | 49.57837 | 12.85582 | 79° | 51km/h | 15083m | -16.1m/s | -56.4°C | 5.9% | 127.1hPa | 2.6V | 03:19:00 | 00:00:00 | 00:00:00 | |
| EDDB2-11 | 2026-08-30 12:48:12 | 49.57822 | 12.85457 | 81° | 55km/h | 15179m | -16.2m/s | -56.4°C | 2.2% | 125.2hPa | 2.6V | 00:00:00 | 00:00:00 | 00:00:00 | |
| OE5MMP-10 | 2026-08-30 12:48:11 | 49.57820 | 12.85436 | 82° | 51km/h | 15195m | -16.3m/s | -56.3°C | 5.7% | 124.9hPa | 2.6V | 00:00:00 | 02:28:58 | 00:00:00 | |
| DO3MHA-11 | 2026-08-30 12:48:10 | 49.57818 | 12.85414 | 83° | 49km/h | 15211m | -16.1m/s | -56.2°C | 5.6% | 124.6hPa | 2.6V | 00:00:00 | 02:28:57 | 00:00:00 | |
| ANDY1245 | 2026-08-30 12:48:05 | 49.57811 | 12.85332 | 86° | 51km/h | 15275m | -16.2m/s | -56.2°C | 2.1% | 123.3hPa | 2.6V | 00:00:00 | 00:00:00 | 00:00:00 | |
| SP3BTT-10 | 2026-08-30 12:48:03 | 49.57808 | 12.85275 | 88° | 42km/h | 15324m | -16.5m/s | -56.1°C | 5.5% | 122.4hPa | 2.6V | 00:00:00 | 00:00:00 | 00:00:00 | |
| SONDE2-11 | 2026-08-30 12:47:58 | 49.57805 | 12.85177 | 88° | 37km/h | 15423m | -16.8m/s | -55.6°C | 1.8% | 120.5hPa | 2.6V | 00:00:00 | 00:00:00 | 00:00:00 | |
| EDDB2-12 | 2026-08-30 12:47:48 | 49.57790 | 12.85043 | 72° | 40km/h | 15574m | -17.1m/s | -55.5°C | 1.7% | 117.7hPa | 2.6V | 00:00:00 | 00:00:00 | 00:00:00 | |
| PG1ADW-2 | 2026-08-30 12:47:43 | 49.57773 | 12.84972 | 72° | 35km/h | 15660m | -16.9m/s | -55.5°C | 4.8% | 116.1hPa | 2.6V | 00:00:00 | 00:00:00 | 00:00:00 | |
| OE5MMP-10 | 2026-08-30 12:47:41 | 49.57768 | 12.84946 | 72° | 33km/h | 15694m | -17.2m/s | -55.7°C | 4.9% | 115.4hPa | 2.6V | 00:00:00 | 02:28:28 | 00:00:00 | |
| DO3MHA-11 | 2026-08-30 12:47:40 | 49.57765 | 12.84950 | 75° | 33km/h | 15711m | -17.0m/s | -55.8°C | 4.9% | 115.1hPa | 2.7V | 00:00:00 | 02:28:27 | 00:00:00 | |
| DL6DJ-15 | 2026-08-30 12:47:32 | 49.57748 | 12.84834 | 74° | 33km/h | 15850m | -17.6m/s | -56.1°C | 1.6% | 112.7hPa | 2.7V | 00:00:00 | 00:00:00 | 00:00:00 | |
| OE5MMP-10 | 2026-08-30 12:47:31 | 49.57745 | 12.84821 | 70° | 38km/h | 15868m | -17.5m/s | -56.2°C | 4.9% | 112.3hPa | 2.7V | 00:00:00 | 02:28:18 | 00:00:00 | |
| DO3MHA-11 | 2026-08-30 12:47:30 | 49.57742 | 12.84809 | 71° | 38km/h | 15885m | -17.2m/s | -56.3°C | 5.0% | 112.0hPa | 2.7V | 00:00:00 | 02:28:17 | 00:00:00 | |
| DL1JEZ-13 | 2026-08-30 12:47:28 | 49.57739 | 12.84796 | 69° | 37km/h | 15902m | -17.8m/s | -56.3°C | 1.7% | 111.8hPa | 2.7V | 00:00:00 | 00:00:00 | 00:00:00 | |
| SP3BTT-10 | 2026-08-30 12:47:27 | 49.57731 | 12.84771 | 66° | 27km/h | 15937m | -17.7m/s | -56.2°C | 4.9% | 111.1hPa | 2.7V | 00:00:00 | 00:00:00 | 00:00:00 | |
| PG1ADW-2 | 2026-08-30 12:47:23 | 49.57712 | 12.84718 | 60° | 55km/h | 16007m | -18.2m/s | -56.6°C | 5.1% | 109.9hPa | 2.6V | 00:00:00 | 02:28:10 | 00:00:00 | |
| OE5MMP-10 | 2026-08-30 12:47:21 | 49.57702 | 12.84689 | 60° | 49km/h | 16044m | -18.3m/s | -56.9°C | 5.3% | 109.3hPa | 2.6V | 03:20:00 | 02:28:08 | 00:00:00 | |
| DO3MHA-11 | 2026-08-30 12:47:20 | 49.57696 | 12.84674 | 63° | 51km/h | 16062m | -17.7m/s | -57.0°C | 5.4% | 108.9hPa | 2.6V | 00:00:00 | 02:28:07 | 00:00:00 | |
| EDDB2-12 | 2026-08-30 12:47:17 | 49.57681 | 12.84626 | 65° | 49km/h | 16115m | -18.2m/s | -56.9°C | 1.7% | 108.1hPa | 2.6V | 00:00:00 | 00:00:00 | 00:00:00 | |
| EDDB2-11 | 2026-08-30 12:47:11 | 49.57641 | 12.84487 | 66° | 64km/h | 16242m | -18.2m/s | -56.6°C | 1.6% | 105.9hPa | 2.6V | 00:00:00 | 00:00:00 | 00:00:00 | |
| DO3MHA-11 | 2026-08-30 12:47:10 | 49.57641 | 12.84487 | 67° | 49km/h | 16242m | -18.1m/s | -56.6°C | 5.4% | 105.9hPa | 2.6V | 03:20:00 | 02:27:57 | 00:00:00 | |
| ANDY1245 | 2026-08-30 12:47:05 | 49.57613 | 12.84394 | 67° | 69km/h | 16314m | -18.2m/s | -56.3°C | 1.6% | 104.7hPa | 2.6V | 00:00:00 | 00:00:00 | 00:00:00 | |
| PG1ADW-2 | 2026-08-30 12:47:03 | 49.57593 | 12.84322 | 69° | 44km/h | 16368m | -18.2m/s | -56.3°C | 5.3% | 103.8hPa | 2.6V | 00:00:00 | 00:00:00 | 00:00:00 | |
| DL6DJ-15 | 2026-08-30 12:47:01 | 49.57582 | 12.84274 | 71° | 66km/h | 16403m | -18.3m/s | -56.2°C | 1.6% | 103.2hPa | 2.6V | 00:00:00 | 00:00:00 | 00:00:00 | |
| SONDE2-11 | 2026-08-30 12:46:56 | 49.57560 | 12.84155 | 76° | 58km/h | 16494m | -18.4m/s | -54.4°C | 1.4% | 101.8hPa | 2.6V | 00:00:00 | 00:00:00 | 00:00:00 | |
| SONCRA | 2026-08-30 12:46:49 | 49.57530 | 12.84009 | 71° | 51km/h | 16614m | -16.3m/s | 0°C | -1.0% | -1.0hPa | 2.6V | 00:00:00 | 00:00:00 | 00:00:00 | |
| EDDB2-12 | 2026-08-30 12:46:46 | 49.57518 | 12.83952 | 74° | 49km/h | 16667m | -19.9m/s | -53.9°C | 1.4% | 99.2hPa | 2.6V | 00:00:00 | 00:00:00 | 00:00:00 | |
| OE5DRO-10 | 2026-08-30 12:46:44 | 49.57508 | 12.83897 | 76° | 38km/h | 16727m | -20.0m/s | -52.6°C | 4.1% | 98.1hPa | 2.6V | 00:00:00 | 00:00:00 | 00:00:00 | |
| OE5MMP-10 | 2026-08-30 12:46:41 | 49.57503 | 12.83858 | 81° | 44km/h | 16767m | -20.4m/s | -52.8°C | 4.1% | 97.6hPa | 2.7V | 03:20:00 | 02:27:28 | 00:00:00 | |
| EDDB2-11 | 2026-08-30 12:46:39 | 49.57500 | 12.83820 | 86° | 46km/h | 16807m | -20.0m/s | -53.0°C | 1.2% | 97.0hPa | 2.7V | 00:00:00 | 00:00:00 | 00:00:00 | |
| DF8AY | 2026-08-30 12:46:20 | 49.57506 | 12.83594 | 69° | 18km/h | 17190m | -20.7m/s | 0°C | 0% | 0hPa | 2.7V | 18:12:15 | 02:27:07 | 00:00:00 | |
| DF8AY | 2026-08-30 12:46:04 | 49.57470 | 12.83544 | 15° | 11km/h | 17521m | -21.3m/s | 0°C | 0% | 0hPa | 2.6V | 18:12:15 | 02:26:51 | 00:00:00 | |
| DL6DJ-15 | 2026-08-30 12:45:59 | 49.57455 | 12.83530 | 38° | 13km/h | 17628m | -21.1m/s | -55.1°C | 1.3% | 85.4hPa | 2.6V | 00:00:00 | 00:00:00 | 00:00:00 | |
| SONDE2-11 | 2026-08-30 12:45:54 | 49.57440 | 12.83512 | 32° | 7km/h | 17756m | -21.4m/s | -54.8°C | 1.2% | 83.8hPa | 2.6V | 00:00:00 | 00:00:00 | 00:00:00 | |
| DO3MHA-11 | 2026-08-30 12:45:51 | 49.57436 | 12.83508 | 34° | 9km/h | 17799m | -21.8m/s | -54.7°C | 4.3% | 83.1hPa | 2.6V | 03:21:00 | 02:26:38 | 00:00:00 | |
| PG1ADW-2 | 2026-08-30 12:45:48 | 49.57432 | 12.83506 | 349° | 20km/h | 17863m | -21.4m/s | -54.3°C | 4.2% | 82.3hPa | 2.6V | 00:00:00 | 02:26:35 | 00:00:00 | |
| DL1JEZ-13 | 2026-08-30 12:45:47 | 49.57430 | 12.83507 | 352° | 9km/h | 17884m | -21.5m/s | -54.6°C | 1.2% | 82.0hPa | 2.6V | 03:22:00 | 00:00:00 | 00:00:00 | |
| PETON7-10 | 2026-08-30 12:45:46 | 49.57427 | 12.83507 | 358° | 15km/h | 17905m | -21.7m/s | -54.7°C | 4.3% | 81.7hPa | 2.6V | 00:00:00 | 02:26:33 | 00:00:00 | |
| EDDB2-12 | 2026-08-30 12:45:44 | 49.57422 | 12.83506 | 19° | 11km/h | 17948m | -22.0m/s | -55.0°C | 1.2% | 81.2hPa | 2.6V | 00:00:00 | 00:00:00 | 00:00:00 | |
| DO3MHA-11 | 2026-08-30 12:45:41 | 49.57413 | 12.83502 | 14° | 26km/h | 18014m | -21.8m/s | -55.5°C | 4.7% | 80.4hPa | 2.6V | 00:00:00 | 02:26:28 | 00:00:00 | |
| OE5WHR-10 | 2026-08-30 12:45:39 | 49.57405 | 12.83497 | 30° | 24km/h | 18057m | -22.1m/s | -55.6°C | 4.8% | 79.8hPa | 2.6V | 00:00:00 | 00:00:00 | 00:00:00 | |
| SP3BTT-10 | 2026-08-30 12:45:33 | 49.57372 | 12.83464 | 40° | 18km/h | 18188m | -22.2m/s | -55.4°C | 4.7% | 78.2hPa | 2.6V | 03:21:00 | 00:00:00 | 00:00:00 | |
| DO3MHA-11 | 2026-08-30 12:45:31 | 49.57359 | 12.83448 | 40° | 33km/h | 18232m | -22.4m/s | -55.5°C | 4.7% | 77.7hPa | 2.6V | 00:00:00 | 02:26:18 | 00:00:00 | |
| PG1ADW-2 | 2026-08-30 12:45:28 | 49.57338 | 12.83423 | 43° | 27km/h | 18299m | -22.1m/s | -55.7°C | 4.8% | 76.8hPa | 2.6V | 00:00:00 | 00:00:00 | 00:00:00 | |
| DL1JEZ-13 | 2026-08-30 12:45:25 | 49.57320 | 12.83395 | 48° | 29km/h | 18365m | -22.2m/s | -55.7°C | 1.4% | 76.1hPa | 2.6V | 03:22:00 | 00:00:00 | 00:00:00 | |
| DL2RXE-15 | 2026-08-30 12:45:23 | 49.57310 | 12.83378 | 50° | 29km/h | 18409m | -22.9m/s | -55.1°C | 0% | 75.6hPa | 2.6V | 00:00:00 | 00:00:00 | 00:00:00 | |
| DO3MHA-11 | 2026-08-30 12:45:21 | 49.57301 | 12.83359 | 58° | 27km/h | 18455m | -22.9m/s | -54.5°C | 4.5% | 75.0hPa | 2.6V | 00:00:00 | 02:26:08 | 00:00:00 | |
| EDDB2-12 | 2026-08-30 12:45:13 | 49.57278 | 12.83273 | 82° | 20km/h | 18658m | -22.9m/s | -54.6°C | 1.2% | 72.7hPa | 2.6V | 00:00:00 | 00:00:00 | 00:00:00 | |
| OE5MMP-10 | 2026-08-30 12:45:11 | 49.57277 | 12.83266 | 78° | 13km/h | 18681m | -22.9m/s | -54.6°C | 4.6% | 72.4hPa | 2.6V | 00:00:00 | 02:25:58 | 00:00:00 | |
| OE5WHR-10 | 2026-08-30 12:45:08 | 49.57275 | 12.83244 | 84° | 16km/h | 18751m | -22.7m/s | -54.6°C | 4.5% | 71.7hPa | 2.6V | 03:22:00 | 02:25:55 | 00:00:00 | |
| EDDB2-11 | 2026-08-30 12:45:06 | 49.57275 | 12.83234 | 92° | 9km/h | 18796m | -23.0m/s | -54.5°C | 1.2% | 71.2hPa | 2.6V | 00:00:00 | 00:00:00 | 00:00:00 | |
| DL6DJ-15 | 2026-08-30 12:44:57 | 49.57266 | 12.83220 | 5° | 7km/h | 19003m | -23.5m/s | -53.7°C | 1.1% | 68.9hPa | 2.6V | 00:00:00 | 00:00:00 | 00:00:00 | |
| SONDE2-11 | 2026-08-30 12:44:52 | 49.57249 | 12.83221 | 359° | 16km/h | 19143m | -23.8m/s | -54.2°C | 1.2% | 67.5hPa | 2.6V | 00:00:00 | 00:00:00 | 00:00:00 | |
| SP3BTT-10 | 2026-08-30 12:44:48 | 49.57236 | 12.83218 | 16° | 9km/h | 19214m | -23.5m/s | -53.8°C | 4.4% | 66.6hPa | 2.6V | 00:00:00 | 00:00:00 | 00:00:00 | |
| EDDB2-12 | 2026-08-30 12:44:42 | 49.57210 | 12.83190 | 57° | 15km/h | 19379m | -23.9m/s | -54.0°C | 1.2% | 65.0hPa | 2.6V | 00:00:00 | 00:00:00 | 00:00:00 | |
| DO3MHA-11 | 2026-08-30 12:44:41 | 49.57210 | 12.83190 | 58° | 16km/h | 19379m | -23.9m/s | -53.9°C | 4.4% | 64.9hPa | 2.6V | 00:00:00 | 02:25:28 | 00:00:00 | |
| OE5DRO-10 | 2026-08-30 12:44:35 | 49.57196 | 12.83156 | 55° | 9km/h | 19522m | -24.1m/s | -53.0°C | 4.0% | 63.5hPa | 2.6V | 00:00:00 | 00:00:00 | 00:00:00 | |
| OE5WHR-10 | 2026-08-30 12:44:34 | 49.57194 | 12.83152 | 49° | 7km/h | 19546m | -24.2m/s | -52.8°C | 4.0% | 63.3hPa | 2.6V | 00:00:00 | 00:00:00 | 00:00:00 | |
| PETON7-10 | 2026-08-30 12:44:32 | 49.57188 | 12.83145 | 44° | 11km/h | 19595m | -24.8m/s | -52.7°C | 3.8% | 62.8hPa | 2.7V | 00:00:00 | 00:00:00 | 00:00:00 | |
| OE5MMP-10 | 2026-08-30 12:44:31 | 49.57186 | 12.83140 | 52° | 11km/h | 19619m | -24.8m/s | -52.7°C | 3.9% | 62.6hPa | 2.7V | 00:00:00 | 02:25:18 | 00:00:00 | |
| DL6DJ-15 | 2026-08-30 12:44:26 | 49.57179 | 12.83117 | 88° | 7km/h | 19767m | -25.0m/s | -53.4°C | 1.1% | 61.2hPa | 2.7V | 00:00:00 | 00:00:00 | 00:00:00 | |
| SONDE2-11 | 2026-08-30 12:44:21 | 49.57182 | 12.83106 | 171° | 2km/h | 19890m | -24.8m/s | -53.9°C | 1.1% | 60.0hPa | 2.7V | 00:00:00 | 00:00:00 | 00:00:00 | |
| PG1ADW-2 | 2026-08-30 12:44:17 | 49.57182 | 12.83107 | 253° | 11km/h | 19965m | -25.3m/s | -54.0°C | 4.2% | 59.3hPa | 2.7V | 00:00:00 | 02:25:04 | 00:00:00 | |
| OE5DRO-10 | 2026-08-30 12:44:16 | 49.57182 | 12.83107 | 327° | 13km/h | 19990m | -25.3m/s | -54.0°C | 4.3% | 59.1hPa | 2.7V | 00:00:00 | 00:00:00 | 00:00:00 | |
| EDDB2-12 | 2026-08-30 12:44:11 | 49.57174 | 12.83121 | 329° | 11km/h | 20141m | -25.7m/s | -54.1°C | 1.2% | 57.8hPa | 2.6V | 00:00:00 | 00:00:00 | 00:00:00 | |
| OE5WHR-10 | 2026-08-30 12:44:07 | 49.57167 | 12.83127 | 331° | 7km/h | 20218m | -25.7m/s | -54.2°C | 4.4% | 57.0hPa | 2.6V | 00:00:00 | 00:00:00 | 00:00:00 | |
| EDDB2-11 | 2026-08-30 12:44:04 | 49.57155 | 12.83132 | 354° | 16km/h | 20294m | -25.8m/s | -54.7°C | 1.2% | 56.4hPa | 2.6V | 00:00:00 | 00:00:00 | 00:00:00 | |
| DL6DJ-15 | 2026-08-30 12:43:55 | 49.57121 | 12.83112 | 66° | 9km/h | 20554m | -26.5m/s | -54.1°C | 1.1% | 54.1hPa | 2.6V | 00:00:00 | 00:00:00 | 00:00:00 | |
| SONDE2-11 | 2026-08-30 12:43:50 | 49.57121 | 12.83106 | 177° | 0km/h | 20686m | -26.9m/s | -53.7°C | 1.0% | 53.0hPa | 2.6V | 00:00:00 | 00:00:00 | 00:00:00 | |
| SP3BTT-10 | 2026-08-30 12:43:47 | 49.57121 | 12.83107 | 242° | 9km/h | 20741m | -26.8m/s | -53.9°C | 4.2% | 52.6hPa | 2.6V | 00:00:00 | 00:00:00 | 00:00:00 | |
| DL2RXE-15 | 2026-08-30 12:43:42 | 49.57119 | 12.83114 | 316° | 7km/h | 20847m | -26.8m/s | -54.6°C | 0% | 51.7hPa | 2.6V | 03:23:00 | 00:00:00 | 00:00:00 | |
| OE5MMP-10 | 2026-08-30 12:43:41 | 49.57117 | 12.83116 | 8° | 9km/h | 20901m | -26.8m/s | -54.4°C | 4.4% | 51.3hPa | 2.6V | 00:00:00 | 02:24:28 | 00:00:00 | |
| EDDB2-12 | 2026-08-30 12:43:40 | 49.57114 | 12.83115 | 28° | 4km/h | 20954m | -26.9m/s | -54.6°C | 1.1% | 50.9hPa | 2.7V | 00:00:00 | 00:00:00 | 00:00:00 | |
| PETON7-10 | 2026-08-30 12:43:39 | 49.57114 | 12.83115 | 29° | 7km/h | 20955m | -26.9m/s | -54.5°C | 4.4% | 50.9hPa | 2.7V | 00:00:00 | 00:00:00 | 00:00:00 | |
| OE5DRO-10 | 2026-08-30 12:43:38 | 49.57113 | 12.83114 | 44° | 7km/h | 20981m | -27.0m/s | -54.5°C | 4.4% | 50.7hPa | 2.7V | 00:00:00 | 00:00:00 | 00:00:00 | |
| OE5WHR-10 | 2026-08-30 12:43:37 | 49.57112 | 12.83112 | 44° | 7km/h | 21008m | -27.0m/s | -54.5°C | 4.4% | 50.4hPa | 2.7V | 00:00:00 | 02:24:24 | 00:00:00 | |
| EDDB2-11 | 2026-08-30 12:43:33 | 49.57108 | 12.83097 | 84° | 13km/h | 21117m | -27.2m/s | -54.9°C | 1.1% | 49.6hPa | 2.7V | 00:00:00 | 00:00:00 | 00:00:00 | |
| OE5MMP-10 | 2026-08-30 12:43:31 | 49.57108 | 12.83089 | 116° | 5km/h | 21171m | -27.7m/s | -54.6°C | 4.3% | 49.1hPa | 2.7V | 00:00:00 | 02:24:18 | 00:00:00 | |
| DL6DJ-15 | 2026-08-30 12:43:24 | 49.57113 | 12.83090 | 276° | 5km/h | 21392m | -28.1m/s | -54.6°C | 1.1% | 47.5hPa | 2.7V | 00:00:00 | 00:00:00 | 00:00:00 | |
| OE5MMP-10 | 2026-08-30 12:43:21 | 49.57111 | 12.83095 | 326° | 13km/h | 21448m | -28.0m/s | -54.5°C | 4.4% | 47.1hPa | 2.7V | 03:24:00 | 02:24:08 | 00:00:00 | |
| DO3MHA-11 | 2026-08-30 12:43:20 | 49.57109 | 12.83096 | 341° | 15km/h | 21476m | -28.0m/s | -54.5°C | 4.4% | 46.9hPa | 2.7V | 03:24:00 | 02:24:07 | 00:00:00 | |
| SONDE2-11 | 2026-08-30 12:43:19 | 49.57104 | 12.83099 | 331° | 9km/h | 21531m | -28.2m/s | -54.8°C | 1.1% | 46.5hPa | 2.7V | 00:00:00 | 00:00:00 | 00:00:00 | |
| OE5WHR-10 | 2026-08-30 12:43:16 | 49.57099 | 12.83104 | 326° | 7km/h | 21587m | -28.1m/s | -55.1°C | 4.6% | 46.0hPa | 2.7V | 03:24:00 | 00:00:00 | 00:00:00 | |
| OE5MMP-10 | 2026-08-30 12:43:11 | 49.57082 | 12.83121 | 322° | 11km/h | 21729m | -28.5m/s | -55.0°C | 4.7% | 45.0hPa | 2.6V | 00:00:00 | 02:23:58 | 00:00:00 | |
| DL1JEZ-13 | 2026-08-30 12:43:09 | 49.57076 | 12.83128 | 319° | 15km/h | 21785m | -28.6m/s | -55.2°C | 1.3% | 44.7hPa | 2.6V | 03:24:00 | 00:00:00 | 00:00:00 | |
| EDDB2-11 | 2026-08-30 12:43:02 | 49.57061 | 12.83130 | 79° | 5km/h | 21987m | -29.5m/s | -54.6°C | 1.1% | 43.3hPa | 2.6V | 00:00:00 | 00:00:00 | 00:00:00 | |
| DL6DJ-15 | 2026-08-30 12:42:53 | 49.57063 | 12.83121 | 277° | 7km/h | 22282m | -30.0m/s | -54.1°C | 1.1% | 41.4hPa | 2.6V | 00:00:00 | 00:00:00 | 00:00:00 | |
| SONDE2-11 | 2026-08-30 12:42:47 | 49.57058 | 12.83144 | 287° | 16km/h | 22432m | -30.3m/s | -53.4°C | 1.1% | 40.4hPa | 2.6V | 00:00:00 | 00:00:00 | 00:00:00 | |
| OE5WHR-10 | 2026-08-30 12:42:45 | 49.57054 | 12.83156 | 301° | 18km/h | 22493m | -30.4m/s | -53.2°C | 4.3% | 40.0hPa | 2.6V | 00:00:00 | 00:00:00 | 00:00:00 | |
| DL1JEZ-13 | 2026-08-30 12:42:44 | 49.57055 | 12.83156 | 302° | 18km/h | 22493m | -30.4m/s | -53.3°C | 1.1% | 40.0hPa | 2.6V | 00:00:00 | 00:00:00 | 00:00:00 | |
| OE5MMP-10 | 2026-08-30 12:42:41 | 49.57045 | 12.83174 | 305° | 11km/h | 22615m | -30.6m/s | -53.0°C | 4.1% | 39.2hPa | 2.6V | 03:24:00 | 02:23:28 | 00:00:00 | |
| PETON7-10 | 2026-08-30 12:42:38 | 49.57042 | 12.83184 | 295° | 15km/h | 22706m | -31.0m/s | -53.1°C | 4.2% | 38.7hPa | 2.7V | 00:00:00 | 00:00:00 | 00:00:00 | |
| PG1ADW-2 | 2026-08-30 12:42:32 | 49.57034 | 12.83204 | 290° | 13km/h | 22893m | -31.6m/s | -52.3°C | 3.9% | 37.6hPa | 2.7V | 00:00:00 | 02:23:19 | 00:00:00 | |
| DL2RXE-15 | 2026-08-30 12:42:31 | 49.57032 | 12.83209 | 290° | 16km/h | 22924m | -31.9m/s | -52.2°C | 0% | 37.4hPa | 2.7V | 00:00:00 | 00:00:00 | 00:00:00 | |
| DO3MHA-11 | 2026-08-30 12:42:24 | 49.57015 | 12.83252 | 306° | 15km/h | 23145m | -31.7m/s | -52.8°C | 4.1% | 36.1hPa | 2.7V | 00:00:00 | 02:23:11 | 00:00:00 | |
| PETON7-10 | 2026-08-30 12:42:23 | 49.57012 | 12.83256 | 308° | 7km/h | 23176m | -32.0m/s | -52.9°C | 4.1% | 36.0hPa | 2.7V | 03:25:00 | 02:23:10 | 00:00:00 | |
| DL6DJ-15 | 2026-08-30 12:42:22 | 49.57009 | 12.83262 | 329° | 7km/h | 23240m | -32.4m/s | -53.0°C | 1.0% | 35.6hPa | 2.7V | 00:00:00 | 00:00:00 | 00:00:00 | |
| ANDY1245 | 2026-08-30 12:42:21 | 49.57009 | 12.83262 | 330° | 7km/h | 23241m | -32.4m/s | -53.0°C | 1.0% | 35.6hPa | 2.7V | 00:00:00 | 00:00:00 | 00:00:00 | |
| SONDE2-11 | 2026-08-30 12:42:16 | 49.57004 | 12.83273 | 277° | 5km/h | 23403m | -32.5m/s | -52.9°C | 1.0% | 34.8hPa | 2.7V | 00:00:00 | 00:00:00 | 00:00:00 | |
| ANDY1245 | 2026-08-30 12:42:15 | 49.57004 | 12.83273 | 279° | 5km/h | 23403m | -32.5m/s | -52.9°C | 1.0% | 34.8hPa | 2.7V | 00:00:00 | 00:00:00 | 00:00:00 | |
| DO3MHA-11 | 2026-08-30 12:42:14 | 49.57002 | 12.83276 | 303° | 7km/h | 23468m | -32.7m/s | -52.9°C | 4.1% | 34.3hPa | 2.7V | 03:25:00 | 02:23:01 | 00:00:00 | |
| PG1ADW-2 | 2026-08-30 12:42:12 | 49.57001 | 12.83280 | 290° | 11km/h | 23533m | -33.1m/s | -52.6°C | 4.0% | 34.0hPa | 2.7V | 00:00:00 | 00:00:00 | 00:00:00 | |
| OE5MMP-10 | 2026-08-30 12:42:11 | 49.57001 | 12.83284 | 276° | 9km/h | 23566m | -33.3m/s | -52.5°C | 4.0% | 33.9hPa | 2.7V | 00:00:00 | 02:22:58 | 00:00:00 | |
| ANDY1245 | 2026-08-30 12:42:10 | 49.57001 | 12.83284 | 276° | 7km/h | 23566m | -33.3m/s | -52.5°C | 1.0% | 33.9hPa | 2.6V | 00:00:00 | 00:00:00 | 00:00:00 | |
| PETON7-10 | 2026-08-30 12:42:08 | 49.56999 | 12.83290 | 309° | 11km/h | 23666m | -33.3m/s | -52.5°C | 4.0% | 33.3hPa | 2.6V | 00:00:00 | 00:00:00 | 00:00:00 | |
| EDDB2-12 | 2026-08-30 12:42:07 | 49.56997 | 12.83296 | 299° | 9km/h | 23732m | -33.6m/s | -52.4°C | -1.0% | 33.0hPa | 2.6V | 00:00:00 | 00:00:00 | 00:00:00 | |
| DO3MHA-11 | 2026-08-30 12:42:04 | 49.56994 | 12.83303 | 301° | 13km/h | 23799m | -33.4m/s | -52.3°C | 4.0% | 32.6hPa | 2.6V | 00:00:00 | 02:22:51 | 00:00:00 | |
| EDDB2-11 | 2026-08-30 12:42:00 | 49.56981 | 12.83318 | 335° | 11km/h | 23967m | -33.7m/s | -52.6°C | 1.0% | 31.9hPa | 2.7V | 00:00:00 | 00:00:00 | 00:00:00 | |
| DL6DJ-15 | 2026-08-30 12:41:51 | 49.56965 | 12.83305 | 135° | 4km/h | 24274m | -34.7m/s | -52.8°C | 1.0% | 30.4hPa | 2.7V | 00:00:00 | 00:00:00 | 00:00:00 | |
| SONDE2-11 | 2026-08-30 12:41:45 | 49.56975 | 12.83304 | 206° | 11km/h | 24449m | -35.3m/s | -52.7°C | -1.0% | 29.6hPa | 2.7V | 00:00:00 | 00:00:00 | 00:00:00 | |
| HSKMA3-T | 2026-08-30 12:41:35 | 49.56983 | 12.83335 | 288° | 9km/h | 24803m | -36.2m/s | -51.6°C | 0.4% | 0hPa | 2.7V | 03:27:11 | 02:22:22 | 00:00:00 | |
| HSKMA3-T | 2026-08-30 12:41:24 | 49.56971 | 12.83381 | 302° | 18km/h | 25205m | -37.4m/s | -50.9°C | 0.3% | 0hPa | 2.6V | 03:27:11 | 02:22:11 | 00:00:00 | |
| HSKMA3-T | 2026-08-30 12:41:13 | 49.56937 | 12.83421 | 303° | 7km/h | 25619m | -38.3m/s | 0°C | 0% | 0hPa | 2.7V | 03:27:11 | 02:22:00 | 00:00:00 | |
| HSKMA3-T | 2026-08-30 12:41:02 | 49.56907 | 12.83457 | 333° | 22km/h | 26046m | -40m/s | 0°C | 0% | 0hPa | 2.7V | 03:27:11 | 02:21:49 | 00:00:00 | |
| HSKMA3-T | 2026-08-30 12:40:51 | 49.56869 | 12.83474 | 332° | 9km/h | 26487m | -40.6m/s | 0°C | 0% | 0hPa | 2.6V | 03:27:11 | 02:21:38 | 00:00:00 | |
| DL6DJ-15 | 2026-08-30 12:40:49 | 49.56860 | 12.83480 | 332° | 15km/h | 26609m | -41.2m/s | -50.3°C | 0.9% | 21.2hPa | 2.7V | 00:00:00 | 00:00:00 | 00:00:00 | |
| HSKMA3-T | 2026-08-30 12:40:32 | 49.56795 | 12.83497 | 347° | 7km/h | 27329m | -43.7m/s | 0°C | 0% | 0hPa | 2.7V | 03:27:11 | 02:21:18 | 00:00:00 | |
| OE5MMP-10 | 2026-08-30 12:40:31 | 49.56795 | 12.83497 | 347° | 15km/h | 27329m | -43.7m/s | -48.0°C | 3.4% | 19.0hPa | 2.6V | 00:00:00 | 02:21:18 | 00:00:00 | |
| HSKMA3-T | 2026-08-30 12:40:13 | 49.56730 | 12.83527 | 325° | 7km/h | 28131m | -45.8m/s | 0°C | 0% | 0hPa | 2.6V | 18:12:15 | 02:21:00 | 00:00:00 | |
| HSKMA3-T | 2026-08-30 12:40:03 | 49.56694 | 12.83537 | 13° | 20km/h | 28598m | -48.1m/s | 0°C | 0% | 0hPa | 2.7V | 18:12:15 | 02:20:50 | 00:00:00 | |
| EDDB2-11 | 2026-08-30 12:39:56 | 49.56671 | 12.83512 | 38° | 5km/h | 28985m | -49.6m/s | -46.4°C | 0.7% | 14.8hPa | 2.7V | 00:00:00 | 00:00:00 | 00:00:00 | |
| DL6DJ-15 | 2026-08-30 12:39:46 | 49.56658 | 12.83502 | 32° | 2km/h | 29437m | -51.1m/s | -44.6°C | 0.6% | 13.8hPa | 2.7V | 00:00:00 | 00:00:00 | 00:00:00 | |
| SP3BTT-10 | 2026-08-30 12:39:45 | 49.56656 | 12.83501 | 37° | 18km/h | 29488m | -51.8m/s | -44.3°C | 2.9% | 13.6hPa | 2.7V | 00:00:00 | 00:00:00 | 00:00:00 | |
| DO3MHA-11 | 2026-08-30 12:39:44 | 49.56655 | 12.83501 | 356° | 9km/h | 29540m | -51.9m/s | -44.2°C | 2.9% | 13.5hPa | 2.6V | 00:00:00 | 02:20:31 | 00:00:00 | |
| OE5MMP-10 | 2026-08-30 12:39:41 | 49.56653 | 12.83500 | 26° | 13km/h | 29695m | -51.8m/s | -43.8°C | 2.8% | 13.2hPa | 2.6V | 00:00:00 | 02:20:28 | 00:00:00 | |
| PETON7-10 | 2026-08-30 12:39:38 | 49.56647 | 12.83503 | 327° | 15km/h | 29849m | -52.2m/s | -43.5°C | 2.8% | 12.9hPa | 2.6V | 00:00:00 | 00:00:00 | 00:00:00 | |
| NBG1-10 | 2026-08-30 12:39:36 | 49.56642 | 12.83507 | 326° | 26km/h | 29953m | -53.1m/s | -43.4°C | 2.8% | 12.7hPa | 2.6V | 03:27:00 | 02:20:23 | 00:00:00 | |
| ANDY1245 | 2026-08-30 12:39:35 | 49.56642 | 12.83507 | 327° | 16km/h | 29953m | -53.1m/s | -43.5°C | 0.6% | 12.8hPa | 2.6V | 03:28:00 | 00:00:00 | 00:00:00 | |
| DO3MHA-11 | 2026-08-30 12:39:34 | 49.56635 | 12.83514 | 336° | 20km/h | 30059m | -53.7m/s | -43.3°C | 2.8% | 12.5hPa | 2.6V | 00:00:00 | 02:20:21 | 00:00:00 | |
| OE5MMP-10 | 2026-08-30 12:39:31 | 49.56623 | 12.83521 | 351° | 20km/h | 30220m | -54.4m/s | -43.1°C | 2.8% | 12.2hPa | 2.7V | 00:00:00 | 02:20:18 | 00:00:00 | |
| ANDY1245 | 2026-08-30 12:39:27 | 49.56608 | 12.83519 | 8° | 20km/h | 30383m | -55.3m/s | -42.5°C | 0.5% | 12.0hPa | 2.7V | 03:28:00 | 00:00:00 | 00:00:00 | |
| EDDB2-11 | 2026-08-30 12:39:25 | 49.56588 | 12.83508 | 22° | 22km/h | 30603m | -55.9m/s | -42.5°C | 0.5% | 11.6hPa | 2.7V | 00:00:00 | 00:00:00 | 00:00:00 | |
| DK5PH-5 | 2026-08-30 12:39:23 | 49.56583 | 12.83504 | 37° | 27km/h | 30659m | -56.4m/s | -42.3°C | 2.6% | 11.4hPa | 2.7V | 00:00:00 | 02:20:10 | 00:00:00 | |
| DO3MHA-11 | 2026-08-30 12:39:22 | 49.56579 | 12.83499 | 44° | 20km/h | 30715m | -56.7m/s | -42.0°C | 2.6% | 11.3hPa | 2.7V | 03:28:00 | 02:20:09 | 00:00:00 | |
| OE5MMP-10 | 2026-08-30 12:39:21 | 49.56575 | 12.83493 | 48° | 15km/h | 30771m | -56.9m/s | -42.0°C | 2.6% | 11.3hPa | 2.7V | 03:28:00 | 02:20:08 | 00:00:00 | |
| DL6DJ-15 | 2026-08-30 12:39:15 | 49.56570 | 12.83460 | 94° | 13km/h | 31115m | -58.2m/s | -41.7°C | 0.5% | 10.7hPa | 2.7V | 00:00:00 | 00:00:00 | 00:00:00 | |
| OE5MMP-10 | 2026-08-30 12:39:11 | 49.56564 | 12.83438 | 60° | 18km/h | 31348m | -59.0m/s | -41.3°C | 2.6% | 10.3hPa | 2.7V | 00:00:00 | 02:19:58 | 00:00:00 | |
| EDDB2-11 | 2026-08-30 12:38:54 | 49.56515 | 12.83311 | 65° | 26km/h | 32459m | -64.1m/s | -37.8°C | 0.4% | 8.8hPa | 2.7V | 00:00:00 | 00:00:00 | 00:00:00 | |
| DO3MHA-11 | 2026-08-30 12:38:52 | 49.56512 | 12.83303 | 66° | 22km/h | 32524m | -64.5m/s | -37.6°C | 2.0% | 8.7hPa | 2.7V | 00:00:00 | 02:19:39 | 00:00:00 | |
| PG1ADW-2 | 2026-08-30 12:38:51 | 49.56510 | 12.83294 | 64° | 22km/h | 32588m | -65.0m/s | -37.4°C | 2.0% | 8.6hPa | 2.6V | 00:00:00 | 00:00:00 | 00:00:00 | |
| DL6DJ-15 | 2026-08-30 12:38:44 | 49.56497 | 12.83236 | 86° | 15km/h | 33049m | -66.9m/s | -37.3°C | 0.4% | 8.1hPa | 2.6V | 00:00:00 | 00:00:00 | 00:00:00 | |
| SP3BTT-10 | 2026-08-30 12:38:43 | 49.56497 | 12.83230 | 96° | 22km/h | 33116m | -66.7m/s | -37.4°C | 1.9% | 8.0hPa | 2.6V | 03:28:00 | 00:00:00 | 00:00:00 | |
| DO3MHA-11 | 2026-08-30 12:38:42 | 49.56498 | 12.83224 | 97° | 22km/h | 33182m | -66.1m/s | -37.2°C | 1.9% | 7.9hPa | 2.6V | 00:00:00 | 02:19:29 | 00:00:00 | |
| PETON7-10 | 2026-08-30 12:38:40 | 49.56498 | 12.83211 | 85° | 26km/h | 33313m | -64.5m/s | -36.7°C | 1.8% | 7.7hPa | 2.6V | 03:28:00 | 02:19:27 | 00:00:00 | |
| SONDE2-11 | 2026-08-30 12:38:39 | 49.56495 | 12.83178 | 72° | 26km/h | 33559m | -57.0m/s | -37.5°C | -1.0% | 7.4hPa | 2.6V | 00:00:00 | 00:00:00 | 00:00:00 | |
| DO3MHA-11 | 2026-08-30 12:38:32 | 49.56486 | 12.83136 | 71° | 31km/h | 33793m | -59.5m/s | -38.8°C | 2.2% | 7.1hPa | 2.6V | 03:28:00 | 02:19:19 | 00:00:00 | |
| PG1ADW-2 | 2026-08-30 12:38:31 | 49.56484 | 12.83125 | 75° | 31km/h | 33850m | -55.3m/s | -38.9°C | 2.2% | 7.0hPa | 2.6V | 00:00:00 | 02:19:18 | 00:00:00 | |
| EDDB2-12 | 2026-08-30 12:38:29 | 49.56479 | 12.83099 | 78° | 33km/h | 33959m | -57.8m/s | -38.6°C | -1.0% | 7.0hPa | 2.6V | 00:00:00 | 00:00:00 | 00:00:00 | |
| OE5MMP-10 | 2026-08-30 12:38:25 | 49.56476 | 12.83053 | 98° | 29km/h | 34203m | -62.1m/s | -38.5°C | 2.1% | 6.7hPa | 2.6V | 03:29:00 | 02:19:12 | 00:00:00 | |
| EDDB2-11 | 2026-08-30 12:38:23 | 49.56481 | 12.83022 | 104° | 29km/h | 34383m | -62.8m/s | -37.5°C | 0.4% | 6.6hPa | 2.7V | 00:00:00 | 00:00:00 | 00:00:00 | |
| DO3MHA-11 | 2026-08-30 12:38:22 | 49.56481 | 12.83021 | 105° | 31km/h | 34383m | -62.8m/s | -37.4°C | 1.9% | 6.5hPa | 2.7V | 00:00:00 | 02:19:09 | 00:00:00 | |
| DK5PH-5 | 2026-08-30 12:38:19 | 49.56482 | 12.82990 | 62° | 31km/h | 34577m | -68.0m/s | -37.3°C | 1.9% | 6.4hPa | 2.7V | 00:00:00 | 02:19:06 | 00:00:00 | |
| NBG1-10 | 2026-08-30 12:38:18 | 49.56479 | 12.82980 | 62° | 26km/h | 34642m | -62.7m/s | -37.5°C | 2.0% | 6.3hPa | 2.7V | 00:00:00 | 02:19:05 | 00:00:00 | |
| BAUMI2-15 | 2026-08-30 12:38:15 | 49.56467 | 12.82948 | 60° | 37km/h | 34799m | -41.7m/s | -37.3°C | 2.1% | 6.0hPa | 2.7V | 03:29:00 | 02:19:02 | 00:00:00 | |
| DL6DJ-15 | 2026-08-30 12:38:13 | 49.56458 | 12.82925 | 59° | 35km/h | 34866m | -24.8m/s | -36.9°C | 0.4% | 6.0hPa | 2.7V | 00:00:00 | 00:00:00 | 00:00:00 | |
| DO3MHA-11 | 2026-08-30 12:38:12 | 49.56453 | 12.82914 | 58° | 26km/h | 34886m | -15.9m/s | -36.8°C | 2.0% | 5.9hPa | 2.7V | 00:00:00 | 02:18:59 | 00:00:00 | |
| PG1ADW-2 | 2026-08-30 12:38:11 | 49.56448 | 12.82901 | 58° | 16km/h | 34897m | -6.6m/s | -36.8°C | 1.9% | 5.9hPa | 2.7V | 00:00:00 | 00:00:00 | 00:00:00 | |
| BAUMI2-15 | 2026-08-30 12:38:10 | 49.56443 | 12.82889 | 59° | 31km/h | 34899m | 3.1m/s | -37.0°C | 2.0% | 5.9hPa | 2.7V | 00:00:00 | 02:18:57 | 00:00:00 | |
| SONDE2-11 | 2026-08-30 12:38:08 | 49.56434 | 12.82864 | 65° | 33km/h | 34890m | 5.4m/s | -37.0°C | -1.0% | 6.0hPa | 2.7V | 00:00:00 | 00:00:00 | 00:00:00 | |
| ANDY1245 | 2026-08-30 12:38:07 | 49.56434 | 12.82864 | 67° | 35km/h | 34890m | 5.4m/s | -37.0°C | 0.4% | 6.0hPa | 2.7V | 03:29:00 | 00:00:00 | 00:00:00 | |
| PETON7-10 | 2026-08-30 12:38:06 | 49.56430 | 12.82843 | 90° | 13km/h | 34879m | 5.7m/s | -37.1°C | 2.0% | 5.9hPa | 2.7V | 00:00:00 | 00:00:00 | 00:00:00 | |
| OE5MMP-10 | 2026-08-30 12:38:05 | 49.56431 | 12.82836 | 112° | 11km/h | 34873m | 5.7m/s | -37.0°C | 2.0% | 5.9hPa | 2.7V | 00:00:00 | 02:18:52 | 00:00:00 | |
| EDDB2-12 | 2026-08-30 12:37:58 | 49.56432 | 12.82823 | 13° | 11km/h | 34832m | 5.6m/s | -37.7°C | -1.0% | 6.0hPa | 2.7V | 00:00:00 | 00:00:00 | 00:00:00 | |
| EDDB2-11 | 2026-08-30 12:37:52 | 49.56417 | 12.82795 | 64° | 20km/h | 34791m | 5.5m/s | -38.1°C | 0.4% | 6.0hPa | 2.7V | 00:00:00 | 00:00:00 | 00:00:00 | |
| PETON7-10 | 2026-08-30 12:37:51 | 49.56417 | 12.82795 | 65° | 18km/h | 34791m | 5.5m/s | -38.0°C | 2.2% | 6.0hPa | 2.7V | 00:00:00 | 02:18:38 | 00:00:00 | |
| DL1XH-west | 2026-08-30 12:37:33 | 49.56355 | 12.82763 | 49° | 11km/h | 34683m | 6.3m/s | -38.1°C | 0% | 0hPa | 2.7V | 03:30:35 | 02:18:20 | 00:00:00 | |
| DL1XH-west | 2026-08-30 12:37:22 | 49.56362 | 12.82778 | 46° | 26km/h | 34610m | 6.2m/s | -37.7°C | 0% | 0hPa | 2.7V | 03:30:35 | 02:18:09 | 00:00:00 | |
| DL1XH-west | 2026-08-30 12:37:07 | 49.56369 | 12.82751 | 104° | 20km/h | 34513m | 6.3m/s | -38.1°C | 0% | 0hPa | 2.6V | 03:30:35 | 02:17:54 | 00:00:00 | |
| ANDY1245 | 2026-08-30 12:37:06 | 49.56369 | 12.82751 | 105° | 20km/h | 34513m | 6.3m/s | -38.1°C | 0.5% | 6.3hPa | 2.6V | 00:00:00 | 00:00:00 | 00:00:00 | |
| DL1XH-west | 2026-08-30 12:36:49 | 49.56372 | 12.82649 | 69° | 27km/h | 34397m | 6.1m/s | -37.7°C | 0% | 0hPa | 2.6V | 03:34:50 | 02:17:36 | 00:00:00 | |
| DL1XH-west | 2026-08-30 12:36:39 | 49.56384 | 12.82576 | 76° | 35km/h | 34332m | 6.4m/s | -37.9°C | 0% | 0hPa | 2.6V | 03:34:50 | 02:17:26 | 00:00:00 | |
| DL1XH-west | 2026-08-30 12:36:28 | 49.56394 | 12.82426 | 59° | 24km/h | 34260m | 6.2m/s | -38.4°C | 0% | 0hPa | 2.6V | 03:34:50 | 02:17:15 | 00:00:00 | |
| ANDY1245 | 2026-08-30 12:36:26 | 49.56390 | 12.82418 | 59° | 24km/h | 34255m | 5.4m/s | -38.5°C | 0.4% | 6.6hPa | 2.7V | 00:00:00 | 00:00:00 | 00:00:00 | |
| DL1XH-west | 2026-08-30 12:36:08 | 49.56370 | 12.82198 | 116° | 42km/h | 34137m | 5.6m/s | -39°C | 0% | 0hPa | 2.7V | 03:34:50 | 02:16:55 | 00:00:00 | |
| OE5MMP-10 | 2026-08-30 12:36:03 | 49.56362 | 12.82094 | 58° | 38km/h | 34105m | 6.2m/s | -38.8°C | 2.2% | 6.7hPa | 2.7V | 00:00:00 | 02:16:50 | 00:00:00 | |
| EDDB2-12 | 2026-08-30 12:35:54 | 49.56336 | 12.81986 | 95° | 40km/h | 34049m | 6.0m/s | 0°C | -1.0% | -1.0hPa | 2.7V | 00:00:00 | 00:00:00 | 00:00:00 | |
| EDDB2-11 | 2026-08-30 12:35:47 | 49.56305 | 12.81850 | 77° | 33km/h | 33992m | 6.6m/s | -38.5°C | 0.4% | 6.8hPa | 2.7V | 00:00:00 | 00:00:00 | 00:00:00 | |
| OE5MMP-10 | 2026-08-30 12:35:43 | 49.56303 | 12.81825 | 83° | 38km/h | 33980m | 5.3m/s | -38.5°C | 2.2% | 6.8hPa | 2.7V | 03:31:00 | 02:16:30 | 00:00:00 | |
| DL6DJ-15 | 2026-08-30 12:35:38 | 49.56276 | 12.81753 | 52° | 42km/h | 33943m | 5.4m/s | -38.8°C | 0.5% | 6.9hPa | 2.7V | 00:00:00 | 00:00:00 | 00:00:00 | |
| SONDE2-11 | 2026-08-30 12:35:33 | 49.56261 | 12.81677 | 88° | 38km/h | 33911m | 4.9m/s | 0°C | -1.0% | -1.0hPa | 2.7V | 00:00:00 | 00:00:00 | 00:00:00 | |
| PG1ADW-2 | 2026-08-30 12:35:31 | 49.56260 | 12.81663 | 84° | 35km/h | 33907m | 4.7m/s | -38.7°C | 2.2% | 6.9hPa | 2.7V | 00:00:00 | 00:00:00 | 00:00:00 | |
| OE5MMP-10 | 2026-08-30 12:35:23 | 49.56210 | 12.81591 | 53° | 35km/h | 33857m | 6.7m/s | -39.0°C | 2.3% | 6.9hPa | 2.7V | 00:00:00 | 02:16:10 | 00:00:00 | |
| DL1XH-west | 2026-08-30 12:35:01 | 49.56106 | 12.81368 | 61° | 27km/h | 33724m | 5.8m/s | -38.4°C | 0% | 0hPa | 2.6V | 03:34:50 | 02:15:48 | 00:00:00 | |
| AA1-15 | 2026-08-30 12:34:51 | 49.56070 | 12.81313 | 84° | 26km/h | 33665m | 6.5m/s | 0°C | 0% | 0hPa | 2.6V | 18:12:15 | 02:15:38 | 00:00:00 | |
| DL1XH-west | 2026-08-30 12:34:42 | 49.56044 | 12.81234 | 52° | 20km/h | 33614m | 6.5m/s | -37.6°C | 0% | 0hPa | 2.7V | 03:34:50 | 02:15:29 | 00:00:00 | |
| DL1XH-west | 2026-08-30 12:34:27 | 49.56025 | 12.81133 | 68° | 5km/h | 33531m | 5.2m/s | -37.3°C | 0% | 0hPa | 2.7V | 03:34:50 | 02:15:14 | 00:00:00 | |
| DL1XH-west | 2026-08-30 12:34:16 | 49.55993 | 12.81060 | 136° | 16km/h | 33472m | 4.1m/s | -37.2°C | 0% | 0hPa | 2.7V | 03:34:50 | 02:15:03 | 00:00:00 | |
| DL1XH-west | 2026-08-30 12:34:01 | 49.55970 | 12.81012 | 236° | 15km/h | 33391m | 4.8m/s | -37.5°C | 0% | 0hPa | 2.7V | 03:34:50 | 02:14:48 | 00:00:00 | |
| SONDE2-11 | 2026-08-30 12:33:59 | 49.55942 | 12.80986 | 137° | 24km/h | 33342m | 6.4m/s | 0°C | -1.0% | -1.0hPa | 2.7V | 00:00:00 | 00:00:00 | 00:00:00 | |
| SONCRA | 2026-08-30 12:33:53 | 49.55966 | 12.80984 | 205° | 18km/h | 33320m | 4.6m/s | 0°C | -1.0% | -1.0hPa | 2.7V | 00:00:00 | 00:00:00 | 00:00:00 | |
| BAUMI2-15 | 2026-08-30 12:33:52 | 49.55942 | 12.80986 | 138° | 24km/h | 33342m | 6.3m/s | -37.5°C | 2.0% | 7.5hPa | 2.7V | 00:00:00 | 02:14:39 | 00:00:00 | |
| OE5MMP-10 | 2026-08-30 12:33:51 | 49.55947 | 12.80981 | 163° | 20km/h | 33336m | 6.3m/s | -37.6°C | 2.0% | 7.5hPa | 2.7V | 00:00:00 | 02:14:38 | 00:00:00 | |
| ANDY1245 | 2026-08-30 12:33:44 | 49.55968 | 12.80987 | 34° | 11km/h | 33304m | 6.4m/s | -37.8°C | 0.4% | 7.6hPa | 2.6V | 00:00:00 | 00:00:00 | 00:00:00 | |
| OE5MMP-10 | 2026-08-30 12:33:41 | 49.55953 | 12.80959 | 59° | 18km/h | 33282m | 4.4m/s | -38.0°C | 2.0% | 7.6hPa | 2.6V | 03:33:00 | 02:14:28 | 00:00:00 | |
| NBG1-10 | 2026-08-30 12:33:40 | 49.55949 | 12.80951 | 64° | 20km/h | 33277m | 4.9m/s | -38.0°C | 2.0% | 7.6hPa | 2.6V | 03:33:00 | 02:14:27 | 00:00:00 | |
| BAUMI2-15 | 2026-08-30 12:33:36 | 49.55949 | 12.80934 | 147° | 20km/h | 33254m | 5.3m/s | -38.4°C | 2.1% | 7.6hPa | 2.6V | 00:00:00 | 02:14:23 | 00:00:00 | |
| DL6DJ-15 | 2026-08-30 12:33:34 | 49.55960 | 12.80922 | 132° | 24km/h | 33237m | 5.9m/s | -38.6°C | 0.4% | 7.6hPa | 2.6V | 00:00:00 | 00:00:00 | 00:00:00 | |
| OE5MMP-10 | 2026-08-30 12:33:31 | 49.55968 | 12.80904 | 118° | 22km/h | 33227m | 4.4m/s | -38.5°C | 2.1% | 7.6hPa | 2.6V | 00:00:00 | 02:14:18 | 00:00:00 | |
| DL1XH-west | 2026-08-30 12:33:10 | 49.55919 | 12.80780 | 28° | 27km/h | 33107m | 5.8m/s | -38.6°C | 0% | 0hPa | 2.6V | 03:34:50 | 02:13:57 | 00:00:00 | |
| DL1XH-west | 2026-08-30 12:32:56 | 49.55862 | 12.80665 | 68° | 26km/h | 33028m | 4.6m/s | -38.4°C | 0% | 0hPa | 2.7V | 03:34:50 | 02:13:43 | 00:00:00 | |
| DL1XH-west | 2026-08-30 12:32:43 | 49.55824 | 12.80584 | 78° | 20km/h | 32953m | 6m/s | 0°C | 0% | 0hPa | 2.6V | 03:34:50 | 02:13:30 | 00:00:00 | |
| DL1XH-west | 2026-08-30 12:32:32 | 49.55806 | 12.80533 | 107° | 20km/h | 32881m | 5.7m/s | 0°C | 0% | 0hPa | 2.6V | 18:12:15 | 02:13:18 | 00:00:00 | |
| DL1XH-west | 2026-08-30 12:32:22 | 49.55804 | 12.80493 | 123° | 5km/h | 32828m | 6.5m/s | 0°C | 0% | 0hPa | 2.7V | 18:12:15 | 02:13:09 | 00:00:00 | |
| DL1XH-west | 2026-08-30 12:32:09 | 49.55822 | 12.80392 | 95° | 2km/h | 32752m | 4.9m/s | 0°C | 0% | 0hPa | 2.7V | 18:12:15 | 02:12:56 | 00:00:00 | |
| DL1XH-west | 2026-08-30 12:31:58 | 49.55803 | 12.80301 | 100° | 11km/h | 32687m | 5.4m/s | 0°C | 0% | 0hPa | 2.7V | 18:12:15 | 02:12:45 | 00:00:00 | |
| DL1XH-west | 2026-08-30 12:31:47 | 49.55776 | 12.80203 | 52° | 18km/h | 32621m | 5.7m/s | 0°C | 0% | 0hPa | 2.7V | 18:12:15 | 02:12:34 | 00:00:00 | |
| PG1ADW-2 | 2026-08-30 12:31:42 | 49.55764 | 12.80166 | 63° | 27km/h | 32590m | 5.5m/s | -38.7°C | 2.2% | 8.4hPa | 2.7V | 03:35:00 | 00:00:00 | 00:00:00 | |
| OE5MMP-10 | 2026-08-30 12:31:41 | 49.55760 | 12.80158 | 56° | 31km/h | 32584m | 6.6m/s | -38.7°C | 2.1% | 8.4hPa | 2.7V | 03:35:00 | 02:12:28 | 00:00:00 | |
| EDDB2-11 | 2026-08-30 12:31:39 | 49.55721 | 12.80100 | 52° | 37km/h | 32541m | 5.4m/s | -38.8°C | 0.4% | 8.5hPa | 2.7V | 00:00:00 | 00:00:00 | 00:00:00 | |
| OE5MMP-10 | 2026-08-30 12:31:31 | 49.55706 | 12.80071 | 45° | 26km/h | 32524m | 7.2m/s | -38.9°C | 2.1% | 8.5hPa | 2.7V | 00:00:00 | 02:12:18 | 00:00:00 | |
| DL6DJ-15 | 2026-08-30 12:31:29 | 49.55699 | 12.80063 | 32° | 13km/h | 32511m | 5.0m/s | -38.9°C | 0.4% | 8.5hPa | 2.7V | 00:00:00 | 00:00:00 | 00:00:00 | |
| OE5DXL-15 | 2026-08-30 12:31:26 | 49.55675 | 12.80016 | 56° | 18km/h | 32475m | 5.5m/s | -39.0°C | 2.2% | 8.5hPa | 2.7V | 00:00:00 | 00:00:00 | 00:00:00 | |
| OE5MMP-10 | 2026-08-30 12:31:22 | 49.55664 | 12.79992 | 47° | 31km/h | 32464m | 6.5m/s | -39.1°C | 2.2% | 8.5hPa | 2.7V | 00:00:00 | 02:12:08 | 00:00:00 | |
| DL1JEZ-13 | 2026-08-30 12:31:13 | 49.55623 | 12.79942 | 58° | 35km/h | 32422m | 5.8m/s | -39.2°C | 0.5% | 8.6hPa | 2.7V | 00:00:00 | 00:00:00 | 00:00:00 | |
| OE5MMP-10 | 2026-08-30 12:31:11 | 49.55612 | 12.79908 | 68° | 33km/h | 32404m | 6.8m/s | -39.2°C | 2.1% | 8.6hPa | 2.7V | 00:00:00 | 02:11:58 | 00:00:00 | |
| EDDB2-11 | 2026-08-30 12:31:08 | 49.55569 | 12.79865 | 21° | 44km/h | 32361m | 5.5m/s | -39.4°C | 0.4% | 8.7hPa | 2.7V | 00:00:00 | 00:00:00 | 00:00:00 | |
| DL6DJ-15 | 2026-08-30 12:30:58 | 49.55536 | 12.79836 | 105° | 13km/h | 32327m | 5.3m/s | -39.9°C | 0.5% | 8.8hPa | 2.7V | 00:00:00 | 00:00:00 | 00:00:00 | |
| OE5MMP-10 | 2026-08-30 12:30:51 | 49.55512 | 12.79751 | 33° | 29km/h | 32289m | 5.3m/s | -40.2°C | 2.3% | 8.8hPa | 2.7V | 00:00:00 | 02:11:38 | 00:00:00 | |
| PG1ADW-2 | 2026-08-30 12:30:42 | 49.55471 | 12.79698 | 79° | 24km/h | 32239m | 5.8m/s | -40.1°C | 2.3% | 8.8hPa | 2.7V | 00:00:00 | 00:00:00 | 00:00:00 | |
| OE5MMP-10 | 2026-08-30 12:30:41 | 49.55468 | 12.79684 | 69° | 27km/h | 32234m | 5.9m/s | -40.1°C | 2.3% | 8.8hPa | 2.7V | 00:00:00 | 02:11:28 | 00:00:00 | |
| EDDB2-11 | 2026-08-30 12:30:37 | 49.55444 | 12.79642 | 30° | 29km/h | 32210m | 5.5m/s | -40.0°C | 0.5% | 8.9hPa | 2.7V | 00:00:00 | 00:00:00 | 00:00:00 | |
| OE5MMP-10 | 2026-08-30 12:30:31 | 49.55427 | 12.79609 | 81° | 20km/h | 32176m | 5.4m/s | -39.7°C | 2.3% | 8.9hPa | 2.7V | 00:00:00 | 02:11:18 | 00:00:00 | |
| DL6DJ-15 | 2026-08-30 12:30:27 | 49.55420 | 12.79584 | 54° | 16km/h | 32153m | 4.6m/s | -39.9°C | 0% | 9.0hPa | 2.7V | 00:00:00 | 00:00:00 | 00:00:00 | |
| PG1ADW-2 | 2026-08-30 12:30:22 | 49.55414 | 12.79546 | 88° | 20km/h | 32127m | 4.9m/s | -39.4°C | 2.3% | 9.0hPa | 2.7V | 03:37:00 | 00:00:00 | 00:00:00 | |
| OE5MMP-10 | 2026-08-30 12:30:21 | 49.55413 | 12.79536 | 80° | 22km/h | 32122m | 4.7m/s | -39.5°C | 2.2% | 9.0hPa | 2.7V | 03:37:00 | 02:11:08 | 00:00:00 | |
| BAUMI2-15 | 2026-08-30 12:30:16 | 49.55395 | 12.79495 | 47° | 15km/h | 32095m | 4.8m/s | -39.8°C | 2.3% | 9.0hPa | 2.6V | 03:37:00 | 02:11:03 | 00:00:00 | |
| OE5MMP-10 | 2026-08-30 12:30:11 | 49.55399 | 12.79472 | 141° | 20km/h | 32066m | 4.3m/s | -40.0°C | 2.3% | 9.1hPa | 2.6V | 00:00:00 | 02:10:58 | 00:00:00 | |
| BAUMI2-15 | 2026-08-30 12:30:06 | 49.55397 | 12.79447 | 59° | 26km/h | 32038m | 5.2m/s | -40.0°C | 2.3% | 9.1hPa | 2.6V | 00:00:00 | 02:10:53 | 00:00:00 | |
| DL1JEZ-13 | 2026-08-30 12:30:04 | 49.55395 | 12.79439 | 70° | 26km/h | 32033m | 5.3m/s | -40.0°C | 0.5% | 9.1hPa | 2.7V | 00:00:00 | 00:00:00 | 00:00:00 | |
| PG1ADW-2 | 2026-08-30 12:30:02 | 49.55395 | 12.79409 | 110° | 16km/h | 32016m | 4.6m/s | -39.8°C | 2.2% | 9.1hPa | 2.7V | 00:00:00 | 00:00:00 | 00:00:00 | |
| BAUMI2-15 | 2026-08-30 12:30:01 | 49.55397 | 12.79400 | 119° | 15km/h | 32011m | 4.6m/s | -39.9°C | 2.2% | 9.1hPa | 2.7V | 00:00:00 | 02:10:48 | 00:00:00 | |
| BAUMI2-15 | 2026-08-30 12:29:56 | 49.55405 | 12.79388 | 286° | 11km/h | 31982m | 4.1m/s | -40.0°C | 2.3% | 9.2hPa | 2.7V | 03:37:00 | 02:10:43 | 00:00:00 | |
| ANDY1245 | 2026-08-30 12:29:53 | 49.55405 | 12.79385 | 107° | 9km/h | 31973m | 5.3m/s | -40.1°C | 0.5% | 9.2hPa | 2.7V | 00:00:00 | 00:00:00 | 00:00:00 | |
| OE5MMP-10 | 2026-08-30 12:29:51 | 49.55411 | 12.79361 | 111° | 20km/h | 31954m | 5.9m/s | -40.2°C | 2.2% | 9.2hPa | 2.7V | 00:00:00 | 02:10:38 | 00:00:00 | |
| BAUMI2-15 | 2026-08-30 12:29:46 | 49.55415 | 12.79310 | 47° | 11km/h | 31928m | 5.7m/s | -40.5°C | 2.3% | 9.3hPa | 2.7V | 00:00:00 | 02:10:33 | 00:00:00 | |
| PG1ADW-2 | 2026-08-30 12:29:42 | 49.55407 | 12.79303 | 71° | 18km/h | 31906m | 5.9m/s | -40.6°C | 2.3% | 9.3hPa | 2.7V | 00:00:00 | 02:10:29 | 00:00:00 | |
| DO3MHA-11 | 2026-08-30 12:29:41 | 49.55407 | 12.79299 | 92° | 18km/h | 31900m | 5.4m/s | -40.6°C | 2.3% | 9.3hPa | 2.7V | 00:00:00 | 02:10:28 | 00:00:00 | |
| BAUMI2-15 | 2026-08-30 12:29:40 | 49.55407 | 12.79292 | 98° | 20km/h | 31895m | 5.1m/s | 0°C | 0% | 0hPa | 2.7V | 00:00:00 | 02:10:27 | 00:00:00 | |
| EDDB2-11 | 2026-08-30 12:29:35 | 49.55399 | 12.79248 | 31° | 13km/h | 31856m | 5.3m/s | -41.0°C | 0.5% | 9.4hPa | 2.7V | 00:00:00 | 00:00:00 | 00:00:00 | |
| OE5MMP-10 | 2026-08-30 12:29:31 | 49.55394 | 12.79242 | 52° | 22km/h | 31844m | 6.4m/s | -40.7°C | 2.3% | 9.4hPa | 2.7V | 00:00:00 | 02:10:18 | 00:00:00 | |
| BAUMI2-15 | 2026-08-30 12:29:30 | 49.55392 | 12.79237 | 64° | 18km/h | 31838m | 5.5m/s | 0°C | 0% | 0hPa | 2.7V | 00:00:00 | 02:10:17 | 00:00:00 | |
| BAUMI2-15 | 2026-08-30 12:29:25 | 49.55375 | 12.79212 | 28° | 27km/h | 31810m | 5.4m/s | 0°C | 0% | 0hPa | 2.7V | 00:00:00 | 02:10:12 | 00:00:00 | |
| DO3MHA-11 | 2026-08-30 12:29:23 | 49.55363 | 12.79201 | 40° | 15km/h | 31800m | 6.0m/s | -41.1°C | 2.3% | 9.4hPa | 2.7V | 00:00:00 | 02:10:10 | 00:00:00 | |
| OE5MMP-10 | 2026-08-30 12:29:21 | 49.55354 | 12.79185 | 58° | 11km/h | 31788m | 5.4m/s | -41.4°C | 2.4% | 9.4hPa | 2.7V | 00:00:00 | 02:10:08 | 00:00:00 | |
| BAUMI2-15 | 2026-08-30 12:29:20 | 49.55351 | 12.79178 | 60° | 9km/h | 31782m | 5.1m/s | 0°C | 0% | 0hPa | 2.6V | 00:00:00 | 02:10:07 | 00:00:00 | |
| ANDY1245 | 2026-08-30 12:29:16 | 49.55345 | 12.79167 | 17° | 7km/h | 31764m | 5.7m/s | -41.7°C | 0.6% | 9.5hPa | 2.6V | 00:00:00 | 00:00:00 | 00:00:00 | |
| DO3MHA-11 | 2026-08-30 12:29:13 | 49.55342 | 12.79162 | 98° | 24km/h | 31743m | 6.7m/s | -41.6°C | 2.5% | 9.5hPa | 2.6V | 03:38:00 | 02:10:00 | 00:00:00 | |
| BAUMI2-15 | 2026-08-30 12:29:12 | 49.55342 | 12.79157 | 96° | 22km/h | 31737m | 5.6m/s | 0°C | 0% | 0hPa | 2.6V | 03:38:00 | 02:09:59 | 00:00:00 | |
| OE5MMP-10 | 2026-08-30 12:29:11 | 49.55342 | 12.79150 | 90° | 24km/h | 31732m | 4.8m/s | -41.7°C | 2.5% | 9.5hPa | 2.6V | 00:00:00 | 02:09:58 | 00:00:00 | |
| ANDY1245 | 2026-08-30 12:29:10 | 49.55342 | 12.79142 | 80° | 24km/h | 31726m | 5.3m/s | -41.9°C | 0.6% | 9.6hPa | 2.6V | 00:00:00 | 00:00:00 | 00:00:00 | |
| BAUMI2-15 | 2026-08-30 12:29:07 | 49.55332 | 12.79117 | 40° | 26km/h | 31708m | 6.5m/s | 0°C | 0% | 0hPa | 2.6V | 00:00:00 | 02:09:54 | 00:00:00 | |
| EDDB2-11 | 2026-08-30 12:29:04 | 49.55315 | 12.79092 | 75° | 18km/h | 31688m | 6.4m/s | -41.9°C | 0.5% | 9.7hPa | 2.6V | 00:00:00 | 00:00:00 | 00:00:00 | |
| DL6DJ-15 | 2026-08-30 12:28:54 | 49.55321 | 12.79031 | 48° | 16km/h | 31631m | 6.4m/s | -41.6°C | 0.5% | 9.7hPa | 2.6V | 00:00:00 | 00:00:00 | 00:00:00 | |
| DL1XH-west | 2026-08-30 12:28:44 | 49.55303 | 12.78963 | 95° | 16km/h | 31580m | 5.6m/s | -41.8°C | 0% | 0hPa | 2.6V | 03:40:47 | 02:09:31 | 00:00:00 | |
| DL1XH-west | 2026-08-30 12:28:29 | 49.55276 | 12.78826 | 93° | 22km/h | 31496m | 6.6m/s | -42°C | 0% | 0hPa | 2.7V | 03:40:47 | 02:09:16 | 00:00:00 | |
| DL1XH-west | 2026-08-30 12:28:18 | 49.55254 | 12.78732 | 63° | 35km/h | 31432m | 6.2m/s | -42.6°C | 0% | 0hPa | 2.6V | 03:40:47 | 02:09:05 | 00:00:00 | |
| DL1XH-west | 2026-08-30 12:28:05 | 49.55221 | 12.78639 | 68° | 35km/h | 31356m | 5.7m/s | -42.9°C | 0% | 0hPa | 2.7V | 03:40:47 | 02:08:52 | 00:00:00 | |
| DL1XH-west | 2026-08-30 12:27:49 | 49.55211 | 12.78517 | 78° | 33km/h | 31264m | 6.3m/s | -43.4°C | 0% | 0hPa | 2.6V | 03:40:47 | 02:08:36 | 00:00:00 | |
| DL1XH-west | 2026-08-30 12:27:32 | 49.55207 | 12.78409 | 73° | 24km/h | 31166m | 4.9m/s | 0°C | 0% | 0hPa | 2.6V | 03:40:47 | 02:08:19 | 00:00:00 | |
| DL1XH-west | 2026-08-30 12:27:19 | 49.55189 | 12.78309 | 76° | 33km/h | 31088m | 5.7m/s | 0°C | 0% | 0hPa | 2.6V | 03:40:47 | 02:08:06 | 00:00:00 | |
| DL1XH-west | 2026-08-30 12:27:07 | 49.55148 | 12.78184 | 58° | 24km/h | 31018m | 5.3m/s | 0°C | 0% | 0hPa | 2.6V | 03:40:47 | 02:07:54 | 00:00:00 | |
| DL1XH-west | 2026-08-30 12:26:55 | 49.55108 | 12.78071 | 66° | 29km/h | 30948m | 6.5m/s | 0°C | 0% | 0hPa | 2.6V | 03:40:47 | 02:07:42 | 00:00:00 | |
| DL1XH-west | 2026-08-30 12:26:45 | 49.55074 | 12.78006 | 55° | 26km/h | 30888m | 5.6m/s | 0°C | 0% | 0hPa | 2.7V | 03:40:47 | 02:07:32 | 00:00:00 | |
| DL1XH-west | 2026-08-30 12:26:33 | 49.55017 | 12.77929 | 35° | 22km/h | 30819m | 6.2m/s | 0°C | 0% | 0hPa | 2.7V | 18:12:15 | 02:07:20 | 00:00:00 | |
| DL1XH-west | 2026-08-30 12:26:18 | 49.54914 | 12.77859 | 25° | 22km/h | 30728m | 5.1m/s | 0°C | 0% | 0hPa | 2.6V | 18:12:15 | 02:07:05 | 00:00:00 | |
| DO3MHA-11 | 2026-08-30 12:26:18 | 49.54914 | 12.77859 | 26° | 31km/h | 30729m | 5.1m/s | -43.3°C | 2.7% | 11.1hPa | 2.6V | 00:00:00 | 02:07:05 | 00:00:00 | |
| SONDE2-11 | 2026-08-30 12:26:14 | 49.54876 | 12.77865 | 346° | 42km/h | 30699m | 5.3m/s | 0°C | -1.0% | -1.0hPa | 2.6V | 00:00:00 | 00:00:00 | 00:00:00 | |
| PG1ADW-2 | 2026-08-30 12:26:12 | 49.54866 | 12.77868 | 350° | 31km/h | 30694m | 4.7m/s | -43.4°C | 2.7% | 11.2hPa | 2.6V | 00:00:00 | 00:00:00 | 00:00:00 | |
| OE5MMP-10 | 2026-08-30 12:26:11 | 49.54856 | 12.77871 | 353° | 31km/h | 30688m | 6.3m/s | -43.5°C | 2.7% | 11.2hPa | 2.6V | 00:00:00 | 02:06:58 | 00:00:00 | |
| DO3MHA-11 | 2026-08-30 12:26:08 | 49.54832 | 12.77869 | 18° | 31km/h | 30670m | 5.2m/s | -43.4°C | 2.7% | 11.2hPa | 2.6V | 03:41:00 | 02:06:55 | 00:00:00 | |
| BAUMI2-15 | 2026-08-30 12:26:05 | 49.54812 | 12.77857 | 19° | 29km/h | 30653m | 6.2m/s | 0°C | 0% | 0hPa | 2.6V | 00:00:00 | 02:06:52 | 00:00:00 | |
| DL1XH-west | 2026-08-30 12:26:05 | 49.54812 | 12.77857 | 18° | 31km/h | 30653m | 6.2m/s | 0°C | 0% | 0hPa | 2.7V | 18:12:15 | 02:06:52 | 00:00:00 | |
| OE5REO-15 | 2026-08-30 12:26:03 | 49.54805 | 12.77853 | 14° | 33km/h | 30648m | 5.2m/s | -43.4°C | 0.6% | 11.3hPa | 2.6V | 03:41:00 | 00:00:00 | 00:00:00 | |
| EDDB2-11 | 2026-08-30 12:25:57 | 49.54764 | 12.77867 | 322° | 24km/h | 30607m | 6.4m/s | -43.5°C | 0.6% | 11.3hPa | 2.6V | 00:00:00 | 00:00:00 | 00:00:00 | |
| DL6DJ-15 | 2026-08-30 12:25:47 | 49.54714 | 12.77870 | 0° | 16km/h | 30549m | 6.3m/s | -43.5°C | 0.5% | 11.4hPa | 2.6V | 00:00:00 | 00:00:00 | 00:00:00 | |
| DL1XH-west | 2026-08-30 12:25:44 | 49.54699 | 12.77883 | 313° | 27km/h | 30533m | 5.2m/s | 0°C | 0% | 0hPa | 2.6V | 18:12:15 | 02:06:31 | 00:00:00 | |
| DO3MHA-11 | 2026-08-30 12:25:44 | 49.54699 | 12.77883 | 314° | 20km/h | 30533m | 5.2m/s | -43.4°C | 2.6% | 11.4hPa | 2.6V | 00:00:00 | 02:06:31 | 00:00:00 | |
| DL1XH-west | 2026-08-30 12:25:25 | 49.54651 | 12.77949 | 327° | 13km/h | 30421m | 6.3m/s | 0°C | 0% | 0hPa | 2.6V | 18:12:15 | 02:06:12 | 00:00:00 | |
| BAUMI2-15 | 2026-08-30 12:25:23 | 49.54646 | 12.77953 | 353° | 11km/h | 30409m | 5.4m/s | 0°C | 0% | 0hPa | 2.7V | 00:00:00 | 02:06:10 | 00:00:00 | |
| DO3MHA-11 | 2026-08-30 12:25:22 | 49.54644 | 12.77952 | 16° | 11km/h | 30404m | 5.0m/s | -43.9°C | 2.7% | 11.7hPa | 2.7V | 03:42:00 | 02:06:09 | 00:00:00 | |
| OE5MMP-10 | 2026-08-30 12:25:21 | 49.54642 | 12.77951 | 29° | 11km/h | 30398m | 6.2m/s | -44.0°C | 2.7% | 11.7hPa | 2.7V | 00:00:00 | 02:06:08 | 00:00:00 | |
| BAUMI2-15 | 2026-08-30 12:25:18 | 49.54632 | 12.77940 | 43° | 11km/h | 30381m | 4.2m/s | 0°C | 0% | 0hPa | 2.7V | 00:00:00 | 02:06:05 | 00:00:00 | |
| DL6DJ-15 | 2026-08-30 12:25:17 | 49.54628 | 12.77932 | 60° | 11km/h | 30370m | 6.9m/s | -44.1°C | 0.6% | 11.8hPa | 2.7V | 00:00:00 | 00:00:00 | 00:00:00 | |
| PG1ADW-2 | 2026-08-30 12:25:16 | 49.54627 | 12.77932 | 61° | 13km/h | 30370m | 6.9m/s | -44.1°C | 2.7% | 11.7hPa | 2.7V | 00:00:00 | 00:00:00 | 00:00:00 | |
| ANDY1245 | 2026-08-30 12:25:13 | 49.54626 | 12.77926 | 78° | 4km/h | 30358m | 5.1m/s | -44.0°C | 0.6% | 11.8hPa | 2.6V | 00:00:00 | 00:00:00 | 00:00:00 | |
| SONDE2-11 | 2026-08-30 12:25:12 | 49.54621 | 12.77930 | 329° | 16km/h | 30341m | 7.0m/s | 0°C | -1.0% | -1.0hPa | 2.6V | 00:00:00 | 00:00:00 | 00:00:00 | |
| BAUMI2-15 | 2026-08-30 12:25:11 | 49.54621 | 12.77930 | 330° | 24km/h | 30341m | 7.0m/s | 0°C | 0% | 0hPa | 2.6V | 00:00:00 | 02:05:58 | 00:00:00 | |
| ANDY1245 | 2026-08-30 12:25:07 | 49.54606 | 12.77943 | 332° | 26km/h | 30325m | 5.0m/s | -44.4°C | 0.7% | 11.9hPa | 2.6V | 00:00:00 | 00:00:00 | 00:00:00 | |
| BAUMI2-15 | 2026-08-30 12:25:06 | 49.54597 | 12.77951 | 327° | 13km/h | 30313m | 6.1m/s | 0°C | 0% | 0hPa | 2.6V | 03:42:00 | 02:05:53 | 00:00:00 | |
| EDDB2-11 | 2026-08-30 12:24:56 | 49.54569 | 12.77947 | 306° | 15km/h | 30250m | 4.5m/s | -44.7°C | 0.6% | 12.0hPa | 2.6V | 00:00:00 | 00:00:00 | 00:00:00 | |
| DL6DJ-15 | 2026-08-30 12:24:46 | 49.54535 | 12.77990 | 270° | 7km/h | 30194m | 4.6m/s | -44.3°C | 0.6% | 12.1hPa | 2.6V | 00:00:00 | 00:00:00 | 00:00:00 | |
| BAUMI2-15 | 2026-08-30 12:24:44 | 49.54535 | 12.77993 | 290° | 15km/h | 30189m | 5.9m/s | 0°C | 0% | 0hPa | 2.6V | 00:00:00 | 02:05:31 | 00:00:00 | |
| PETON7-10 | 2026-08-30 12:24:42 | 49.54531 | 12.78000 | 322° | 13km/h | 30177m | 5.9m/s | -44.3°C | 2.8% | 12.1hPa | 2.6V | 00:00:00 | 00:00:00 | 00:00:00 | |
| OE5MMP-10 | 2026-08-30 12:24:41 | 49.54527 | 12.78004 | 321° | 16km/h | 30171m | 4.8m/s | -44.2°C | 2.8% | 12.1hPa | 2.6V | 00:00:00 | 02:05:28 | 00:00:00 | |
| BAUMI2-15 | 2026-08-30 12:24:39 | 49.54521 | 12.78015 | 306° | 15km/h | 30160m | 6.4m/s | 0°C | 0% | 0hPa | 2.6V | 00:00:00 | 02:05:26 | 00:00:00 | |
| PG1ADW-2 | 2026-08-30 12:24:36 | 49.54515 | 12.78036 | 289° | 9km/h | 30144m | 4.6m/s | -44.5°C | 2.8% | 12.2hPa | 2.6V | 00:00:00 | 00:00:00 | 00:00:00 | |
| ANDY1245 | 2026-08-30 12:24:35 | 49.54514 | 12.78042 | 296° | 16km/h | 30138m | 6.2m/s | -44.6°C | 0.7% | 12.2hPa | 2.6V | 00:00:00 | 00:00:00 | 00:00:00 | |
| DO3MHA-11 | 2026-08-30 12:24:32 | 49.54508 | 12.78052 | 323° | 9km/h | 30121m | 4.7m/s | -44.6°C | 2.9% | 12.2hPa | 2.6V | 00:00:00 | 02:05:19 | 00:00:00 | |
| BAUMI2-15 | 2026-08-30 12:24:31 | 49.54507 | 12.78053 | 290° | 4km/h | 30115m | 6.3m/s | 0°C | 0% | 0hPa | 2.6V | 00:00:00 | 02:05:18 | 00:00:00 | |
| PETON7-10 | 2026-08-30 12:24:27 | 49.54511 | 12.78058 | 265° | 9km/h | 30094m | 6.0m/s | -44.6°C | 2.8% | 12.2hPa | 2.6V | 03:43:00 | 02:05:14 | 00:00:00 | |
| BAUMI2-15 | 2026-08-30 12:24:25 | 49.54509 | 12.78065 | 305° | 7km/h | 30080m | 5.9m/s | 0°C | 0% | 0hPa | 2.6V | 00:00:00 | 02:05:12 | 00:00:00 | |
| EDDB2-11 | 2026-08-30 12:24:24 | 49.54505 | 12.78075 | 299° | 13km/h | 30069m | 5.4m/s | -44.3°C | 0.6% | 12.3hPa | 2.6V | 00:00:00 | 00:00:00 | 00:00:00 | |
| DO3MHA-11 | 2026-08-30 12:24:22 | 49.54503 | 12.78079 | 288° | 5km/h | 30064m | 6.1m/s | -44.2°C | 2.7% | 12.3hPa | 2.6V | 00:00:00 | 02:05:09 | 00:00:00 | |
| OE5MMP-10 | 2026-08-30 12:24:21 | 49.54503 | 12.78082 | 267° | 5km/h | 30058m | 4.9m/s | -44.2°C | 2.7% | 12.3hPa | 2.6V | 03:43:00 | 02:05:08 | 00:00:00 | |
| DL6DJ-15 | 2026-08-30 12:24:14 | 49.54497 | 12.78073 | 38° | 4km/h | 30021m | 5.5m/s | -44.3°C | 0.6% | 12.4hPa | 2.6V | 00:00:00 | 00:00:00 | 00:00:00 | |
| DO3MHA-11 | 2026-08-30 12:24:12 | 49.54497 | 12.78071 | 163° | 9km/h | 30009m | 6.0m/s | -44.3°C | 2.8% | 12.4hPa | 2.6V | 00:00:00 | 02:04:59 | 00:00:00 | |
| OE5MMP-10 | 2026-08-30 12:24:11 | 49.54499 | 12.78070 | 170° | 9km/h | 30003m | 4.8m/s | -44.2°C | 2.7% | 12.4hPa | 2.6V | 00:00:00 | 02:04:58 | 00:00:00 | |
| PG1ADW-2 | 2026-08-30 12:24:08 | 49.54503 | 12.78069 | 14° | 20km/h | 29990m | 6.1m/s | -44.2°C | 2.7% | 12.4hPa | 2.6V | 03:43:00 | 00:00:00 | 00:00:00 | |
| OE5REO-15 | 2026-08-30 12:24:05 | 49.54498 | 12.78069 | 360° | 15km/h | 29977m | 5.6m/s | -44.3°C | 0.6% | 12.5hPa | 2.6V | 00:00:00 | 00:00:00 | 00:00:00 | |
| EDDB2-11 | 2026-08-30 12:23:53 | 49.54493 | 12.78023 | 121° | 5km/h | 29905m | 5.4m/s | -44.9°C | 0.6% | 12.6hPa | 2.6V | 00:00:00 | 00:00:00 | 00:00:00 | |
| OE5MMP-10 | 2026-08-30 12:23:51 | 49.54493 | 12.78021 | 335° | 15km/h | 29895m | 5.1m/s | -44.9°C | 2.8% | 12.6hPa | 2.6V | 00:00:00 | 02:04:38 | 00:00:00 | |
| ANDY1245 | 2026-08-30 12:23:50 | 49.54493 | 12.78021 | 336° | 5km/h | 29895m | 5.1m/s | -44.9°C | 0.7% | 12.7hPa | 2.7V | 03:44:00 | 00:00:00 | 00:00:00 | |
| OE5REO-15 | 2026-08-30 12:23:46 | 49.54480 | 12.78026 | 5° | 13km/h | 29873m | 3.6m/s | -44.8°C | 0.6% | 12.7hPa | 2.7V | 00:00:00 | 00:00:00 | 00:00:00 | |
| DL6DJ-15 | 2026-08-30 12:23:43 | 49.54482 | 12.78011 | 129° | 26km/h | 29851m | 5.1m/s | -44.9°C | 0.6% | 12.8hPa | 2.7V | 00:00:00 | 00:00:00 | 00:00:00 | |
| PETON7-10 | 2026-08-30 12:23:42 | 49.54486 | 12.78002 | 128° | 16km/h | 29846m | 4.0m/s | -44.8°C | 2.9% | 12.7hPa | 2.7V | 00:00:00 | 02:04:29 | 00:00:00 | |
| OE5MMP-10 | 2026-08-30 12:23:41 | 49.54490 | 12.77993 | 120° | 18km/h | 29842m | 4.1m/s | -45.0°C | 2.8% | 12.7hPa | 2.7V | 03:43:00 | 02:04:28 | 00:00:00 | |
| DO3MHA-11 | 2026-08-30 12:23:32 | 49.54468 | 12.77978 | 280° | 15km/h | 29793m | 5.1m/s | -44.9°C | 2.9% | 12.8hPa | 2.7V | 00:00:00 | 02:04:19 | 00:00:00 | |
| OE5MMP-10 | 2026-08-30 12:23:31 | 49.54468 | 12.77980 | 264° | 15km/h | 29787m | 5.6m/s | -44.9°C | 2.9% | 12.8hPa | 2.6V | 00:00:00 | 02:04:18 | 00:00:00 | |
| DL1JEZ-13 | 2026-08-30 12:23:28 | 49.54469 | 12.77979 | 95° | 9km/h | 29776m | 5.3m/s | -45.0°C | 0.7% | 12.9hPa | 2.6V | 00:00:00 | 00:00:00 | 00:00:00 | |
| PETON7-10 | 2026-08-30 12:23:27 | 49.54469 | 12.77967 | 97° | 16km/h | 29765m | 5.8m/s | -45.1°C | 2.8% | 12.9hPa | 2.6V | 03:44:00 | 00:00:00 | 00:00:00 | |
| SP3BTT-10 | 2026-08-30 12:23:24 | 49.54471 | 12.77941 | 91° | 13km/h | 29749m | 3.7m/s | -45.2°C | 2.9% | 12.9hPa | 2.7V | 00:00:00 | 00:00:00 | 00:00:00 | |
| DO3MHA-11 | 2026-08-30 12:23:22 | 49.54468 | 12.77934 | 17° | 16km/h | 29739m | 6.8m/s | -45.3°C | 2.9% | 12.9hPa | 2.6V | 03:44:00 | 02:04:09 | 00:00:00 | |
| OE5MMP-10 | 2026-08-30 12:23:21 | 49.54464 | 12.77934 | 349° | 16km/h | 29732m | 6.9m/s | -45.2°C | 2.9% | 12.9hPa | 2.6V | 00:00:00 | 02:04:08 | 00:00:00 | |
| ANDY1245 | 2026-08-30 12:23:16 | 49.54449 | 12.77951 | 292° | 11km/h | 29712m | 6.0m/s | -45.4°C | 0.7% | 13.0hPa | 2.7V | 03:45:00 | 00:00:00 | 00:00:00 | |
| DO3MHA-11 | 2026-08-30 12:23:12 | 49.54457 | 12.77939 | 93° | 15km/h | 29684m | 5.6m/s | -45.3°C | 2.9% | 13.0hPa | 2.7V | 00:00:00 | 02:03:59 | 00:00:00 | |
| OE5MMP-10 | 2026-08-30 12:23:11 | 49.54456 | 12.77932 | 70° | 13km/h | 29679m | 5.0m/s | -45.4°C | 2.9% | 13.0hPa | 2.7V | 00:00:00 | 02:03:58 | 00:00:00 | |
| SONDE2-11 | 2026-08-30 12:23:07 | 49.54445 | 12.77926 | 323° | 11km/h | 29658m | 6.1m/s | 0°C | -1.0% | -1.0hPa | 2.7V | 00:00:00 | 00:00:00 | 00:00:00 | |
| EDDB2-12 | 2026-08-30 12:22:58 | 49.54423 | 12.77944 | 39° | 13km/h | 29610m | 5.1m/s | 0°C | -1.0% | -1.0hPa | 2.7V | 00:00:00 | 00:00:00 | 00:00:00 | |
| PETON7-10 | 2026-08-30 12:22:57 | 49.54421 | 12.77941 | 69° | 7km/h | 29605m | 6.5m/s | -45.6°C | 2.9% | 13.2hPa | 2.7V | 00:00:00 | 02:03:44 | 00:00:00 | |
| DO3MHA-11 | 2026-08-30 12:22:52 | 49.54428 | 12.77933 | 225° | 7km/h | 29576m | 6.1m/s | -45.9°C | 3.0% | 13.2hPa | 2.7V | 00:00:00 | 02:03:39 | 00:00:00 | |
| OE5MMP-10 | 2026-08-30 12:22:51 | 49.54428 | 12.77933 | 316° | 9km/h | 29570m | 5.2m/s | -46.0°C | 3.0% | 13.3hPa | 2.7V | 00:00:00 | 02:03:38 | 00:00:00 | |
| OE5REO-15 | 2026-08-30 12:22:49 | 49.54427 | 12.77934 | 358° | 4km/h | 29559m | 6.2m/s | -46.0°C | 0.7% | 13.3hPa | 2.6V | 00:00:00 | 00:00:00 | 00:00:00 | |
| DO3MHA-11 | 2026-08-30 12:22:42 | 49.54414 | 12.77914 | 43° | 13km/h | 29520m | 4.7m/s | -46.0°C | 3.0% | 13.3hPa | 2.6V | 03:44:00 | 02:03:29 | 00:00:00 | |
| OE5MMP-10 | 2026-08-30 12:22:41 | 49.54412 | 12.77910 | 55° | 9km/h | 29515m | 6.0m/s | -46.0°C | 3.0% | 13.4hPa | 2.6V | 00:00:00 | 02:03:28 | 00:00:00 | |
| ANDY1245 | 2026-08-30 12:22:40 | 49.54412 | 12.77910 | 55° | 11km/h | 29515m | 6.0m/s | -46.0°C | 0.7% | 13.4hPa | 2.6V | 03:45:00 | 00:00:00 | 00:00:00 | |
| ANDY1245 | 2026-08-30 12:22:35 | 49.54410 | 12.77903 | 361° | 7km/h | 29486m | 6.4m/s | -46.2°C | 0.7% | 13.5hPa | 2.6V | 03:45:00 | 00:00:00 | 00:00:00 | |
| NBG1-10 | 2026-08-30 12:22:33 | 49.54400 | 12.77903 | 11° | 15km/h | 29471m | 4.8m/s | -46.0°C | 3.0% | 13.5hPa | 2.6V | 03:44:00 | 02:03:20 | 00:00:00 | |
| OE5MMP-10 | 2026-08-30 12:22:31 | 49.54394 | 12.77899 | 39° | 9km/h | 29459m | 6.0m/s | -45.9°C | 2.9% | 13.5hPa | 2.6V | 00:00:00 | 02:03:18 | 00:00:00 | |
| DO3MHA-11 | 2026-08-30 12:22:30 | 49.54392 | 12.77897 | 60° | 9km/h | 29453m | 5.3m/s | -45.9°C | 2.9% | 13.5hPa | 2.6V | 00:00:00 | 02:03:17 | 00:00:00 | |
| ANDY1245 | 2026-08-30 12:22:29 | 49.54392 | 12.77896 | 61° | 9km/h | 29453m | 5.4m/s | -46.0°C | 0.7% | 13.5hPa | 2.6V | 03:45:00 | 00:00:00 | 00:00:00 | |
| PETON7-10 | 2026-08-30 12:22:27 | 49.54389 | 12.77886 | 56° | 11km/h | 29436m | 6.6m/s | -46.1°C | 3.0% | 13.5hPa | 2.6V | 03:45:00 | 00:00:00 | 00:00:00 | |
| DK5PH-5 | 2026-08-30 12:22:26 | 49.54387 | 12.77883 | 47° | 11km/h | 29430m | 5.4m/s | -46.1°C | 3.0% | 13.5hPa | 2.6V | 00:00:00 | 02:03:13 | 00:00:00 | |
| SP3BTT-10 | 2026-08-30 12:22:25 | 49.54385 | 12.77880 | 44° | 13km/h | 29425m | 4.5m/s | -46.0°C | 3.0% | 13.6hPa | 2.6V | 00:00:00 | 00:00:00 | 00:00:00 | |
| ANDY1245 | 2026-08-30 12:22:24 | 49.54385 | 12.77880 | 44° | 11km/h | 29425m | 4.5m/s | -46.1°C | 0.7% | 13.6hPa | 2.6V | 00:00:00 | 00:00:00 | 00:00:00 | |
| DO3MHA-11 | 2026-08-30 12:22:20 | 49.54387 | 12.77870 | 156° | 11km/h | 29398m | 4.7m/s | -46.2°C | 3.0% | 13.6hPa | 2.6V | 00:00:00 | 02:03:07 | 00:00:00 | |
| ANDY1245 | 2026-08-30 12:22:18 | 49.54388 | 12.77869 | 118° | 4km/h | 29393m | 5.1m/s | -46.4°C | 0.7% | 13.7hPa | 2.6V | 00:00:00 | 00:00:00 | 00:00:00 | |
| PETON7-10 | 2026-08-30 12:22:12 | 49.54371 | 12.77848 | 70° | 11km/h | 29354m | 5.5m/s | -46.6°C | 3.0% | 13.7hPa | 2.6V | 00:00:00 | 02:02:59 | 00:00:00 | |
| OE5MMP-10 | 2026-08-30 12:22:11 | 49.54371 | 12.77846 | 118° | 9km/h | 29349m | 5.1m/s | -46.5°C | 3.1% | 13.7hPa | 2.6V | 00:00:00 | 02:02:58 | 00:00:00 | |
| DO3MHA-11 | 2026-08-30 12:22:10 | 49.54371 | 12.77845 | 151° | 13km/h | 29343m | 5.3m/s | -46.4°C | 3.1% | 13.7hPa | 2.6V | 00:00:00 | 02:02:57 | 00:00:00 | |
| OE5DXL-15 | 2026-08-30 12:22:08 | 49.54368 | 12.77840 | 54° | 20km/h | 29321m | 5.2m/s | -46.7°C | 3.1% | 13.8hPa | 2.6V | 00:00:00 | 00:00:00 | 00:00:00 | |
| EDDB2-11 | 2026-08-30 12:21:49 | 49.54342 | 12.77792 | 59° | 31km/h | 29224m | 5.7m/s | -47.0°C | 0.7% | 14.0hPa | 2.7V | 00:00:00 | 00:00:00 | 00:00:00 | |
| ANDY1245 | 2026-08-30 12:21:47 | 49.54337 | 12.77782 | 56° | 29km/h | 29219m | 4.7m/s | -47.2°C | 0.7% | 14.0hPa | 2.7V | 00:00:00 | 00:00:00 | 00:00:00 | |
| ANDY1245 | 2026-08-30 12:21:42 | 49.54329 | 12.77765 | 277° | 7km/h | 29184m | 6.1m/s | -47.2°C | 0.8% | 14.1hPa | 2.7V | 00:00:00 | 00:00:00 | 00:00:00 | |
| OE5MMP-10 | 2026-08-30 12:21:41 | 49.54329 | 12.77768 | 308° | 20km/h | 29178m | 6.0m/s | -47.0°C | 3.2% | 14.1hPa | 2.7V | 03:45:00 | 02:02:28 | 00:00:00 | |
| DO3MHA-11 | 2026-08-30 12:21:40 | 49.54327 | 12.77769 | 349° | 20km/h | 29172m | 4.8m/s | -47.0°C | 3.2% | 14.1hPa | 2.7V | 00:00:00 | 02:02:27 | 00:00:00 | |
| DL6DJ-15 | 2026-08-30 12:21:39 | 49.54324 | 12.77769 | 24° | 13km/h | 29167m | 4.6m/s | -47.1°C | 0.7% | 14.1hPa | 2.7V | 00:00:00 | 00:00:00 | 00:00:00 | |
| SONDE2-11 | 2026-08-30 12:21:34 | 49.54314 | 12.77727 | 82° | 26km/h | 29138m | 4.1m/s | 0°C | -1.0% | -1.0hPa | 2.7V | 00:00:00 | 00:00:00 | 00:00:00 | |
| BAUMI2-15 | 2026-08-30 12:21:32 | 49.54310 | 12.77710 | 59° | 15km/h | 29128m | 6.7m/s | 0°C | 0% | 0hPa | 2.7V | 00:00:00 | 02:02:19 | 00:00:00 | |
| OE5MMP-10 | 2026-08-30 12:21:31 | 49.54307 | 12.77706 | 30° | 15km/h | 29122m | 6.7m/s | -47.2°C | 3.2% | 14.2hPa | 2.7V | 00:00:00 | 02:02:18 | 00:00:00 | |
| DO3MHA-11 | 2026-08-30 12:21:30 | 49.54303 | 12.77704 | 4° | 15km/h | 29115m | 5.7m/s | -47.2°C | 3.2% | 14.2hPa | 2.7V | 00:00:00 | 02:02:17 | 00:00:00 | |
| SP3BTT-10 | 2026-08-30 12:21:27 | 49.54292 | 12.77707 | 351° | 26km/h | 29099m | 5.9m/s | -47.2°C | 3.2% | 14.2hPa | 2.7V | 03:46:00 | 00:00:00 | 00:00:00 | |
| DK5PH-5 | 2026-08-30 12:21:26 | 49.54289 | 12.77707 | 18° | 16km/h | 29093m | 6.3m/s | -47.1°C | 3.2% | 14.3hPa | 2.7V | 03:46:00 | 02:02:13 | 00:00:00 | |
| PETON7-10 | 2026-08-30 12:21:25 | 49.54288 | 12.77705 | 70° | 20km/h | 29087m | 5.8m/s | -47.1°C | 3.2% | 14.3hPa | 2.7V | 03:46:00 | 02:02:12 | 00:00:00 | |
| BAUMI2-15 | 2026-08-30 12:21:24 | 49.54288 | 12.77701 | 83° | 15km/h | 29082m | 5.3m/s | 0°C | 0% | 0hPa | 2.7V | 00:00:00 | 02:02:11 | 00:00:00 | |
| OE5MMP-10 | 2026-08-30 12:21:21 | 49.54283 | 12.77681 | 57° | 22km/h | 29064m | 6.7m/s | -47.1°C | 3.2% | 14.3hPa | 2.7V | 00:00:00 | 02:02:08 | 00:00:00 | |
| DO3MHA-11 | 2026-08-30 12:21:20 | 49.54279 | 12.77674 | 47° | 22km/h | 29058m | 5.6m/s | -47.0°C | 3.2% | 14.3hPa | 2.7V | 00:00:00 | 02:02:07 | 00:00:00 | |
| EDDB2-11 | 2026-08-30 12:21:18 | 49.54270 | 12.77660 | 43° | 26km/h | 29047m | 5.6m/s | -47.1°C | 0.7% | 14.4hPa | 2.7V | 00:00:00 | 00:00:00 | 00:00:00 | |
| OE5REO-15 | 2026-08-30 12:21:12 | 49.54251 | 12.77629 | 32° | 16km/h | 29017m | 6.7m/s | -47.0°C | 0.7% | 14.5hPa | 2.7V | 03:46:00 | 00:00:00 | 00:00:00 | |
| OE5MMP-10 | 2026-08-30 12:21:11 | 49.54242 | 12.77624 | 10° | 20km/h | 29004m | 5.2m/s | -47.0°C | 3.1% | 14.5hPa | 2.7V | 00:00:00 | 02:01:58 | 00:00:00 | |
| DO3MHA-11 | 2026-08-30 12:21:10 | 49.54238 | 12.77623 | 15° | 20km/h | 28999m | 4.9m/s | -47.1°C | 3.1% | 14.5hPa | 2.7V | 03:46:00 | 02:01:57 | 00:00:00 | |
| DL6DJ-15 | 2026-08-30 12:21:08 | 49.54232 | 12.77618 | 50° | 13km/h | 28986m | 7.0m/s | -47.1°C | 0.7% | 14.6hPa | 2.7V | 00:00:00 | 00:00:00 | 00:00:00 | |
| BAUMI2-15 | 2026-08-30 12:21:06 | 49.54228 | 12.77607 | 63° | 26km/h | 28975m | 5.5m/s | 0°C | 0% | 0hPa | 2.7V | 00:00:00 | 02:01:53 | 00:00:00 | |
| SONDE2-11 | 2026-08-30 12:21:03 | 49.54197 | 12.77562 | 40° | 20km/h | 28931m | 5.9m/s | 0°C | -1.0% | -1.0hPa | 2.7V | 00:00:00 | 00:00:00 | 00:00:00 | |
| EDDB2-11 | 2026-08-30 12:20:47 | 49.54138 | 12.77531 | 27° | 26km/h | 28854m | 6.9m/s | -47.2°C | 0.7% | 14.8hPa | 2.7V | 00:00:00 | 00:00:00 | 00:00:00 | |
| OE5MMP-10 | 2026-08-30 12:20:41 | 49.54100 | 12.77513 | 20° | 27km/h | 28823m | 6.1m/s | -47.2°C | 3.2% | 14.9hPa | 2.7V | 00:00:00 | 02:01:28 | 00:00:00 | |
| DO3MHA-11 | 2026-08-30 12:20:40 | 49.54094 | 12.77510 | 22° | 27km/h | 28817m | 5.4m/s | -47.2°C | 3.2% | 14.9hPa | 2.7V | 00:00:00 | 02:01:27 | 00:00:00 | |
| PETON7-10 | 2026-08-30 12:20:38 | 49.54081 | 12.77503 | 18° | 31km/h | 28806m | 6.8m/s | -47.3°C | 3.2% | 14.9hPa | 2.7V | 00:00:00 | 02:01:25 | 00:00:00 | |
| DL6DJ-15 | 2026-08-30 12:20:37 | 49.54066 | 12.77496 | 12° | 31km/h | 28792m | 6.0m/s | -47.2°C | 0.8% | 15.0hPa | 2.7V | 00:00:00 | 00:00:00 | 00:00:00 | |
| HSKMA3-T | 2026-08-30 12:20:16 | 49.53911 | 12.77485 | 349° | 26km/h | 28669m | 6.2m/s | -47.1°C | 0% | 15.2hPa | 2.7V | 03:48:26 | 02:01:03 | 00:00:00 | |
| HSKMA3-T | 2026-08-30 12:20:01 | 49.53806 | 12.77531 | 328° | 20km/h | 28580m | 6.8m/s | -46.9°C | 0% | 15.5hPa | 2.7V | 03:48:26 | 02:00:48 | 00:00:00 | |
| OE5MMP-10 | 2026-08-30 12:20:01 | 49.53806 | 12.77531 | 328° | 27km/h | 28580m | 6.8m/s | -46.8°C | 3.2% | 15.4hPa | 2.6V | 00:00:00 | 02:00:48 | 00:00:00 | |
| HSKMA3-T | 2026-08-30 12:19:43 | 49.53702 | 12.77600 | 338° | 16km/h | 28474m | 6.5m/s | -46.9°C | 0% | 15.7hPa | 2.6V | 03:48:26 | 02:00:30 | 00:00:00 | |
| HSKMA3-T | 2026-08-30 12:19:32 | 49.53651 | 12.77635 | 321° | 15km/h | 28411m | 6.6m/s | -47°C | 0% | 15.9hPa | 2.6V | 03:48:26 | 02:00:19 | 00:00:00 | |
| HSKMA3-T | 2026-08-30 12:19:22 | 49.53616 | 12.77686 | 316° | 24km/h | 28353m | 4.6m/s | -46.8°C | 0% | 16.1hPa | 2.6V | 03:48:26 | 02:00:09 | 00:00:00 | |
| HSKMA3-T | 2026-08-30 12:19:09 | 49.53598 | 12.77755 | 280° | 11km/h | 28281m | 5.2m/s | 0°C | 0% | 16.2hPa | 2.7V | 03:48:26 | 01:59:56 | 00:00:00 | |
| HSKMA3-T | 2026-08-30 12:18:59 | 49.53595 | 12.77789 | 359° | 7km/h | 28226m | 4.9m/s | 0°C | 0% | 16.4hPa | 2.7V | 03:49:17 | 01:59:46 | 00:00:00 | |
| SONCRA | 2026-08-30 12:18:52 | 49.53578 | 12.77814 | 293° | 7km/h | 28186m | 5.6m/s | -46.1°C | 0.7% | 16.4hPa | 2.6V | 00:00:00 | 00:00:00 | 00:00:00 | |
| HSKMA3-T | 2026-08-30 12:18:34 | 49.53530 | 12.77828 | 31° | 7km/h | 28086m | 5.2m/s | 0°C | 0% | 16.7hPa | 2.6V | 03:49:17 | 01:59:21 | 00:00:00 | |
| HSKMA3-T | 2026-08-30 12:18:23 | 49.53479 | 12.77825 | 341° | 20km/h | 28026m | 4m/s | 0°C | 0% | 16.9hPa | 2.6V | 03:49:17 | 01:59:10 | 00:00:00 | |
| HSKMA3-T | 2026-08-30 12:18:10 | 49.53416 | 12.77811 | 350° | 33km/h | 27954m | 6.5m/s | 0°C | 0% | 17.1hPa | 2.7V | 03:50:59 | 01:58:57 | 00:00:00 | |
| HSKMA3-T | 2026-08-30 12:17:57 | 49.53335 | 12.77843 | 350° | 40km/h | 27885m | 5.8m/s | 0°C | 0% | 17.2hPa | 2.6V | 03:50:59 | 01:58:44 | 00:00:00 | |
| HSKMA3-T | 2026-08-30 12:17:47 | 49.53268 | 12.77910 | 339° | 26km/h | 27833m | 4m/s | 0°C | 0% | 17.4hPa | 2.7V | 03:50:59 | 01:58:34 | 00:00:00 | |
| HSKMA3-T | 2026-08-30 12:17:25 | 49.53143 | 12.78057 | 318° | 27km/h | 27715m | 4.2m/s | 0°C | 0% | 17.7hPa | 2.6V | 03:50:59 | 01:58:12 | 00:00:00 | |
| HSKMA3-T | 2026-08-30 12:17:13 | 49.53113 | 12.78119 | 358° | 11km/h | 27651m | 5.4m/s | 0°C | 0% | 17.9hPa | 2.7V | 03:50:59 | 01:58:00 | 00:00:00 | |
| HSKMA3-T | 2026-08-30 12:16:57 | 49.53082 | 12.78165 | 6° | 16km/h | 27563m | 6.5m/s | 0°C | 0% | 18.1hPa | 2.6V | 03:50:59 | 01:57:44 | 00:00:00 | |
| HSKMA3-T | 2026-08-30 12:16:47 | 49.53066 | 12.78177 | 85° | 4km/h | 27508m | 4.8m/s | 0°C | 0% | 18.2hPa | 2.7V | 03:50:59 | 01:57:34 | 00:00:00 | |
| HSKMA3-T | 2026-08-30 12:16:28 | 49.53031 | 12.78155 | 21° | 26km/h | 27400m | 5.2m/s | 0°C | 0% | 18.6hPa | 2.6V | 18:12:15 | 01:57:15 | 00:00:00 | |
| SONDE2-11 | 2026-08-30 12:16:24 | 49.53013 | 12.78131 | 74° | 7km/h | 27372m | 5.7m/s | -48.7°C | 0.8% | 18.6hPa | 2.6V | 00:00:00 | 00:00:00 | 00:00:00 | |
| PETON7-10 | 2026-08-30 12:16:23 | 49.53013 | 12.78131 | 75° | 15km/h | 27373m | 5.6m/s | -48.7°C | 3.4% | 18.6hPa | 2.6V | 03:51:00 | 00:00:00 | 00:00:00 | |
| OE5MMP-10 | 2026-08-30 12:16:21 | 49.53012 | 12.78130 | 296° | 16km/h | 27360m | 6.0m/s | -48.7°C | 3.5% | 18.6hPa | 2.6V | 03:51:00 | 01:57:08 | 00:00:00 | |
| DO3MHA-11 | 2026-08-30 12:16:18 | 49.53009 | 12.78135 | 350° | 20km/h | 27344m | 5.6m/s | -48.6°C | 3.5% | 18.7hPa | 2.7V | 00:00:00 | 01:57:05 | 00:00:00 | |
| SONCRA | 2026-08-30 12:16:17 | 49.53006 | 12.78135 | 18° | 11km/h | 27338m | 6.2m/s | -48.7°C | 0.8% | 18.7hPa | 2.6V | 00:00:00 | 00:00:00 | 00:00:00 | |
| OE5DRO-10 | 2026-08-30 12:16:12 | 49.52980 | 12.78120 | 14° | 26km/h | 27309m | 4.7m/s | -48.9°C | 3.5% | 18.8hPa | 2.6V | 03:51:00 | 00:00:00 | 00:00:00 | |
| OE5MMP-10 | 2026-08-30 12:16:11 | 49.52974 | 12.78117 | 18° | 16km/h | 27305m | 5.0m/s | -48.8°C | 3.5% | 18.8hPa | 2.6V | 00:00:00 | 01:56:58 | 00:00:00 | |
| DK5PH-5 | 2026-08-30 12:16:10 | 49.52968 | 12.78114 | 23° | 18km/h | 27299m | 6.8m/s | -48.7°C | 3.5% | 18.8hPa | 2.6V | 00:00:00 | 01:56:57 | 00:00:00 | |
| PETON7-10 | 2026-08-30 12:16:09 | 49.52961 | 12.78109 | 20° | 22km/h | 27287m | 5.0m/s | -48.6°C | 3.4% | 18.8hPa | 2.6V | 00:00:00 | 01:56:55 | 00:00:00 | |
| DO3MHA-11 | 2026-08-30 12:16:08 | 49.52961 | 12.78109 | 20° | 20km/h | 27287m | 5.0m/s | -48.6°C | 3.4% | 18.8hPa | 2.6V | 00:00:00 | 01:56:55 | 00:00:00 | |
| EDDB2-11 | 2026-08-30 12:16:07 | 49.52958 | 12.78108 | 359° | 9km/h | 27281m | 5.6m/s | -48.6°C | 0.8% | 18.9hPa | 2.6V | 00:00:00 | 00:00:00 | 00:00:00 | |
| HSKMA3-T | 2026-08-30 12:15:49 | 49.52857 | 12.78126 | 349° | 20km/h | 27181m | 6.7m/s | 0°C | 0% | 19.2hPa | 2.6V | 18:12:15 | 01:56:36 | 00:00:00 | |
| SONCRA | 2026-08-30 12:15:46 | 49.52839 | 12.78137 | 337° | 29km/h | 27163m | 5.7m/s | -48.8°C | 0.8% | 19.2hPa | 2.7V | 00:00:00 | 00:00:00 | 00:00:00 | |
| EDDB2-12 | 2026-08-30 12:15:43 | 49.52817 | 12.78149 | 341° | 29km/h | 27145m | 5.0m/s | -49.0°C | 0.8% | 19.3hPa | 2.7V | 00:00:00 | 00:00:00 | 00:00:00 | |
| OE5MMP-10 | 2026-08-30 12:15:41 | 49.52802 | 12.78158 | 337° | 24km/h | 27133m | 6.7m/s | -48.9°C | 3.5% | 19.3hPa | 2.7V | 03:51:00 | 01:56:28 | 00:00:00 | |
| DO3MHA-11 | 2026-08-30 12:15:38 | 49.52782 | 12.78173 | 332° | 26km/h | 27117m | 5.7m/s | -48.8°C | 3.4% | 19.3hPa | 2.7V | 00:00:00 | 01:56:25 | 00:00:00 | |
| EDDB2-11 | 2026-08-30 12:15:37 | 49.52774 | 12.78180 | 334° | 13km/h | 27104m | 5.8m/s | -48.9°C | 0.8% | 19.4hPa | 2.7V | 00:00:00 | 00:00:00 | 00:00:00 | |
| SP3BTT-10 | 2026-08-30 12:15:35 | 49.52771 | 12.78182 | 337° | 18km/h | 27099m | 4.2m/s | -48.9°C | 3.4% | 19.4hPa | 2.7V | 00:00:00 | 00:00:00 | 00:00:00 | |
| ANDY1245 | 2026-08-30 12:15:33 | 49.52762 | 12.78188 | 336° | 24km/h | 27089m | 6.3m/s | -49.1°C | 0.8% | 19.5hPa | 2.7V | 00:00:00 | 00:00:00 | 00:00:00 | |
| OE5DRO-10 | 2026-08-30 12:15:32 | 49.52749 | 12.78199 | 329° | 29km/h | 27076m | 5.7m/s | -48.9°C | 3.4% | 19.4hPa | 2.7V | 00:00:00 | 00:00:00 | 00:00:00 | |
| OE5MMP-10 | 2026-08-30 12:15:31 | 49.52749 | 12.78199 | 329° | 31km/h | 27076m | 5.7m/s | -48.9°C | 3.4% | 19.4hPa | 2.7V | 00:00:00 | 01:56:18 | 00:00:00 | |
| DO3MHA-11 | 2026-08-30 12:15:28 | 49.52726 | 12.78225 | 321° | 24km/h | 27058m | 6.2m/s | -48.9°C | 3.4% | 19.5hPa | 2.7V | 00:00:00 | 01:56:15 | 00:00:00 | |
| DL6DJ-15 | 2026-08-30 12:15:26 | 49.52714 | 12.78239 | 327° | 26km/h | 27047m | 5.3m/s | -49.1°C | 0.8% | 19.6hPa | 2.7V | 00:00:00 | 00:00:00 | 00:00:00 | |
| PETON7-10 | 2026-08-30 12:15:23 | 49.52696 | 12.78248 | 356° | 27km/h | 27029m | 5.3m/s | -48.8°C | 3.4% | 19.6hPa | 2.7V | 03:52:00 | 01:56:10 | 00:00:00 | |
| SONDE2-11 | 2026-08-30 12:15:22 | 49.52685 | 12.78248 | 3° | 20km/h | 27017m | 6.5m/s | -49.1°C | 0.8% | 19.7hPa | 2.7V | 00:00:00 | 00:00:00 | 00:00:00 | |
| OE5WHR-10 | 2026-08-30 12:15:21 | 49.52685 | 12.78248 | 4° | 29km/h | 27017m | 6.4m/s | -49.0°C | 3.4% | 19.6hPa | 2.7V | 00:00:00 | 01:56:08 | 00:00:00 | |
| DO3MHA-11 | 2026-08-30 12:15:18 | 49.52671 | 12.78251 | 334° | 31km/h | 27002m | 3.9m/s | -49.0°C | 3.4% | 19.7hPa | 2.7V | 00:00:00 | 01:56:05 | 00:00:00 | |
| SONCRA | 2026-08-30 12:15:15 | 49.52651 | 12.78269 | 330° | 40km/h | 26983m | 6.6m/s | -49.2°C | 0.8% | 19.8hPa | 2.7V | 00:00:00 | 00:00:00 | 00:00:00 | |
| OE5DRO-10 | 2026-08-30 12:15:13 | 49.52624 | 12.78292 | 332° | 27km/h | 26967m | 6.2m/s | -49.2°C | 3.4% | 19.8hPa | 2.7V | 00:00:00 | 00:00:00 | 00:00:00 | |
| EDDB2-12 | 2026-08-30 12:15:12 | 49.52624 | 12.78292 | 331° | 37km/h | 26966m | 6.3m/s | -49.3°C | 0.8% | 19.8hPa | 2.7V | 00:00:00 | 00:00:00 | 00:00:00 | |
| OE5MMP-10 | 2026-08-30 12:15:11 | 49.52616 | 12.78298 | 334° | 26km/h | 26960m | 6.5m/s | -49.3°C | 3.4% | 19.8hPa | 2.7V | 00:00:00 | 01:55:58 | 00:00:00 | |
| DO3MHA-11 | 2026-08-30 12:15:08 | 49.52600 | 12.78308 | 347° | 27km/h | 26942m | 6.0m/s | -49.3°C | 3.5% | 19.9hPa | 2.7V | 03:52:00 | 01:55:55 | 00:00:00 | |
| EDDB2-11 | 2026-08-30 12:15:05 | 49.52581 | 12.78316 | 340° | 29km/h | 26924m | 5.3m/s | -49.7°C | 0.8% | 20.0hPa | 2.7V | 00:00:00 | 00:00:00 | 00:00:00 | |
| DL6DJ-15 | 2026-08-30 12:14:55 | 49.52520 | 12.78372 | 321° | 22km/h | 26864m | 6.8m/s | -49.8°C | 0.8% | 20.2hPa | 2.7V | 00:00:00 | 00:00:00 | 00:00:00 | |
| SONDE2-11 | 2026-08-30 12:14:50 | 49.52504 | 12.78391 | 341° | 13km/h | 26833m | 5.4m/s | -49.9°C | 0.8% | 20.2hPa | 2.7V | 00:00:00 | 00:00:00 | 00:00:00 | |
| DO3MHA-11 | 2026-08-30 12:14:48 | 49.52499 | 12.78395 | 321° | 15km/h | 26823m | 6.0m/s | -49.8°C | 3.5% | 20.2hPa | 2.7V | 00:00:00 | 01:55:35 | 00:00:00 | |
| SONCRA | 2026-08-30 12:14:44 | 49.52494 | 12.78413 | 293° | 15km/h | 26798m | 6.1m/s | -50.0°C | 0.8% | 20.4hPa | 2.7V | 00:00:00 | 00:00:00 | 00:00:00 | |
| OE5MMP-10 | 2026-08-30 12:14:41 | 49.52486 | 12.78429 | 311° | 15km/h | 26781m | 5.0m/s | -50.0°C | 3.6% | 20.4hPa | 2.7V | 00:00:00 | 01:55:28 | 00:00:00 | |
| DO3MHA-11 | 2026-08-30 12:14:38 | 49.52480 | 12.78447 | 287° | 13km/h | 26763m | 5.2m/s | -50.0°C | 3.6% | 20.4hPa | 2.7V | 00:00:00 | 01:55:25 | 00:00:00 | |
| OE5DXL-15 | 2026-08-30 12:14:37 | 49.52475 | 12.78462 | 311° | 11km/h | 26746m | 6.3m/s | -50.1°C | 3.6% | 20.5hPa | 2.7V | 03:52:00 | 00:00:00 | 00:00:00 | |
| OE5DRO-10 | 2026-08-30 12:14:35 | 49.52473 | 12.78466 | 318° | 15km/h | 26740m | 4.9m/s | -50.1°C | 3.6% | 20.5hPa | 2.7V | 03:52:00 | 00:00:00 | 00:00:00 | |
| EDDB2-11 | 2026-08-30 12:14:34 | 49.52474 | 12.78466 | 317° | 9km/h | 26740m | 5.0m/s | -50.2°C | 0.8% | 20.5hPa | 2.7V | 00:00:00 | 00:00:00 | 00:00:00 | |
| OE5WHR-10 | 2026-08-30 12:14:33 | 49.52472 | 12.78468 | 307° | 13km/h | 26735m | 5.0m/s | -50.3°C | 3.7% | 20.5hPa | 2.7V | 03:52:00 | 00:00:00 | 00:00:00 | |
| OE5MMP-10 | 2026-08-30 12:14:31 | 49.52471 | 12.78474 | 257° | 16km/h | 26722m | 6.3m/s | -50.2°C | 3.7% | 20.6hPa | 2.7V | 00:00:00 | 01:55:18 | 00:00:00 | |
| DO3MHA-11 | 2026-08-30 12:14:28 | 49.52473 | 12.78491 | 277° | 16km/h | 26704m | 6.7m/s | -50.2°C | 3.7% | 20.6hPa | 2.7V | 03:53:00 | 01:55:15 | 00:00:00 | |
| PG1ADW-2 | 2026-08-30 12:14:25 | 49.52469 | 12.78512 | 280° | 13km/h | 26688m | 5.5m/s | -50.3°C | 3.7% | 20.7hPa | 2.7V | 00:00:00 | 01:55:12 | 00:00:00 | |
| DL6DJ-15 | 2026-08-30 12:14:24 | 49.52470 | 12.78525 | 257° | 16km/h | 26676m | 5.7m/s | -50.3°C | 0.9% | 20.7hPa | 2.7V | 00:00:00 | 00:00:00 | 00:00:00 | |
| PETON7-10 | 2026-08-30 12:14:23 | 49.52469 | 12.78525 | 258° | 13km/h | 26676m | 5.6m/s | -50.2°C | 3.7% | 20.7hPa | 2.7V | 03:53:00 | 00:00:00 | 00:00:00 | |
| OE5MMP-10 | 2026-08-30 12:14:21 | 49.52471 | 12.78536 | 260° | 11km/h | 26665m | 5.1m/s | -50.2°C | 3.7% | 20.7hPa | 2.6V | 03:53:00 | 01:55:08 | 00:00:00 | |
| SONDE2-11 | 2026-08-30 12:14:20 | 49.52471 | 12.78545 | 302° | 9km/h | 26653m | 6.2m/s | -50.3°C | 0.9% | 20.8hPa | 2.7V | 00:00:00 | 00:00:00 | 00:00:00 | |
| DO3MHA-11 | 2026-08-30 12:14:18 | 49.52469 | 12.78549 | 320° | 13km/h | 26647m | 4.8m/s | -50.1°C | 3.6% | 20.8hPa | 2.7V | 00:00:00 | 01:55:05 | 00:00:00 | |
| OE5DRO-10 | 2026-08-30 12:14:15 | 49.52465 | 12.78561 | 257° | 7km/h | 26625m | 5.7m/s | -50.2°C | 3.7% | 20.9hPa | 2.6V | 00:00:00 | 00:00:00 | 00:00:00 | |
| SONCRA | 2026-08-30 12:14:13 | 49.52466 | 12.78566 | 254° | 13km/h | 26620m | 5.1m/s | -50.4°C | 0.9% | 20.9hPa | 2.6V | 00:00:00 | 00:00:00 | 00:00:00 | |
| OE5MMP-10 | 2026-08-30 12:14:11 | 49.52466 | 12.78577 | 276° | 7km/h | 26609m | 6.6m/s | -50.3°C | 3.7% | 20.9hPa | 2.6V | 00:00:00 | 01:54:58 | 00:00:00 | |
| EDDB2-12 | 2026-08-30 12:14:10 | 49.52466 | 12.78582 | 289° | 13km/h | 26603m | 5.4m/s | -50.3°C | 0.9% | 21.0hPa | 2.6V | 00:00:00 | 00:00:00 | 00:00:00 | |
| DO3MHA-11 | 2026-08-30 12:14:08 | 49.52463 | 12.78590 | 299° | 4km/h | 26593m | 5.3m/s | -50.2°C | 3.6% | 21.0hPa | 2.6V | 00:00:00 | 01:54:55 | 00:00:00 | |
| PG1ADW-2 | 2026-08-30 12:14:05 | 49.52463 | 12.78594 | 153° | 9km/h | 26576m | 5.4m/s | -50.1°C | 3.7% | 21.0hPa | 2.6V | 00:00:00 | 00:00:00 | 00:00:00 | |
| EDDB2-11 | 2026-08-30 12:14:03 | 49.52463 | 12.78592 | 37° | 4km/h | 26563m | 6.7m/s | -50.3°C | 0.8% | 21.1hPa | 2.6V | 00:00:00 | 00:00:00 | 00:00:00 | |
| OE5MMP-10 | 2026-08-30 12:14:01 | 49.52460 | 12.78591 | 12° | 5km/h | 26552m | 4.7m/s | -50.2°C | 3.6% | 21.1hPa | 2.6V | 00:00:00 | 01:54:48 | 00:00:00 | |
| DO3MHA-11 | 2026-08-30 12:13:58 | 49.52458 | 12.78592 | 235° | 7km/h | 26536m | 5.5m/s | -50.2°C | 3.7% | 21.1hPa | 2.6V | 00:00:00 | 01:54:45 | 00:00:00 | |
| OE5DRO-10 | 2026-08-30 12:13:56 | 49.52459 | 12.78595 | 280° | 11km/h | 26526m | 5.6m/s | -50.3°C | 3.7% | 21.2hPa | 2.6V | 00:00:00 | 00:00:00 | 00:00:00 | |
| PETON7-10 | 2026-08-30 12:13:53 | 49.52454 | 12.78599 | 339° | 11km/h | 26508m | 5.0m/s | -50.2°C | 3.7% | 21.3hPa | 2.6V | 00:00:00 | 01:54:40 | 00:00:00 | |
| OE5MMP-10 | 2026-08-30 12:13:51 | 49.52449 | 12.78603 | 331° | 11km/h | 26497m | 5.7m/s | -50.2°C | 3.7% | 21.3hPa | 2.6V | 00:00:00 | 01:54:38 | 00:00:00 | |
| DO3MHA-11 | 2026-08-30 12:13:48 | 49.52442 | 12.78609 | 335° | 11km/h | 26481m | 6.4m/s | -50.3°C | 3.7% | 21.3hPa | 2.7V | 03:53:00 | 01:54:35 | 00:00:00 | |
| OE5WHR-10 | 2026-08-30 12:13:45 | 49.52432 | 12.78614 | 348° | 13km/h | 26465m | 4.8m/s | -50.2°C | 3.7% | 21.4hPa | 2.6V | 00:00:00 | 00:00:00 | 00:00:00 | |
| SONCRA | 2026-08-30 12:13:42 | 49.52425 | 12.78612 | 44° | 5km/h | 26442m | 5.9m/s | -50.3°C | 0.9% | 21.5hPa | 2.6V | 00:00:00 | 00:00:00 | 00:00:00 | |
| OE5MMP-10 | 2026-08-30 12:13:41 | 49.52425 | 12.78612 | 45° | 13km/h | 26442m | 5.8m/s | -50.2°C | 3.7% | 21.5hPa | 2.6V | 03:53:00 | 01:54:28 | 00:00:00 | |
| EDDB2-12 | 2026-08-30 12:13:39 | 49.52421 | 12.78609 | 6° | 11km/h | 26430m | 5.3m/s | -50.4°C | 0.9% | 21.5hPa | 2.6V | 00:00:00 | 00:00:00 | 00:00:00 | |
| DO3MHA-11 | 2026-08-30 12:13:38 | 49.52418 | 12.78609 | 355° | 15km/h | 26425m | 4.7m/s | -50.4°C | 3.7% | 21.5hPa | 2.6V | 00:00:00 | 01:54:25 | 00:00:00 | |
| OE5DRO-10 | 2026-08-30 12:13:37 | 49.52412 | 12.78612 | 323° | 18km/h | 26414m | 6.1m/s | -50.2°C | 3.7% | 21.6hPa | 2.6V | 00:00:00 | 00:00:00 | 00:00:00 | |
| EDDB2-11 | 2026-08-30 12:13:32 | 49.52402 | 12.78629 | 318° | 18km/h | 26390m | 5.2m/s | -50.4°C | 0.9% | 21.7hPa | 2.6V | 00:00:00 | 00:00:00 | 00:00:00 | |
| OE5MMP-10 | 2026-08-30 12:13:31 | 49.52398 | 12.78634 | 323° | 13km/h | 26386m | 4.2m/s | -50.2°C | 3.6% | 21.7hPa | 2.6V | 00:00:00 | 01:54:18 | 00:00:00 | |
| DO3MHA-11 | 2026-08-30 12:13:28 | 49.52392 | 12.78640 | 11° | 15km/h | 26369m | 5.1m/s | -50.4°C | 3.7% | 21.7hPa | 2.6V | 00:00:00 | 01:54:15 | 00:00:00 | |
| PG1ADW-2 | 2026-08-30 12:13:25 | 49.52387 | 12.78636 | 17° | 20km/h | 26354m | 6.3m/s | -50.2°C | 3.7% | 21.8hPa | 2.6V | 00:00:00 | 00:00:00 | 00:00:00 | |
| PETON7-10 | 2026-08-30 12:13:23 | 49.52378 | 12.78634 | 2° | 20km/h | 26343m | 4.5m/s | -50.1°C | 3.6% | 21.8hPa | 2.6V | 03:54:00 | 00:00:00 | 00:00:00 | |
| DL6DJ-15 | 2026-08-30 12:13:22 | 49.52368 | 12.78634 | 353° | 18km/h | 26333m | 5.4m/s | -50.2°C | 0.9% | 21.9hPa | 2.6V | 00:00:00 | 00:00:00 | 00:00:00 | |
| OE5MMP-10 | 2026-08-30 12:13:21 | 49.52368 | 12.78634 | 354° | 20km/h | 26333m | 5.3m/s | -50.1°C | 3.6% | 21.8hPa | 2.6V | 00:00:00 | 01:54:08 | 00:00:00 | |
| DO3MHA-11 | 2026-08-30 12:13:18 | 49.52354 | 12.78641 | 334° | 20km/h | 26318m | 5.4m/s | -50.3°C | 3.7% | 21.9hPa | 2.7V | 00:00:00 | 01:54:05 | 00:00:00 | |
| SONDE2-11 | 2026-08-30 12:13:17 | 49.52349 | 12.78645 | 329° | 24km/h | 26312m | 6.5m/s | -50.3°C | 0.9% | 21.9hPa | 2.7V | 00:00:00 | 00:00:00 | 00:00:00 | |
| NBG1-10 | 2026-08-30 12:13:14 | 49.52334 | 12.78664 | 311° | 24km/h | 26296m | 6.1m/s | -50.1°C | 3.6% | 22.0hPa | 2.7V | 00:00:00 | 01:54:01 | 00:00:00 | |
| OE5DXL-15 | 2026-08-30 12:13:13 | 49.52327 | 12.78679 | 310° | 24km/h | 26281m | 3.9m/s | -50.1°C | 3.6% | 22.0hPa | 2.7V | 00:00:00 | 00:00:00 | 00:00:00 | |
| OE5MMP-10 | 2026-08-30 12:13:11 | 49.52327 | 12.78679 | 310° | 24km/h | 26281m | 3.9m/s | -50.1°C | 3.6% | 22.0hPa | 2.6V | 00:00:00 | 01:53:58 | 00:00:00 | |
| DO3MHA-11 | 2026-08-30 12:13:08 | 49.52315 | 12.78692 | 333° | 26km/h | 26266m | 4.7m/s | -50.2°C | 3.6% | 22.1hPa | 2.6V | 03:54:00 | 01:53:55 | 00:00:00 | |
| SP3BTT-10 | 2026-08-30 12:13:05 | 49.52297 | 12.78708 | 324° | 15km/h | 26250m | 5.7m/s | -50.4°C | 3.7% | 22.1hPa | 2.6V | 03:54:00 | 00:00:00 | 00:00:00 | |
| EDDB2-11 | 2026-08-30 12:13:01 | 49.52280 | 12.78733 | 320° | 24km/h | 26230m | 5.8m/s | -50.2°C | 0.9% | 22.2hPa | 2.6V | 00:00:00 | 00:00:00 | 00:00:00 | |
| DL6DJ-15 | 2026-08-30 12:12:51 | 49.52226 | 12.78791 | 317° | 22km/h | 26171m | 4.7m/s | -50.3°C | 0.9% | 22.4hPa | 2.6V | 00:00:00 | 00:00:00 | 00:00:00 | |
| SONDE2-11 | 2026-08-30 12:12:46 | 49.52216 | 12.78820 | 288° | 22km/h | 26150m | 4.7m/s | -50.5°C | 0.9% | 22.5hPa | 2.6V | 00:00:00 | 00:00:00 | 00:00:00 | |
| PG1ADW-2 | 2026-08-30 12:12:45 | 49.52214 | 12.78829 | 296° | 22km/h | 26145m | 5.4m/s | -50.5°C | 3.8% | 22.5hPa | 2.6V | 00:00:00 | 00:00:00 | 00:00:00 | |
| DO3MHA-11 | 2026-08-30 12:12:44 | 49.52210 | 12.78838 | 305° | 24km/h | 26139m | 6.2m/s | -50.6°C | 3.8% | 22.5hPa | 2.6V | 00:00:00 | 01:53:31 | 00:00:00 | |
| OE5MMP-10 | 2026-08-30 12:12:41 | 49.52195 | 12.78861 | 323° | 20km/h | 26123m | 4.7m/s | -50.6°C | 3.7% | 22.5hPa | 2.6V | 00:00:00 | 01:53:28 | 00:00:00 | |
| SONCRA | 2026-08-30 12:12:40 | 49.52187 | 12.78871 | 313° | 16km/h | 26113m | 5.1m/s | -50.7°C | 0.9% | 22.6hPa | 2.6V | 00:00:00 | 00:00:00 | 00:00:00 | |
| PETON7-10 | 2026-08-30 12:12:38 | 49.52184 | 12.78876 | 301° | 18km/h | 26108m | 4.3m/s | -50.6°C | 3.7% | 22.6hPa | 2.6V | 00:00:00 | 00:00:00 | 00:00:00 | |
| HSKMA3-T | 2026-08-30 12:12:19 | 49.52147 | 12.78972 | 272° | 18km/h | 26008m | 4.8m/s | 0°C | 0% | 23hPa | 2.6V | 18:12:15 | 01:53:06 | 00:00:00 | |
| OE5REO-15 | 2026-08-30 12:12:19 | 49.52147 | 12.78972 | 273° | 18km/h | 26008m | 4.8m/s | -50.6°C | 0.9% | 23.0hPa | 2.7V | 00:00:00 | 00:00:00 | 00:00:00 | |
| OE5WHR-10 | 2026-08-30 12:12:18 | 49.52147 | 12.78979 | 276° | 15km/h | 26004m | 4.7m/s | -50.5°C | 3.7% | 23.0hPa | 2.7V | 00:00:00 | 00:00:00 | 00:00:00 | |
| SONDE2-11 | 2026-08-30 12:12:15 | 49.52143 | 12.78995 | 322° | 15km/h | 25988m | 4.4m/s | -50.5°C | 0.9% | 23.1hPa | 2.6V | 00:00:00 | 00:00:00 | 00:00:00 | |
| DO3MHA-11 | 2026-08-30 12:12:14 | 49.52139 | 12.78999 | 333° | 15km/h | 25983m | 6.2m/s | -50.6°C | 3.8% | 23.0hPa | 2.6V | 00:00:00 | 01:53:01 | 00:00:00 | |
| ANDY1245 | 2026-08-30 12:12:13 | 49.52139 | 12.78999 | 333° | 20km/h | 25983m | 6.3m/s | -50.6°C | 0.9% | 23.1hPa | 2.6V | 00:00:00 | 00:00:00 | 00:00:00 | |
| HSKMA3-T | 2026-08-30 12:11:55 | 49.52116 | 12.79070 | 325° | 13km/h | 25885m | 4.7m/s | 0°C | 0% | 23.5hPa | 2.6V | 18:12:15 | 01:52:42 | 00:00:00 | |
| DL6DJ-15 | 2026-08-30 12:11:49 | 49.52110 | 12.79079 | 257° | 13km/h | 25848m | 4.7m/s | -51.0°C | 0.9% | 23.6hPa | 2.7V | 00:00:00 | 00:00:00 | 00:00:00 | |
| PG1ADW-2 | 2026-08-30 12:11:45 | 49.52115 | 12.79097 | 246° | 13km/h | 25832m | 4.1m/s | -51.0°C | 3.8% | 23.6hPa | 2.7V | 00:00:00 | 01:52:32 | 00:00:00 | |
| DO3MHA-11 | 2026-08-30 12:11:44 | 49.52117 | 12.79103 | 255° | 13km/h | 25828m | 3.7m/s | -50.9°C | 3.8% | 23.6hPa | 2.6V | 03:55:00 | 01:52:31 | 00:00:00 | |
| OE5MMP-10 | 2026-08-30 12:11:41 | 49.52114 | 12.79120 | 323° | 9km/h | 25812m | 4.6m/s | -51.0°C | 3.8% | 23.7hPa | 2.6V | 03:55:00 | 01:52:28 | 00:00:00 | |
| SONCRA | 2026-08-30 12:11:38 | 49.52104 | 12.79117 | 78° | 9km/h | 25792m | 4.5m/s | -51.2°C | 0.9% | 23.8hPa | 2.6V | 00:00:00 | 00:00:00 | 00:00:00 | |
| OE5WHR-10 | 2026-08-30 12:11:36 | 49.52104 | 12.79113 | 102° | 13km/h | 25787m | 3.9m/s | -51.2°C | 3.7% | 23.7hPa | 2.6V | 00:00:00 | 01:52:23 | 00:00:00 | |
| DO3MHA-11 | 2026-08-30 12:11:34 | 49.52105 | 12.79110 | 179° | 15km/h | 25778m | 5.6m/s | -51.2°C | 3.7% | 23.8hPa | 2.6V | 00:00:00 | 01:52:21 | 00:00:00 | |
| ANDY1245 | 2026-08-30 12:11:32 | 49.52105 | 12.79111 | 260° | 5km/h | 25772m | 5.2m/s | -51.2°C | 0.9% | 23.9hPa | 2.6V | 00:00:00 | 00:00:00 | 00:00:00 | |
| OE5MMP-10 | 2026-08-30 12:11:31 | 49.52106 | 12.79119 | 271° | 15km/h | 25762m | 4.9m/s | -51.2°C | 3.8% | 23.8hPa | 2.6V | 00:00:00 | 01:52:18 | 00:00:00 | |
| EDDB2-11 | 2026-08-30 12:11:28 | 49.52105 | 12.79135 | 287° | 11km/h | 25746m | 4.5m/s | -51.3°C | 0.9% | 24.0hPa | 2.6V | 00:00:00 | 00:00:00 | 00:00:00 | |
| ANDY1245 | 2026-08-30 12:11:27 | 49.52105 | 12.79134 | 289° | 11km/h | 25746m | 4.5m/s | -51.3°C | 0.9% | 24.0hPa | 2.6V | 00:00:00 | 00:00:00 | 00:00:00 | |
| PG1ADW-2 | 2026-08-30 12:11:25 | 49.52097 | 12.79146 | 330° | 16km/h | 25732m | 6.0m/s | -51.4°C | 3.9% | 24.0hPa | 2.6V | 00:00:00 | 00:00:00 | 00:00:00 | |
| PETON7-10 | 2026-08-30 12:11:23 | 49.52089 | 12.79153 | 335° | 15km/h | 25722m | 3.7m/s | -51.4°C | 3.9% | 24.0hPa | 2.6V | 03:56:00 | 00:00:00 | 00:00:00 | |
| DO3MHA-11 | 2026-08-30 12:11:21 | 49.52083 | 12.79158 | 316° | 11km/h | 25712m | 5.9m/s | -51.5°C | 3.9% | 24.0hPa | 2.6V | 00:00:00 | 01:52:08 | 00:00:00 | |
| DL6DJ-15 | 2026-08-30 12:11:17 | 49.52084 | 12.79168 | 271° | 9km/h | 25691m | 5.8m/s | -51.5°C | 0.9% | 24.1hPa | 2.6V | 00:00:00 | 00:00:00 | 00:00:00 | |
| OE5DRO-10 | 2026-08-30 12:11:15 | 49.52082 | 12.79177 | 313° | 20km/h | 25681m | 4.0m/s | -51.4°C | 3.9% | 24.2hPa | 2.6V | 00:00:00 | 00:00:00 | 00:00:00 | |
| SONDE2-11 | 2026-08-30 12:11:13 | 49.52075 | 12.79183 | 346° | 15km/h | 25671m | 6.1m/s | -51.4°C | 0.9% | 24.2hPa | 2.6V | 00:00:00 | 00:00:00 | 00:00:00 | |
| DO3MHA-11 | 2026-08-30 12:11:11 | 49.52067 | 12.79183 | 5° | 22km/h | 25660m | 4.5m/s | -51.3°C | 3.9% | 24.2hPa | 2.6V | 00:00:00 | 01:51:58 | 00:00:00 | |
| OE5WHR-10 | 2026-08-30 12:11:09 | 49.52056 | 12.79184 | 351° | 22km/h | 25650m | 5.7m/s | -51.4°C | 3.9% | 24.3hPa | 2.7V | 03:56:00 | 00:00:00 | 00:00:00 | |
| PETON7-10 | 2026-08-30 12:11:08 | 49.52051 | 12.79186 | 343° | 22km/h | 25644m | 5.8m/s | 0°C | 0% | 0hPa | 2.6V | 00:00:00 | 00:00:00 | 00:00:00 | |
| SONCRA | 2026-08-30 12:11:07 | 49.52039 | 12.79194 | 330° | 26km/h | 25633m | 4.4m/s | -51.3°C | 0.9% | 24.4hPa | 2.6V | 00:00:00 | 00:00:00 | 00:00:00 | |
| PG1ADW-2 | 2026-08-30 12:11:05 | 49.52033 | 12.79199 | 330° | 24km/h | 25629m | 4.4m/s | -51.3°C | 3.9% | 24.3hPa | 2.6V | 03:56:00 | 00:00:00 | 00:00:00 | |
| EDDB2-12 | 2026-08-30 12:11:04 | 49.52028 | 12.79203 | 333° | 20km/h | 25623m | 6.0m/s | -51.3°C | 0.9% | 24.4hPa | 2.6V | 00:00:00 | 00:00:00 | 00:00:00 | |
| EDDB2-11 | 2026-08-30 12:10:57 | 49.52000 | 12.79226 | 330° | 22km/h | 25586m | 5.5m/s | -51.1°C | 0.9% | 24.6hPa | 2.6V | 00:00:00 | 00:00:00 | 00:00:00 | |
| DL6DJ-15 | 2026-08-30 12:10:46 | 49.51947 | 12.79294 | 319° | 20km/h | 25527m | 4.5m/s | -51.1°C | 0.9% | 24.8hPa | 2.6V | 00:00:00 | 00:00:00 | 00:00:00 | |
| PG1ADW-2 | 2026-08-30 12:10:44 | 49.51938 | 12.79306 | 322° | 20km/h | 25516m | 5.9m/s | -51.2°C | 3.8% | 24.8hPa | 2.6V | 00:00:00 | 00:00:00 | 00:00:00 | |
| SONDE2-11 | 2026-08-30 12:10:42 | 49.51916 | 12.79331 | 326° | 35km/h | 25500m | 4.9m/s | -51.3°C | 0.9% | 24.9hPa | 2.6V | 00:00:00 | 00:00:00 | 00:00:00 | |
| DO3MHA-11 | 2026-08-30 12:10:41 | 49.51916 | 12.79330 | 327° | 27km/h | 25501m | 4.9m/s | -51.2°C | 3.8% | 24.8hPa | 2.6V | 00:00:00 | 01:51:28 | 00:00:00 | |
| PETON7-10 | 2026-08-30 12:10:38 | 49.51896 | 12.79349 | 325° | 24km/h | 25485m | 4.3m/s | -51.3°C | 3.8% | 24.9hPa | 2.7V | 00:00:00 | 00:00:00 | 00:00:00 | |
| OE5DRO-10 | 2026-08-30 12:10:37 | 49.51891 | 12.79356 | 316° | 24km/h | 25480m | 4.5m/s | -51.4°C | 3.8% | 24.9hPa | 2.7V | 00:00:00 | 00:00:00 | 00:00:00 | |
| SONCRA | 2026-08-30 12:10:36 | 49.51884 | 12.79372 | 295° | 27km/h | 25468m | 6.1m/s | -51.5°C | 0.9% | 25.0hPa | 2.7V | 00:00:00 | 00:00:00 | 00:00:00 | |
| DO3MHA-11 | 2026-08-30 12:10:31 | 49.51878 | 12.79412 | 279° | 20km/h | 25446m | 6.0m/s | -51.4°C | 3.9% | 25.0hPa | 2.7V | 00:00:00 | 01:51:18 | 00:00:00 | |
| DK5PH-5 | 2026-08-30 12:10:30 | 49.51877 | 12.79419 | 283° | 18km/h | 25440m | 5.5m/s | -51.4°C | 3.9% | 25.1hPa | 2.7V | 00:00:00 | 01:51:17 | 00:00:00 | |
| EDDB2-11 | 2026-08-30 12:10:26 | 49.51865 | 12.79445 | 322° | 24km/h | 25418m | 4.3m/s | -51.5°C | 0.9% | 25.2hPa | 2.7V | 00:00:00 | 00:00:00 | 00:00:00 | |
| OE5WHR-10 | 2026-08-30 12:10:24 | 49.51855 | 12.79454 | 336° | 16km/h | 25408m | 6.5m/s | -51.3°C | 3.9% | 25.2hPa | 2.7V | 00:00:00 | 01:51:11 | 00:00:00 | |
| PETON7-10 | 2026-08-30 12:10:23 | 49.51850 | 12.79457 | 338° | 18km/h | 25401m | 5.4m/s | -51.4°C | 3.8% | 25.2hPa | 2.7V | 03:57:00 | 00:00:00 | 00:00:00 | |
| DO3MHA-11 | 2026-08-30 12:10:21 | 49.51842 | 12.79464 | 316° | 18km/h | 25390m | 6.2m/s | -51.3°C | 3.8% | 25.3hPa | 2.7V | 03:57:00 | 01:51:08 | 00:00:00 | |
| OE5DRO-10 | 2026-08-30 12:10:18 | 49.51837 | 12.79485 | 274° | 16km/h | 25373m | 5.5m/s | -51.2°C | 3.8% | 25.4hPa | 2.7V | 03:57:00 | 00:00:00 | 00:00:00 | |
| ANDY1245 | 2026-08-30 12:10:17 | 49.51837 | 12.79484 | 274° | 18km/h | 25373m | 5.5m/s | -51.3°C | 1.0% | 25.4hPa | 2.7V | 00:00:00 | 00:00:00 | 00:00:00 | |
| DL6DJ-15 | 2026-08-30 12:10:16 | 49.51838 | 12.79503 | 266° | 13km/h | 25356m | 4.7m/s | -51.2°C | 0.9% | 25.5hPa | 2.7V | 00:00:00 | 00:00:00 | 00:00:00 | |
| OE5MMP-10 | 2026-08-30 12:10:11 | 49.51830 | 12.79526 | 320° | 15km/h | 25333m | 5.1m/s | -51.3°C | 3.8% | 25.5hPa | 2.7V | 00:00:00 | 01:50:58 | 00:00:00 | |
| DO3MHA-11 | 2026-08-30 12:10:10 | 49.51826 | 12.79531 | 328° | 15km/h | 25327m | 6.6m/s | -51.4°C | 3.8% | 25.5hPa | 2.7V | 00:00:00 | 01:50:57 | 00:00:00 | |
| PETON7-10 | 2026-08-30 12:10:08 | 49.51819 | 12.79537 | 331° | 15km/h | 25316m | 4.4m/s | -51.3°C | 3.8% | 25.6hPa | 2.6V | 00:00:00 | 01:50:55 | 00:00:00 | |
| OE5DXL-15 | 2026-08-30 12:10:07 | 49.51814 | 12.79549 | 277° | 13km/h | 25299m | 5.7m/s | -51.4°C | 3.9% | 25.6hPa | 2.6V | 00:00:00 | 00:00:00 | 00:00:00 | |
| SONCRA | 2026-08-30 12:10:04 | 49.51814 | 12.79554 | 259° | 15km/h | 25293m | 5.4m/s | -51.4°C | 0.9% | 25.7hPa | 2.6V | 00:00:00 | 00:00:00 | 00:00:00 | |
| OE5WHR-10 | 2026-08-30 12:10:03 | 49.51815 | 12.79560 | 249° | 13km/h | 25287m | 6.9m/s | -51.4°C | 3.8% | 25.7hPa | 2.6V | 00:00:00 | 00:00:00 | 00:00:00 | |
| EDDB2-12 | 2026-08-30 12:10:02 | 49.51817 | 12.79565 | 238° | 13km/h | 25280m | 5.8m/s | -51.4°C | 0.9% | 25.8hPa | 2.6V | 00:00:00 | 00:00:00 | 00:00:00 | |
| EDDB2-11 | 2026-08-30 12:09:55 | 49.51814 | 12.79606 | 307° | 11km/h | 25240m | 5.9m/s | -51.3°C | 0.9% | 25.9hPa | 2.6V | 00:00:00 | 00:00:00 | 00:00:00 | |
| PETON7-10 | 2026-08-30 12:09:53 | 49.51811 | 12.79613 | 288° | 13km/h | 25230m | 5.2m/s | -51.5°C | 3.9% | 25.9hPa | 2.6V | 00:00:00 | 00:00:00 | 00:00:00 | |
| OE5MMP-10 | 2026-08-30 12:09:51 | 49.51811 | 12.79622 | 254° | 16km/h | 25217m | 6.0m/s | -51.5°C | 3.9% | 26.0hPa | 2.6V | 00:00:00 | 01:50:38 | 00:00:00 | |
| HSKMA3-T | 2026-08-30 12:09:32 | 49.51836 | 12.79704 | 221° | 13km/h | 25107m | 4.7m/s | 0°C | 0% | 0hPa | 2.6V | 18:12:15 | 01:50:19 | 00:00:00 | |
| OE5MMP-10 | 2026-08-30 12:09:31 | 49.51838 | 12.79708 | 229° | 13km/h | 25101m | 5.9m/s | -51.7°C | 3.9% | 26.4hPa | 2.6V | 00:00:00 | 01:50:18 | 00:00:00 | |
| DK5PH-5 | 2026-08-30 12:09:30 | 49.51840 | 12.79712 | 247° | 11km/h | 25095m | 6.4m/s | -51.8°C | 3.9% | 26.5hPa | 2.6V | 00:00:00 | 01:50:17 | 00:00:00 | |
| DO3MHA-11 | 2026-08-30 12:09:24 | 49.51829 | 12.79725 | 344° | 11km/h | 25061m | 6.1m/s | -51.8°C | 3.9% | 26.6hPa | 2.7V | 03:58:00 | 01:50:11 | 00:00:00 | |
| PETON7-10 | 2026-08-30 12:09:23 | 49.51826 | 12.79727 | 325° | 11km/h | 25055m | 6.2m/s | -51.7°C | 3.9% | 26.6hPa | 2.6V | 03:58:00 | 01:50:10 | 00:00:00 | |
| OE5MMP-10 | 2026-08-30 12:09:21 | 49.51822 | 12.79736 | 280° | 13km/h | 25044m | 5.5m/s | -51.7°C | 4.0% | 26.7hPa | 2.6V | 00:00:00 | 01:50:08 | 00:00:00 | |
| OE5DRO-10 | 2026-08-30 12:09:20 | 49.51822 | 12.79741 | 257° | 11km/h | 25037m | 6.5m/s | -51.6°C | 4.0% | 26.7hPa | 2.7V | 00:00:00 | 00:00:00 | 00:00:00 | |
| DL6DJ-15 | 2026-08-30 12:09:13 | 49.51829 | 12.79771 | 312° | 9km/h | 25000m | 5.6m/s | -52.0°C | 0.9% | 26.9hPa | 2.7V | 00:00:00 | 00:00:00 | 00:00:00 | |
| OE5MMP-10 | 2026-08-30 12:09:11 | 49.51825 | 12.79773 | 357° | 9km/h | 24987m | 5.9m/s | -51.7°C | 3.8% | 26.9hPa | 2.7V | 00:00:00 | 01:49:58 | 00:00:00 | |
| SONDE2-11 | 2026-08-30 12:09:09 | 49.51820 | 12.79774 | 342° | 9km/h | 24976m | 6.5m/s | -51.6°C | 1.0% | 27.0hPa | 2.7V | 00:00:00 | 00:00:00 | 00:00:00 | |
| PETON7-10 | 2026-08-30 12:09:08 | 49.51818 | 12.79776 | 322° | 13km/h | 24970m | 5.4m/s | -51.6°C | 3.9% | 27.0hPa | 2.7V | 00:00:00 | 00:00:00 | 00:00:00 | |
| ANDY1245 | 2026-08-30 12:09:05 | 49.51816 | 12.79782 | 274° | 7km/h | 24959m | 5.7m/s | -51.8°C | 1.0% | 27.1hPa | 2.7V | 00:00:00 | 00:00:00 | 00:00:00 | |
| SONCRA | 2026-08-30 12:09:02 | 49.51818 | 12.79793 | 270° | 9km/h | 24936m | 6.8m/s | -52.1°C | 1.0% | 27.2hPa | 2.7V | 00:00:00 | 00:00:00 | 00:00:00 | |
| EDDB2-12 | 2026-08-30 12:09:00 | 49.51812 | 12.79812 | 313° | 13km/h | 24912m | 6.3m/s | -52.2°C | 0.9% | 27.3hPa | 2.7V | 00:00:00 | 00:00:00 | 00:00:00 | |
| PETON7-10 | 2026-08-30 12:08:53 | 49.51800 | 12.79836 | 286° | 13km/h | 24884m | 5.0m/s | -51.9°C | 3.9% | 27.3hPa | 2.7V | 00:00:00 | 00:00:00 | 00:00:00 | |
| OE5MMP-10 | 2026-08-30 12:08:51 | 49.51800 | 12.79846 | 257° | 13km/h | 24872m | 5.8m/s | -51.8°C | 3.9% | 27.4hPa | 2.7V | 00:00:00 | 01:49:38 | 00:00:00 | |
| OE5DRO-10 | 2026-08-30 12:08:42 | 49.51802 | 12.79890 | 294° | 11km/h | 24821m | 5.7m/s | -52.0°C | 3.9% | 27.6hPa | 2.6V | 00:00:00 | 00:00:00 | 00:00:00 | |
| OE5MMP-10 | 2026-08-30 12:08:41 | 49.51801 | 12.79893 | 294° | 13km/h | 24815m | 6.4m/s | -52.1°C | 3.9% | 27.7hPa | 2.6V | 00:00:00 | 01:49:28 | 00:00:00 | |
| PG1ADW-2 | 2026-08-30 12:08:40 | 49.51800 | 12.79897 | 286° | 13km/h | 24810m | 5.0m/s | -52.1°C | 3.9% | 27.7hPa | 2.6V | 00:00:00 | 00:00:00 | 00:00:00 | |
| PETON7-10 | 2026-08-30 12:08:38 | 49.51800 | 12.79906 | 254° | 11km/h | 24799m | 6.4m/s | -52.3°C | 4.0% | 27.7hPa | 2.6V | 00:00:00 | 01:49:25 | 00:00:00 | |
| OE5DXL-15 | 2026-08-30 12:08:36 | 49.51808 | 12.79923 | 242° | 11km/h | 24775m | 6.2m/s | -52.7°C | 4.2% | 27.8hPa | 2.6V | 00:00:00 | 00:00:00 | 00:00:00 | |
| SONCRA | 2026-08-30 12:08:32 | 49.51812 | 12.79939 | 246° | 9km/h | 24760m | 6.5m/s | -52.7°C | 1.0% | 27.9hPa | 2.6V | 00:00:00 | 00:00:00 | 00:00:00 | |
| OE5MMP-10 | 2026-08-30 12:08:31 | 49.51812 | 12.79938 | 247° | 11km/h | 24760m | 6.4m/s | -52.7°C | 4.1% | 27.9hPa | 2.6V | 00:00:00 | 01:49:18 | 00:00:00 | |
| DK5PH-5 | 2026-08-30 12:08:30 | 49.51813 | 12.79941 | 240° | 5km/h | 24754m | 6.0m/s | -52.7°C | 4.0% | 27.9hPa | 2.6V | 00:00:00 | 01:49:17 | 00:00:00 | |
| EDDB2-12 | 2026-08-30 12:08:29 | 49.51814 | 12.79944 | 290° | 4km/h | 24742m | 5.8m/s | -52.8°C | 1.0% | 28.0hPa | 2.6V | 00:00:00 | 00:00:00 | 00:00:00 | |
| ANDY1245 | 2026-08-30 12:08:27 | 49.51814 | 12.79944 | 291° | 4km/h | 24742m | 5.8m/s | -52.8°C | 1.0% | 28.0hPa | 2.6V | 00:00:00 | 00:00:00 | 00:00:00 | |
| OE5REO-15 | 2026-08-30 12:08:26 | 49.51813 | 12.79946 | 293° | 7km/h | 24736m | 6.1m/s | -52.8°C | 1.0% | 28.0hPa | 2.6V | 00:00:00 | 00:00:00 | 00:00:00 | |
| PETON7-10 | 2026-08-30 12:08:23 | 49.51817 | 12.79965 | 226° | 18km/h | 24716m | 6.4m/s | -52.6°C | 4.1% | 28.1hPa | 2.6V | 03:59:00 | 00:00:00 | 00:00:00 | |
| EDDB2-11 | 2026-08-30 12:08:22 | 49.51822 | 12.79971 | 217° | 26km/h | 24710m | 5.5m/s | -52.6°C | 1.0% | 28.2hPa | 2.7V | 00:00:00 | 00:00:00 | 00:00:00 | |
| OE5MMP-10 | 2026-08-30 12:08:21 | 49.51827 | 12.79977 | 215° | 20km/h | 24705m | 4.3m/s | -52.6°C | 4.1% | 28.1hPa | 2.7V | 03:59:00 | 01:49:08 | 00:00:00 | |
| PG1ADW-2 | 2026-08-30 12:08:20 | 49.51833 | 12.79984 | 219° | 20km/h | 24700m | 5.3m/s | -52.5°C | 4.1% | 28.1hPa | 2.7V | 03:59:00 | 00:00:00 | 00:00:00 | |
| SP3BTT-10 | 2026-08-30 12:08:19 | 49.51838 | 12.79991 | 226° | 11km/h | 24694m | 5.7m/s | -52.5°C | 4.1% | 28.2hPa | 2.6V | 03:59:00 | 00:00:00 | 00:00:00 | |
| OE5MMP-10 | 2026-08-30 12:08:11 | 49.51860 | 12.80025 | 190° | 22km/h | 24651m | 6.3m/s | -52.9°C | 4.2% | 28.4hPa | 2.6V | 00:00:00 | 01:48:58 | 00:00:00 | |
| PETON7-10 | 2026-08-30 12:08:08 | 49.51871 | 12.80031 | 203° | 18km/h | 24634m | 7.1m/s | -52.7°C | 4.1% | 28.4hPa | 2.6V | 00:00:00 | 00:00:00 | 00:00:00 | |
| SONDE2-11 | 2026-08-30 12:08:07 | 49.51876 | 12.80035 | 205° | 27km/h | 24628m | 5.6m/s | -52.8°C | 1.0% | 28.5hPa | 2.6V | 00:00:00 | 00:00:00 | 00:00:00 | |
| OE5DRO-10 | 2026-08-30 12:08:04 | 49.51896 | 12.80052 | 212° | 18km/h | 24611m | 5.5m/s | -52.8°C | 4.1% | 28.5hPa | 2.6V | 00:00:00 | 00:00:00 | 00:00:00 | |
| SONCRA | 2026-08-30 12:08:00 | 49.51916 | 12.80064 | 184° | 13km/h | 24591m | 4.3m/s | -52.6°C | 1.0% | 28.7hPa | 2.6V | 00:00:00 | 00:00:00 | 00:00:00 | |
| EDDB2-12 | 2026-08-30 12:07:58 | 49.51921 | 12.80063 | 161° | 2km/h | 24573m | 4.8m/s | -52.6°C | 1.0% | 28.8hPa | 2.6V | 00:00:00 | 00:00:00 | 00:00:00 | |
| ANDY1245 | 2026-08-30 12:07:55 | 49.51921 | 12.80063 | 186° | 5km/h | 24569m | 4.2m/s | -52.7°C | 1.0% | 28.8hPa | 2.6V | 00:00:00 | 00:00:00 | 00:00:00 | |
| PETON7-10 | 2026-08-30 12:07:53 | 49.51931 | 12.80068 | 206° | 13km/h | 24553m | 4.7m/s | -52.7°C | 4.0% | 28.8hPa | 2.6V | 00:00:00 | 01:48:40 | 00:00:00 | |
| OE5MMP-10 | 2026-08-30 12:07:51 | 49.51940 | 12.80077 | 218° | 13km/h | 24543m | 5.7m/s | -52.7°C | 4.1% | 28.8hPa | 2.6V | 00:00:00 | 01:48:38 | 00:00:00 | |
| ANDY1245 | 2026-08-30 12:07:49 | 49.51944 | 12.80082 | 226° | 20km/h | 24538m | 5.2m/s | -52.8°C | 1.0% | 28.9hPa | 2.6V | 00:00:00 | 00:00:00 | 00:00:00 | |
| OE5DRO-10 | 2026-08-30 12:07:45 | 49.51957 | 12.80094 | 170° | 9km/h | 24512m | 5.3m/s | -52.6°C | 4.0% | 29.0hPa | 2.6V | 03:59:00 | 00:00:00 | 00:00:00 | |
| ANDY1245 | 2026-08-30 12:07:43 | 49.51960 | 12.80093 | 160° | 9km/h | 24507m | 4.7m/s | -52.8°C | 1.0% | 29.1hPa | 2.7V | 00:00:00 | 00:00:00 | 00:00:00 | |
| OE5MMP-10 | 2026-08-30 12:07:41 | 49.51963 | 12.80090 | 163° | 9km/h | 24490m | 4.4m/s | -52.7°C | 4.0% | 29.1hPa | 2.7V | 03:59:00 | 01:48:28 | 00:00:00 | |
| PG1ADW-2 | 2026-08-30 12:07:40 | 49.51964 | 12.80090 | 181° | 9km/h | 24485m | 4.9m/s | -52.8°C | 4.0% | 29.1hPa | 2.7V | 00:00:00 | 01:48:27 | 00:00:00 | |
| PETON7-10 | 2026-08-30 12:07:38 | 49.51968 | 12.80090 | 179° | 11km/h | 24474m | 5.2m/s | -52.9°C | 4.1% | 29.1hPa | 2.7V | 00:00:00 | 00:00:00 | 00:00:00 | |
| SONDE2-11 | 2026-08-30 12:07:36 | 49.51977 | 12.80089 | 165° | 9km/h | 24458m | 5.9m/s | -53.1°C | 1.0% | 29.3hPa | 2.6V | 00:00:00 | 00:00:00 | 00:00:00 | |
| ANDY1245 | 2026-08-30 12:07:32 | 49.51981 | 12.80085 | 135° | 11km/h | 24448m | 5.2m/s | -53.1°C | 1.1% | 29.3hPa | 2.6V | 00:00:00 | 00:00:00 | 00:00:00 | |
| OE5MMP-10 | 2026-08-30 12:07:31 | 49.51985 | 12.80077 | 128° | 9km/h | 24436m | 5.1m/s | -53.0°C | 4.3% | 29.3hPa | 2.6V | 00:00:00 | 01:48:18 | 00:00:00 | |
| SONCRA | 2026-08-30 12:07:29 | 49.51990 | 12.80067 | 117° | 13km/h | 24426m | 6.1m/s | -53.1°C | 1.0% | 29.4hPa | 2.6V | 00:00:00 | 00:00:00 | 00:00:00 | |
| ANDY1245 | 2026-08-30 12:07:27 | 49.51991 | 12.80063 | 109° | 9km/h | 24420m | 6.3m/s | -53.1°C | 0% | 29.4hPa | 2.6V | 00:00:00 | 00:00:00 | 00:00:00 | |
| EDDB2-12 | 2026-08-30 12:07:26 | 49.51992 | 12.80057 | 114° | 5km/h | 24408m | 5.5m/s | -53.1°C | 1.0% | 29.5hPa | 2.6V | 00:00:00 | 00:00:00 | 00:00:00 | |
| PETON7-10 | 2026-08-30 12:07:23 | 49.51995 | 12.80051 | 123° | 9km/h | 24393m | 4.6m/s | -52.8°C | 4.1% | 29.5hPa | 2.6V | 00:00:00 | 00:00:00 | 00:00:00 | |
| OE5MMP-10 | 2026-08-30 12:07:21 | 49.51995 | 12.80047 | 72° | 11km/h | 24381m | 5.4m/s | -52.7°C | 4.2% | 29.6hPa | 2.6V | 00:00:00 | 01:48:08 | 00:00:00 | |
| PG1ADW-2 | 2026-08-30 12:07:20 | 49.51995 | 12.80044 | 78° | 9km/h | 24376m | 4.6m/s | -52.7°C | 4.2% | 29.6hPa | 2.6V | 00:00:00 | 00:00:00 | 00:00:00 | |
| SP3BTT-10 | 2026-08-30 12:07:18 | 49.51995 | 12.80037 | 103° | 15km/h | 24365m | 5.7m/s | -52.7°C | 4.2% | 29.7hPa | 2.7V | 00:00:00 | 00:00:00 | 00:00:00 | |
| ANDY1245 | 2026-08-30 12:07:16 | 49.51996 | 12.80032 | 102° | 15km/h | 24360m | 4.7m/s | -52.8°C | 0% | 29.7hPa | 2.7V | 00:00:00 | 00:00:00 | 00:00:00 | |
| HSKMA3-T | 2026-08-30 12:06:56 | 49.51965 | 12.79980 | 20° | 18km/h | 24250m | 4.5m/s | 0°C | 0% | 0hPa | 2.7V | 18:12:15 | 01:47:43 | 00:00:00 | |
| HSKMA3-T | 2026-08-30 12:06:45 | 49.51931 | 12.79958 | 20° | 16km/h | 24192m | 4.9m/s | 0°C | 0% | 0hPa | 2.7V | 18:12:15 | 01:47:32 | 00:00:00 | |
| OE5MMP-10 | 2026-08-30 12:06:41 | 49.51911 | 12.79953 | 360° | 11km/h | 24172m | 4.0m/s | -52.7°C | 4.0% | 30.6hPa | 2.7V | 00:00:00 | 01:47:28 | 00:00:00 | |
| PG1ADW-2 | 2026-08-30 12:06:40 | 49.51907 | 12.79953 | 354° | 16km/h | 24166m | 5.9m/s | -52.7°C | 4.0% | 30.6hPa | 2.7V | 04:00:00 | 00:00:00 | 00:00:00 | |
| ANDY1245 | 2026-08-30 12:06:39 | 49.51907 | 12.79953 | 355° | 13km/h | 24166m | 6.0m/s | -52.8°C | 0% | 30.6hPa | 2.7V | 00:00:00 | 00:00:00 | 00:00:00 | |
| PETON7-10 | 2026-08-30 12:06:38 | 49.51903 | 12.79956 | 303° | 16km/h | 24155m | 4.1m/s | -52.6°C | 4.1% | 30.7hPa | 2.7V | 00:00:00 | 00:00:00 | 00:00:00 | |
| SONDE2-11 | 2026-08-30 12:06:34 | 49.51889 | 12.79966 | 348° | 16km/h | 24125m | 5.3m/s | -52.6°C | 1.0% | 30.8hPa | 2.7V | 00:00:00 | 00:00:00 | 00:00:00 | |
| NBG1-10 | 2026-08-30 12:06:31 | 49.51885 | 12.79967 | 350° | 16km/h | 24120m | 5.6m/s | -52.7°C | 4.1% | 30.8hPa | 2.7V | 04:00:00 | 01:47:18 | 00:00:00 | |
| OE5DRO-10 | 2026-08-30 12:06:27 | 49.51869 | 12.79974 | 341° | 15km/h | 24100m | 5.7m/s | -52.7°C | 4.0% | 30.9hPa | 2.7V | 00:00:00 | 00:00:00 | 00:00:00 | |
| EDDB2-12 | 2026-08-30 12:06:24 | 49.51847 | 12.79991 | 320° | 22km/h | 24078m | 6.1m/s | -52.5°C | 1.0% | 31.1hPa | 2.7V | 00:00:00 | 00:00:00 | 00:00:00 | |
| PETON7-10 | 2026-08-30 12:06:23 | 49.51847 | 12.79991 | 321° | 16km/h | 24078m | 6.0m/s | -52.5°C | 4.1% | 31.0hPa | 2.7V | 00:00:00 | 01:47:10 | 00:00:00 | |
| DO3MHA-11 | 2026-08-30 12:06:22 | 49.51843 | 12.79997 | 306° | 15km/h | 24072m | 5.9m/s | -52.5°C | 4.1% | 31.1hPa | 2.7V | 00:00:00 | 01:47:09 | 00:00:00 | |
| OE5MMP-10 | 2026-08-30 12:06:21 | 49.51841 | 12.80003 | 290° | 15km/h | 24066m | 5.2m/s | -52.6°C | 4.2% | 31.1hPa | 2.7V | 00:00:00 | 01:47:08 | 00:00:00 | |
| PG1ADW-2 | 2026-08-30 12:06:20 | 49.51840 | 12.80010 | 279° | 15km/h | 24062m | 4.2m/s | -52.6°C | 4.2% | 31.1hPa | 2.7V | 00:00:00 | 01:47:07 | 00:00:00 | |
| EDDB2-11 | 2026-08-30 12:06:18 | 49.51836 | 12.80028 | 305° | 15km/h | 24046m | 4.9m/s | -52.8°C | 1.0% | 31.2hPa | 2.7V | 00:00:00 | 00:00:00 | 00:00:00 | |
| DO3MHA-11 | 2026-08-30 12:06:11 | 49.51819 | 12.80045 | 335° | 16km/h | 24014m | 6.0m/s | -52.8°C | 4.0% | 31.3hPa | 2.7V | 00:00:00 | 01:46:58 | 00:00:00 | |
| ANDY1245 | 2026-08-30 12:06:09 | 49.51816 | 12.80049 | 333° | 18km/h | 24009m | 4.1m/s | -52.8°C | 0% | 31.4hPa | 2.7V | 00:00:00 | 00:00:00 | 00:00:00 | |
| OE5DXL-15 | 2026-08-30 12:06:08 | 49.51806 | 12.80064 | 275° | 7km/h | 23990m | 5.4m/s | -52.6°C | 4.1% | 31.5hPa | 2.7V | 00:00:00 | 00:00:00 | 00:00:00 | |
| DL6DJ-15 | 2026-08-30 12:06:07 | 49.51807 | 12.80064 | 274° | 9km/h | 23989m | 5.5m/s | -52.6°C | 1.0% | 31.5hPa | 2.6V | 00:00:00 | 00:00:00 | 00:00:00 | |
| OE5DRO-10 | 2026-08-30 12:06:04 | 49.51806 | 12.80072 | 279° | 11km/h | 23979m | 5.6m/s | -52.6°C | 4.1% | 31.5hPa | 2.6V | 00:00:00 | 00:00:00 | 00:00:00 | |
| SONDE2-11 | 2026-08-30 12:06:03 | 49.51804 | 12.80081 | 309° | 13km/h | 23968m | 4.7m/s | -52.6°C | 1.0% | 31.6hPa | 2.6V | 00:00:00 | 00:00:00 | 00:00:00 | |
| SONCRA | 2026-08-30 12:05:56 | 49.51792 | 12.80092 | 321° | 9km/h | 23937m | 5.9m/s | -52.9°C | 1.0% | 31.8hPa | 2.6V | 00:00:00 | 00:00:00 | 00:00:00 | |
| EDDB2-12 | 2026-08-30 12:05:53 | 49.51787 | 12.80103 | 285° | 9km/h | 23923m | 5.8m/s | -52.8°C | 1.0% | 31.8hPa | 2.6V | 00:00:00 | 00:00:00 | 00:00:00 | |
| EDDB2-11 | 2026-08-30 12:05:47 | 49.51792 | 12.80124 | 254° | 2km/h | 23887m | 4.9m/s | -52.6°C | 1.0% | 32.0hPa | 2.6V | 00:00:00 | 00:00:00 | 00:00:00 | |
| OE5MMP-10 | 2026-08-30 12:05:41 | 49.51792 | 12.80121 | 346° | 7km/h | 23860m | 5.5m/s | -52.8°C | 4.1% | 32.1hPa | 2.6V | 00:00:00 | 01:46:28 | 00:00:00 | |
| PG1ADW-2 | 2026-08-30 12:05:40 | 49.51791 | 12.80122 | 311° | 7km/h | 23855m | 5.0m/s | -52.8°C | 4.2% | 32.1hPa | 2.6V | 00:00:00 | 00:00:00 | 00:00:00 | |
| OE5DRO-10 | 2026-08-30 12:05:39 | 49.51790 | 12.80124 | 286° | 9km/h | 23850m | 4.6m/s | -52.8°C | 4.2% | 32.1hPa | 2.6V | 00:00:00 | 00:00:00 | 00:00:00 | |
| PETON7-10 | 2026-08-30 12:05:38 | 49.51790 | 12.80127 | 265° | 7km/h | 23845m | 5.8m/s | -52.7°C | 4.1% | 32.2hPa | 2.7V | 04:01:00 | 01:46:25 | 00:00:00 | |
| DL6DJ-15 | 2026-08-30 12:05:36 | 49.51794 | 12.80137 | 229° | 11km/h | 23829m | 4.9m/s | -52.7°C | 1.0% | 32.3hPa | 2.7V | 00:00:00 | 00:00:00 | 00:00:00 | |
| ANDY1245 | 2026-08-30 12:05:34 | 49.51794 | 12.80136 | 231° | 11km/h | 23829m | 4.9m/s | -52.7°C | 0% | 32.3hPa | 2.7V | 00:00:00 | 00:00:00 | 00:00:00 | |
| DO3MHA-11 | 2026-08-30 12:05:33 | 49.51796 | 12.80143 | 261° | 7km/h | 23818m | 5.0m/s | -52.7°C | 4.2% | 32.3hPa | 2.7V | 04:01:00 | 01:46:20 | 00:00:00 | |
| OE5MMP-10 | 2026-08-30 12:05:31 | 49.51796 | 12.80146 | 31° | 7km/h | 23808m | 6.0m/s | -52.6°C | 4.1% | 32.4hPa | 2.7V | 00:00:00 | 01:46:18 | 00:00:00 | |
| NBG1-10 | 2026-08-30 12:05:25 | 49.51788 | 12.80133 | 334° | 13km/h | 23776m | 4.3m/s | -52.6°C | 3.9% | 32.5hPa | 2.7V | 00:00:00 | 01:46:12 | 00:00:00 | |
| EDDB2-12 | 2026-08-30 12:05:23 | 49.51788 | 12.80139 | 232° | 9km/h | 23760m | 4.9m/s | -52.3°C | 1.0% | 32.6hPa | 2.7V | 00:00:00 | 00:00:00 | 00:00:00 | |
| OE5WHR-10 | 2026-08-30 12:05:22 | 49.51788 | 12.80139 | 233° | 9km/h | 23760m | 4.8m/s | -52.3°C | 4.0% | 32.6hPa | 2.7V | 00:00:00 | 00:00:00 | 00:00:00 | |
| OE5MMP-10 | 2026-08-30 12:05:21 | 49.51790 | 12.80142 | 232° | 5km/h | 23756m | 4.5m/s | -52.3°C | 4.0% | 32.6hPa | 2.7V | 00:00:00 | 01:46:08 | 00:00:00 | |
| PG1ADW-2 | 2026-08-30 12:05:20 | 49.51791 | 12.80146 | 242° | 9km/h | 23750m | 5.4m/s | -52.3°C | 4.0% | 32.7hPa | 2.7V | 00:00:00 | 00:00:00 | 00:00:00 | |
| DO3MHA-11 | 2026-08-30 12:05:18 | 49.51792 | 12.80153 | 277° | 7km/h | 23740m | 4.5m/s | -52.4°C | 4.0% | 32.7hPa | 2.6V | 00:00:00 | 01:46:05 | 00:00:00 | |
| EDDB2-11 | 2026-08-30 12:05:16 | 49.51792 | 12.80154 | 89° | 4km/h | 23724m | 6.5m/s | -52.7°C | 1.0% | 32.8hPa | 2.6V | 00:00:00 | 00:00:00 | 00:00:00 | |
| OE5MMP-10 | 2026-08-30 12:05:11 | 49.51792 | 12.80149 | 287° | 13km/h | 23703m | 5.4m/s | -52.7°C | 4.0% | 32.9hPa | 2.6V | 04:02:00 | 01:45:58 | 00:00:00 | |
| PETON7-10 | 2026-08-30 12:05:08 | 49.51792 | 12.80159 | 254° | 11km/h | 23689m | 5.5m/s | -52.9°C | 4.1% | 32.9hPa | 2.6V | 00:00:00 | 00:00:00 | 00:00:00 | |
| ANDY1245 | 2026-08-30 12:05:04 | 49.51799 | 12.80172 | 228° | 16km/h | 23673m | 5.1m/s | -52.8°C | 0% | 33.1hPa | 2.6V | 00:00:00 | 00:00:00 | 00:00:00 | |
| SONDE2-11 | 2026-08-30 12:05:01 | 49.51807 | 12.80193 | 314° | 0km/h | 23647m | 6.5m/s | -53.0°C | 1.0% | 33.2hPa | 2.6V | 00:00:00 | 00:00:00 | 00:00:00 | |
| SONCRA | 2026-08-30 12:04:54 | 49.51797 | 12.80196 | 263° | 9km/h | 23610m | 5.8m/s | -52.8°C | 1.0% | 33.4hPa | 2.6V | 00:00:00 | 00:00:00 | 00:00:00 | |
| PETON7-10 | 2026-08-30 12:04:53 | 49.51797 | 12.80196 | 264° | 11km/h | 23610m | 5.8m/s | -52.7°C | 3.9% | 33.4hPa | 2.6V | 00:00:00 | 01:45:40 | 00:00:00 | |
| OE5MMP-10 | 2026-08-30 12:04:51 | 49.51800 | 12.80204 | 222° | 9km/h | 23599m | 4.6m/s | -52.8°C | 4.0% | 33.4hPa | 2.6V | 00:00:00 | 01:45:38 | 00:00:00 | |
| DL1JEZ-13 | 2026-08-30 12:04:50 | 49.51800 | 12.80204 | 223° | 15km/h | 23599m | 4.7m/s | -52.9°C | 1.0% | 33.5hPa | 2.7V | 00:00:00 | 00:00:00 | 00:00:00 | |
| DO3MHA-11 | 2026-08-30 12:04:49 | 49.51806 | 12.80211 | 221° | 11km/h | 23589m | 5.1m/s | -53.0°C | 4.1% | 33.5hPa | 2.7V | 00:00:00 | 01:45:36 | 00:00:00 | |
| SP3BTT-10 | 2026-08-30 12:04:47 | 49.51810 | 12.80218 | 243° | 9km/h | 23579m | 4.7m/s | -53.0°C | 4.2% | 33.5hPa | 2.7V | 00:00:00 | 00:00:00 | 00:00:00 | |
| EDDB2-11 | 2026-08-30 12:04:45 | 49.51811 | 12.80221 | 88° | 4km/h | 23564m | 6.1m/s | -53.3°C | 1.1% | 33.7hPa | 2.7V | 00:00:00 | 00:00:00 | 00:00:00 | |
| OE5DRO-10 | 2026-08-30 12:04:42 | 49.51809 | 12.80214 | 63° | 9km/h | 23553m | 5.1m/s | -53.3°C | 4.2% | 33.7hPa | 2.7V | 00:00:00 | 00:00:00 | 00:00:00 | |
| OE5MMP-10 | 2026-08-30 12:04:41 | 49.51807 | 12.80209 | 52° | 11km/h | 23548m | 6.3m/s | -53.3°C | 4.2% | 33.7hPa | 2.6V | 00:00:00 | 01:45:28 | 00:00:00 | |
| PG1ADW-2 | 2026-08-30 12:04:40 | 49.51805 | 12.80205 | 48° | 9km/h | 23542m | 4.4m/s | -53.3°C | 4.2% | 33.7hPa | 2.6V | 00:00:00 | 00:00:00 | 00:00:00 | |
| PETON7-10 | 2026-08-30 12:04:38 | 49.51802 | 12.80198 | 78° | 9km/h | 23534m | 5.3m/s | -53.4°C | 4.2% | 33.8hPa | 2.6V | 00:00:00 | 00:00:00 | 00:00:00 | |
| DO3MHA-11 | 2026-08-30 12:04:37 | 49.51802 | 12.80196 | 136° | 9km/h | 23528m | 5.8m/s | -53.3°C | 4.1% | 33.8hPa | 2.7V | 00:00:00 | 01:45:24 | 00:00:00 | |
| HSKMA3-T | 2026-08-30 12:04:19 | 49.51809 | 12.80191 | 54° | 2km/h | 23435m | 5.2m/s | 0°C | 0% | 0hPa | 2.7V | 18:12:15 | 01:45:06 | 00:00:00 | |
| EDDB2-11 | 2026-08-30 12:04:13 | 49.51794 | 12.80189 | 346° | 20km/h | 23403m | 5.9m/s | -53.3°C | 1.0% | 34.5hPa | 2.7V | 00:00:00 | 00:00:00 | 00:00:00 | |
| OE5WHR-10 | 2026-08-30 12:04:12 | 49.51788 | 12.80191 | 346° | 13km/h | 23399m | 3.8m/s | -53.4°C | 4.2% | 34.5hPa | 2.7V | 04:03:00 | 00:00:00 | 00:00:00 | |
| OE5MMP-10 | 2026-08-30 12:04:11 | 49.51784 | 12.80192 | 351° | 7km/h | 23395m | 3.7m/s | -53.3°C | 4.1% | 34.5hPa | 2.7V | 00:00:00 | 01:44:58 | 00:00:00 | |
| DL6DJ-15 | 2026-08-30 12:04:02 | 49.51778 | 12.80192 | 334° | 9km/h | 23349m | 5.6m/s | -53.7°C | 1.1% | 34.8hPa | 2.7V | 00:00:00 | 00:00:00 | 00:00:00 | |
| SONDE2-11 | 2026-08-30 12:03:58 | 49.51764 | 12.80204 | 317° | 20km/h | 23329m | 6.0m/s | -53.7°C | 1.1% | 34.9hPa | 2.7V | 00:00:00 | 00:00:00 | 00:00:00 | |
| SONCRA | 2026-08-30 12:03:52 | 49.51752 | 12.80228 | 304° | 7km/h | 23294m | 5.7m/s | -53.6°C | 1.1% | 35.1hPa | 2.7V | 00:00:00 | 00:00:00 | 00:00:00 | |
| EDDB2-12 | 2026-08-30 12:03:49 | 49.51748 | 12.80236 | 305° | 15km/h | 23283m | 4.8m/s | -53.5°C | 1.1% | 35.2hPa | 2.7V | 00:00:00 | 00:00:00 | 00:00:00 | |
| SP3BTT-10 | 2026-08-30 12:03:47 | 49.51743 | 12.80245 | 320° | 11km/h | 23274m | 5.6m/s | -53.5°C | 4.3% | 35.2hPa | 2.7V | 04:03:00 | 00:00:00 | 00:00:00 | |
| DL2RXE-15 | 2026-08-30 12:03:46 | 49.51742 | 12.80245 | 321° | 16km/h | 23274m | 5.6m/s | -53.5°C | 0% | 35.2hPa | 2.7V | 00:00:00 | 00:00:00 | 00:00:00 | |
| EDDB2-11 | 2026-08-30 12:03:42 | 49.51728 | 12.80266 | 295° | 18km/h | 23247m | 5.3m/s | -53.5°C | 1.0% | 35.4hPa | 2.7V | 00:00:00 | 00:00:00 | 00:00:00 | |
| OE5MMP-10 | 2026-08-30 12:03:41 | 49.51726 | 12.80272 | 287° | 13km/h | 23243m | 4.5m/s | -53.4°C | 4.3% | 35.3hPa | 2.7V | 00:00:00 | 01:44:28 | 00:00:00 | |
| OE5DRO-10 | 2026-08-30 12:03:40 | 49.51725 | 12.80279 | 280° | 15km/h | 23238m | 4.3m/s | -53.4°C | 4.3% | 35.4hPa | 2.7V | 00:00:00 | 00:00:00 | 00:00:00 | |
| PETON7-10 | 2026-08-30 12:03:37 | 49.51725 | 12.80293 | 269° | 15km/h | 23221m | 4.8m/s | -53.3°C | 4.3% | 35.5hPa | 2.6V | 00:00:00 | 00:00:00 | 00:00:00 | |
| DL6DJ-15 | 2026-08-30 12:03:31 | 49.51718 | 12.80321 | 311° | 13km/h | 23189m | 4.4m/s | -53.3°C | 1.0% | 35.7hPa | 2.6V | 00:00:00 | 00:00:00 | 00:00:00 | |
| OE5WHR-10 | 2026-08-30 12:03:30 | 49.51716 | 12.80326 | 307° | 9km/h | 23185m | 4.9m/s | -53.3°C | 4.2% | 35.7hPa | 2.6V | 00:00:00 | 00:00:00 | 00:00:00 | |
| SONDE2-11 | 2026-08-30 12:03:27 | 49.51710 | 12.80346 | 280° | 18km/h | 23169m | 4.8m/s | -53.3°C | 1.0% | 35.8hPa | 2.6V | 00:00:00 | 00:00:00 | 00:00:00 | |
| ANDY1245 | 2026-08-30 12:03:25 | 49.51710 | 12.80353 | 276° | 16km/h | 23164m | 6.2m/s | -53.3°C | 0% | 35.8hPa | 2.6V | 00:00:00 | 00:00:00 | 00:00:00 | |
| PETON7-10 | 2026-08-30 12:03:22 | 49.51711 | 12.80372 | 262° | 11km/h | 23143m | 5.5m/s | -53.1°C | 4.2% | 35.9hPa | 2.6V | 00:00:00 | 01:44:09 | 00:00:00 | |
| SONCRA | 2026-08-30 12:03:21 | 49.51711 | 12.80382 | 287° | 9km/h | 23133m | 4.7m/s | -53.1°C | 1.0% | 36.0hPa | 2.6V | 00:00:00 | 00:00:00 | 00:00:00 | |
| EDDB2-12 | 2026-08-30 12:03:18 | 49.51708 | 12.80387 | 341° | 7km/h | 23122m | 5.7m/s | -53.3°C | 1.0% | 36.0hPa | 2.6V | 00:00:00 | 00:00:00 | 00:00:00 | |
| EDDB2-11 | 2026-08-30 12:03:12 | 49.51701 | 12.80412 | 260° | 13km/h | 23088m | 5.9m/s | -53.2°C | 1.0% | 36.2hPa | 2.6V | 00:00:00 | 00:00:00 | 00:00:00 | |
| OE5MMP-10 | 2026-08-30 12:03:11 | 49.51701 | 12.80412 | 261° | 7km/h | 23088m | 5.9m/s | -53.2°C | 4.2% | 36.2hPa | 2.6V | 00:00:00 | 01:43:58 | 00:00:00 | |
| DO3MHA-11 | 2026-08-30 12:03:08 | 49.51702 | 12.80420 | 272° | 5km/h | 23073m | 4.3m/s | -53.2°C | 4.2% | 36.3hPa | 2.6V | 00:00:00 | 01:43:55 | 00:00:00 | |
| PETON7-10 | 2026-08-30 12:03:07 | 49.51701 | 12.80422 | 293° | 5km/h | 23068m | 6.0m/s | -53.2°C | 4.2% | 36.3hPa | 2.6V | 04:04:00 | 00:00:00 | 00:00:00 | |
| DL6DJ-15 | 2026-08-30 12:03:01 | 49.51692 | 12.80423 | 356° | 2km/h | 23031m | 6.0m/s | -53.3°C | 1.0% | 36.6hPa | 2.7V | 00:00:00 | 00:00:00 | 00:00:00 | |
| SONDE2-11 | 2026-08-30 12:02:56 | 49.51693 | 12.80428 | 193° | 2km/h | 23011m | 5.6m/s | -53.3°C | 1.0% | 36.7hPa | 2.7V | 00:00:00 | 00:00:00 | 00:00:00 | |
| SONCRA | 2026-08-30 12:02:50 | 49.51692 | 12.80429 | 47° | 0km/h | 22977m | 5.8m/s | -53.7°C | 1.1% | 36.9hPa | 2.7V | 00:00:00 | 00:00:00 | 00:00:00 | |
| EDDB2-12 | 2026-08-30 12:02:47 | 49.51691 | 12.80426 | 73° | 4km/h | 22967m | 4.4m/s | -53.7°C | 1.1% | 37.0hPa | 2.7V | 00:00:00 | 00:00:00 | 00:00:00 | |
| OE5WHR-10 | 2026-08-30 12:02:44 | 49.51687 | 12.80424 | 342° | 11km/h | 22951m | 4.6m/s | -53.6°C | 4.2% | 37.0hPa | 2.7V | 00:00:00 | 00:00:00 | 00:00:00 | |
| OE5DRO-10 | 2026-08-30 12:02:43 | 49.51685 | 12.80425 | 329° | 9km/h | 22947m | 4.1m/s | -53.7°C | 4.2% | 37.0hPa | 2.7V | 00:00:00 | 00:00:00 | 00:00:00 | |
| OE5MMP-10 | 2026-08-30 12:02:41 | 49.51682 | 12.80429 | 324° | 5km/h | 22937m | 5.5m/s | -53.7°C | 4.2% | 37.1hPa | 2.6V | 04:04:00 | 01:43:28 | 00:00:00 | |
| EDDB2-11 | 2026-08-30 12:02:40 | 49.51681 | 12.80430 | 338° | 4km/h | 22932m | 4.5m/s | -53.7°C | 1.1% | 37.1hPa | 2.6V | 00:00:00 | 00:00:00 | 00:00:00 | |
| PETON7-10 | 2026-08-30 12:02:37 | 49.51677 | 12.80432 | 339° | 11km/h | 22917m | 5.3m/s | -53.8°C | 4.2% | 37.2hPa | 2.6V | 00:00:00 | 01:43:24 | 00:00:00 | |
| DO3MHA-11 | 2026-08-30 12:02:34 | 49.51672 | 12.80435 | 347° | 11km/h | 22901m | 5.7m/s | -53.9°C | 4.3% | 37.3hPa | 2.6V | 00:00:00 | 01:43:21 | 00:00:00 | |
| DL6DJ-15 | 2026-08-30 12:02:30 | 49.51659 | 12.80443 | 340° | 18km/h | 22876m | 3.9m/s | -53.9°C | 1.1% | 37.5hPa | 2.6V | 00:00:00 | 00:00:00 | 00:00:00 | |
| SONDE2-11 | 2026-08-30 12:02:25 | 49.51644 | 12.80448 | 353° | 9km/h | 22856m | 4.8m/s | -54.2°C | 1.1% | 37.6hPa | 2.6V | 00:00:00 | 00:00:00 | 00:00:00 | |
| DO3MHA-11 | 2026-08-30 12:02:24 | 49.51641 | 12.80449 | 339° | 13km/h | 22851m | 5.6m/s | -54.1°C | 4.4% | 37.6hPa | 2.6V | 00:00:00 | 01:43:11 | 00:00:00 | |
| PETON7-10 | 2026-08-30 12:02:22 | 49.51637 | 12.80454 | 306° | 15km/h | 22840m | 4.3m/s | -54.0°C | 4.4% | 37.6hPa | 2.6V | 00:00:00 | 00:00:00 | 00:00:00 | |
| OE5MMP-10 | 2026-08-30 12:02:21 | 49.51636 | 12.80458 | 297° | 15km/h | 22836m | 4.3m/s | -54.0°C | 4.3% | 37.7hPa | 2.7V | 00:00:00 | 01:43:08 | 00:00:00 | |
| SONCRA | 2026-08-30 12:02:19 | 49.51633 | 12.80468 | 298° | 11km/h | 22820m | 4.6m/s | -54.1°C | 1.1% | 37.8hPa | 2.6V | 00:00:00 | 00:00:00 | 00:00:00 | |
| SP3BTT-10 | 2026-08-30 12:02:16 | 49.51628 | 12.80477 | 315° | 18km/h | 22809m | 4.4m/s | -53.9°C | 4.4% | 37.8hPa | 2.6V | 00:00:00 | 00:00:00 | 00:00:00 | |
| DO3MHA-11 | 2026-08-30 12:02:14 | 49.51621 | 12.80485 | 331° | 15km/h | 22800m | 6.2m/s | -54.0°C | 4.4% | 37.9hPa | 2.6V | 00:00:00 | 01:43:01 | 00:00:00 | |
| OE5MMP-10 | 2026-08-30 12:02:11 | 49.51610 | 12.80493 | 335° | 15km/h | 22785m | 5.8m/s | -54.0°C | 4.3% | 38.0hPa | 2.6V | 00:00:00 | 01:42:58 | 00:00:00 | |
| EDDB2-11 | 2026-08-30 12:02:09 | 49.51601 | 12.80501 | 326° | 16km/h | 22775m | 4.3m/s | -54.0°C | 1.1% | 38.1hPa | 2.6V | 00:00:00 | 00:00:00 | 00:00:00 | |
| PETON7-10 | 2026-08-30 12:02:07 | 49.51595 | 12.80508 | 321° | 15km/h | 22765m | 4.9m/s | -54.2°C | 4.3% | 38.1hPa | 2.6V | 00:00:00 | 00:00:00 | 00:00:00 | |
| OE5DRO-10 | 2026-08-30 12:02:05 | 49.51592 | 12.80513 | 305° | 18km/h | 22756m | 4.5m/s | -54.2°C | 4.4% | 38.1hPa | 2.6V | 00:00:00 | 00:00:00 | 00:00:00 | |
| DO3MHA-11 | 2026-08-30 12:02:04 | 49.51590 | 12.80518 | 300° | 15km/h | 22751m | 5.7m/s | -54.1°C | 4.5% | 38.2hPa | 2.6V | 00:00:00 | 01:42:51 | 00:00:00 | |
| DL6DJ-15 | 2026-08-30 12:01:58 | 49.51579 | 12.80546 | 307° | 9km/h | 22722m | 4.5m/s | -54.1°C | 1.1% | 38.4hPa | 2.6V | 00:00:00 | 00:00:00 | 00:00:00 | |
| SONDE2-11 | 2026-08-30 12:01:54 | 49.51571 | 12.80566 | 301° | 18km/h | 22702m | 4.0m/s | -54.0°C | 1.1% | 38.5hPa | 2.6V | 00:00:00 | 00:00:00 | 00:00:00 | |
| SONCRA | 2026-08-30 12:01:47 | 49.51554 | 12.80611 | 297° | 22km/h | 22669m | 4.2m/s | -53.9°C | 1.1% | 38.7hPa | 2.6V | 00:00:00 | 00:00:00 | 00:00:00 | |
| EDDB2-12 | 2026-08-30 12:01:45 | 49.51549 | 12.80625 | 302° | 16km/h | 22659m | 5.9m/s | -53.8°C | 1.1% | 38.8hPa | 2.6V | 00:00:00 | 00:00:00 | 00:00:00 | |
| DO3MHA-11 | 2026-08-30 12:01:44 | 49.51547 | 12.80630 | 308° | 18km/h | 22654m | 4.9m/s | -53.7°C | 4.4% | 38.8hPa | 2.6V | 00:00:00 | 01:42:31 | 00:00:00 | |
| OE5MMP-10 | 2026-08-30 12:01:41 | 49.51539 | 12.80644 | 308° | 20km/h | 22640m | 5.7m/s | -53.9°C | 4.4% | 38.8hPa | 2.6V | 00:00:00 | 01:42:28 | 00:00:00 | |
| EDDB2-11 | 2026-08-30 12:01:38 | 49.51530 | 12.80667 | 299° | 24km/h | 22627m | 4.5m/s | -53.7°C | 1.1% | 39.0hPa | 2.6V | 00:00:00 | 00:00:00 | 00:00:00 | |
| OE5WHR-10 | 2026-08-30 12:01:37 | 49.51527 | 12.80674 | 302° | 18km/h | 22622m | 5.3m/s | -53.7°C | 4.3% | 38.9hPa | 2.6V | 00:00:00 | 00:00:00 | 00:00:00 | |
| OE5MMP-10 | 2026-08-30 12:01:31 | 49.51514 | 12.80713 | 286° | 16km/h | 22592m | 3.9m/s | -53.6°C | 4.3% | 39.1hPa | 2.6V | 00:00:00 | 01:42:18 | 00:00:00 | |
| DO3MHA-11 | 2026-08-30 12:01:29 | 49.51512 | 12.80725 | 282° | 16km/h | 22583m | 5.6m/s | -53.6°C | 4.2% | 39.2hPa | 2.6V | 00:00:00 | 01:42:16 | 00:00:00 | |
| DL6DJ-15 | 2026-08-30 12:01:27 | 49.51511 | 12.80733 | 286° | 11km/h | 22573m | 4.4m/s | -53.8°C | 1.1% | 39.3hPa | 2.6V | 00:00:00 | 00:00:00 | 00:00:00 | |
| OE5DRO-10 | 2026-08-30 12:01:25 | 49.51508 | 12.80744 | 290° | 20km/h | 22563m | 5.0m/s | -53.7°C | 4.2% | 39.3hPa | 2.6V | 00:00:00 | 00:00:00 | 00:00:00 | |
| SONDE2-11 | 2026-08-30 12:01:23 | 49.51505 | 12.80759 | 287° | 18km/h | 22553m | 5.2m/s | -53.7°C | 1.1% | 39.4hPa | 2.6V | 00:00:00 | 00:00:00 | 00:00:00 | |
| PETON7-10 | 2026-08-30 12:01:22 | 49.51504 | 12.80766 | 285° | 20km/h | 22548m | 5.3m/s | -53.7°C | 4.3% | 39.4hPa | 2.6V | 00:00:00 | 00:00:00 | 00:00:00 | |
| OE5MMP-10 | 2026-08-30 12:01:21 | 49.51503 | 12.80773 | 281° | 22km/h | 22543m | 4.5m/s | -53.8°C | 4.3% | 39.4hPa | 2.6V | 00:00:00 | 01:42:08 | 00:00:00 | |
| DO3MHA-11 | 2026-08-30 12:01:19 | 49.51501 | 12.80789 | 274° | 22km/h | 22533m | 5.8m/s | -53.8°C | 4.3% | 39.5hPa | 2.7V | 00:00:00 | 01:42:06 | 00:00:00 | |
| PG1ADW-2 | 2026-08-30 12:01:16 | 49.51504 | 12.80814 | 248° | 16km/h | 22519m | 5.7m/s | -53.9°C | 4.3% | 39.6hPa | 2.6V | 00:00:00 | 00:00:00 | 00:00:00 | |
| OE5WHR-10 | 2026-08-30 12:01:15 | 49.51506 | 12.80820 | 235° | 15km/h | 22513m | 5.0m/s | -53.9°C | 4.3% | 39.6hPa | 2.6V | 00:00:00 | 01:42:02 | 00:00:00 | |
| EDDB2-12 | 2026-08-30 12:01:14 | 49.51509 | 12.80827 | 229° | 20km/h | 22509m | 4.2m/s | -53.9°C | 1.1% | 39.7hPa | 2.6V | 00:00:00 | 00:00:00 | 00:00:00 | |
| OE5MMP-10 | 2026-08-30 12:01:11 | 49.51518 | 12.80848 | 256° | 16km/h | 22494m | 4.4m/s | -53.8°C | 4.2% | 39.7hPa | 2.6V | 00:00:00 | 01:41:58 | 00:00:00 | |
| DO3MHA-11 | 2026-08-30 12:01:09 | 49.51519 | 12.80865 | 274° | 15km/h | 22485m | 5.2m/s | -53.9°C | 4.3% | 39.8hPa | 2.6V | 00:00:00 | 01:41:56 | 00:00:00 | |
| EDDB2-11 | 2026-08-30 12:01:08 | 49.51517 | 12.80877 | 292° | 13km/h | 22474m | 4.9m/s | -53.8°C | 1.1% | 39.9hPa | 2.6V | 00:00:00 | 00:00:00 | 00:00:00 | |
| PETON7-10 | 2026-08-30 12:01:07 | 49.51517 | 12.80877 | 293° | 13km/h | 22474m | 4.8m/s | -53.8°C | 4.2% | 39.9hPa | 2.6V | 00:00:00 | 01:41:54 | 00:00:00 | |
| OE5DRO-10 | 2026-08-30 12:01:06 | 49.51515 | 12.80882 | 297° | 9km/h | 22470m | 4.7m/s | -53.8°C | 4.2% | 39.9hPa | 2.6V | 00:00:00 | 00:00:00 | 00:00:00 | |
| OE5MMP-10 | 2026-08-30 12:01:01 | 49.51510 | 12.80910 | 283° | 11km/h | 22444m | 5.8m/s | -53.9°C | 4.3% | 40.1hPa | 2.6V | 04:06:00 | 01:41:48 | 00:00:00 | |
| DO3MHA-11 | 2026-08-30 12:00:59 | 49.51508 | 12.80917 | 288° | 13km/h | 22434m | 4.7m/s | -53.9°C | 4.3% | 40.1hPa | 2.6V | 04:06:00 | 01:41:46 | 00:00:00 | |
| PG1ADW-2 | 2026-08-30 12:00:56 | 49.51505 | 12.80931 | 293° | 7km/h | 22419m | 4.2m/s | -53.9°C | 4.3% | 40.2hPa | 2.6V | 00:00:00 | 00:00:00 | 00:00:00 | |
| PETON7-10 | 2026-08-30 12:00:52 | 49.51499 | 12.80947 | 301° | 5km/h | 22398m | 4.5m/s | -54.2°C | 4.4% | 40.3hPa | 2.6V | 00:00:00 | 00:00:00 | 00:00:00 | |
| OE5WHR-10 | 2026-08-30 12:00:51 | 49.51498 | 12.80951 | 294° | 7km/h | 22393m | 6.1m/s | -54.0°C | 4.3% | 40.4hPa | 2.6V | 00:00:00 | 00:00:00 | 00:00:00 | |
| DO3MHA-11 | 2026-08-30 12:00:49 | 49.51496 | 12.80958 | 279° | 5km/h | 22384m | 4.2m/s | -54.1°C | 4.3% | 40.5hPa | 2.7V | 00:00:00 | 01:41:36 | 00:00:00 | |
| OE5DRO-10 | 2026-08-30 12:00:45 | 49.51497 | 12.80965 | 239° | 5km/h | 22362m | 5.8m/s | -54.4°C | 4.3% | 40.6hPa | 2.6V | 00:00:00 | 00:00:00 | 00:00:00 | |
| EDDB2-12 | 2026-08-30 12:00:43 | 49.51498 | 12.80968 | 252° | 4km/h | 22352m | 4.3m/s | -54.3°C | 1.1% | 40.7hPa | 2.7V | 00:00:00 | 00:00:00 | 00:00:00 | |
| OE5MMP-10 | 2026-08-30 12:00:41 | 49.51499 | 12.80970 | 175° | 5km/h | 22342m | 5.9m/s | -54.3°C | 4.4% | 40.7hPa | 2.7V | 00:00:00 | 01:41:28 | 00:00:00 | |
| DO3MHA-11 | 2026-08-30 12:00:39 | 49.51501 | 12.80968 | 147° | 9km/h | 22332m | 3.9m/s | -54.4°C | 4.3% | 40.8hPa | 2.7V | 00:00:00 | 01:41:26 | 00:00:00 | |
| PETON7-10 | 2026-08-30 12:00:37 | 49.51505 | 12.80966 | 190° | 9km/h | 22322m | 5.4m/s | -54.4°C | 4.3% | 40.8hPa | 2.7V | 04:06:00 | 00:00:00 | 00:00:00 | |
| PG1ADW-2 | 2026-08-30 12:00:36 | 49.51506 | 12.80967 | 210° | 9km/h | 22317m | 4.6m/s | -54.4°C | 4.4% | 40.8hPa | 2.7V | 00:00:00 | 01:41:23 | 00:00:00 | |
| OE5DXL-15 | 2026-08-30 12:00:34 | 49.51509 | 12.80964 | 103° | 11km/h | 22297m | 4.5m/s | -54.4°C | 4.4% | 41.0hPa | 2.7V | 00:00:00 | 00:00:00 | 00:00:00 | |
| OE5MMP-10 | 2026-08-30 12:00:31 | 49.51510 | 12.80961 | 89° | 11km/h | 22293m | 4.7m/s | -54.4°C | 4.5% | 41.0hPa | 2.7V | 00:00:00 | 01:41:18 | 00:00:00 | |
| OE5WHR-10 | 2026-08-30 12:00:30 | 49.51509 | 12.80958 | 74° | 13km/h | 22287m | 5.8m/s | -54.5°C | 4.5% | 41.0hPa | 2.7V | 00:00:00 | 00:00:00 | 00:00:00 | |
| OM5KV | 2026-08-30 12:00:29 | 49.51508 | 12.80955 | 63° | 9km/h | 22282m | 4.7m/s | -54.5°C | 1.1% | 41.1hPa | 2.7V | 04:07:00 | 00:00:00 | 00:00:00 | |
| DL1JEZ-13 | 2026-08-30 12:00:28 | 49.51508 | 12.80953 | 70° | 9km/h | 22278m | 4.0m/s | -54.5°C | 1.2% | 41.2hPa | 2.7V | 00:00:00 | 00:00:00 | 00:00:00 | |
| OE5DRO-10 | 2026-08-30 12:00:26 | 49.51507 | 12.80945 | 100° | 13km/h | 22268m | 6.0m/s | -54.5°C | 4.5% | 41.2hPa | 2.7V | 00:00:00 | 00:00:00 | 00:00:00 | |
| DL6DJ-15 | 2026-08-30 12:00:25 | 49.51509 | 12.80935 | 110° | 13km/h | 22257m | 4.3m/s | -54.6°C | 1.1% | 41.3hPa | 2.7V | 00:00:00 | 00:00:00 | 00:00:00 | |
| PETON7-10 | 2026-08-30 12:00:23 | 49.51510 | 12.80927 | 95° | 15km/h | 22247m | 5.4m/s | -54.6°C | 4.5% | 41.3hPa | 2.7V | 00:00:00 | 01:41:09 | 00:00:00 | |
| OE5MMP-10 | 2026-08-30 12:00:21 | 49.51510 | 12.80924 | 78° | 11km/h | 22242m | 4.5m/s | -54.6°C | 4.5% | 41.4hPa | 2.7V | 00:00:00 | 01:41:08 | 00:00:00 | |
| SP3BTT-10 | 2026-08-30 12:00:17 | 49.51504 | 12.80903 | 51° | 13km/h | 22210m | 5.2m/s | -54.5°C | 4.5% | 41.6hPa | 2.6V | 00:00:00 | 00:00:00 | 00:00:00 | |
| SONCRA | 2026-08-30 12:00:15 | 49.51503 | 12.80899 | 59° | 11km/h | 22205m | 4.3m/s | -54.6°C | 1.1% | 41.6hPa | 2.6V | 00:00:00 | 00:00:00 | 00:00:00 | |
| DO3MHA-11 | 2026-08-30 12:00:12 | 49.51501 | 12.80890 | 81° | 22km/h | 22195m | 5.1m/s | -54.5°C | 4.4% | 41.6hPa | 2.6V | 00:00:00 | 01:40:59 | 00:00:00 | |
| OE5MMP-10 | 2026-08-30 12:00:11 | 49.51500 | 12.80883 | 79° | 20km/h | 22190m | 4.1m/s | -54.5°C | 4.4% | 41.7hPa | 2.6V | 04:07:00 | 01:40:58 | 00:00:00 | |
| DL2RXE-15 | 2026-08-30 12:00:10 | 49.51500 | 12.80883 | 80° | 20km/h | 22190m | 4.2m/s | -54.6°C | 0% | 41.7hPa | 2.6V | 00:00:00 | 00:00:00 | 00:00:00 | |
| OM5KV | 2026-08-30 12:00:08 | 49.51495 | 12.80858 | 70° | 26km/h | 22174m | 4.4m/s | -54.7°C | 1.1% | 41.8hPa | 2.6V | 04:07:00 | 00:00:00 | 00:00:00 | |
| PETON7-10 | 2026-08-30 12:00:07 | 49.51492 | 12.80849 | 71° | 15km/h | 22169m | 5.7m/s | -54.6°C | 4.5% | 41.8hPa | 2.6V | 00:00:00 | 00:00:00 | 00:00:00 | |
| EDDB2-11 | 2026-08-30 12:00:05 | 49.51488 | 12.80832 | 63° | 20km/h | 22159m | 4.1m/s | -54.7°C | 1.2% | 41.9hPa | 2.6V | 00:00:00 | 00:00:00 | 00:00:00 | |
| DL6DJ-15 | 2026-08-30 11:59:54 | 49.51460 | 12.80796 | 20° | 15km/h | 22099m | 5.0m/s | -54.6°C | 1.1% | 42.3hPa | 2.6V | 00:00:00 | 00:00:00 | 00:00:00 | |
| SONDE2-11 | 2026-08-30 11:59:51 | 49.51450 | 12.80791 | 19° | 13km/h | 22083m | 5.1m/s | -54.4°C | 1.1% | 42.4hPa | 2.6V | 00:00:00 | 00:00:00 | 00:00:00 | |
| DO3MHA-11 | 2026-08-30 11:59:50 | 49.51450 | 12.80791 | 20° | 13km/h | 22083m | 5.0m/s | -54.4°C | 4.4% | 42.4hPa | 2.6V | 00:00:00 | 01:40:37 | 00:00:00 | |
| OM5KV | 2026-08-30 11:59:44 | 49.51434 | 12.80785 | 20° | 9km/h | 22057m | 6.4m/s | -54.6°C | 1.2% | 42.6hPa | 2.6V | 04:07:00 | 00:00:00 | 00:00:00 | |
| SONCRA | 2026-08-30 11:59:43 | 49.51430 | 12.80782 | 32° | 7km/h | 22046m | 4.5m/s | -54.7°C | 1.2% | 42.7hPa | 2.6V | 00:00:00 | 00:00:00 | 00:00:00 | |
| OE5MMP-10 | 2026-08-30 11:59:41 | 49.51425 | 12.80778 | 20° | 13km/h | 22035m | 5.0m/s | -54.5°C | 4.6% | 42.7hPa | 2.6V | 00:00:00 | 01:40:28 | 00:00:00 | |
| DO3MHA-11 | 2026-08-30 11:59:40 | 49.51421 | 12.80776 | 17° | 13km/h | 22030m | 4.3m/s | -54.5°C | 4.5% | 42.7hPa | 2.6V | 00:00:00 | 01:40:27 | 00:00:00 | |
| OM5KV | 2026-08-30 11:59:38 | 49.51419 | 12.80775 | 18° | 11km/h | 22025m | 5.7m/s | -54.6°C | 1.2% | 42.8hPa | 2.7V | 04:07:00 | 00:00:00 | 00:00:00 | |
| PETON7-10 | 2026-08-30 11:59:37 | 49.51414 | 12.80773 | 11° | 11km/h | 22014m | 4.8m/s | -54.6°C | 4.5% | 42.8hPa | 2.7V | 00:00:00 | 01:40:24 | 00:00:00 | |
| PG1ADW-2 | 2026-08-30 11:59:36 | 49.51411 | 12.80772 | 5° | 13km/h | 22009m | 5.2m/s | -54.6°C | 4.4% | 42.9hPa | 2.7V | 00:00:00 | 00:00:00 | 00:00:00 | |
| OE5WHR-10 | 2026-08-30 11:59:34 | 49.51404 | 12.80772 | 5° | 13km/h | 21999m | 4.4m/s | -54.4°C | 4.3% | 43.0hPa | 2.6V | 00:00:00 | 00:00:00 | 00:00:00 | |
| OE5MMP-10 | 2026-08-30 11:59:31 | 49.51394 | 12.80770 | 8° | 11km/h | 21984m | 5.6m/s | -54.5°C | 4.4% | 43.0hPa | 2.6V | 00:00:00 | 01:40:18 | 00:00:00 | |
| DO3MHA-11 | 2026-08-30 11:59:30 | 49.51392 | 12.80770 | 14° | 11km/h | 21979m | 4.5m/s | -54.5°C | 4.4% | 43.1hPa | 2.6V | 00:00:00 | 01:40:17 | 00:00:00 | |
| OE5DRO-10 | 2026-08-30 11:59:29 | 49.51390 | 12.80769 | 17° | 13km/h | 21974m | 4.8m/s | -54.6°C | 4.4% | 43.1hPa | 2.6V | 00:00:00 | 00:00:00 | 00:00:00 | |
| OM5KV | 2026-08-30 11:59:26 | 49.51385 | 12.80768 | 2° | 11km/h | 21963m | 4.9m/s | -54.8°C | 1.1% | 43.3hPa | 2.6V | 04:08:00 | 00:00:00 | 00:00:00 | |
| DL6DJ-15 | 2026-08-30 11:59:23 | 49.51372 | 12.80780 | 320° | 16km/h | 21936m | 6.3m/s | -54.8°C | 1.2% | 43.4hPa | 2.6V | 00:00:00 | 00:00:00 | 00:00:00 | |
| PETON7-10 | 2026-08-30 11:59:22 | 49.51372 | 12.80780 | 321° | 13km/h | 21936m | 6.3m/s | -54.8°C | 4.6% | 43.4hPa | 2.6V | 04:08:00 | 00:00:00 | 00:00:00 | |
| OE5MMP-10 | 2026-08-30 11:59:21 | 49.51368 | 12.80784 | 329° | 13km/h | 21930m | 5.3m/s | -54.8°C | 4.5% | 43.4hPa | 2.7V | 04:08:00 | 01:40:08 | 00:00:00 | |
| DO3MHA-11 | 2026-08-30 11:59:20 | 49.51364 | 12.80788 | 335° | 11km/h | 21925m | 4.3m/s | -54.9°C | 4.5% | 43.5hPa | 2.6V | 00:00:00 | 01:40:07 | 00:00:00 | |
| SONDE2-11 | 2026-08-30 11:59:19 | 49.51360 | 12.80791 | 336° | 16km/h | 21921m | 5.1m/s | -55.1°C | 1.2% | 43.5hPa | 2.6V | 00:00:00 | 00:00:00 | 00:00:00 | |
| PG1ADW-2 | 2026-08-30 11:59:16 | 49.51352 | 12.80795 | 358° | 15km/h | 21904m | 5.2m/s | -54.8°C | 4.4% | 43.6hPa | 2.6V | 00:00:00 | 01:40:03 | 00:00:00 | |
| OM5KV | 2026-08-30 11:59:15 | 49.51352 | 12.80795 | 359° | 7km/h | 21904m | 5.3m/s | -54.9°C | 1.2% | 43.7hPa | 2.6V | 04:08:00 | 00:00:00 | 00:00:00 | |
| OE5WHR-10 | 2026-08-30 11:59:13 | 49.51345 | 12.80794 | 355° | 16km/h | 21888m | 3.9m/s | -54.7°C | 4.4% | 43.7hPa | 2.6V | 00:00:00 | 00:00:00 | 00:00:00 | |
| SONCRA | 2026-08-30 11:59:12 | 49.51342 | 12.80795 | 342° | 9km/h | 21883m | 4.5m/s | -54.9°C | 1.1% | 43.8hPa | 2.6V | 00:00:00 | 00:00:00 | 00:00:00 | |
| OE5MMP-10 | 2026-08-30 11:59:11 | 49.51340 | 12.80797 | 329° | 15km/h | 21878m | 5.7m/s | -54.9°C | 4.5% | 43.7hPa | 2.6V | 00:00:00 | 01:39:58 | 00:00:00 | |
| DO3MHA-11 | 2026-08-30 11:59:10 | 49.51338 | 12.80799 | 316° | 15km/h | 21873m | 5.3m/s | -54.8°C | 4.5% | 43.8hPa | 2.6V | 04:08:00 | 01:39:57 | 00:00:00 | |
| OM5KV | 2026-08-30 11:59:09 | 49.51338 | 12.80799 | 316° | 11km/h | 21873m | 5.3m/s | -54.8°C | 1.2% | 43.9hPa | 2.6V | 04:08:00 | 00:00:00 | 00:00:00 | |
| PETON7-10 | 2026-08-30 11:59:07 | 49.51329 | 12.80810 | 331° | 18km/h | 21856m | 5.5m/s | -54.9°C | 4.5% | 43.9hPa | 2.6V | 00:00:00 | 00:00:00 | 00:00:00 | |
| OM5KV | 2026-08-30 11:59:05 | 49.51324 | 12.80814 | 335° | 20km/h | 21851m | 4.5m/s | -55.1°C | 1.2% | 44.0hPa | 2.6V | 04:08:00 | 00:00:00 | 00:00:00 | |
| EDDB2-11 | 2026-08-30 11:59:03 | 49.51313 | 12.80824 | 321° | 13km/h | 21835m | 4.9m/s | -55.0°C | 1.2% | 44.1hPa | 2.6V | 00:00:00 | 00:00:00 | 00:00:00 | |
| DL6DJ-15 | 2026-08-30 11:58:52 | 49.51287 | 12.80892 | 321° | 9km/h | 21773m | 5.0m/s | -55.1°C | 1.2% | 44.5hPa | 2.6V | 00:00:00 | 00:00:00 | 00:00:00 | |
| SONDE2-11 | 2026-08-30 11:58:48 | 49.51283 | 12.80898 | 319° | 7km/h | 21758m | 4.2m/s | -55.1°C | 1.2% | 44.6hPa | 2.6V | 00:00:00 | 00:00:00 | 00:00:00 | |
| OM5KV | 2026-08-30 11:58:46 | 49.51280 | 12.80900 | 327° | 11km/h | 21753m | 5.5m/s | -55.2°C | 1.2% | 44.7hPa | 2.6V | 04:08:00 | 00:00:00 | 00:00:00 | |
| SP3BTT-10 | 2026-08-30 11:58:44 | 49.51272 | 12.80911 | 314° | 13km/h | 21738m | 4.8m/s | -55.0°C | 4.7% | 44.7hPa | 2.6V | 04:08:00 | 00:00:00 | 00:00:00 | |
| DK5PH-5 | 2026-08-30 11:58:42 | 49.51268 | 12.80920 | 299° | 9km/h | 21727m | 4.4m/s | -54.9°C | 4.6% | 44.8hPa | 2.7V | 04:08:00 | 01:39:29 | 00:00:00 | |
| OE5MMP-10 | 2026-08-30 11:58:41 | 49.51266 | 12.80924 | 303° | 11km/h | 21723m | 4.2m/s | -54.9°C | 4.6% | 44.8hPa | 2.7V | 00:00:00 | 01:39:28 | 00:00:00 | |
| DO3MHA-11 | 2026-08-30 11:58:40 | 49.51264 | 12.80928 | 313° | 11km/h | 21718m | 5.5m/s | -54.9°C | 4.6% | 44.9hPa | 2.7V | 00:00:00 | 01:39:27 | 00:00:00 | |
| EDDB2-12 | 2026-08-30 11:58:39 | 49.51262 | 12.80932 | 322° | 13km/h | 21712m | 5.3m/s | -54.9°C | 1.2% | 45.0hPa | 2.6V | 00:00:00 | 00:00:00 | 00:00:00 | |
| PETON7-10 | 2026-08-30 11:58:37 | 49.51256 | 12.80938 | 321° | 11km/h | 21703m | 5.2m/s | -55.0°C | 4.6% | 45.0hPa | 2.6V | 00:00:00 | 00:00:00 | 00:00:00 | |
| PG1ADW-2 | 2026-08-30 11:58:36 | 49.51254 | 12.80942 | 311° | 9km/h | 21697m | 5.8m/s | -54.9°C | 4.6% | 45.0hPa | 2.7V | 00:00:00 | 00:00:00 | 00:00:00 | |
| OM5KV | 2026-08-30 11:58:34 | 49.51252 | 12.80945 | 308° | 9km/h | 21692m | 5.1m/s | -55.0°C | 1.2% | 45.1hPa | 2.7V | 04:09:00 | 00:00:00 | 00:00:00 | |
| EDDB2-11 | 2026-08-30 11:58:32 | 49.51247 | 12.80951 | 340° | 9km/h | 21675m | 4.8m/s | -55.0°C | 1.2% | 45.2hPa | 2.7V | 00:00:00 | 00:00:00 | 00:00:00 | |
| OE5WHR-10 | 2026-08-30 11:58:31 | 49.51244 | 12.80953 | 338° | 9km/h | 21671m | 4.5m/s | -55.0°C | 4.6% | 45.2hPa | 2.7V | 00:00:00 | 00:00:00 | 00:00:00 | |
| OM5KV | 2026-08-30 11:58:28 | 49.51240 | 12.80957 | 320° | 9km/h | 21660m | 5.1m/s | -55.0°C | 1.2% | 45.3hPa | 2.7V | 04:09:00 | 00:00:00 | 00:00:00 | |
| NBG1-10 | 2026-08-30 11:58:27 | 49.51236 | 12.80961 | 339° | 7km/h | 21651m | 5.2m/s | -55.0°C | 4.6% | 45.3hPa | 2.7V | 00:00:00 | 01:39:14 | 00:00:00 | |
| OM5KV | 2026-08-30 11:58:23 | 49.51226 | 12.80963 | 357° | 13km/h | 21635m | 4.2m/s | -55.1°C | 1.2% | 45.5hPa | 2.6V | 04:09:00 | 00:00:00 | 00:00:00 | |
| PETON7-10 | 2026-08-30 11:58:22 | 49.51221 | 12.80965 | 340° | 7km/h | 21625m | 5.2m/s | -54.9°C | 4.7% | 45.6hPa | 2.6V | 00:00:00 | 00:00:00 | 00:00:00 | |
| DL6DJ-15 | 2026-08-30 11:58:21 | 49.51217 | 12.80967 | 349° | 5km/h | 21614m | 5.4m/s | -55.0°C | 1.2% | 45.6hPa | 2.6V | 00:00:00 | 00:00:00 | 00:00:00 | |
| SONDE2-11 | 2026-08-30 11:58:17 | 49.51212 | 12.80965 | 23° | 5km/h | 21599m | 4.0m/s | -54.8°C | 1.2% | 45.8hPa | 2.6V | 00:00:00 | 00:00:00 | 00:00:00 | |
| PG1ADW-2 | 2026-08-30 11:58:16 | 49.51211 | 12.80964 | 12° | 7km/h | 21595m | 5.4m/s | -54.8°C | 4.6% | 45.8hPa | 2.6V | 04:09:00 | 00:00:00 | 00:00:00 | |
| OM5KV | 2026-08-30 11:58:14 | 49.51210 | 12.80964 | 319° | 2km/h | 21589m | 5.7m/s | -54.9°C | 1.2% | 45.9hPa | 2.6V | 04:09:00 | 00:00:00 | 00:00:00 | |
| OE5DRO-10 | 2026-08-30 11:58:12 | 49.51208 | 12.80967 | 348° | 7km/h | 21575m | 5.7m/s | -54.9°C | 4.6% | 45.9hPa | 2.6V | 00:00:00 | 00:00:00 | 00:00:00 | |
| OE5MMP-10 | 2026-08-30 11:58:11 | 49.51206 | 12.80967 | 1° | 13km/h | 21569m | 4.8m/s | -54.7°C | 4.6% | 45.9hPa | 2.6V | 00:00:00 | 01:38:58 | 00:00:00 | |
| DO3MHA-11 | 2026-08-30 11:58:10 | 49.51204 | 12.80968 | 356° | 13km/h | 21565m | 3.8m/s | -54.6°C | 4.5% | 46.0hPa | 2.6V | 04:09:00 | 01:38:57 | 00:00:00 | |
| EDDB2-12 | 2026-08-30 11:58:08 | 49.51198 | 12.80974 | 295° | 13km/h | 21550m | 5.4m/s | -54.4°C | 1.1% | 46.1hPa | 2.6V | 00:00:00 | 00:00:00 | 00:00:00 | |
| PETON7-10 | 2026-08-30 11:58:07 | 49.51198 | 12.80974 | 296° | 7km/h | 21550m | 5.3m/s | -54.4°C | 4.4% | 46.1hPa | 2.6V | 04:09:00 | 01:38:54 | 00:00:00 | |
| OM5KV | 2026-08-30 11:58:06 | 49.51198 | 12.80974 | 297° | 13km/h | 21550m | 5.4m/s | -54.4°C | 1.1% | 46.2hPa | 2.6V | 04:09:00 | 00:00:00 | 00:00:00 | |
| OM5KV | 2026-08-30 11:58:03 | 49.51193 | 12.80990 | 310° | 15km/h | 21535m | 5.8m/s | -54.4°C | 1.2% | 46.2hPa | 2.6V | 04:09:00 | 00:00:00 | 00:00:00 | |
| DL2RXE-15 | 2026-08-30 11:58:02 | 49.51190 | 12.80994 | 326° | 13km/h | 21530m | 5.1m/s | 0°C | 0% | 0hPa | 2.6V | 00:00:00 | 00:00:00 | 00:00:00 | |
| EDDB2-11 | 2026-08-30 11:58:01 | 49.51186 | 12.80997 | 344° | 5km/h | 21519m | 5.4m/s | -54.4°C | 1.2% | 46.4hPa | 2.6V | 00:00:00 | 00:00:00 | 00:00:00 | |
| DL6DJ-15 | 2026-08-30 11:57:49 | 49.51183 | 12.81005 | 270° | 11km/h | 21461m | 3.5m/s | -54.3°C | 1.1% | 46.8hPa | 2.6V | 00:00:00 | 00:00:00 | 00:00:00 | |
| SONDE2-11 | 2026-08-30 11:57:46 | 49.51180 | 12.81013 | 347° | 7km/h | 21446m | 4.5m/s | -54.3°C | 1.1% | 46.9hPa | 2.6V | 00:00:00 | 00:00:00 | 00:00:00 | |
| OE5MMP-10 | 2026-08-30 11:57:41 | 49.51177 | 12.81013 | 187° | 9km/h | 21422m | 4.7m/s | -54.4°C | 4.4% | 47.0hPa | 2.6V | 04:09:00 | 01:38:28 | 00:00:00 | |
| DO3MHA-11 | 2026-08-30 11:57:40 | 49.51179 | 12.81014 | 184° | 9km/h | 21417m | 4.9m/s | -54.4°C | 4.4% | 47.1hPa | 2.6V | 00:00:00 | 01:38:27 | 00:00:00 | |
| SONCRA | 2026-08-30 11:57:39 | 49.51182 | 12.81014 | 178° | 9km/h | 21411m | 5.8m/s | -54.5°C | 1.1% | 47.1hPa | 2.6V | 00:00:00 | 00:00:00 | 00:00:00 | |
| PETON7-10 | 2026-08-30 11:57:37 | 49.51187 | 12.81014 | 188° | 5km/h | 21402m | 4.3m/s | -54.5°C | 4.5% | 47.1hPa | 2.6V | 00:00:00 | 00:00:00 | 00:00:00 | |
| PG1ADW-2 | 2026-08-30 11:57:36 | 49.51191 | 12.81015 | 195° | 9km/h | 21397m | 5.5m/s | -54.6°C | 4.5% | 47.2hPa | 2.6V | 00:00:00 | 00:00:00 | 00:00:00 | |
| OE5DRO-10 | 2026-08-30 11:57:34 | 49.51197 | 12.81018 | 194° | 7km/h | 21388m | 3.6m/s | -54.5°C | 4.5% | 47.3hPa | 2.7V | 00:00:00 | 00:00:00 | 00:00:00 | |
| OM5KV | 2026-08-30 11:57:33 | 49.51197 | 12.81018 | 194° | 11km/h | 21388m | 3.6m/s | -54.5°C | 1.2% | 47.3hPa | 2.7V | 04:10:00 | 00:00:00 | 00:00:00 | |
| OE5MMP-10 | 2026-08-30 11:57:31 | 49.51201 | 12.81017 | 102° | 5km/h | 21373m | 4.5m/s | -54.4°C | 4.3% | 47.4hPa | 2.7V | 00:00:00 | 01:38:18 | 00:00:00 | |
| DO3MHA-11 | 2026-08-30 11:57:30 | 49.51201 | 12.81015 | 108° | 5km/h | 21368m | 5.2m/s | -54.5°C | 4.3% | 47.4hPa | 2.7V | 00:00:00 | 01:38:17 | 00:00:00 | |
| OE5WHR-10 | 2026-08-30 11:57:28 | 49.51202 | 12.81014 | 177° | 11km/h | 21358m | 4.1m/s | -54.8°C | 4.4% | 47.5hPa | 2.6V | 00:00:00 | 00:00:00 | 00:00:00 | |
| OM5KV | 2026-08-30 11:57:23 | 49.51205 | 12.81013 | 177° | 7km/h | 21338m | 4.6m/s | -54.9°C | 1.2% | 47.7hPa | 2.7V | 04:10:00 | 00:00:00 | 00:00:00 | |
| PETON7-10 | 2026-08-30 11:57:22 | 49.51210 | 12.81013 | 179° | 15km/h | 21328m | 4.5m/s | -54.9°C | 4.5% | 47.7hPa | 2.7V | 00:00:00 | 01:38:09 | 00:00:00 | |
| NBG1-10 | 2026-08-30 11:57:21 | 49.51214 | 12.81012 | 169° | 13km/h | 21323m | 4.2m/s | -54.9°C | 4.5% | 47.7hPa | 2.7V | 00:00:00 | 01:38:08 | 00:00:00 | |
| DO3MHA-11 | 2026-08-30 11:57:20 | 49.51217 | 12.81011 | 153° | 15km/h | 21318m | 5.5m/s | -55.0°C | 4.6% | 47.8hPa | 2.7V | 04:10:00 | 01:38:07 | 00:00:00 | |
| OM5KV | 2026-08-30 11:57:18 | 49.51219 | 12.81008 | 128° | 13km/h | 21313m | 5.4m/s | -55.1°C | 1.2% | 47.9hPa | 2.7V | 04:10:00 | 00:00:00 | 00:00:00 | |
| OM5KV | 2026-08-30 11:57:16 | 49.51222 | 12.80997 | 102° | 15km/h | 21303m | 4.3m/s | -55.0°C | 1.2% | 48.0hPa | 2.7V | 04:10:00 | 00:00:00 | 00:00:00 | |
| SONDE2-11 | 2026-08-30 11:57:15 | 49.51224 | 12.80986 | 108° | 13km/h | 21293m | 5.3m/s | -55.1°C | 1.2% | 48.0hPa | 2.7V | 00:00:00 | 00:00:00 | 00:00:00 | |
| DL2RXE-15 | 2026-08-30 11:57:14 | 49.51224 | 12.80986 | 109° | 15km/h | 21293m | 5.3m/s | 0°C | 0% | 0hPa | 2.7V | 00:00:00 | 00:00:00 | 00:00:00 | |
| DL1JEZ-13 | 2026-08-30 11:57:12 | 49.51226 | 12.80976 | 113° | 15km/h | 21283m | 5.1m/s | -55.2°C | 1.3% | 48.1hPa | 2.7V | 04:10:00 | 00:00:00 | 00:00:00 | |
| DK5PH-5 | 2026-08-30 11:57:11 | 49.51229 | 12.80965 | 108° | 15km/h | 21272m | 4.4m/s | 0°C | 0% | 0hPa | 2.7V | 00:00:00 | 01:37:58 | 00:00:00 | |
| DO3MHA-11 | 2026-08-30 11:57:10 | 49.51230 | 12.80960 | 114° | 13km/h | 21268m | 4.3m/s | -55.0°C | 4.7% | 48.2hPa | 2.7V | 00:00:00 | 01:37:57 | 00:00:00 | |
| SONCRA | 2026-08-30 11:57:08 | 49.51233 | 12.80952 | 124° | 9km/h | 21257m | 4.8m/s | -55.1°C | 1.2% | 48.3hPa | 2.7V | 00:00:00 | 00:00:00 | 00:00:00 | |
| OE5WHR-10 | 2026-08-30 11:57:07 | 49.51234 | 12.80948 | 115° | 13km/h | 21252m | 4.3m/s | -55.1°C | 4.7% | 48.3hPa | 2.7V | 00:00:00 | 00:00:00 | 00:00:00 | |
| OM5KV | 2026-08-30 11:57:05 | 49.51235 | 12.80944 | 99° | 13km/h | 21247m | 5.8m/s | -55.1°C | 0% | 48.4hPa | 2.7V | 04:10:00 | 00:00:00 | 00:00:00 | |
| EDDB2-11 | 2026-08-30 11:56:59 | 49.51222 | 12.80909 | 46° | 18km/h | 21211m | 5.2m/s | -54.9°C | 1.2% | 48.6hPa | 2.7V | 00:00:00 | 00:00:00 | 00:00:00 | |
| DL6DJ-15 | 2026-08-30 11:56:47 | 49.51209 | 12.80862 | 40° | 20km/h | 21151m | 5.5m/s | -55.0°C | 1.2% | 49.1hPa | 2.7V | 00:00:00 | 00:00:00 | 00:00:00 | |
| OE5WHR-10 | 2026-08-30 11:56:46 | 49.51205 | 12.80857 | 34° | 11km/h | 21146m | 4.9m/s | -55.0°C | 4.6% | 49.1hPa | 2.7V | 00:00:00 | 01:37:33 | 00:00:00 | |
| OM5KV | 2026-08-30 11:56:45 | 49.51205 | 12.80857 | 35° | 24km/h | 21146m | 4.9m/s | -55.0°C | 1.2% | 49.2hPa | 2.7V | 04:11:00 | 00:00:00 | 00:00:00 | |
| SONDE2-11 | 2026-08-30 11:56:44 | 49.51189 | 12.80844 | 24° | 18km/h | 21130m | 4.1m/s | -55.2°C | 1.2% | 49.3hPa | 2.7V | 00:00:00 | 00:00:00 | 00:00:00 | |
| OM5KV | 2026-08-30 11:56:42 | 49.51188 | 12.80844 | 25° | 20km/h | 21130m | 4.1m/s | 0°C | 0% | 0hPa | 2.7V | 00:00:00 | 00:00:00 | 00:00:00 | |
| DK5PH-5 | 2026-08-30 11:56:41 | 49.51181 | 12.80838 | 41° | 9km/h | 21121m | 5.4m/s | 0°C | 0% | 0hPa | 2.7V | 00:00:00 | 01:37:28 | 00:00:00 | |
| DO3MHA-11 | 2026-08-30 11:56:40 | 49.51179 | 12.80834 | 48° | 7km/h | 21116m | 4.1m/s | -55.1°C | 4.7% | 49.3hPa | 2.7V | 00:00:00 | 01:37:27 | 00:00:00 | |
| OM5KV | 2026-08-30 11:56:39 | 49.51179 | 12.80834 | 48° | 11km/h | 21116m | 4.1m/s | -55.1°C | 1.2% | 49.4hPa | 2.7V | 04:11:00 | 00:00:00 | 00:00:00 | |
| PETON7-10 | 2026-08-30 11:56:37 | 49.51176 | 12.80830 | 9° | 9km/h | 21101m | 4.6m/s | -55.0°C | 4.7% | 49.4hPa | 2.7V | 00:00:00 | 01:37:24 | 00:00:00 | |
| EDDB2-12 | 2026-08-30 11:56:35 | 49.51172 | 12.80827 | 37° | 9km/h | 21086m | 4.8m/s | -54.9°C | 1.2% | 49.6hPa | 2.7V | 00:00:00 | 00:00:00 | 00:00:00 | |
| OM5KV | 2026-08-30 11:56:32 | 49.51170 | 12.80824 | 33° | 11km/h | 21082m | 3.9m/s | 0°C | 0% | 0hPa | 2.7V | 00:00:00 | 00:00:00 | 00:00:00 | |
| OE5MMP-10 | 2026-08-30 11:56:31 | 49.51165 | 12.80821 | 7° | 11km/h | 21073m | 5.1m/s | -54.7°C | 4.6% | 49.7hPa | 2.7V | 00:00:00 | 01:37:18 | 00:00:00 | |
| DL1JEZ-13 | 2026-08-30 11:56:30 | 49.51165 | 12.80821 | 7° | 11km/h | 21073m | 5.2m/s | -54.8°C | 1.3% | 49.7hPa | 2.7V | 00:00:00 | 00:00:00 | 00:00:00 | |
| DO3MHA-11 | 2026-08-30 11:56:29 | 49.51159 | 12.80822 | 353° | 11km/h | 21064m | 4.0m/s | -54.7°C | 4.6% | 49.7hPa | 2.7V | 04:11:00 | 01:37:16 | 00:00:00 | |
| EDDB2-11 | 2026-08-30 11:56:28 | 49.51156 | 12.80822 | 358° | 11km/h | 21059m | 5.3m/s | -54.7°C | 1.2% | 49.8hPa | 2.7V | 00:00:00 | 00:00:00 | 00:00:00 | |
| OM5KV | 2026-08-30 11:56:26 | 49.51153 | 12.80822 | 5° | 11km/h | 21053m | 5.4m/s | 0°C | 0% | 0hPa | 2.7V | 00:00:00 | 00:00:00 | 00:00:00 | |
| OE5WHR-10 | 2026-08-30 11:56:25 | 49.51148 | 12.80823 | 345° | 9km/h | 21044m | 5.3m/s | -54.5°C | 4.5% | 49.9hPa | 2.7V | 04:11:00 | 00:00:00 | 00:00:00 | |
| PETON7-10 | 2026-08-30 11:56:22 | 49.51142 | 12.80830 | 317° | 7km/h | 21028m | 5.5m/s | -54.4°C | 4.5% | 50.0hPa | 2.6V | 00:00:00 | 00:00:00 | 00:00:00 | |
| OE5MMP-10 | 2026-08-30 11:56:21 | 49.51140 | 12.80832 | 328° | 7km/h | 21022m | 5.6m/s | -54.4°C | 4.5% | 50.0hPa | 2.7V | 00:00:00 | 01:37:08 | 00:00:00 | |
| OM5KV | 2026-08-30 11:56:20 | 49.51140 | 12.80832 | 328° | 7km/h | 21022m | 5.6m/s | -54.4°C | 1.2% | 50.1hPa | 2.7V | 04:11:00 | 00:00:00 | 00:00:00 | |
| DO3MHA-11 | 2026-08-30 11:56:19 | 49.51137 | 12.80835 | 322° | 11km/h | 21013m | 4.6m/s | -54.3°C | 4.5% | 50.1hPa | 2.7V | 00:00:00 | 01:37:06 | 00:00:00 | |
| OE5DRO-10 | 2026-08-30 11:56:18 | 49.51135 | 12.80837 | 313° | 9km/h | 21007m | 5.9m/s | -54.4°C | 4.5% | 50.2hPa | 2.7V | 00:00:00 | 00:00:00 | 00:00:00 | |
| DL6DJ-15 | 2026-08-30 11:56:16 | 49.51132 | 12.80842 | 319° | 5km/h | 20998m | 4.6m/s | -54.3°C | 1.2% | 50.3hPa | 2.7V | 00:00:00 | 00:00:00 | 00:00:00 | |
| SP3BTT-10 | 2026-08-30 11:56:14 | 49.51129 | 12.80844 | 354° | 5km/h | 20987m | 4.5m/s | -54.1°C | 4.4% | 50.3hPa | 2.7V | 00:00:00 | 00:00:00 | 00:00:00 | |
| SONDE2-11 | 2026-08-30 11:56:13 | 49.51126 | 12.80845 | 331° | 7km/h | 20978m | 5.7m/s | -54.3°C | 1.1% | 50.4hPa | 2.7V | 00:00:00 | 00:00:00 | 00:00:00 | |
| OE5MMP-10 | 2026-08-30 11:56:11 | 49.51125 | 12.80847 | 320° | 11km/h | 20973m | 4.2m/s | -54.2°C | 4.4% | 50.5hPa | 2.7V | 00:00:00 | 01:36:58 | 00:00:00 | |
| DK5PH-5 | 2026-08-30 11:56:10 | 49.51123 | 12.80849 | 319° | 11km/h | 20968m | 4.7m/s | 0°C | 0% | 0hPa | 2.7V | 00:00:00 | 01:36:57 | 00:00:00 | |
| OM5KV | 2026-08-30 11:56:09 | 49.51123 | 12.80849 | 320° | 7km/h | 20968m | 4.8m/s | -54.3°C | 1.2% | 50.5hPa | 2.7V | 04:11:00 | 00:00:00 | 00:00:00 | |
| SONCRA | 2026-08-30 11:56:06 | 49.51117 | 12.80858 | 304° | 11km/h | 20948m | 6.1m/s | -54.4°C | 1.2% | 50.7hPa | 2.7V | 00:00:00 | 00:00:00 | 00:00:00 | |
| OE5WHR-10 | 2026-08-30 11:56:04 | 49.51114 | 12.80867 | 296° | 11km/h | 20938m | 3.9m/s | -54.2°C | 4.4% | 50.7hPa | 2.7V | 00:00:00 | 00:00:00 | 00:00:00 | |
| OM5KV | 2026-08-30 11:56:03 | 49.51114 | 12.80867 | 296° | 15km/h | 20938m | 4.0m/s | -54.2°C | 1.2% | 50.8hPa | 2.7V | 00:00:00 | 00:00:00 | 00:00:00 | |
| EDDB2-11 | 2026-08-30 11:55:57 | 49.51102 | 12.80896 | 294° | 13km/h | 20901m | 3.9m/s | -54.0°C | 1.2% | 51.1hPa | 2.7V | 00:00:00 | 00:00:00 | 00:00:00 | |
| DL6DJ-15 | 2026-08-30 11:55:45 | 49.51093 | 12.80933 | 299° | 7km/h | 20847m | 6.1m/s | -53.8°C | 1.1% | 51.5hPa | 2.7V | 00:00:00 | 00:00:00 | 00:00:00 | |
| OE5WHR-10 | 2026-08-30 11:55:43 | 49.51091 | 12.80940 | 289° | 7km/h | 20837m | 4.1m/s | -53.8°C | 4.3% | 51.5hPa | 2.7V | 00:00:00 | 01:36:30 | 00:00:00 | |
| SONDE2-11 | 2026-08-30 11:55:42 | 49.51090 | 12.80947 | 277° | 7km/h | 20827m | 4.8m/s | -53.8°C | 1.2% | 51.7hPa | 2.7V | 00:00:00 | 00:00:00 | 00:00:00 | |
| OE5MMP-10 | 2026-08-30 11:55:41 | 49.51090 | 12.80947 | 278° | 7km/h | 20827m | 4.7m/s | -53.8°C | 4.4% | 51.6hPa | 2.7V | 00:00:00 | 01:36:28 | 00:00:00 | |
| OE5DRO-10 | 2026-08-30 11:55:40 | 49.51089 | 12.80951 | 279° | 7km/h | 20823m | 4.0m/s | -53.9°C | 4.4% | 51.6hPa | 2.7V | 00:00:00 | 00:00:00 | 00:00:00 | |
| OM5KV | 2026-08-30 11:55:39 | 49.51089 | 12.80951 | 279° | 11km/h | 20823m | 4.1m/s | -53.9°C | 1.2% | 51.7hPa | 2.7V | 00:00:00 | 00:00:00 | 00:00:00 | |
| DK5PH-5 | 2026-08-30 11:55:38 | 49.51088 | 12.80960 | 291° | 18km/h | 20813m | 4.5m/s | 0°C | 0% | 0hPa | 2.7V | 00:00:00 | 01:36:25 | 00:00:00 | |
| PETON7-10 | 2026-08-30 11:55:37 | 49.51087 | 12.80964 | 292° | 7km/h | 20808m | 3.6m/s | -53.7°C | 4.4% | 51.8hPa | 2.7V | 04:11:00 | 00:00:00 | 00:00:00 | |
| SONCRA | 2026-08-30 11:55:35 | 49.51085 | 12.80970 | 287° | 4km/h | 20798m | 5.3m/s | -53.9°C | 1.2% | 51.9hPa | 2.7V | 00:00:00 | 00:00:00 | 00:00:00 | |
| EDDB2-12 | 2026-08-30 11:55:33 | 49.51085 | 12.80973 | 278° | 2km/h | 20783m | 5.8m/s | -53.8°C | 1.1% | 52.0hPa | 2.7V | 00:00:00 | 00:00:00 | 00:00:00 | |
| OE5MMP-10 | 2026-08-30 11:55:31 | 49.51085 | 12.80974 | 280° | 7km/h | 20779m | 4.4m/s | -53.7°C | 4.4% | 52.0hPa | 2.7V | 00:00:00 | 01:36:18 | 00:00:00 | |
| EDDB2-11 | 2026-08-30 11:55:26 | 49.51093 | 12.80983 | 228° | 9km/h | 20750m | 5.4m/s | -53.7°C | 1.1% | 52.3hPa | 2.7V | 00:00:00 | 00:00:00 | 00:00:00 | |
| PETON7-10 | 2026-08-30 11:55:22 | 49.51096 | 12.80992 | 245° | 4km/h | 20737m | 5.2m/s | -53.6°C | 4.4% | 52.4hPa | 2.7V | 00:00:00 | 00:00:00 | 00:00:00 | |
| OE5MMP-10 | 2026-08-30 11:55:21 | 49.51097 | 12.80994 | 219° | 4km/h | 20732m | 4.8m/s | -53.5°C | 4.3% | 52.4hPa | 2.7V | 00:00:00 | 01:36:08 | 00:00:00 | |
| DL1JEZ-13 | 2026-08-30 11:55:20 | 49.51097 | 12.80994 | 219° | 4km/h | 20732m | 4.9m/s | -53.6°C | 1.2% | 52.5hPa | 2.6V | 00:00:00 | 00:00:00 | 00:00:00 | |
| DL6DJ-15 | 2026-08-30 11:55:14 | 49.51100 | 12.80993 | 96° | 4km/h | 20695m | 5.2m/s | -53.4°C | 1.1% | 52.8hPa | 2.6V | 00:00:00 | 00:00:00 | 00:00:00 | |
| SP3BTT-10 | 2026-08-30 11:55:13 | 49.51100 | 12.80991 | 79° | 11km/h | 20691m | 3.5m/s | -53.3°C | 4.3% | 52.7hPa | 2.6V | 00:00:00 | 00:00:00 | 00:00:00 | |
| SONDE2-11 | 2026-08-30 11:55:11 | 49.51097 | 12.80989 | 328° | 5km/h | 20676m | 4.7m/s | -53.3°C | 1.1% | 52.9hPa | 2.6V | 00:00:00 | 00:00:00 | 00:00:00 | |
| PETON7-10 | 2026-08-30 11:55:07 | 49.51095 | 12.80992 | 346° | 7km/h | 20661m | 5.1m/s | -53.2°C | 4.2% | 53.0hPa | 2.6V | 00:00:00 | 01:35:54 | 00:00:00 | |
| SONCRA | 2026-08-30 11:55:04 | 49.51093 | 12.80991 | 31° | 7km/h | 20645m | 4.3m/s | -53.1°C | 1.1% | 53.2hPa | 2.6V | 00:00:00 | 00:00:00 | 00:00:00 | |
| EDDB2-12 | 2026-08-30 11:55:02 | 49.51088 | 12.80980 | 69° | 13km/h | 20632m | 5.1m/s | -53.0°C | 1.1% | 53.3hPa | 2.6V | 00:00:00 | 00:00:00 | 00:00:00 | |
| EDDB2-11 | 2026-08-30 11:54:55 | 49.51078 | 12.80963 | 33° | 7km/h | 20598m | 4.9m/s | -53.1°C | 1.1% | 53.5hPa | 2.6V | 00:00:00 | 00:00:00 | 00:00:00 | |
| PETON7-10 | 2026-08-30 11:54:52 | 49.51074 | 12.80959 | 21° | 13km/h | 20589m | 5.6m/s | -53.1°C | 4.1% | 53.6hPa | 2.6V | 00:00:00 | 00:00:00 | 00:00:00 | |
| OE5MMP-10 | 2026-08-30 11:54:51 | 49.51071 | 12.80958 | 18° | 15km/h | 20583m | 5.0m/s | -53.0°C | 4.1% | 53.6hPa | 2.7V | 00:00:00 | 01:35:38 | 00:00:00 | |
| OE5DRO-10 | 2026-08-30 11:54:43 | 49.51048 | 12.80925 | 28° | 18km/h | 20544m | 3.8m/s | -53.1°C | 4.1% | 53.9hPa | 2.7V | 00:00:00 | 00:00:00 | 00:00:00 | |
| OE5MMP-10 | 2026-08-30 11:54:41 | 49.51043 | 12.80920 | 34° | 13km/h | 20535m | 5.2m/s | -53.2°C | 4.1% | 54.0hPa | 2.7V | 00:00:00 | 01:35:28 | 00:00:00 | |
| OE5WHR-10 | 2026-08-30 11:54:40 | 49.51041 | 12.80918 | 32° | 20km/h | 20530m | 4.1m/s | -53.2°C | 4.1% | 54.1hPa | 2.7V | 04:12:00 | 01:35:27 | 00:00:00 | |
| DL1JEZ-13 | 2026-08-30 11:54:39 | 49.51041 | 12.80919 | 33° | 9km/h | 20530m | 4.1m/s | -53.3°C | 1.1% | 54.1hPa | 2.7V | 00:00:00 | 00:00:00 | 00:00:00 | |
| PETON7-10 | 2026-08-30 11:54:37 | 49.51035 | 12.80916 | 357° | 22km/h | 20517m | 4.8m/s | 0°C | 0% | 0hPa | 2.7V | 00:00:00 | 00:00:00 | 00:00:00 | |
| SONCRA | 2026-08-30 11:54:33 | 49.51021 | 12.80910 | 29° | 18km/h | 20498m | 3.7m/s | -53.5°C | 1.1% | 54.4hPa | 2.7V | 00:00:00 | 00:00:00 | 00:00:00 | |
| OE5MMP-10 | 2026-08-30 11:54:31 | 49.51012 | 12.80903 | 23° | 26km/h | 20489m | 5.3m/s | -53.5°C | 4.2% | 54.4hPa | 2.7V | 00:00:00 | 01:35:18 | 00:00:00 | |
| EDDB2-12 | 2026-08-30 11:54:30 | 49.51006 | 12.80900 | 15° | 24km/h | 20484m | 5.4m/s | -53.5°C | 1.1% | 54.5hPa | 2.7V | 00:00:00 | 00:00:00 | 00:00:00 | |
| PG1ADW-2 | 2026-08-30 11:54:29 | 49.50999 | 12.80897 | 14° | 26km/h | 20479m | 4.1m/s | -53.5°C | 4.3% | 54.5hPa | 2.7V | 00:00:00 | 00:00:00 | 00:00:00 | |
| OE5DRO-10 | 2026-08-30 11:54:24 | 49.50968 | 12.80887 | 360° | 24km/h | 20455m | 5.7m/s | -53.4°C | 4.2% | 54.7hPa | 2.7V | 00:00:00 | 00:00:00 | 00:00:00 | |
| PETON7-10 | 2026-08-30 11:54:22 | 49.50956 | 12.80888 | 359° | 24km/h | 20445m | 4.4m/s | -53.6°C | 4.2% | 54.8hPa | 2.7V | 04:13:00 | 01:35:09 | 00:00:00 | |
| DO3MHA-11 | 2026-08-30 11:54:19 | 49.50936 | 12.80884 | 14° | 22km/h | 20431m | 4.2m/s | -53.6°C | 4.2% | 54.9hPa | 2.7V | 04:13:00 | 01:35:06 | 00:00:00 | |
| OE5WHR-10 | 2026-08-30 11:54:18 | 49.50929 | 12.80882 | 12° | 20km/h | 20426m | 4.7m/s | -53.6°C | 4.2% | 54.9hPa | 2.7V | 00:00:00 | 00:00:00 | 00:00:00 | |
| DL6DJ-15 | 2026-08-30 11:54:12 | 49.50891 | 12.80884 | 338° | 16km/h | 20397m | 4.3m/s | -53.7°C | 1.1% | 55.2hPa | 2.7V | 00:00:00 | 00:00:00 | 00:00:00 | |
| OE5MMP-10 | 2026-08-30 11:54:11 | 49.50887 | 12.80886 | 329° | 18km/h | 20393m | 5.6m/s | -53.7°C | 4.3% | 55.2hPa | 2.7V | 00:00:00 | 01:34:58 | 00:00:00 | |
| SONDE2-11 | 2026-08-30 11:54:09 | 49.50875 | 12.80899 | 329° | 16km/h | 20378m | 4.8m/s | -53.7°C | 1.1% | 55.4hPa | 2.7V | 00:00:00 | 00:00:00 | 00:00:00 | |
| PETON7-10 | 2026-08-30 11:54:07 | 49.50872 | 12.80902 | 340° | 18km/h | 20373m | 5.7m/s | -53.8°C | 4.2% | 55.4hPa | 2.7V | 00:00:00 | 00:00:00 | 00:00:00 | |
| OE5DRO-10 | 2026-08-30 11:54:05 | 49.50864 | 12.80904 | 358° | 16km/h | 20363m | 4.4m/s | -54.0°C | 4.2% | 55.5hPa | 2.6V | 00:00:00 | 00:00:00 | 00:00:00 | |
| SONCRA | 2026-08-30 11:54:02 | 49.50844 | 12.80912 | 333° | 22km/h | 20344m | 3.9m/s | -54.0°C | 1.2% | 55.7hPa | 2.6V | 00:00:00 | 00:00:00 | 00:00:00 | |
| EDDB2-12 | 2026-08-30 11:53:59 | 49.50835 | 12.80919 | 327° | 16km/h | 20335m | 4.6m/s | -53.9°C | 1.2% | 55.8hPa | 2.6V | 00:00:00 | 00:00:00 | 00:00:00 | |
| EDDB2-11 | 2026-08-30 11:53:53 | 49.50810 | 12.80942 | 348° | 11km/h | 20301m | 5.0m/s | -54.1°C | 1.1% | 56.1hPa | 2.6V | 00:00:00 | 00:00:00 | 00:00:00 | |
| PETON7-10 | 2026-08-30 11:53:52 | 49.50810 | 12.80942 | 349° | 13km/h | 20301m | 5.0m/s | -54.0°C | 4.3% | 56.1hPa | 2.6V | 00:00:00 | 00:00:00 | 00:00:00 | |
| OE5MMP-10 | 2026-08-30 11:53:51 | 49.50806 | 12.80943 | 348° | 13km/h | 20296m | 5.7m/s | -54.0°C | 4.3% | 56.1hPa | 2.6V | 00:00:00 | 01:34:38 | 00:00:00 | |
| DO3MHA-11 | 2026-08-30 11:53:50 | 49.50803 | 12.80945 | 343° | 13km/h | 20290m | 5.0m/s | -53.9°C | 4.3% | 56.1hPa | 2.6V | 00:00:00 | 01:34:37 | 00:00:00 | |
| PG1ADW-2 | 2026-08-30 11:53:49 | 49.50800 | 12.80946 | 339° | 15km/h | 20286m | 3.9m/s | -53.8°C | 4.3% | 56.2hPa | 2.6V | 00:00:00 | 00:00:00 | 00:00:00 | |
| OE5DRO-10 | 2026-08-30 11:53:46 | 49.50793 | 12.80951 | 326° | 15km/h | 20272m | 3.8m/s | -53.7°C | 4.4% | 56.3hPa | 2.6V | 04:13:00 | 00:00:00 | 00:00:00 | |
| SP3BTT-10 | 2026-08-30 11:53:43 | 49.50786 | 12.80961 | 318° | 13km/h | 20258m | 4.3m/s | -53.6°C | 4.5% | 56.4hPa | 2.6V | 04:13:00 | 00:00:00 | 00:00:00 | |
| DL6DJ-15 | 2026-08-30 11:53:41 | 49.50779 | 12.80971 | 316° | 16km/h | 20249m | 5.1m/s | -53.7°C | 1.2% | 56.6hPa | 2.6V | 00:00:00 | 00:00:00 | 00:00:00 | |
| SONDE2-11 | 2026-08-30 11:53:38 | 49.50771 | 12.80986 | 302° | 13km/h | 20230m | 5.7m/s | -53.7°C | 1.1% | 56.7hPa | 2.6V | 00:00:00 | 00:00:00 | 00:00:00 | |
| PETON7-10 | 2026-08-30 11:53:37 | 49.50771 | 12.80986 | 303° | 16km/h | 20230m | 5.7m/s | -53.6°C | 4.4% | 56.7hPa | 2.6V | 00:00:00 | 01:34:24 | 00:00:00 | |
| OE5WHR-10 | 2026-08-30 11:53:36 | 49.50769 | 12.80991 | 308° | 16km/h | 20224m | 4.7m/s | -53.6°C | 4.4% | 56.7hPa | 2.6V | 00:00:00 | 01:34:23 | 00:00:00 | |
| DO3MHA-11 | 2026-08-30 11:53:34 | 49.50764 | 12.80999 | 326° | 18km/h | 20215m | 5.7m/s | -53.4°C | 4.3% | 56.8hPa | 2.6V | 00:00:00 | 01:34:21 | 00:00:00 | |
| SONCRA | 2026-08-30 11:53:31 | 49.50748 | 12.81009 | 330° | 20km/h | 20195m | 4.8m/s | -53.4°C | 1.1% | 57.0hPa | 2.6V | 00:00:00 | 00:00:00 | 00:00:00 | |
| PG1ADW-2 | 2026-08-30 11:53:29 | 49.50744 | 12.81013 | 327° | 15km/h | 20191m | 4.1m/s | -53.3°C | 4.3% | 57.0hPa | 2.6V | 00:00:00 | 00:00:00 | 00:00:00 | |
| EDDB2-12 | 2026-08-30 11:53:28 | 49.50740 | 12.81018 | 322° | 18km/h | 20186m | 5.3m/s | -53.2°C | 1.1% | 57.1hPa | 2.6V | 00:00:00 | 00:00:00 | 00:00:00 | |
| OE5DRO-10 | 2026-08-30 11:53:27 | 49.50736 | 12.81022 | 317° | 13km/h | 20181m | 5.2m/s | -53.2°C | 4.2% | 57.1hPa | 2.6V | 00:00:00 | 00:00:00 | 00:00:00 | |
| DL2RXE-15 | 2026-08-30 11:53:23 | 49.50731 | 12.81037 | 288° | 16km/h | 20167m | 5.6m/s | 0°C | 0% | 0hPa | 2.6V | 00:00:00 | 00:00:00 | 00:00:00 | |
| EDDB2-11 | 2026-08-30 11:53:22 | 49.50728 | 12.81058 | 279° | 16km/h | 20152m | 5.6m/s | -53.1°C | 1.1% | 57.4hPa | 2.6V | 00:00:00 | 00:00:00 | 00:00:00 | |
| OE5MMP-10 | 2026-08-30 11:53:21 | 49.50728 | 12.81058 | 280° | 13km/h | 20152m | 5.5m/s | -53.1°C | 4.1% | 57.4hPa | 2.6V | 00:00:00 | 01:34:08 | 00:00:00 | |
| DO3MHA-11 | 2026-08-30 11:53:20 | 49.50727 | 12.81064 | 280° | 11km/h | 20147m | 4.7m/s | -53.1°C | 4.2% | 57.4hPa | 2.7V | 00:00:00 | 01:34:07 | 00:00:00 | |
| DL1JEZ-13 | 2026-08-30 11:53:18 | 49.50727 | 12.81069 | 289° | 13km/h | 20143m | 3.9m/s | -53.1°C | 1.1% | 57.5hPa | 2.7V | 00:00:00 | 00:00:00 | 00:00:00 | |
| OE5WHR-10 | 2026-08-30 11:53:15 | 49.50718 | 12.81085 | 325° | 11km/h | 20124m | 4.4m/s | -53.1°C | 4.0% | 57.6hPa | 2.7V | 00:00:00 | 00:00:00 | 00:00:00 | |
| OE5MMP-10 | 2026-08-30 11:53:11 | 49.50709 | 12.81093 | 322° | 11km/h | 20105m | 5.1m/s | -53.2°C | 4.2% | 57.8hPa | 2.7V | 00:00:00 | 01:33:58 | 00:00:00 | |
| DO3MHA-11 | 2026-08-30 11:53:10 | 49.50708 | 12.81095 | 309° | 5km/h | 20099m | 5.2m/s | -53.2°C | 4.3% | 57.8hPa | 2.7V | 04:14:00 | 01:33:57 | 00:00:00 | |
| PG1ADW-2 | 2026-08-30 11:53:09 | 49.50706 | 12.81099 | 296° | 9km/h | 20095m | 4.3m/s | -53.2°C | 4.3% | 57.9hPa | 2.7V | 00:00:00 | 00:00:00 | 00:00:00 | |
| OE5DRO-10 | 2026-08-30 11:53:08 | 49.50705 | 12.81103 | 286° | 9km/h | 20090m | 4.9m/s | -53.3°C | 4.3% | 57.9hPa | 2.6V | 00:00:00 | 00:00:00 | 00:00:00 | |
| PETON7-10 | 2026-08-30 11:53:07 | 49.50705 | 12.81107 | 276° | 9km/h | 20085m | 5.3m/s | -53.3°C | 4.2% | 57.9hPa | 2.7V | 04:14:00 | 00:00:00 | 00:00:00 | |
| SONDE2-11 | 2026-08-30 11:53:06 | 49.50705 | 12.81111 | 275° | 9km/h | 20080m | 3.7m/s | -53.4°C | 1.1% | 58.1hPa | 2.7V | 00:00:00 | 00:00:00 | 00:00:00 | |
| SONCRA | 2026-08-30 11:53:00 | 49.50692 | 12.81133 | 350° | 7km/h | 20048m | 3.9m/s | -53.2°C | 1.1% | 58.3hPa | 2.7V | 00:00:00 | 00:00:00 | 00:00:00 | |
| EDDB2-12 | 2026-08-30 11:52:58 | 49.50687 | 12.81135 | 336° | 9km/h | 20038m | 5.3m/s | -53.2°C | 1.1% | 58.4hPa | 2.7V | 00:00:00 | 00:00:00 | 00:00:00 | |
| EDDB2-11 | 2026-08-30 11:52:51 | 49.50678 | 12.81140 | 323° | 5km/h | 20005m | 5.4m/s | -53.4°C | 1.0% | 58.7hPa | 2.7V | 00:00:00 | 00:00:00 | 00:00:00 | |
| PG1ADW-2 | 2026-08-30 11:52:49 | 49.50677 | 12.81142 | 313° | 5km/h | 20000m | 4.5m/s | -53.3°C | 4.1% | 58.7hPa | 2.7V | 00:00:00 | 01:33:36 | 00:00:00 | |
| DO3MHA-11 | 2026-08-30 11:52:48 | 49.50676 | 12.81144 | 308° | 5km/h | 19996m | 3.3m/s | -53.5°C | 4.2% | 58.8hPa | 2.7V | 00:00:00 | 01:33:35 | 00:00:00 | |
| DF8AY | 2026-08-30 11:52:26 | 49.50684 | 12.81116 | 84° | 13km/h | 19883m | 5.2m/s | -54°C | 0.6% | 59.9hPa | 2.7V | 04:17:20 | 01:33:11 | 00:00:00 | |
| DF8AY | 2026-08-30 11:52:09 | 49.50670 | 12.81049 | 75° | 15km/h | 19808m | 5.4m/s | -53.9°C | 0.6% | 60.5hPa | 2.6V | 04:17:20 | 01:32:55 | 00:00:00 | |
| DF8AY | 2026-08-30 11:51:57 | 49.50644 | 12.80986 | 60° | 16km/h | 19753m | 5m/s | -53.9°C | 0.6% | 61.1hPa | 2.6V | 04:17:20 | 01:32:43 | 00:00:00 | |
| DF8AY | 2026-08-30 11:51:47 | 49.50616 | 12.80940 | 30° | 18km/h | 19706m | 5.6m/s | -53.8°C | 0.5% | 61.5hPa | 2.7V | 04:17:20 | 01:32:33 | 00:00:00 | |
| DF8AY | 2026-08-30 11:51:32 | 49.50588 | 12.80835 | 72° | 15km/h | 19614m | 5.3m/s | -54.6°C | 0.6% | 62.5hPa | 2.7V | 04:17:20 | 01:32:13 | 00:00:00 | |
| DF8AY | 2026-08-30 11:51:14 | 49.50565 | 12.80746 | 49° | 24km/h | 19558m | 5.4m/s | -54.7°C | 0.7% | 63hPa | 2.7V | 04:17:20 | 01:32:01 | 00:00:00 | |
| DF8AY | 2026-08-30 11:51:03 | 49.50526 | 12.80676 | 48° | 26km/h | 19507m | 4.7m/s | -54.7°C | 0.7% | 63.5hPa | 2.6V | 04:17:20 | 01:31:50 | 00:00:00 | |
| DF8AY | 2026-08-30 11:50:53 | 49.50480 | 12.80621 | 41° | 15km/h | 19456m | 4.7m/s | -54.7°C | 0.7% | 64hPa | 2.7V | 04:17:20 | 01:31:39 | 00:00:00 | |
| EDDB2-11 | 2026-08-30 11:50:46 | 49.50453 | 12.80591 | 28° | 26km/h | 19429m | 3.7m/s | -54.6°C | 1.2% | 64.2hPa | 2.7V | 00:00:00 | 00:00:00 | 00:00:00 | |
| DF8AY | 2026-08-30 11:50:41 | 49.50428 | 12.80572 | 20° | 20km/h | 19406m | 5.1m/s | -54.6°C | 0.7% | 64.5hPa | 2.7V | 04:17:20 | 01:31:28 | 00:00:00 | |
| DF8AY | 2026-08-30 11:50:31 | 49.50353 | 12.80529 | 18° | 11km/h | 19330m | 4.8m/s | -54.1°C | 0.7% | 65.3hPa | 2.6V | 04:17:20 | 01:31:12 | 00:00:00 | |
| DF8AY | 2026-08-30 11:50:16 | 49.50314 | 12.80516 | 13° | 16km/h | 19284m | 5.6m/s | -54°C | 0.6% | 65.7hPa | 2.8V | 04:17:20 | 01:31:02 | 00:00:00 | |
| DF8AY | 2026-08-30 11:50:03 | 49.50279 | 12.80519 | 22° | 9km/h | 19226m | 4m/s | -53.9°C | 0.6% | 66.3hPa | 2.6V | 04:21:35 | 01:30:50 | 00:00:00 | |
| DF8AY | 2026-08-30 11:49:53 | 49.50267 | 12.80510 | 15° | 2km/h | 19177m | 4.8m/s | -54.1°C | 0.7% | 66.8hPa | 2.6V | 04:21:35 | 01:30:40 | 00:00:00 | |
| EDDB2-12 | 2026-08-30 11:49:51 | 49.50267 | 12.80510 | 107° | 2km/h | 19169m | 5.0m/s | -54.1°C | 1.2% | 66.9hPa | 2.8V | 00:00:00 | 00:00:00 | 00:00:00 | |
| DF8AY | 2026-08-30 11:49:42 | 49.50274 | 12.80476 | 123° | 7km/h | 19094m | 4.1m/s | -53.9°C | 0.6% | 67.7hPa | 2.8V | 04:21:35 | 01:30:23 | 00:00:00 | |
| DF8AY | 2026-08-30 11:49:26 | 49.50279 | 12.80454 | 69° | 7km/h | 19046m | 4.3m/s | -53.8°C | 0.7% | 68.2hPa | 2.6V | 04:21:35 | 01:30:13 | 00:00:00 | |
| DF8AY | 2026-08-30 11:49:15 | 49.50293 | 12.80417 | 106° | 7km/h | 18995m | 4.5m/s | -53.7°C | 0.6% | 68.8hPa | 2.7V | 04:21:35 | 01:30:02 | 00:00:00 | |
| DF8AY | 2026-08-30 11:49:10 | 49.50293 | 12.80392 | 137° | 13km/h | 18949m | 3.8m/s | -53.6°C | 0.5% | 69.2hPa | 2.6V | 04:21:35 | 01:29:52 | 00:00:00 | |
| DF8AY | 2026-08-30 11:48:55 | 49.50314 | 12.80341 | 106° | 15km/h | 18903m | 5.4m/s | -54.1°C | 0.6% | 69.7hPa | 2.7V | 04:21:35 | 01:29:42 | 00:00:00 | |
| SONCRA | 2026-08-30 11:48:51 | 49.50317 | 12.80320 | 102° | 18km/h | 18884m | 4.7m/s | -54.3°C | 1.2% | 70.0hPa | 2.8V | 00:00:00 | 00:00:00 | 00:00:00 | |
| EDDB2-12 | 2026-08-30 11:48:49 | 49.50320 | 12.80305 | 108° | 18km/h | 18875m | 5.5m/s | -54.4°C | 1.2% | 70.1hPa | 2.8V | 00:00:00 | 00:00:00 | 00:00:00 | |
| DF8AY | 2026-08-30 11:48:43 | 49.50332 | 12.80253 | 106° | 27km/h | 18848m | 3.7m/s | -54.5°C | 0.6% | 70.4hPa | 2.8V | 04:21:35 | 01:29:30 | 00:00:00 | |
| DF8AY | 2026-08-30 11:48:30 | 49.50345 | 12.80075 | 90° | 27km/h | 18763m | 3.3m/s | -54.9°C | 0.7% | 71.3hPa | 2.7V | 04:21:35 | 01:29:11 | 00:00:00 | |
| DF8AY | 2026-08-30 11:48:16 | 49.50336 | 12.79994 | 77° | 26km/h | 18728m | 5.1m/s | -55°C | 0.8% | 71.7hPa | 2.7V | 04:21:35 | 01:29:03 | 00:00:00 | |
| DF8AY | 2026-08-30 11:48:05 | 49.50315 | 12.79884 | 70° | 31km/h | 18681m | 4.7m/s | -54.7°C | 0.7% | 72.2hPa | 2.7V | 04:21:35 | 01:28:52 | 00:00:00 | |
| DF8AY | 2026-08-30 11:47:48 | 49.50261 | 12.79702 | 62° | 29km/h | 18607m | 5.1m/s | -54.9°C | 0.9% | 73.1hPa | 2.6V | 04:21:35 | 01:28:35 | 00:00:00 | |
| EDDB2-12 | 2026-08-30 11:47:47 | 49.50258 | 12.79692 | 58° | 29km/h | 18603m | 3.7m/s | -54.9°C | 1.3% | 73.1hPa | 2.6V | 00:00:00 | 00:00:00 | 00:00:00 | |
| DF8AY | 2026-08-30 11:47:38 | 49.50218 | 12.79602 | 61° | 27km/h | 18561m | 4.5m/s | -54.8°C | 0.8% | 73.6hPa | 2.6V | 04:21:35 | 01:28:25 | 00:00:00 | |
| DF8AY | 2026-08-30 11:47:24 | 49.50148 | 12.79490 | 50° | 27km/h | 18499m | 4.5m/s | -54.8°C | 0.6% | 74.3hPa | 2.6V | 04:21:35 | 01:28:11 | 00:00:00 | |
| DF8AY | 2026-08-30 11:47:14 | 49.50089 | 12.79437 | 18° | 27km/h | 18454m | 4.5m/s | -56.3°C | 0.9% | 74.9hPa | 2.7V | 04:21:35 | 01:28:01 | 00:00:00 | |
| DF8AY | 2026-08-30 11:47:03 | 49.50019 | 12.79371 | 30° | 29km/h | 18405m | 4.3m/s | -56.7°C | 0.9% | 75.4hPa | 2.7V | 04:21:35 | 01:27:50 | 00:00:00 | |
| DF8AY | 2026-08-30 11:46:51 | 49.49933 | 12.79316 | 17° | 24km/h | 18351m | 4.8m/s | -56.9°C | 1% | 76.1hPa | 2.6V | 04:21:35 | 01:27:38 | 00:00:00 | |
| SONCRA | 2026-08-30 11:46:47 | 49.49911 | 12.79307 | 14° | 20km/h | 18332m | 3.5m/s | -56.9°C | 1.4% | 76.3hPa | 2.7V | 00:00:00 | 00:00:00 | 00:00:00 | |
| EDDB2-12 | 2026-08-30 11:46:45 | 49.49902 | 12.79303 | 22° | 15km/h | 18322m | 5.0m/s | -56.8°C | 1.4% | 76.4hPa | 2.7V | 00:00:00 | 00:00:00 | 00:00:00 | |
| DF8AY | 2026-08-30 11:46:40 | 49.49882 | 12.79288 | 26° | 22km/h | 18299m | 3.9m/s | -57.2°C | 1% | 76.7hPa | 2.7V | 04:21:35 | 01:27:27 | 00:00:00 | |
| DF8AY | 2026-08-30 11:46:30 | 49.49853 | 12.79294 | 326° | 11km/h | 18253m | 5.5m/s | -56.8°C | 1% | 77.3hPa | 2.6V | 04:21:35 | 01:27:17 | 00:00:00 | |
| DF8AY | 2026-08-30 11:46:19 | 49.49824 | 12.79290 | 284° | 5km/h | 18201m | 3.4m/s | -56.5°C | 1% | 77.9hPa | 2.8V | 04:21:35 | 01:27:06 | 00:00:00 | |
| DF8AY | 2026-08-30 11:46:09 | 49.49798 | 12.79314 | 21° | 5km/h | 18150m | 4.6m/s | -56.1°C | 0.9% | 78.5hPa | 2.8V | 04:21:35 | 01:26:55 | 00:00:00 | |
| DF8AY | 2026-08-30 11:45:57 | 49.49786 | 12.79348 | 348° | 5km/h | 18099m | 4.2m/s | -55.6°C | 0.9% | 79.2hPa | 2.7V | 04:21:35 | 01:26:44 | 00:00:00 | |
| DF8AY | 2026-08-30 11:45:47 | 49.49784 | 12.79359 | 339° | 16km/h | 18054m | 4.5m/s | -55.2°C | 0.7% | 79.7hPa | 2.6V | 04:22:26 | 01:26:34 | 00:00:00 | |
| DF8AY | 2026-08-30 11:45:36 | 49.49773 | 12.79377 | 285° | 7km/h | 18003m | 5.2m/s | -54.9°C | 0.8% | 80.4hPa | 2.6V | 04:22:26 | 01:26:23 | 00:00:00 | |
| DF8AY | 2026-08-30 11:45:25 | 49.49771 | 12.79394 | 205° | 16km/h | 17953m | 5m/s | -54.8°C | 0.8% | 81hPa | 2.8V | 04:22:26 | 01:26:12 | 00:00:00 | |
| DF8AY | 2026-08-30 11:45:14 | 49.49779 | 12.79401 | 166° | 15km/h | 17900m | 5.9m/s | -55°C | 0.8% | 81.7hPa | 2.6V | 04:22:26 | 01:26:01 | 00:00:00 | |
| DF8AY | 2026-08-30 11:45:01 | 49.49792 | 12.79329 | 102° | 15km/h | 17832m | 4.3m/s | -55.2°C | 0.8% | 82.6hPa | 2.8V | 04:23:17 | 01:25:47 | 00:00:00 | |
| DF8AY | 2026-08-30 11:44:50 | 49.49785 | 12.79282 | 71° | 11km/h | 17783m | 4.7m/s | -55°C | 0.8% | 83.2hPa | 2.6V | 04:23:17 | 01:25:37 | 00:00:00 | |
| SONDE2-11 | 2026-08-30 11:44:50 | 49.49784 | 12.79278 | 72° | 9km/h | 17778m | 6.3m/s | -55.1°C | 1.4% | 83.3hPa | 2.8V | 00:00:00 | 00:00:00 | 00:00:00 | |
| DF8AY | 2026-08-30 11:44:40 | 49.49763 | 12.79257 | 50° | 15km/h | 17735m | 4.1m/s | -54.8°C | 0.7% | 83.8hPa | 2.8V | 04:23:17 | 01:25:27 | 00:00:00 | |
| DF8AY | 2026-08-30 11:44:29 | 49.49736 | 12.79221 | 18° | 16km/h | 17684m | 5.1m/s | -54.4°C | 0.7% | 84.5hPa | 2.8V | 04:23:17 | 01:25:16 | 00:00:00 | |
| DF8AY | 2026-08-30 11:44:19 | 49.49707 | 12.79191 | 16° | 11km/h | 17638m | 3.6m/s | -54.2°C | 0.7% | 85.2hPa | 2.6V | 04:23:17 | 01:25:06 | 00:00:00 | |
| DF8AY | 2026-08-30 11:44:08 | 49.49674 | 12.79168 | 34° | 9km/h | 17586m | 5.1m/s | -54.3°C | 0.7% | 85.8hPa | 2.8V | 04:24:08 | 01:24:55 | 00:00:00 | |
| DF8AY | 2026-08-30 11:43:57 | 49.49657 | 12.79149 | 64° | 11km/h | 17537m | 4m/s | -54°C | 0.8% | 86.5hPa | 2.8V | 04:24:08 | 01:24:44 | 00:00:00 | |
| SONDE2-11 | 2026-08-30 11:43:48 | 49.49637 | 12.79146 | 326° | 9km/h | 17489m | 3.8m/s | -53.6°C | 1.3% | 87.2hPa | 2.6V | 00:00:00 | 00:00:00 | 00:00:00 | |
| DF8AY | 2026-08-30 11:43:47 | 49.49640 | 12.79132 | 136° | 15km/h | 17462m | 3.2m/s | -53.3°C | 0.7% | 87.6hPa | 2.6V | 04:24:08 | 01:24:28 | 00:00:00 | |
| DF8AY | 2026-08-30 11:43:36 | 49.49633 | 12.79121 | 359° | 20km/h | 17439m | 4.5m/s | -53.2°C | 0.6% | 87.9hPa | 2.8V | 04:24:08 | 01:24:23 | 00:00:00 | |
| DF8AY | 2026-08-30 11:43:26 | 49.49611 | 12.79104 | 149° | 7km/h | 17392m | 4.4m/s | -52.8°C | 0.6% | 88.5hPa | 2.6V | 04:24:08 | 01:24:13 | 00:00:00 | |
| DF8AY | 2026-08-30 11:43:15 | 49.49595 | 12.79079 | 111° | 15km/h | 17344m | 4.3m/s | -52.5°C | 0.5% | 89.2hPa | 2.8V | 04:24:59 | 01:24:02 | 00:00:00 | |
| DF8AY | 2026-08-30 11:43:04 | 49.49590 | 12.79035 | 331° | 15km/h | 17283m | 5.5m/s | -52.4°C | 0.5% | 90hPa | 2.8V | 04:24:59 | 01:23:51 | 00:00:00 | |
| DF8AY | 2026-08-30 11:42:58 | 49.49602 | 12.78986 | 62° | 7km/h | 17221m | 6.8m/s | -51.9°C | 0.5% | 90.8hPa | 2.8V | 04:24:59 | 01:23:40 | 00:00:00 | |
| DL6DJ-15 | 2026-08-30 11:42:48 | 49.49583 | 12.78965 | 49° | 29km/h | 17189m | 6.1m/s | -52.6°C | 1.2% | 91.3hPa | 2.8V | 00:00:00 | 00:00:00 | 00:00:00 | |
| SONDE2-11 | 2026-08-30 11:42:45 | 49.49573 | 12.78935 | 73° | 27km/h | 17168m | 5.0m/s | -52.4°C | 1.2% | 91.6hPa | 2.8V | 00:00:00 | 00:00:00 | 00:00:00 | |
| DF8AY | 2026-08-30 11:42:42 | 49.49566 | 12.78901 | 70° | 35km/h | 17149m | 7m/s | -52.3°C | 0.6% | 91.8hPa | 2.8V | 04:24:59 | 01:23:29 | 00:00:00 | |
| DF8AY | 2026-08-30 11:42:31 | 49.49538 | 12.78765 | 87° | 33km/h | 17100m | 3.2m/s | -51.9°C | 0.6% | 92.5hPa | 2.8V | 04:24:59 | 01:23:18 | 00:00:00 | |
| DF8AY | 2026-08-30 11:42:21 | 49.49523 | 12.78652 | 81° | 31km/h | 17056m | 4.6m/s | -51.4°C | 0.4% | 93.2hPa | 2.6V | 04:27:32 | 01:23:08 | 00:00:00 | |
| DF8AY | 2026-08-30 11:42:11 | 49.49512 | 12.78532 | 78° | 27km/h | 17013m | 4.5m/s | -51.5°C | 0.4% | 0hPa | 2.8V | 04:27:32 | 01:22:58 | 00:00:00 | |
| DF8AY | 2026-08-30 11:42:00 | 49.49505 | 12.78407 | 85° | 31km/h | 16962m | 4.7m/s | -51.8°C | 0.5% | 0hPa | 2.6V | 04:27:32 | 01:22:47 | 00:00:00 | |
| EDDB2-11 | 2026-08-30 11:41:59 | 49.49503 | 12.78382 | 82° | 33km/h | 16954m | 4.4m/s | -51.7°C | 1.2% | 94.6hPa | 2.6V | 00:00:00 | 00:00:00 | 00:00:00 | |
| DL6DJ-15 | 2026-08-30 11:41:46 | 49.49498 | 12.78191 | 85° | 46km/h | 16900m | 3.9m/s | -52.0°C | 1.2% | 95.4hPa | 2.6V | 00:00:00 | 00:00:00 | 00:00:00 | |
| OE5DXL-15 | 2026-08-30 11:41:43 | 49.49496 | 12.78134 | 90° | 51km/h | 16887m | 3.9m/s | -52.2°C | 4.0% | 95.6hPa | 2.6V | 00:00:00 | 00:00:00 | 00:00:00 | |
| OE5MMP-10 | 2026-08-30 11:41:41 | 49.49495 | 12.78095 | 86° | 49km/h | 16879m | 5.0m/s | -52.3°C | 4.1% | 95.7hPa | 2.6V | 00:00:00 | 01:22:28 | 00:00:00 | |
| DO3MHA-11 | 2026-08-30 11:41:39 | 49.49493 | 12.78056 | 86° | 49km/h | 16871m | 3.9m/s | -52.4°C | 4.2% | 95.8hPa | 2.6V | 00:00:00 | 01:22:26 | 00:00:00 | |
| OE5WHR-10 | 2026-08-30 11:41:38 | 49.49492 | 12.78038 | 87° | 51km/h | 16867m | 4.6m/s | -52.4°C | 4.2% | 95.9hPa | 2.6V | 00:00:00 | 00:00:00 | 00:00:00 | |
| SONCRA | 2026-08-30 11:41:36 | 49.49490 | 12.78001 | 84° | 47km/h | 16859m | 3.9m/s | -52.5°C | 1.3% | 96.0hPa | 2.6V | 00:00:00 | 00:00:00 | 00:00:00 | |
| EDDB2-12 | 2026-08-30 11:41:34 | 49.49487 | 12.77963 | 80° | 49km/h | 16850m | 4.0m/s | -52.5°C | 1.3% | 96.2hPa | 2.6V | 00:00:00 | 00:00:00 | 00:00:00 | |
| DL1JEZ-13 | 2026-08-30 11:41:32 | 49.49484 | 12.77944 | 82° | 51km/h | 16846m | 4.4m/s | -52.6°C | 1.3% | 96.2hPa | 2.6V | 00:00:00 | 00:00:00 | 00:00:00 | |
| DF8AY | 2026-08-30 11:41:15 | 49.49430 | 12.77590 | 79° | 55km/h | 16773m | 4m/s | -52.1°C | 0.7% | 0hPa | 2.6V | 04:27:32 | 01:22:02 | 00:00:00 | |
| DF8AY | 2026-08-30 11:41:04 | 49.49384 | 12.77386 | 73° | 53km/h | 16730m | 4.7m/s | -52.1°C | 0.6% | 0hPa | 2.6V | 04:27:32 | 01:21:51 | 00:00:00 | |
| DF8AY | 2026-08-30 11:40:54 | 49.49339 | 12.77200 | 67° | 49km/h | 16691m | 3.2m/s | -52.2°C | 0.7% | 0hPa | 2.6V | 04:27:32 | 01:21:41 | 00:00:00 | |
| DF8AY | 2026-08-30 11:40:37 | 49.49265 | 12.76916 | 67° | 47km/h | 16622m | 4.2m/s | -53.1°C | 0.8% | 0hPa | 2.6V | 04:27:32 | 01:21:24 | 00:00:00 | |
| DF8AY | 2026-08-30 11:40:20 | 49.49179 | 12.76662 | 67° | 51km/h | 16555m | 4.8m/s | -54.7°C | 1.2% | 0hPa | 2.8V | 04:27:32 | 01:21:07 | 00:00:00 | |
| DF8AY | 2026-08-30 11:40:11 | 49.49125 | 12.76467 | 74° | 49km/h | 16510m | 3.9m/s | -55°C | 1.2% | 0hPa | 2.8V | 04:27:32 | 01:20:56 | 00:00:00 | |
| DF8AY | 2026-08-30 11:39:59 | 49.49085 | 12.76267 | 71° | 55km/h | 16466m | 4.5m/s | 0°C | 0% | 0hPa | 2.8V | 04:27:32 | 01:20:46 | 00:00:00 | |
| DF8AY | 2026-08-30 11:39:53 | 49.49024 | 12.76008 | 69° | 68km/h | 16417m | 4.4m/s | 0°C | 0% | 0hPa | 2.6V | 04:28:23 | 01:20:34 | 00:00:00 | |
| DF8AY | 2026-08-30 11:39:37 | 49.48959 | 12.75768 | 65° | 62km/h | 16374m | 3.8m/s | 0°C | 0% | 0hPa | 2.6V | 04:28:23 | 01:20:24 | 00:00:00 | |
| DF8AY | 2026-08-30 11:39:25 | 49.48879 | 12.75528 | 64° | 53km/h | 16320m | 4.9m/s | 0°C | 0% | 0hPa | 2.6V | 04:28:23 | 01:20:12 | 00:00:00 | |
| DF8AY | 2026-08-30 11:39:12 | 49.48801 | 12.75295 | 57° | 49km/h | 16263m | 4.2m/s | 0°C | 0% | 0hPa | 2.8V | 04:28:23 | 01:19:59 | 00:00:00 | |
| DF8AY | 2026-08-30 11:39:01 | 49.48736 | 12.75119 | 61° | 40km/h | 16213m | 4.9m/s | 0°C | 0% | 0hPa | 2.8V | 18:12:15 | 01:19:48 | 00:00:00 | |
| SONCRA | 2026-08-30 11:39:01 | 49.48736 | 12.75119 | 60° | 40km/h | 16213m | 4.9m/s | -57.0°C | 1.9% | 106.3hPa | 2.8V | 00:00:00 | 00:00:00 | 00:00:00 | |
| EDDB2-12 | 2026-08-30 11:38:59 | 49.48728 | 12.75092 | 66° | 38km/h | 16204m | 4.2m/s | -57.1°C | 1.9% | 106.4hPa | 2.8V | 00:00:00 | 00:00:00 | 00:00:00 | |
| EDDB2-11 | 2026-08-30 11:38:52 | 49.48695 | 12.74986 | 62° | 44km/h | 16173m | 4.9m/s | -57.0°C | 2.0% | 107.0hPa | 2.8V | 00:00:00 | 00:00:00 | 00:00:00 | |
| DF8AY | 2026-08-30 11:38:44 | 49.48658 | 12.74860 | 68° | 44km/h | 16138m | 4.1m/s | 0°C | 0% | 0hPa | 2.8V | 18:12:15 | 01:19:31 | 00:00:00 | |
| DF8AY | 2026-08-30 11:38:34 | 49.48603 | 12.74708 | 62° | 38km/h | 16085m | 5.7m/s | 0°C | 0% | 0hPa | 2.8V | 18:12:15 | 01:19:20 | 00:00:00 | |
| OE5MMP-10 | 2026-08-30 11:38:31 | 49.48594 | 12.74682 | 61° | 37km/h | 16077m | 3.5m/s | -56.5°C | 5.3% | 108.6hPa | 2.6V | 04:28:00 | 01:19:18 | 00:00:00 | |
| DO3MHA-11 | 2026-08-30 11:38:30 | 49.48590 | 12.74670 | 59° | 37km/h | 16072m | 5.3m/s | -56.5°C | 5.3% | 108.6hPa | 2.6V | 00:00:00 | 01:19:17 | 00:00:00 | |
| EDDB2-12 | 2026-08-30 11:38:28 | 49.48580 | 12.74647 | 57° | 35km/h | 16062m | 4.6m/s | -56.5°C | 1.9% | 108.8hPa | 2.6V | 00:00:00 | 00:00:00 | 00:00:00 | |
| OE5WHR-10 | 2026-08-30 11:38:27 | 49.48575 | 12.74635 | 61° | 37km/h | 16057m | 5.7m/s | -56.4°C | 5.5% | 108.9hPa | 2.6V | 00:00:00 | 00:00:00 | 00:00:00 | |
| S52SK | 2026-08-30 11:38:25 | 49.48571 | 12.74623 | 62° | 35km/h | 16052m | 4.0m/s | -56.4°C | 0% | 0hPa | 2.6V | 00:00:00 | 00:00:00 | 00:00:00 | |
| EDDB2-11 | 2026-08-30 11:38:22 | 49.48545 | 12.74564 | 56° | 37km/h | 16029m | 5.2m/s | -56.3°C | 1.9% | 109.4hPa | 2.6V | 00:00:00 | 00:00:00 | 00:00:00 | |
| OE5MMP-10 | 2026-08-30 11:38:21 | 49.48545 | 12.74564 | 57° | 37km/h | 16029m | 5.1m/s | -56.3°C | 5.4% | 109.4hPa | 2.6V | 00:00:00 | 01:19:08 | 00:00:00 | |
| ANDY1245 | 2026-08-30 11:38:19 | 49.48540 | 12.74552 | 59° | 37km/h | 16025m | 3.8m/s | -56.3°C | 0% | 109.5hPa | 2.7V | 00:00:00 | 00:00:00 | 00:00:00 | |
| OM5KV | 2026-08-30 11:38:18 | 49.48535 | 12.74540 | 57° | 37km/h | 16020m | 4.4m/s | -56.3°C | 1.9% | 109.6hPa | 2.7V | 00:00:00 | 00:00:00 | 00:00:00 | |
| PG1ADW-2 | 2026-08-30 11:38:16 | 49.48519 | 12.74505 | 57° | 35km/h | 16006m | 4.5m/s | -56.2°C | 5.4% | 109.7hPa | 2.7V | 00:00:00 | 00:00:00 | 00:00:00 | |
| PETON7-10 | 2026-08-30 11:38:15 | 49.48514 | 12.74493 | 61° | 35km/h | 16001m | 5.4m/s | 0°C | 0% | 0hPa | 2.7V | 00:00:00 | 00:00:00 | 00:00:00 | |
| DO3MHA-11 | 2026-08-30 11:38:14 | 49.48510 | 12.74481 | 62° | 37km/h | 15996m | 4.3m/s | -56.2°C | 5.4% | 109.9hPa | 2.7V | 00:00:00 | 01:19:01 | 00:00:00 | |
| OE5DXL-15 | 2026-08-30 11:38:13 | 49.48505 | 12.74469 | 62° | 31km/h | 15991m | 5.4m/s | -56.2°C | 5.4% | 110.0hPa | 2.7V | 00:00:00 | 00:00:00 | 00:00:00 | |
| OE5DRO-10 | 2026-08-30 11:38:12 | 49.48501 | 12.74456 | 60° | 33km/h | 15986m | 4.8m/s | -56.3°C | 5.5% | 110.1hPa | 2.6V | 00:00:00 | 00:00:00 | 00:00:00 | |
| OE5MMP-10 | 2026-08-30 11:38:11 | 49.48496 | 12.74444 | 61° | 35km/h | 15982m | 3.8m/s | -56.1°C | 5.4% | 110.2hPa | 2.6V | 00:00:00 | 01:18:58 | 00:00:00 | |
| DL6DJ-15 | 2026-08-30 11:38:09 | 49.48488 | 12.74419 | 63° | 35km/h | 15971m | 4.1m/s | -56.2°C | 1.9% | 110.4hPa | 2.6V | 00:00:00 | 00:00:00 | 00:00:00 | |
| SP3BTT-10 | 2026-08-30 11:38:08 | 49.48484 | 12.74406 | 61° | 29km/h | 15968m | 3.6m/s | -56.1°C | 5.4% | 110.4hPa | 2.6V | 04:29:00 | 00:00:00 | 00:00:00 | |
| OE5WHR-10 | 2026-08-30 11:38:06 | 49.48473 | 12.74383 | 53° | 29km/h | 15958m | 4.7m/s | -56.1°C | 5.4% | 110.6hPa | 2.6V | 00:00:00 | 01:18:53 | 00:00:00 | |
| OM5KV | 2026-08-30 11:38:05 | 49.48473 | 12.74383 | 53° | 37km/h | 15958m | 4.7m/s | -56.2°C | 1.9% | 110.7hPa | 2.6V | 04:30:00 | 00:00:00 | 00:00:00 | |
| DL1JEZ-13 | 2026-08-30 11:38:04 | 49.48467 | 12.74371 | 51° | 37km/h | 15953m | 4.2m/s | -56.1°C | 1.9% | 110.7hPa | 2.6V | 00:00:00 | 00:00:00 | 00:00:00 | |
| SONCRA | 2026-08-30 11:37:59 | 49.48437 | 12.74315 | 49° | 27km/h | 15925m | 4.8m/s | -55.9°C | 1.8% | 111.2hPa | 2.6V | 00:00:00 | 00:00:00 | 00:00:00 | |
| EDDB2-12 | 2026-08-30 11:37:57 | 49.48429 | 12.74298 | 58° | 27km/h | 15915m | 4.2m/s | -55.9°C | 1.8% | 111.4hPa | 2.6V | 00:00:00 | 00:00:00 | 00:00:00 | |
| EDDB2-11 | 2026-08-30 11:37:50 | 49.48403 | 12.74234 | 60° | 24km/h | 15883m | 4.1m/s | -55.7°C | 0% | 112.0hPa | 2.6V | 00:00:00 | 00:00:00 | 00:00:00 | |
| OM5KV | 2026-08-30 11:37:47 | 49.48396 | 12.74218 | 51° | 26km/h | 15872m | 4.7m/s | -55.6°C | 1.8% | 112.1hPa | 2.6V | 04:30:00 | 00:00:00 | 00:00:00 | |
| OE5WHR-10 | 2026-08-30 11:37:45 | 49.48384 | 12.74195 | 57° | 24km/h | 15859m | 5.2m/s | -55.5°C | 5.3% | 112.3hPa | 2.6V | 04:29:00 | 00:00:00 | 00:00:00 | |
| OE5DXL-15 | 2026-08-30 11:37:43 | 49.48377 | 12.74179 | 61° | 22km/h | 15851m | 4.3m/s | -55.5°C | 5.2% | 112.4hPa | 2.7V | 00:00:00 | 00:00:00 | 00:00:00 | |
| OE5MMP-10 | 2026-08-30 11:37:41 | 49.48371 | 12.74164 | 55° | 24km/h | 15841m | 4.8m/s | -55.5°C | 5.2% | 112.6hPa | 2.7V | 04:29:00 | 01:18:28 | 00:00:00 | |
| OM5KV | 2026-08-30 11:37:40 | 49.48371 | 12.74164 | 56° | 24km/h | 15841m | 4.9m/s | -55.5°C | 1.8% | 112.7hPa | 2.7V | 04:30:00 | 00:00:00 | 00:00:00 | |
| DO3MHA-11 | 2026-08-30 11:37:39 | 49.48365 | 12.74149 | 63° | 24km/h | 15831m | 5.2m/s | -55.4°C | 5.2% | 112.8hPa | 2.7V | 00:00:00 | 01:18:26 | 00:00:00 | |
| DL6DJ-15 | 2026-08-30 11:37:38 | 49.48362 | 12.74141 | 63° | 22km/h | 15826m | 3.4m/s | -55.5°C | 1.9% | 113.0hPa | 2.6V | 00:00:00 | 00:00:00 | 00:00:00 | |
| PG1ADW-2 | 2026-08-30 11:37:36 | 49.48356 | 12.74125 | 57° | 22km/h | 15818m | 5.4m/s | -55.4°C | 5.1% | 113.0hPa | 2.6V | 00:00:00 | 01:18:23 | 00:00:00 | |
| SONDE2-11 | 2026-08-30 11:37:35 | 49.48349 | 12.74108 | 62° | 26km/h | 15808m | 5.7m/s | -55.4°C | 1.8% | 113.3hPa | 2.7V | 00:00:00 | 00:00:00 | 00:00:00 | |
| OE5DRO-10 | 2026-08-30 11:37:34 | 49.48349 | 12.74108 | 63° | 22km/h | 15809m | 5.6m/s | -55.3°C | 5.1% | 113.2hPa | 2.7V | 00:00:00 | 00:00:00 | 00:00:00 | |
| OE5MMP-10 | 2026-08-30 11:37:31 | 49.48342 | 12.74081 | 69° | 22km/h | 15794m | 5.5m/s | -55.2°C | 5.1% | 113.5hPa | 2.7V | 00:00:00 | 01:18:18 | 00:00:00 | |
| DO3MHA-11 | 2026-08-30 11:37:28 | 49.48336 | 12.74054 | 79° | 20km/h | 15778m | 4.3m/s | -55.1°C | 5.1% | 113.8hPa | 2.7V | 00:00:00 | 01:18:15 | 00:00:00 | |
| OM5KV | 2026-08-30 11:37:27 | 49.48336 | 12.74054 | 80° | 22km/h | 15778m | 4.4m/s | 0°C | 0% | 113.8hPa | 2.7V | 04:30:00 | 00:00:00 | 00:00:00 | |
| EDDB2-12 | 2026-08-30 11:37:26 | 49.48335 | 12.74039 | 74° | 18km/h | 15770m | 5.0m/s | -55.1°C | 1.8% | 113.9hPa | 2.7V | 00:00:00 | 00:00:00 | 00:00:00 | |
| OE5WHR-10 | 2026-08-30 11:37:24 | 49.48331 | 12.74025 | 67° | 20km/h | 15760m | 4.1m/s | -55.1°C | 5.0% | 114.1hPa | 2.7V | 00:00:00 | 00:00:00 | 00:00:00 | |
| OM5KV | 2026-08-30 11:37:22 | 49.48329 | 12.74018 | 70° | 20km/h | 15756m | 5.1m/s | 0°C | 0% | 114.2hPa | 2.7V | 04:30:00 | 00:00:00 | 00:00:00 | |
| OE5MMP-10 | 2026-08-30 11:37:21 | 49.48325 | 12.74003 | 67° | 22km/h | 15746m | 4.4m/s | -55.1°C | 5.0% | 114.4hPa | 2.7V | 00:00:00 | 01:18:08 | 00:00:00 | |
| S52SK | 2026-08-30 11:37:19 | 49.48323 | 12.73996 | 64° | 22km/h | 15741m | 5.7m/s | -55.1°C | 0% | 0hPa | 2.6V | 00:00:00 | 00:00:00 | 00:00:00 | |
| DO3MHA-11 | 2026-08-30 11:37:18 | 49.48318 | 12.73981 | 68° | 22km/h | 15733m | 3.1m/s | -55.1°C | 5.0% | 114.6hPa | 2.6V | 00:00:00 | 01:18:05 | 00:00:00 | |
| PG1ADW-2 | 2026-08-30 11:37:16 | 49.48315 | 12.73964 | 84° | 20km/h | 15724m | 4.5m/s | -55.1°C | 5.0% | 114.7hPa | 2.6V | 00:00:00 | 00:00:00 | 00:00:00 | |
| OE5DRO-10 | 2026-08-30 11:37:15 | 49.48315 | 12.73956 | 88° | 20km/h | 15720m | 3.9m/s | -55.1°C | 5.1% | 114.8hPa | 2.6V | 00:00:00 | 00:00:00 | 00:00:00 | |
| OE5DXL-15 | 2026-08-30 11:37:13 | 49.48314 | 12.73940 | 79° | 20km/h | 15711m | 5.0m/s | -55.0°C | 5.1% | 115.0hPa | 2.6V | 00:00:00 | 00:00:00 | 00:00:00 | |
| OE5MMP-10 | 2026-08-30 11:37:11 | 49.48310 | 12.73924 | 70° | 18km/h | 15703m | 4.6m/s | -54.9°C | 5.1% | 115.2hPa | 2.6V | 00:00:00 | 01:17:58 | 00:00:00 | |
| DO3MHA-11 | 2026-08-30 11:37:08 | 49.48303 | 12.73903 | 48° | 20km/h | 15689m | 5.7m/s | -54.9°C | 5.1% | 115.4hPa | 2.6V | 00:00:00 | 01:17:55 | 00:00:00 | |
| DL6DJ-15 | 2026-08-30 11:37:07 | 49.48296 | 12.73893 | 38° | 18km/h | 15680m | 3.8m/s | -54.9°C | 1.8% | 115.6hPa | 2.7V | 00:00:00 | 00:00:00 | 00:00:00 | |
| SONDE2-11 | 2026-08-30 11:37:04 | 49.48287 | 12.73878 | 60° | 16km/h | 15667m | 3.9m/s | -54.8°C | 1.8% | 115.9hPa | 2.7V | 00:00:00 | 00:00:00 | 00:00:00 | |
| OE5WHR-10 | 2026-08-30 11:37:03 | 49.48287 | 12.73878 | 61° | 20km/h | 15668m | 3.8m/s | -54.8°C | 5.1% | 115.8hPa | 2.7V | 00:00:00 | 01:17:50 | 00:00:00 | |
| SONCRA | 2026-08-30 11:36:57 | 49.48275 | 12.73840 | 68° | 16km/h | 15642m | 3.6m/s | -54.7°C | 1.8% | 116.3hPa | 2.7V | 00:00:00 | 00:00:00 | 00:00:00 | |
| EDDB2-12 | 2026-08-30 11:36:55 | 49.48271 | 12.73829 | 52° | 15km/h | 15632m | 4.8m/s | -54.6°C | 1.8% | 116.5hPa | 2.7V | 00:00:00 | 00:00:00 | 00:00:00 | |
| OE5MMP-10 | 2026-08-30 11:36:51 | 49.48261 | 12.73807 | 64° | 26km/h | 15615m | 3.7m/s | -54.5°C | 5.0% | 116.7hPa | 2.7V | 04:30:00 | 01:17:38 | 00:00:00 | |
| OM5KV | 2026-08-30 11:36:48 | 49.48257 | 12.73793 | 63° | 22km/h | 15606m | 4.8m/s | 0°C | 0% | 0hPa | 2.7V | 04:30:00 | 00:00:00 | 00:00:00 | |
| OE5DXL-15 | 2026-08-30 11:36:43 | 49.48243 | 12.73734 | 66° | 27km/h | 15580m | 4.6m/s | -54.1°C | 4.9% | 117.4hPa | 2.7V | 00:00:00 | 00:00:00 | 00:00:00 | |
| OE5WHR-10 | 2026-08-30 11:36:42 | 49.48240 | 12.73725 | 61° | 27km/h | 15576m | 3.4m/s | -54.2°C | 4.9% | 117.4hPa | 2.6V | 00:00:00 | 00:00:00 | 00:00:00 | |
| OE5MMP-10 | 2026-08-30 11:36:41 | 49.48237 | 12.73716 | 60° | 24km/h | 15573m | 3.1m/s | -54.1°C | 5.0% | 117.5hPa | 2.7V | 00:00:00 | 01:17:28 | 00:00:00 | |
| DO3MHA-11 | 2026-08-30 11:36:40 | 49.48234 | 12.73708 | 65° | 27km/h | 15569m | 4.2m/s | -54.0°C | 4.9% | 117.6hPa | 2.7V | 04:30:00 | 01:17:27 | 00:00:00 | |
| SP3BTT-10 | 2026-08-30 11:36:39 | 49.48232 | 12.73699 | 72° | 40km/h | 15565m | 4.8m/s | -54.0°C | 5.0% | 117.7hPa | 2.7V | 00:00:00 | 00:00:00 | 00:00:00 | |
| OE5DRO-10 | 2026-08-30 11:36:38 | 49.48229 | 12.73681 | 81° | 29km/h | 15555m | 4.3m/s | -53.9°C | 5.0% | 117.8hPa | 2.6V | 00:00:00 | 00:00:00 | 00:00:00 | |
| PG1ADW-2 | 2026-08-30 11:36:36 | 49.48228 | 12.73671 | 80° | 29km/h | 15551m | 4.7m/s | -53.9°C | 5.0% | 117.9hPa | 2.6V | 00:00:00 | 00:00:00 | 00:00:00 | |
| SONDE2-11 | 2026-08-30 11:36:33 | 49.48221 | 12.73635 | 74° | 26km/h | 15533m | 3.5m/s | -53.8°C | 1.8% | 118.3hPa | 2.6V | 00:00:00 | 00:00:00 | 00:00:00 | |
| OE5MMP-10 | 2026-08-30 11:36:31 | 49.48219 | 12.73624 | 78° | 31km/h | 15529m | 5.1m/s | -53.7°C | 4.9% | 118.3hPa | 2.6V | 00:00:00 | 01:17:18 | 00:00:00 | |
| OM5KV | 2026-08-30 11:36:30 | 49.48219 | 12.73624 | 79° | 31km/h | 15529m | 5.2m/s | 0°C | 0% | 0hPa | 2.6V | 00:00:00 | 00:00:00 | 00:00:00 | |
| SONCRA | 2026-08-30 11:36:26 | 49.48208 | 12.73559 | 63° | 31km/h | 15505m | 3.5m/s | -53.7°C | 1.8% | 118.8hPa | 2.6V | 00:00:00 | 00:00:00 | 00:00:00 | |
| EDDB2-12 | 2026-08-30 11:36:24 | 49.48201 | 12.73540 | 54° | 26km/h | 15498m | 4.2m/s | -53.6°C | 1.7% | 118.9hPa | 2.6V | 00:00:00 | 00:00:00 | 00:00:00 | |
| OE5MMP-10 | 2026-08-30 11:36:21 | 49.48190 | 12.73515 | 62° | 31km/h | 15484m | 3.7m/s | -53.5°C | 4.8% | 119.1hPa | 2.6V | 00:00:00 | 01:17:08 | 00:00:00 | |
| EDDB2-11 | 2026-08-30 11:36:18 | 49.48178 | 12.73477 | 64° | 27km/h | 15467m | 4.3m/s | -53.4°C | 1.8% | 119.5hPa | 2.7V | 00:00:00 | 00:00:00 | 00:00:00 | |
| DO3MHA-11 | 2026-08-30 11:36:17 | 49.48178 | 12.73477 | 65° | 35km/h | 15467m | 4.3m/s | -53.4°C | 4.9% | 119.5hPa | 2.7V | 00:00:00 | 01:17:04 | 00:00:00 | |
| PG1ADW-2 | 2026-08-30 11:36:16 | 49.48175 | 12.73467 | 66° | 37km/h | 15463m | 5.0m/s | -53.3°C | 4.8% | 119.6hPa | 2.7V | 04:31:00 | 01:17:03 | 00:00:00 | |
| OE5DXL-15 | 2026-08-30 11:36:13 | 49.48168 | 12.73433 | 78° | 38km/h | 15451m | 5.6m/s | -53.3°C | 4.8% | 119.8hPa | 2.7V | 04:31:00 | 00:00:00 | 00:00:00 | |
| OE5MMP-10 | 2026-08-30 11:36:11 | 49.48164 | 12.73401 | 79° | 35km/h | 15441m | 3.2m/s | -53.2°C | 4.9% | 119.9hPa | 2.7V | 00:00:00 | 01:16:58 | 00:00:00 | |
| S52SK | 2026-08-30 11:36:08 | 49.48154 | 12.73354 | 63° | 38km/h | 15430m | 3.4m/s | -53.4°C | 0% | 0hPa | 2.7V | 00:00:00 | 00:00:00 | 00:00:00 | |
| DL6DJ-15 | 2026-08-30 11:36:06 | 49.48139 | 12.73313 | 64° | 27km/h | 15413m | 2.9m/s | -53.6°C | 1.8% | 120.5hPa | 2.7V | 00:00:00 | 00:00:00 | 00:00:00 | |
| SONCRA | 2026-08-30 11:35:55 | 49.48104 | 12.73191 | 73° | 46km/h | 15376m | 5.9m/s | -53.5°C | 1.9% | 121.2hPa | 2.7V | 00:00:00 | 00:00:00 | 00:00:00 | |
| EDDB2-12 | 2026-08-30 11:35:53 | 49.48098 | 12.73157 | 76° | 44km/h | 15367m | 2.5m/s | -53.5°C | 1.9% | 121.4hPa | 2.7V | 00:00:00 | 00:00:00 | 00:00:00 | |
| EDDB2-11 | 2026-08-30 11:35:47 | 49.48084 | 12.73057 | 80° | 40km/h | 15343m | 2.4m/s | -53.2°C | 1.9% | 121.8hPa | 2.7V | 00:00:00 | 00:00:00 | 00:00:00 | |
| OE5DXL-15 | 2026-08-30 11:35:43 | 49.48077 | 12.73007 | 79° | 44km/h | 15332m | 2.7m/s | -53.2°C | 4.9% | 122.0hPa | 2.7V | 00:00:00 | 00:00:00 | 00:00:00 | |
| OE5MMP-10 | 2026-08-30 11:35:41 | 49.48073 | 12.72969 | 82° | 42km/h | 15325m | 3.9m/s | -53.3°C | 5.0% | 122.1hPa | 2.7V | 00:00:00 | 01:16:28 | 00:00:00 | |
| OE5DRO-10 | 2026-08-30 11:35:40 | 49.48071 | 12.72950 | 81° | 44km/h | 15321m | 3.5m/s | -53.4°C | 5.0% | 122.2hPa | 2.7V | 00:00:00 | 00:00:00 | 00:00:00 | |
| OE5WHR-10 | 2026-08-30 11:35:39 | 49.48068 | 12.72932 | 79° | 44km/h | 15317m | 4.6m/s | -53.4°C | 5.1% | 122.3hPa | 2.7V | 00:00:00 | 00:00:00 | 00:00:00 | |
| DO3MHA-11 | 2026-08-30 11:35:36 | 49.48060 | 12.72883 | 76° | 38km/h | 15307m | 3.9m/s | -53.4°C | 5.0% | 122.5hPa | 2.7V | 00:00:00 | 01:16:23 | 00:00:00 | |
| ANDY1245 | 2026-08-30 11:35:35 | 49.48058 | 12.72869 | 79° | 38km/h | 15303m | 4.9m/s | -53.4°C | 0% | 122.6hPa | 2.7V | 04:32:00 | 00:00:00 | 00:00:00 | |
| DL6DJ-15 | 2026-08-30 11:35:34 | 49.48055 | 12.72841 | 80° | 35km/h | 15295m | 3.2m/s | -53.3°C | 2.0% | 122.8hPa | 2.7V | 00:00:00 | 00:00:00 | 00:00:00 | |
| DO8TBO-1 | 2026-08-30 11:35:33 | 49.48055 | 12.72841 | 81° | 44km/h | 15295m | 3.1m/s | -53.3°C | 5.0% | 122.7hPa | 2.7V | 00:00:00 | 01:16:20 | 00:00:00 | |
| SONDE2-11 | 2026-08-30 11:35:31 | 49.48049 | 12.72796 | 81° | 42km/h | 15283m | 4.1m/s | -53.3°C | 2.0% | 123.0hPa | 2.7V | 00:00:00 | 00:00:00 | 00:00:00 | |
| ANDY1245 | 2026-08-30 11:35:29 | 49.48049 | 12.72796 | 82° | 42km/h | 15283m | 4.1m/s | -53.3°C | 0% | 123.0hPa | 2.7V | 04:32:00 | 00:00:00 | 00:00:00 | |
| DO3MHA-11 | 2026-08-30 11:35:26 | 49.48044 | 12.72724 | 83° | 44km/h | 15267m | 3.1m/s | -53.4°C | 5.2% | 123.2hPa | 2.7V | 04:32:00 | 01:16:13 | 00:00:00 | |
| SONCRA | 2026-08-30 11:35:24 | 49.48041 | 12.72685 | 85° | 47km/h | 15261m | 4.3m/s | -53.5°C | 2.1% | 123.4hPa | 2.7V | 00:00:00 | 00:00:00 | 00:00:00 | |
| EDDB2-12 | 2026-08-30 11:35:22 | 49.48040 | 12.72650 | 88° | 42km/h | 15254m | 3.2m/s | -53.6°C | 2.1% | 123.5hPa | 2.7V | 00:00:00 | 00:00:00 | 00:00:00 | |
| OE5MMP-10 | 2026-08-30 11:35:21 | 49.48040 | 12.72633 | 88° | 42km/h | 15250m | 3.7m/s | -53.7°C | 5.1% | 123.6hPa | 2.7V | 00:00:00 | 01:16:08 | 00:00:00 | |
| OE5WHR-10 | 2026-08-30 11:35:18 | 49.48036 | 12.72586 | 86° | 49km/h | 15240m | 3.1m/s | -53.8°C | 5.2% | 123.8hPa | 2.7V | 00:00:00 | 00:00:00 | 00:00:00 | |
| EDDB2-11 | 2026-08-30 11:35:16 | 49.48037 | 12.72537 | 94° | 42km/h | 15229m | 3.2m/s | -53.7°C | 2.1% | 124.0hPa | 2.7V | 00:00:00 | 00:00:00 | 00:00:00 | |
| OE5DXL-15 | 2026-08-30 11:35:13 | 49.48038 | 12.72503 | 92° | 57km/h | 15222m | 4.2m/s | -53.7°C | 5.2% | 124.1hPa | 2.7V | 00:00:00 | 00:00:00 | 00:00:00 | |
| OE5MMP-10 | 2026-08-30 11:35:11 | 49.48038 | 12.72470 | 89° | 49km/h | 15215m | 2.6m/s | -53.7°C | 5.3% | 124.2hPa | 2.7V | 04:32:00 | 01:15:58 | 00:00:00 | |
| SP3BTT-10 | 2026-08-30 11:35:07 | 49.48038 | 12.72400 | 91° | 60km/h | 15201m | 3.7m/s | -53.8°C | 5.4% | 124.5hPa | 2.7V | 00:00:00 | 00:00:00 | 00:00:00 | |
| DO3MHA-11 | 2026-08-30 11:35:06 | 49.48038 | 12.72381 | 89° | 55km/h | 15197m | 4.0m/s | -53.8°C | 5.4% | 124.6hPa | 2.7V | 00:00:00 | 01:15:53 | 00:00:00 | |
| SONDE2-11 | 2026-08-30 11:35:00 | 49.48038 | 12.72233 | 88° | 57km/h | 15171m | 2.6m/s | -54.2°C | 2.3% | 125.1hPa | 2.7V | 00:00:00 | 00:00:00 | 00:00:00 | |
| OE5WHR-10 | 2026-08-30 11:34:57 | 49.48038 | 12.72189 | 92° | 62km/h | 15164m | 3.2m/s | -54.3°C | 5.5% | 125.3hPa | 2.7V | 00:00:00 | 01:15:44 | 00:00:00 | |
| PG1ADW-2 | 2026-08-30 11:34:56 | 49.48038 | 12.72167 | 91° | 62km/h | 15161m | 2.9m/s | -54.2°C | 5.5% | 125.3hPa | 2.7V | 00:00:00 | 01:15:43 | 00:00:00 | |
| S52SK | 2026-08-30 11:34:54 | 49.48038 | 12.72145 | 90° | 55km/h | 15157m | 4.8m/s | -54.3°C | 0% | 0hPa | 2.7V | 04:32:00 | 00:00:00 | 00:00:00 | |
| DO3MHA-11 | 2026-08-30 11:34:53 | 49.48037 | 12.72102 | 87° | 62km/h | 15149m | 3.4m/s | -54.3°C | 5.5% | 125.5hPa | 2.7V | 00:00:00 | 01:15:40 | 00:00:00 | |
| OE5MMP-10 | 2026-08-30 11:34:51 | 49.48035 | 12.72057 | 86° | 66km/h | 15142m | 2.6m/s | -54.3°C | 5.6% | 125.7hPa | 2.7V | 00:00:00 | 01:15:38 | 00:00:00 | |
| ANDY1245 | 2026-08-30 11:34:46 | 49.48027 | 12.71956 | 85° | 68km/h | 15128m | 4.0m/s | -54.4°C | 0% | 126.0hPa | 2.7V | 00:00:00 | 00:00:00 | 00:00:00 | |
| EDDB2-11 | 2026-08-30 11:34:44 | 49.48023 | 12.71877 | 84° | 66km/h | 15117m | 3.9m/s | -54.6°C | 2.5% | 126.2hPa | 2.7V | 00:00:00 | 00:00:00 | 00:00:00 | |
| OE5DXL-15 | 2026-08-30 11:34:43 | 49.48021 | 12.71852 | 85° | 66km/h | 15114m | 3.6m/s | -54.5°C | 5.8% | 126.2hPa | 2.7V | 00:00:00 | 00:00:00 | 00:00:00 | |
| OE5MMP-10 | 2026-08-30 11:34:41 | 49.48018 | 12.71801 | 86° | 60km/h | 15106m | 4.3m/s | -54.6°C | 5.8% | 126.4hPa | 2.7V | 00:00:00 | 01:15:28 | 00:00:00 | |
| ANDY1245 | 2026-08-30 11:34:40 | 49.48018 | 12.71801 | 86° | 66km/h | 15106m | 4.4m/s | -54.7°C | 0% | 126.4hPa | 2.7V | 00:00:00 | 00:00:00 | 00:00:00 | |
| DO3MHA-11 | 2026-08-30 11:34:36 | 49.48011 | 12.71685 | 84° | 60km/h | 15087m | 2.8m/s | -54.9°C | 5.7% | 126.7hPa | 2.7V | 00:00:00 | 01:15:23 | 00:00:00 | |
| ANDY1245 | 2026-08-30 11:34:35 | 49.48011 | 12.71685 | 85° | 55km/h | 15087m | 2.9m/s | -55.0°C | 0% | 126.8hPa | 2.7V | 00:00:00 | 00:00:00 | 00:00:00 | |
| DO8TBO-1 | 2026-08-30 11:34:33 | 49.48008 | 12.71619 | 87° | 64km/h | 15076m | 3.4m/s | -55.1°C | 5.8% | 126.9hPa | 2.7V | 00:00:00 | 01:15:20 | 00:00:00 | |
| DL6DJ-15 | 2026-08-30 11:34:32 | 49.48006 | 12.71572 | 84° | 62km/h | 15068m | 3.7m/s | -55.2°C | 2.5% | 127.2hPa | 2.7V | 00:00:00 | 00:00:00 | 00:00:00 | |
| OE5MMP-10 | 2026-08-30 11:34:31 | 49.48006 | 12.71572 | 85° | 69km/h | 15068m | 3.7m/s | -55.1°C | 5.9% | 127.1hPa | 2.7V | 00:00:00 | 01:15:18 | 00:00:00 | |
| SONDE2-11 | 2026-08-30 11:34:29 | 49.48001 | 12.71494 | 84° | 71km/h | 15057m | 3.7m/s | -55.2°C | 2.5% | 127.4hPa | 2.7V | 00:00:00 | 00:00:00 | 00:00:00 | |
| DO3MHA-11 | 2026-08-30 11:34:25 | 49.47994 | 12.71410 | 81° | 68km/h | 15046m | 4.3m/s | -55.2°C | 5.9% | 127.6hPa | 2.7V | 04:33:00 | 01:15:12 | 00:00:00 | |
| OE5DRO-10 | 2026-08-30 11:34:24 | 49.47991 | 12.71384 | 80° | 64km/h | 15041m | 3.5m/s | -55.2°C | 5.9% | 127.7hPa | 2.7V | 00:00:00 | 00:00:00 | 00:00:00 | |
| ANDY1245 | 2026-08-30 11:34:23 | 49.47991 | 12.71384 | 81° | 68km/h | 15041m | 3.6m/s | -55.3°C | 0% | 127.7hPa | 2.7V | 00:00:00 | 00:00:00 | 00:00:00 | |
| SONCRA | 2026-08-30 11:34:22 | 49.47982 | 12.71308 | 79° | 64km/h | 15030m | 3.4m/s | -55.2°C | 2.5% | 127.9hPa | 2.7V | 00:00:00 | 00:00:00 | 00:00:00 | |
| OE5MMP-10 | 2026-08-30 11:34:21 | 49.47982 | 12.71308 | 80° | 68km/h | 15030m | 3.3m/s | -55.2°C | 5.9% | 127.9hPa | 2.7V | 04:33:00 | 01:15:08 | 00:00:00 | |
| EDDB2-12 | 2026-08-30 11:34:20 | 49.47979 | 12.71283 | 78° | 64km/h | 15026m | 4.8m/s | -55.2°C | 2.5% | 128.0hPa | 2.7V | 00:00:00 | 00:00:00 | 00:00:00 | |
| PG1ADW-2 | 2026-08-30 11:34:16 | 49.47966 | 12.71180 | 80° | 64km/h | 15009m | 2.8m/s | -55.1°C | 5.8% | 128.3hPa | 2.7V | 00:00:00 | 00:00:00 | 00:00:00 | |
| OE5WHR-10 | 2026-08-30 11:34:15 | 49.47962 | 12.71154 | 79° | 64km/h | 15006m | 4.1m/s | -55.1°C | 5.8% | 128.4hPa | 2.7V | 04:33:00 | 00:00:00 | 00:00:00 | |
| DO3MHA-11 | 2026-08-30 11:34:14 | 49.47959 | 12.71127 | 78° | 66km/h | 15001m | 4.3m/s | -55.1°C | 5.8% | 128.5hPa | 2.7V | 00:00:00 | 01:15:01 | 00:00:00 | |
| OE5DXL-15 | 2026-08-30 11:34:13 | 49.47955 | 12.71102 | 78° | 62km/h | 14997m | 4.4m/s | -55.1°C | 5.8% | 128.5hPa | 2.7V | 00:00:00 | 00:00:00 | 00:00:00 | |
| OE5MMP-10 | 2026-08-30 11:34:11 | 49.47948 | 12.71053 | 79° | 60km/h | 14988m | 3.6m/s | -55.1°C | 5.8% | 128.7hPa | 2.7V | 00:00:00 | 01:14:58 | 00:00:00 | |
| SP3BTT-10 | 2026-08-30 11:34:07 | 49.47934 | 12.70965 | 74° | 57km/h | 14973m | 2.4m/s | 0°C | 0% | 129.1hPa | 2.7V | 00:00:00 | 00:00:00 | 00:00:00 | |
| OE5DRO-10 | 2026-08-30 11:34:05 | 49.47926 | 12.70921 | 76° | 62km/h | 14966m | 4.7m/s | -55.4°C | 5.7% | 129.2hPa | 2.7V | 00:00:00 | 00:00:00 | 00:00:00 | |
| DO8TBO-1 | 2026-08-30 11:34:03 | 49.47919 | 12.70873 | 78° | 62km/h | 14958m | 3.4m/s | -55.4°C | 5.8% | 129.3hPa | 2.7V | 00:00:00 | 01:14:50 | 00:00:00 | |
| DL6DJ-15 | 2026-08-30 11:34:00 | 49.47907 | 12.70801 | 73° | 62km/h | 14945m | 3.8m/s | -55.4°C | 2.5% | 129.7hPa | 2.7V | 00:00:00 | 00:00:00 | 00:00:00 | |
| SONDE2-11 | 2026-08-30 11:33:58 | 49.47893 | 12.70731 | 72° | 64km/h | 14933m | 4.0m/s | -55.3°C | 2.5% | 129.9hPa | 2.7V | 00:00:00 | 00:00:00 | 00:00:00 | |
| EDDB2-12 | 2026-08-30 11:33:49 | 49.47840 | 12.70527 | 72° | 60km/h | 14895m | 5.3m/s | -55.8°C | 2.5% | 130.7hPa | 2.7V | 00:00:00 | 00:00:00 | 00:00:00 | |
| DO3MHA-11 | 2026-08-30 11:33:46 | 49.47831 | 12.70482 | 75° | 60km/h | 14887m | 3.5m/s | -55.7°C | 6.0% | 130.8hPa | 2.7V | 00:00:00 | 01:14:33 | 00:00:00 | |
| EDDB2-11 | 2026-08-30 11:33:43 | 49.47812 | 12.70389 | 67° | 60km/h | 14871m | 3.9m/s | -55.7°C | 2.5% | 131.2hPa | 2.7V | 00:00:00 | 00:00:00 | 00:00:00 | |
| OE5MMP-10 | 2026-08-30 11:33:41 | 49.47805 | 12.70368 | 64° | 57km/h | 14867m | 4.7m/s | -55.6°C | 6.1% | 131.2hPa | 2.7V | 00:00:00 | 01:14:28 | 00:00:00 | |
| OE5REO-15 | 2026-08-30 11:33:39 | 49.47799 | 12.70348 | 62° | 57km/h | 14862m | 4.2m/s | -55.6°C | 2.5% | 131.3hPa | 2.7V | 00:00:00 | 00:00:00 | 00:00:00 | |
| S52SK | 2026-08-30 11:33:38 | 49.47791 | 12.70329 | 60° | 57km/h | 14859m | 3.8m/s | -55.7°C | 0% | 0hPa | 2.7V | 00:00:00 | 00:00:00 | 00:00:00 | |
| DO3MHA-11 | 2026-08-30 11:33:36 | 49.47770 | 12.70270 | 65° | 57km/h | 14846m | 3.5m/s | -55.5°C | 6.0% | 131.7hPa | 2.7V | 00:00:00 | 01:14:23 | 00:00:00 | |
| DO8TBO-1 | 2026-08-30 11:33:33 | 49.47753 | 12.70208 | 72° | 53km/h | 14833m | 4.2m/s | -55.5°C | 6.1% | 131.9hPa | 2.7V | 00:00:00 | 01:14:20 | 00:00:00 | |
| OE5MMP-10 | 2026-08-30 11:33:31 | 49.47745 | 12.70168 | 72° | 57km/h | 14826m | 4.1m/s | -55.5°C | 6.1% | 132.0hPa | 2.7V | 04:33:00 | 01:14:18 | 00:00:00 | |
| DL6DJ-15 | 2026-08-30 11:33:30 | 49.47734 | 12.70126 | 66° | 57km/h | 14817m | 3.9m/s | -55.6°C | 2.6% | 132.3hPa | 2.7V | 00:00:00 | 00:00:00 | 00:00:00 | |
| OE5DRO-10 | 2026-08-30 11:33:27 | 49.47722 | 12.70086 | 62° | 53km/h | 14808m | 5.3m/s | -55.6°C | 6.2% | 132.4hPa | 2.7V | 00:00:00 | 00:00:00 | 00:00:00 | |
| SONDE2-11 | 2026-08-30 11:33:26 | 49.47715 | 12.70068 | 60° | 53km/h | 14804m | 4.0m/s | -55.6°C | 2.6% | 132.6hPa | 2.7V | 00:00:00 | 00:00:00 | 00:00:00 | |
| DO3MHA-11 | 2026-08-30 11:33:24 | 49.47701 | 12.70031 | 60° | 57km/h | 14795m | 4.7m/s | -55.7°C | 6.1% | 132.7hPa | 2.7V | 04:34:00 | 01:14:11 | 00:00:00 | |
| SP3BTT-10 | 2026-08-30 11:33:22 | 49.47688 | 12.69992 | 67° | 49km/h | 14787m | 3.6m/s | 0°C | 0% | 0hPa | 2.7V | 00:00:00 | 00:00:00 | 00:00:00 | |
| SONCRA | 2026-08-30 11:33:20 | 49.47674 | 12.69932 | 72° | 51km/h | 14774m | 3.7m/s | -55.7°C | 2.6% | 133.2hPa | 2.7V | 00:00:00 | 00:00:00 | 00:00:00 | |
| EDDB2-12 | 2026-08-30 11:33:18 | 49.47666 | 12.69892 | 71° | 53km/h | 14765m | 4.5m/s | -55.6°C | 2.6% | 133.4hPa | 2.7V | 00:00:00 | 00:00:00 | 00:00:00 | |
| PG1ADW-2 | 2026-08-30 11:33:16 | 49.47661 | 12.69873 | 71° | 49km/h | 14761m | 3.7m/s | -55.5°C | 6.1% | 133.4hPa | 2.7V | 00:00:00 | 00:00:00 | 00:00:00 | |
| OE5DXL-15 | 2026-08-30 11:33:13 | 49.47647 | 12.69817 | 68° | 47km/h | 14747m | 4.4m/s | -55.4°C | 6.1% | 133.7hPa | 2.7V | 00:00:00 | 00:00:00 | 00:00:00 | |
| OE5MMP-10 | 2026-08-30 11:33:11 | 49.47637 | 12.69780 | 66° | 49km/h | 14738m | 3.4m/s | -55.3°C | 6.0% | 133.9hPa | 2.7V | 00:00:00 | 01:13:58 | 00:00:00 | |
| OE5DRO-10 | 2026-08-30 11:33:08 | 49.47624 | 12.69727 | 72° | 47km/h | 14725m | 3.9m/s | -55.3°C | 6.0% | 134.2hPa | 2.7V | 04:34:00 | 00:00:00 | 00:00:00 | |
| DO8TBO-1 | 2026-08-30 11:33:03 | 49.47607 | 12.69638 | 77° | 47km/h | 14701m | 3.9m/s | -55.3°C | 6.1% | 134.7hPa | 2.7V | 00:00:00 | 01:13:50 | 00:00:00 | |
| DL1JEZ-13 | 2026-08-30 11:33:02 | 49.47607 | 12.69638 | 78° | 46km/h | 14701m | 3.9m/s | -55.3°C | 2.6% | 134.7hPa | 2.7V | 00:00:00 | 00:00:00 | 00:00:00 | |
| DL6DJ-15 | 2026-08-30 11:32:58 | 49.47588 | 12.69552 | 68° | 46km/h | 14679m | 5.0m/s | -55.3°C | 2.7% | 135.2hPa | 2.7V | 00:00:00 | 00:00:00 | 00:00:00 | |
| SONDE2-11 | 2026-08-30 11:32:55 | 49.47577 | 12.69500 | 75° | 47km/h | 14667m | 4.2m/s | -55.3°C | 2.7% | 135.4hPa | 2.7V | 00:00:00 | 00:00:00 | 00:00:00 | |
| SONCRA | 2026-08-30 11:32:49 | 49.47558 | 12.69374 | 74° | 46km/h | 14636m | 4.7m/s | -55.0°C | 2.6% | 136.1hPa | 2.7V | 00:00:00 | 00:00:00 | 00:00:00 | |
| OE5DXL-15 | 2026-08-30 11:32:43 | 49.47545 | 12.69285 | 82° | 49km/h | 14615m | 3.6m/s | -54.8°C | 6.0% | 136.5hPa | 2.7V | 00:00:00 | 00:00:00 | 00:00:00 | |
| DL1JEZ-13 | 2026-08-30 11:32:42 | 49.47545 | 12.69285 | 82° | 44km/h | 14615m | 3.7m/s | -54.8°C | 0% | 136.6hPa | 2.7V | 00:00:00 | 00:00:00 | 00:00:00 | |
| OE5MMP-10 | 2026-08-30 11:32:40 | 49.47539 | 12.69232 | 80° | 47km/h | 14601m | 4.0m/s | -54.8°C | 6.0% | 136.8hPa | 2.7V | 04:34:00 | 01:13:27 | 00:00:00 | |
| PG1ADW-2 | 2026-08-30 11:32:36 | 49.47531 | 12.69162 | 80° | 49km/h | 14582m | 4.9m/s | -54.6°C | 5.9% | 137.2hPa | 2.7V | 00:00:00 | 00:00:00 | 00:00:00 | |
| DO8TBO-1 | 2026-08-30 11:32:33 | 49.47526 | 12.69106 | 85° | 51km/h | 14569m | 4.8m/s | -54.4°C | 5.9% | 137.5hPa | 2.7V | 04:34:00 | 01:13:20 | 00:00:00 | |
| OE5MMP-10 | 2026-08-30 11:32:30 | 49.47524 | 12.69049 | 90° | 51km/h | 14555m | 5.3m/s | -54.3°C | 5.9% | 137.7hPa | 2.7V | 00:00:00 | 01:13:17 | 00:00:00 | |
| OE5WHR-10 | 2026-08-30 11:32:29 | 49.47524 | 12.69029 | 88° | 51km/h | 14550m | 5.2m/s | -54.3°C | 5.9% | 137.9hPa | 2.7V | 04:35:00 | 00:00:00 | 00:00:00 | |
| ANDY1245 | 2026-08-30 11:32:28 | 49.47524 | 12.69029 | 89° | 51km/h | 14550m | 5.2m/s | -54.4°C | 0% | 137.9hPa | 2.7V | 00:00:00 | 00:00:00 | 00:00:00 | |
| DL6DJ-15 | 2026-08-30 11:32:27 | 49.47523 | 12.68989 | 87° | 49km/h | 14540m | 5.4m/s | -54.3°C | 2.6% | 138.1hPa | 2.7V | 00:00:00 | 00:00:00 | 00:00:00 | |
| SONDE2-11 | 2026-08-30 11:32:24 | 49.47520 | 12.68931 | 83° | 49km/h | 14528m | 5.1m/s | -54.2°C | 2.6% | 138.4hPa | 2.7V | 00:00:00 | 00:00:00 | 00:00:00 | |
| S52SK | 2026-08-30 11:32:23 | 49.47520 | 12.68931 | 85° | 51km/h | 14528m | 5.1m/s | 0°C | 0% | 0hPa | 2.7V | 00:00:00 | 00:00:00 | 00:00:00 | |
| DL1JEZ-13 | 2026-08-30 11:32:21 | 49.47517 | 12.68892 | 86° | 51km/h | 14519m | 4.1m/s | -54.1°C | 0% | 138.6hPa | 2.7V | 00:00:00 | 00:00:00 | 00:00:00 | |
| OE5MMP-10 | 2026-08-30 11:32:20 | 49.47517 | 12.68853 | 94° | 55km/h | 14509m | 4.7m/s | -54.0°C | 5.8% | 138.8hPa | 2.7V | 00:00:00 | 01:13:07 | 00:00:00 | |
| SONCRA | 2026-08-30 11:32:17 | 49.47520 | 12.68795 | 93° | 51km/h | 14497m | 4.3m/s | -54.1°C | 2.6% | 139.1hPa | 2.7V | 00:00:00 | 00:00:00 | 00:00:00 | |
| EDDB2-12 | 2026-08-30 11:32:16 | 49.47521 | 12.68754 | 91° | 51km/h | 14489m | 4.0m/s | -54.2°C | 2.6% | 139.3hPa | 2.7V | 00:00:00 | 00:00:00 | 00:00:00 | |
| OE5REO-15 | 2026-08-30 11:32:14 | 49.47521 | 12.68734 | 92° | 51km/h | 14484m | 5.1m/s | -54.2°C | 2.6% | 139.4hPa | 2.7V | 04:36:00 | 00:00:00 | 00:00:00 | |
| OE5DXL-15 | 2026-08-30 11:32:13 | 49.47522 | 12.68714 | 91° | 53km/h | 14480m | 3.7m/s | -54.2°C | 5.9% | 139.4hPa | 2.7V | 00:00:00 | 00:00:00 | 00:00:00 | |
| OE5DRO-10 | 2026-08-30 11:32:11 | 49.47521 | 12.68673 | 87° | 53km/h | 14472m | 5.1m/s | -54.2°C | 5.9% | 139.6hPa | 2.7V | 00:00:00 | 00:00:00 | 00:00:00 | |
| EDDB2-11 | 2026-08-30 11:32:09 | 49.47519 | 12.68630 | 85° | 55km/h | 14463m | 4.3m/s | -54.2°C | 2.6% | 139.8hPa | 2.7V | 00:00:00 | 00:00:00 | 00:00:00 | |
| OE5WHR-10 | 2026-08-30 11:32:06 | 49.47518 | 12.68570 | 93° | 53km/h | 14450m | 3.8m/s | -54.1°C | 5.9% | 140.1hPa | 2.7V | 00:00:00 | 00:00:00 | 00:00:00 | |
| DL6DJ-15 | 2026-08-30 11:31:56 | 49.47526 | 12.68367 | 91° | 55km/h | 14407m | 3.2m/s | -54.0°C | 2.6% | 141.0hPa | 2.7V | 00:00:00 | 00:00:00 | 00:00:00 | |
| SONDE2-11 | 2026-08-30 11:31:54 | 49.47528 | 12.68304 | 94° | 51km/h | 14395m | 3.5m/s | -54.0°C | 2.6% | 141.3hPa | 2.7V | 00:00:00 | 00:00:00 | 00:00:00 | |
| SONCRA | 2026-08-30 11:31:46 | 49.47540 | 12.68156 | 99° | 55km/h | 14367m | 3.2m/s | -54.0°C | 2.7% | 141.9hPa | 2.7V | 00:00:00 | 00:00:00 | 00:00:00 | |
| EDDB2-12 | 2026-08-30 11:31:45 | 49.47545 | 12.68113 | 96° | 57km/h | 14359m | 3.7m/s | -54.0°C | 2.7% | 142.2hPa | 2.7V | 00:00:00 | 00:00:00 | 00:00:00 | |
| OE5WHR-10 | 2026-08-30 11:31:44 | 49.47545 | 12.68112 | 97° | 64km/h | 14359m | 3.7m/s | -54.0°C | 5.9% | 142.1hPa | 2.7V | 00:00:00 | 01:12:31 | 00:00:00 | |
| OE5DXL-15 | 2026-08-30 11:31:43 | 49.47546 | 12.68090 | 97° | 62km/h | 14355m | 3.7m/s | -54.0°C | 5.9% | 142.2hPa | 2.7V | 00:00:00 | 00:00:00 | 00:00:00 | |
| EDDB2-11 | 2026-08-30 11:31:38 | 49.47558 | 12.67975 | 99° | 66km/h | 14333m | 3.9m/s | -54.0°C | 2.7% | 142.7hPa | 2.7V | 00:00:00 | 00:00:00 | 00:00:00 | |
| SP3BTT-10 | 2026-08-30 11:31:37 | 49.47561 | 12.67950 | 101° | 64km/h | 14329m | 3.9m/s | 0°C | 0% | 0hPa | 2.7V | 00:00:00 | 00:00:00 | 00:00:00 | |
| PG1ADW-2 | 2026-08-30 11:31:36 | 49.47564 | 12.67924 | 101° | 64km/h | 14325m | 4.6m/s | -54.0°C | 5.9% | 142.9hPa | 2.7V | 00:00:00 | 00:00:00 | 00:00:00 | |
| OE5MMP-10 | 2026-08-30 11:31:35 | 49.47567 | 12.67899 | 101° | 62km/h | 14321m | 3.9m/s | -54.1°C | 5.9% | 142.9hPa | 2.7V | 00:00:00 | 01:12:22 | 00:00:00 | |
| OE5DRO-10 | 2026-08-30 11:31:33 | 49.47573 | 12.67847 | 100° | 62km/h | 14312m | 4.8m/s | -54.2°C | 6.1% | 143.1hPa | 2.7V | 04:35:00 | 00:00:00 | 00:00:00 | |
| DO8TBO-1 | 2026-08-30 11:31:31 | 49.47580 | 12.67795 | 102° | 62km/h | 14305m | 3.9m/s | -54.3°C | 6.0% | 143.3hPa | 2.7V | 00:00:00 | 01:12:18 | 00:00:00 | |
| OE5REO-15 | 2026-08-30 11:31:27 | 49.47589 | 12.67723 | 101° | 58km/h | 14293m | 3.9m/s | -54.4°C | 0% | 143.6hPa | 2.7V | 04:36:00 | 00:00:00 | 00:00:00 | |
| OE5MMP-10 | 2026-08-30 11:31:25 | 49.47596 | 12.67654 | 97° | 58km/h | 14281m | 3.7m/s | -54.3°C | 6.2% | 143.8hPa | 2.7V | 00:00:00 | 01:12:12 | 00:00:00 | |
| SONDE2-11 | 2026-08-30 11:31:22 | 49.47602 | 12.67582 | 94° | 60km/h | 14270m | 3.4m/s | -54.3°C | 2.8% | 144.1hPa | 2.7V | 00:00:00 | 00:00:00 | 00:00:00 | |
| DO3MHA-11 | 2026-08-30 11:31:21 | 49.47603 | 12.67559 | 93° | 62km/h | 14266m | 4.7m/s | -54.2°C | 6.1% | 144.1hPa | 2.7V | 00:00:00 | 01:12:08 | 00:00:00 | |
| PG1ADW-2 | 2026-08-30 11:31:16 | 49.47605 | 12.67446 | 93° | 62km/h | 14247m | 3.5m/s | -54.2°C | 6.0% | 144.6hPa | 2.7V | 04:36:00 | 00:00:00 | 00:00:00 | |
| OE5MMP-10 | 2026-08-30 11:31:15 | 49.47605 | 12.67423 | 91° | 62km/h | 14243m | 4.8m/s | -54.2°C | 6.1% | 144.7hPa | 2.7V | 04:36:00 | 01:12:02 | 00:00:00 | |
| EDDB2-12 | 2026-08-30 11:31:14 | 49.47605 | 12.67375 | 91° | 64km/h | 14234m | 3.8m/s | -54.2°C | 2.7% | 144.9hPa | 2.7V | 00:00:00 | 00:00:00 | 00:00:00 | |
| OE5DXL-15 | 2026-08-30 11:31:13 | 49.47605 | 12.67375 | 92° | 66km/h | 14235m | 3.7m/s | -54.1°C | 6.0% | 144.8hPa | 2.7V | 04:36:00 | 00:00:00 | 00:00:00 | |
| OE5REO-15 | 2026-08-30 11:31:11 | 49.47606 | 12.67349 | 95° | 66km/h | 14231m | 4.6m/s | -54.2°C | 0% | 0hPa | 2.7V | 00:00:00 | 00:00:00 | 00:00:00 | |
| ANDY1245 | 2026-08-30 11:31:09 | 49.47608 | 12.67297 | 93° | 68km/h | 14223m | 4.2m/s | -54.2°C | 0% | 145.2hPa | 2.7V | 00:00:00 | 00:00:00 | 00:00:00 | |
| EDDB2-11 | 2026-08-30 11:31:07 | 49.47609 | 12.67222 | 91° | 62km/h | 14213m | 4.1m/s | -54.2°C | 2.7% | 145.4hPa | 2.7V | 00:00:00 | 00:00:00 | 00:00:00 | |
| DO3MHA-11 | 2026-08-30 11:31:06 | 49.47609 | 12.67198 | 91° | 58km/h | 14209m | 3.5m/s | -54.1°C | 5.9% | 145.5hPa | 2.7V | 00:00:00 | 01:11:53 | 00:00:00 | |
| DL1JEZ-13 | 2026-08-30 11:31:05 | 49.47609 | 12.67175 | 90° | 57km/h | 14206m | 2.7m/s | -54.2°C | 0% | 145.6hPa | 2.7V | 00:00:00 | 00:00:00 | 00:00:00 | |
| ANDY1245 | 2026-08-30 11:31:04 | 49.47609 | 12.67175 | 90° | 57km/h | 14206m | 2.7m/s | -54.2°C | 0% | 145.6hPa | 2.7V | 00:00:00 | 00:00:00 | 00:00:00 | |
| DL6DJ-15 | 2026-08-30 11:30:54 | 49.47595 | 12.66915 | 84° | 64km/h | 14165m | 3.6m/s | -54.0°C | 2.6% | 146.5hPa | 2.7V | 00:00:00 | 00:00:00 | 00:00:00 | |
| ANDY1245 | 2026-08-30 11:30:52 | 49.47593 | 12.66890 | 87° | 64km/h | 14161m | 4.1m/s | -54.0°C | 0% | 146.6hPa | 2.7V | 00:00:00 | 00:00:00 | 00:00:00 | |
| SP3BTT-10 | 2026-08-30 11:30:51 | 49.47591 | 12.66838 | 86° | 75km/h | 14155m | 3.3m/s | 0°C | 0% | 0hPa | 2.7V | 00:00:00 | 00:00:00 | 00:00:00 | |
| ANDY1245 | 2026-08-30 11:30:46 | 49.47586 | 12.66730 | 89° | 71km/h | 14140m | 3.8m/s | -54.0°C | 0% | 147.1hPa | 2.7V | 00:00:00 | 00:00:00 | 00:00:00 | |
| DO3MHA-11 | 2026-08-30 11:30:45 | 49.47585 | 12.66673 | 88° | 73km/h | 14133m | 4.5m/s | -54.0°C | 5.8% | 147.2hPa | 2.7V | 04:36:00 | 01:11:32 | 00:00:00 | |
| OE5MMP-10 | 2026-08-30 11:30:44 | 49.47584 | 12.66645 | 87° | 77km/h | 14128m | 3.8m/s | -54.1°C | 5.9% | 147.3hPa | 2.7V | 00:00:00 | 01:11:31 | 00:00:00 | |
| EDDB2-12 | 2026-08-30 11:30:43 | 49.47581 | 12.66589 | 85° | 71km/h | 14121m | 4.2m/s | -54.1°C | 2.6% | 147.6hPa | 2.7V | 00:00:00 | 00:00:00 | 00:00:00 | |
| ANDY1245 | 2026-08-30 11:30:40 | 49.47580 | 12.66561 | 88° | 71km/h | 14117m | 4.3m/s | -54.1°C | 0% | 147.6hPa | 2.7V | 00:00:00 | 00:00:00 | 00:00:00 | |
| OE5REO-15 | 2026-08-30 11:30:39 | 49.47579 | 12.66533 | 88° | 71km/h | 14113m | 2.5m/s | 0°C | 0% | 0hPa | 2.7V | 00:00:00 | 00:00:00 | 00:00:00 | |
| OE5WHR-10 | 2026-08-30 11:30:37 | 49.47573 | 12.66450 | 82° | 77km/h | 14103m | 2.8m/s | -54.0°C | 5.8% | 147.9hPa | 2.7V | 04:36:00 | 01:11:24 | 00:00:00 | |
| PG1ADW-2 | 2026-08-30 11:30:36 | 49.47571 | 12.66422 | 84° | 75km/h | 14100m | 3.4m/s | -54.0°C | 5.8% | 148.0hPa | 2.7V | 00:00:00 | 00:00:00 | 00:00:00 | |
| DO3MHA-11 | 2026-08-30 11:30:35 | 49.47569 | 12.66392 | 85° | 78km/h | 14096m | 4.2m/s | -54.0°C | 5.8% | 148.1hPa | 2.7V | 00:00:00 | 01:11:22 | 00:00:00 | |
| DO8TBO-1 | 2026-08-30 11:30:31 | 49.47562 | 12.66268 | 86° | 75km/h | 14083m | 2.7m/s | -54.1°C | 5.8% | 148.4hPa | 2.7V | 00:00:00 | 01:11:18 | 00:00:00 | |
| OE5MMP-10 | 2026-08-30 11:30:27 | 49.47556 | 12.66147 | 86° | 73km/h | 14070m | 2.3m/s | -54.0°C | 5.8% | 148.7hPa | 2.7V | 00:00:00 | 01:11:14 | 00:00:00 | |
| DO3MHA-11 | 2026-08-30 11:30:25 | 49.47552 | 12.66091 | 83° | 75km/h | 14063m | 2.8m/s | -54.0°C | 5.8% | 148.8hPa | 2.7V | 00:00:00 | 01:11:12 | 00:00:00 | |
| OE5REO-15 | 2026-08-30 11:30:24 | 49.47549 | 12.66062 | 84° | 75km/h | 14061m | 2.1m/s | 0°C | 0% | 0hPa | 2.7V | 00:00:00 | 00:00:00 | 00:00:00 | |
| DL6DJ-15 | 2026-08-30 11:30:23 | 49.47545 | 12.66004 | 86° | 75km/h | 14054m | 3.2m/s | -54.0°C | 2.6% | 149.1hPa | 2.7V | 00:00:00 | 00:00:00 | 00:00:00 | |
| SONDE2-11 | 2026-08-30 11:30:21 | 49.47543 | 12.65946 | 86° | 73km/h | 14048m | 2.8m/s | -54.0°C | 2.6% | 149.2hPa | 2.7V | 00:00:00 | 00:00:00 | 00:00:00 | |
| OE5MMP-10 | 2026-08-30 11:30:16 | 49.47538 | 12.65831 | 86° | 78km/h | 14036m | 3.9m/s | -54.2°C | 5.8% | 149.5hPa | 2.7V | 04:37:00 | 01:11:03 | 00:00:00 | |
| DO3MHA-11 | 2026-08-30 11:30:15 | 49.47536 | 12.65801 | 86° | 75km/h | 14033m | 2.6m/s | -54.2°C | 5.8% | 149.6hPa | 2.7V | 00:00:00 | 01:11:02 | 00:00:00 | |
| OE5DXL-15 | 2026-08-30 11:30:13 | 49.47533 | 12.65741 | 85° | 73km/h | 14026m | 3.4m/s | -54.2°C | 5.8% | 149.7hPa | 2.7V | 00:00:00 | 00:00:00 | 00:00:00 | |
| EDDB2-12 | 2026-08-30 11:30:11 | 49.47531 | 12.65683 | 89° | 73km/h | 14019m | 4.1m/s | -54.3°C | 2.6% | 150.0hPa | 2.7V | 00:00:00 | 00:00:00 | 00:00:00 | |
| DO3MHA-11 | 2026-08-30 11:30:05 | 49.47533 | 12.65513 | 90° | 77km/h | 13999m | 3.6m/s | -54.2°C | 5.8% | 150.4hPa | 2.7V | 00:00:00 | 01:10:52 | 00:00:00 | |
| DL6DJ-15 | 2026-08-30 11:29:52 | 49.47521 | 12.65134 | 85° | 71km/h | 13954m | 2.6m/s | -54.9°C | 0% | 151.4hPa | 2.7V | 00:00:00 | 00:00:00 | 00:00:00 | |
| SONDE2-11 | 2026-08-30 11:29:49 | 49.47514 | 12.65051 | 79° | 69km/h | 13943m | 3.3m/s | -54.9°C | 2.9% | 151.6hPa | 2.7V | 00:00:00 | 00:00:00 | 00:00:00 | |
| ANDY1245 | 2026-08-30 11:29:48 | 49.47514 | 12.65051 | 80° | 71km/h | 13943m | 3.3m/s | 0°C | 0% | 151.6hPa | 2.7V | 04:37:00 | 00:00:00 | 00:00:00 | |
| DO3MHA-11 | 2026-08-30 11:29:45 | 49.47501 | 12.64942 | 81° | 77km/h | 13929m | 3.3m/s | -54.9°C | 6.4% | 151.9hPa | 2.7V | 00:00:00 | 01:10:32 | 00:00:00 | |
| OE5DXL-15 | 2026-08-30 11:29:43 | 49.47495 | 12.64886 | 82° | 80km/h | 13922m | 2.4m/s | -54.9°C | 6.4% | 152.1hPa | 2.7V | 00:00:00 | 00:00:00 | 00:00:00 | |
| SONCRA | 2026-08-30 11:29:42 | 49.47492 | 12.64856 | 82° | 77km/h | 13919m | 3.8m/s | -54.9°C | 3.0% | 152.2hPa | 2.7V | 00:00:00 | 00:00:00 | 00:00:00 | |
| EDDB2-12 | 2026-08-30 11:29:40 | 49.47488 | 12.64796 | 84° | 78km/h | 13911m | 2.9m/s | -54.9°C | 3.0% | 152.4hPa | 2.7V | 00:00:00 | 00:00:00 | 00:00:00 | |
| ANDY1245 | 2026-08-30 11:29:37 | 49.47484 | 12.64735 | 85° | 78km/h | 13904m | 2.7m/s | 0°C | 0% | 152.6hPa | 2.7V | 04:38:00 | 00:00:00 | 00:00:00 | |
| SP3BTT-10 | 2026-08-30 11:29:36 | 49.47481 | 12.64675 | 87° | 82km/h | 13899m | 4.6m/s | 0°C | 0% | 0hPa | 2.7V | 00:00:00 | 00:00:00 | 00:00:00 | |
| DO3MHA-11 | 2026-08-30 11:29:35 | 49.47480 | 12.64645 | 88° | 80km/h | 13895m | 3.7m/s | -54.8°C | 6.4% | 152.7hPa | 2.7V | 00:00:00 | 01:10:22 | 00:00:00 | |
| OE5WHR-10 | 2026-08-30 11:29:34 | 49.47479 | 12.64615 | 88° | 82km/h | 13891m | 2.5m/s | -54.8°C | 6.4% | 152.8hPa | 2.7V | 00:00:00 | 01:10:21 | 00:00:00 | |
| DO8TBO-1 | 2026-08-30 11:29:31 | 49.47475 | 12.64525 | 87° | 84km/h | 13882m | 3.1m/s | -54.8°C | 6.3% | 153.1hPa | 2.7V | 00:00:00 | 01:10:18 | 00:00:00 | |
| DO9HM | 2026-08-30 11:29:29 | 49.47474 | 12.64494 | 89° | 80km/h | 13878m | 4.3m/s | -54.8°C | 3.0% | 153.2hPa | 2.7V | 00:00:00 | 00:00:00 | 00:00:00 | |
| DO3MHA-11 | 2026-08-30 11:29:25 | 49.47469 | 12.64332 | 87° | 82km/h | 13861m | 2.8m/s | -54.8°C | 6.4% | 153.6hPa | 2.7V | 00:00:00 | 01:10:12 | 00:00:00 | |
| OE5DRO-10 | 2026-08-30 11:29:24 | 49.47468 | 12.64300 | 88° | 89km/h | 13857m | 3.9m/s | -54.8°C | 6.5% | 153.7hPa | 2.7V | 00:00:00 | 00:00:00 | 00:00:00 | |
| DL6DJ-15 | 2026-08-30 11:29:21 | 49.47466 | 12.64205 | 87° | 80km/h | 13847m | 3.4m/s | -55.0°C | 3.1% | 153.9hPa | 2.7V | 00:00:00 | 00:00:00 | 00:00:00 | |
| SONDE2-11 | 2026-08-30 11:29:18 | 49.47465 | 12.64111 | 90° | 80km/h | 13838m | 3.8m/s | -55.0°C | 3.2% | 154.2hPa | 2.7V | 00:00:00 | 00:00:00 | 00:00:00 | |
| PG1ADW-2 | 2026-08-30 11:29:17 | 49.47466 | 12.64047 | 93° | 88km/h | 13832m | 1.9m/s | -55.0°C | 6.8% | 154.3hPa | 2.7V | 00:00:00 | 00:00:00 | 00:00:00 | |
| DO3MHA-11 | 2026-08-30 11:29:15 | 49.47467 | 12.64015 | 92° | 84km/h | 13830m | 3.5m/s | -55.0°C | 6.8% | 154.3hPa | 2.7V | 00:00:00 | 01:10:02 | 00:00:00 | |
| OE5WHR-10 | 2026-08-30 11:29:13 | 49.47467 | 12.63950 | 91° | 89km/h | 13824m | 2.7m/s | -55.0°C | 6.8% | 154.5hPa | 2.7V | 00:00:00 | 00:00:00 | 00:00:00 | |
| SONCRA | 2026-08-30 11:29:11 | 49.47468 | 12.63853 | 90° | 84km/h | 13814m | 2.6m/s | -55.1°C | 3.3% | 154.8hPa | 2.7V | 00:00:00 | 00:00:00 | 00:00:00 | |
| EDDB2-12 | 2026-08-30 11:29:10 | 49.47468 | 12.63820 | 89° | 82km/h | 13810m | 4.3m/s | -55.1°C | 3.3% | 154.9hPa | 2.7V | 00:00:00 | 00:00:00 | 00:00:00 | |
| SP3BTT-10 | 2026-08-30 11:29:06 | 49.47468 | 12.63722 | 92° | 95km/h | 13800m | 4.4m/s | 0°C | 0% | 0hPa | 2.7V | 00:00:00 | 00:00:00 | 00:00:00 | |
| DO3MHA-11 | 2026-08-30 11:29:05 | 49.47469 | 12.63688 | 94° | 95km/h | 13796m | 2.6m/s | -55.1°C | 6.7% | 155.1hPa | 2.7V | 04:38:00 | 01:09:52 | 00:00:00 | |
| EDDB2-11 | 2026-08-30 11:29:03 | 49.47471 | 12.63618 | 91° | 91km/h | 13790m | 4.8m/s | -55.1°C | 3.2% | 155.4hPa | 2.7V | 00:00:00 | 00:00:00 | 00:00:00 | |
| DL6DJ-15 | 2026-08-30 11:28:50 | 49.47459 | 12.63113 | 85° | 89km/h | 13739m | 3.0m/s | -55.2°C | 3.4% | 156.6hPa | 2.7V | 00:00:00 | 00:00:00 | 00:00:00 | |
| SONDE2-11 | 2026-08-30 11:28:47 | 49.47456 | 12.63043 | 86° | 91km/h | 13731m | 3.9m/s | -55.2°C | 3.4% | 156.8hPa | 2.7V | 00:00:00 | 00:00:00 | 00:00:00 | |
| OE5DXL-15 | 2026-08-30 11:28:43 | 49.47452 | 12.62899 | 88° | 93km/h | 13715m | 4.8m/s | -55.1°C | 7.0% | 157.1hPa | 2.7V | 04:38:00 | 00:00:00 | 00:00:00 | |
| ANDY1245 | 2026-08-30 11:28:41 | 49.47451 | 12.62862 | 88° | 97km/h | 13711m | 3.5m/s | 0°C | 0% | 157.3hPa | 2.7V | 00:00:00 | 00:00:00 | 00:00:00 | |
| OE5MMP-10 | 2026-08-30 11:28:40 | 49.47449 | 12.62788 | 89° | 93km/h | 13704m | 4.4m/s | -55.2°C | 6.9% | 157.4hPa | 2.7V | 00:00:00 | 01:09:27 | 00:00:00 | |
| EDDB2-12 | 2026-08-30 11:28:39 | 49.47449 | 12.62717 | 88° | 89km/h | 13696m | 4.0m/s | -55.2°C | 3.4% | 157.6hPa | 2.7V | 00:00:00 | 00:00:00 | 00:00:00 | |
| OE5DRO-10 | 2026-08-30 11:28:37 | 49.47448 | 12.62682 | 88° | 91km/h | 13691m | 4.9m/s | -55.2°C | 6.8% | 157.7hPa | 2.7V | 04:38:00 | 00:00:00 | 00:00:00 | |
| PG1ADW-2 | 2026-08-30 11:28:36 | 49.47447 | 12.62646 | 88° | 91km/h | 13687m | 3.5m/s | -55.1°C | 6.8% | 157.8hPa | 2.7V | 00:00:00 | 00:00:00 | 00:00:00 | |
| DO3MHA-11 | 2026-08-30 11:28:35 | 49.47446 | 12.62610 | 88° | 93km/h | 13683m | 3.3m/s | -55.1°C | 6.8% | 157.9hPa | 2.7V | 00:00:00 | 01:09:22 | 00:00:00 | |
| EDDB2-11 | 2026-08-30 11:28:32 | 49.47442 | 12.62502 | 86° | 93km/h | 13671m | 4.2m/s | -55.2°C | 3.3% | 158.2hPa | 2.7V | 00:00:00 | 00:00:00 | 00:00:00 | |
| OE5WHR-10 | 2026-08-30 11:28:31 | 49.47440 | 12.62465 | 85° | 93km/h | 13668m | 4.2m/s | -55.1°C | 6.8% | 158.3hPa | 2.7V | 00:00:00 | 01:09:18 | 00:00:00 | |
| ANDY1245 | 2026-08-30 11:28:30 | 49.47440 | 12.62465 | 85° | 93km/h | 13668m | 4.3m/s | 0°C | 0% | 0hPa | 2.7V | 00:00:00 | 00:00:00 | 00:00:00 | |
| OE5MMP-10 | 2026-08-30 11:28:27 | 49.47430 | 12.62322 | 84° | 97km/h | 13652m | 2.5m/s | -55.0°C | 7.0% | 158.7hPa | 2.7V | 00:00:00 | 01:09:14 | 00:00:00 | |
| DO3MHA-11 | 2026-08-30 11:28:25 | 49.47425 | 12.62251 | 83° | 89km/h | 13645m | 4.2m/s | -55.1°C | 6.9% | 158.9hPa | 2.7V | 00:00:00 | 01:09:12 | 00:00:00 | |
| DO9HM | 2026-08-30 11:28:20 | 49.47416 | 12.62111 | 87° | 88km/h | 13629m | 3.3m/s | -55.4°C | 3.4% | 159.3hPa | 2.7V | 00:00:00 | 00:00:00 | 00:00:00 | |
| DL6DJ-15 | 2026-08-30 11:28:19 | 49.47410 | 12.62007 | 82° | 89km/h | 13617m | 3.3m/s | -55.5°C | 3.4% | 159.6hPa | 2.7V | 00:00:00 | 00:00:00 | 00:00:00 | |
| PG1ADW-2 | 2026-08-30 11:28:16 | 49.47403 | 12.61937 | 83° | 97km/h | 13609m | 5.6m/s | -55.5°C | 7.2% | 159.8hPa | 2.7V | 00:00:00 | 01:09:03 | 00:00:00 | |
| DO3MHA-11 | 2026-08-30 11:28:15 | 49.47400 | 12.61901 | 83° | 97km/h | 13604m | 4.0m/s | -55.5°C | 7.1% | 159.9hPa | 2.7V | 04:39:00 | 01:09:02 | 00:00:00 | |
| OE5DXL-15 | 2026-08-30 11:28:13 | 49.47393 | 12.61827 | 81° | 93km/h | 13596m | 4.8m/s | -55.5°C | 7.0% | 160.1hPa | 2.7V | 00:00:00 | 00:00:00 | 00:00:00 | |
| OE5DRO-10 | 2026-08-30 11:28:12 | 49.47388 | 12.61790 | 79° | 95km/h | 13591m | 5.2m/s | -55.5°C | 7.1% | 160.2hPa | 2.7V | 00:00:00 | 00:00:00 | 00:00:00 | |
| OE5WHR-10 | 2026-08-30 11:28:10 | 49.47378 | 12.61716 | 78° | 95km/h | 13582m | 3.2m/s | -55.5°C | 6.9% | 160.5hPa | 2.7V | 00:00:00 | 00:00:00 | 00:00:00 | |
| SONCRA | 2026-08-30 11:28:09 | 49.47372 | 12.61678 | 77° | 100km/h | 13578m | 5.6m/s | -55.6°C | 3.4% | 160.6hPa | 2.7V | 00:00:00 | 00:00:00 | 00:00:00 | |
| EDDB2-12 | 2026-08-30 11:28:07 | 49.47363 | 12.61602 | 80° | 99km/h | 13569m | 4.5m/s | -55.5°C | 3.3% | 160.8hPa | 2.7V | 00:00:00 | 00:00:00 | 00:00:00 | |
| OE5MMP-10 | 2026-08-30 11:28:05 | 49.47355 | 12.61527 | 80° | 93km/h | 13560m | 5.2m/s | -55.4°C | 7.0% | 160.9hPa | 2.7V | 04:39:00 | 01:08:52 | 00:00:00 | |
| DO3MHA-11 | 2026-08-30 11:28:03 | 49.47345 | 12.61454 | 79° | 93km/h | 13550m | 5.9m/s | -55.4°C | 7.0% | 161.2hPa | 2.7V | 00:00:00 | 01:08:50 | 00:00:00 | |
| EDDB2-11 | 2026-08-30 11:28:01 | 49.47328 | 12.61349 | 73° | 93km/h | 13535m | 3.7m/s | -55.3°C | 3.5% | 161.6hPa | 2.7V | 00:00:00 | 00:00:00 | 00:00:00 | |
| DL6DJ-15 | 2026-08-30 11:27:48 | 49.47251 | 12.60893 | 72° | 86km/h | 13476m | 3.1m/s | -54.9°C | 3.5% | 163.2hPa | 2.7V | 00:00:00 | 00:00:00 | 00:00:00 | |
| SONDE2-11 | 2026-08-30 11:27:45 | 49.47238 | 12.60832 | 71° | 80km/h | 13467m | 3.5m/s | -54.8°C | 3.4% | 163.4hPa | 2.7V | 00:00:00 | 00:00:00 | 00:00:00 | |
| SONCRA | 2026-08-30 11:27:38 | 49.47198 | 12.60604 | 75° | 89km/h | 13427m | 8.2m/s | -54.5°C | 3.5% | 164.4hPa | 2.7V | 00:00:00 | 00:00:00 | 00:00:00 | |
| OE5DRO-10 | 2026-08-30 11:27:34 | 49.47177 | 12.60472 | 77° | 80km/h | 13407m | 6.7m/s | -54.4°C | 7.0% | 164.9hPa | 2.7V | 00:00:00 | 00:00:00 | 00:00:00 | |
| OE5MMP-10 | 2026-08-30 11:27:32 | 49.47167 | 12.60408 | 79° | 86km/h | 13396m | 5.2m/s | -54.2°C | 7.1% | 165.2hPa | 2.7V | 00:00:00 | 01:08:19 | 00:00:00 | |
| DO8TBO-1 | 2026-08-30 11:27:31 | 49.47162 | 12.60375 | 79° | 84km/h | 13390m | 5.0m/s | -54.2°C | 7.0% | 165.3hPa | 2.7V | 04:39:00 | 01:08:18 | 00:00:00 | |
| EDDB2-11 | 2026-08-30 11:27:30 | 49.47158 | 12.60343 | 77° | 86km/h | 13385m | 5.2m/s | -54.4°C | 3.5% | 165.5hPa | 2.7V | 00:00:00 | 00:00:00 | 00:00:00 | |
| OE5WHR-10 | 2026-08-30 11:27:28 | 49.47149 | 12.60279 | 78° | 80km/h | 13373m | 3.8m/s | -54.3°C | 7.0% | 165.8hPa | 2.7V | 00:00:00 | 01:08:15 | 00:00:00 | |
| OE5REO-15 | 2026-08-30 11:27:25 | 49.47139 | 12.60216 | 76° | 84km/h | 13364m | 4.7m/s | 0°C | 0% | 0hPa | 2.7V | 00:00:00 | 00:00:00 | 00:00:00 | |
| DO3MHA-11 | 2026-08-30 11:27:23 | 49.47121 | 12.60124 | 74° | 82km/h | 13346m | 3.3m/s | -54.2°C | 7.0% | 166.5hPa | 2.7V | 00:00:00 | 01:08:10 | 00:00:00 | |
| OE5MMP-10 | 2026-08-30 11:27:22 | 49.47115 | 12.60095 | 75° | 82km/h | 13342m | 5.8m/s | -54.2°C | 6.9% | 166.6hPa | 2.7V | 00:00:00 | 01:08:09 | 00:00:00 | |
| DL6DJ-15 | 2026-08-30 11:27:17 | 49.47096 | 12.59912 | 85° | 80km/h | 13308m | 4.1m/s | -54.4°C | 3.8% | 167.5hPa | 2.7V | 00:00:00 | 00:00:00 | 00:00:00 | |
| PG1ADW-2 | 2026-08-30 11:27:16 | 49.47096 | 12.59912 | 86° | 86km/h | 13308m | 4.0m/s | -54.3°C | 7.3% | 167.5hPa | 2.7V | 00:00:00 | 00:00:00 | 00:00:00 | |
| OE5DRO-10 | 2026-08-30 11:27:15 | 49.47095 | 12.59880 | 86° | 86km/h | 13304m | 5.8m/s | -54.3°C | 7.3% | 167.6hPa | 2.7V | 00:00:00 | 00:00:00 | 00:00:00 | |
| SONDE2-11 | 2026-08-30 11:27:14 | 49.47093 | 12.59849 | 84° | 78km/h | 13296m | 8.5m/s | -54.4°C | 3.9% | 167.8hPa | 2.7V | 00:00:00 | 00:00:00 | 00:00:00 | |
| OE5DXL-15 | 2026-08-30 11:27:13 | 49.47091 | 12.59819 | 84° | 86km/h | 13290m | 3.9m/s | -54.3°C | 7.4% | 168.0hPa | 2.7V | 00:00:00 | 00:00:00 | 00:00:00 | |
| DL1JEZ-13 | 2026-08-30 11:27:10 | 49.47086 | 12.59755 | 85° | 86km/h | 13280m | 3.3m/s | 0°C | 0% | 0hPa | 2.7V | 00:00:00 | 00:00:00 | 00:00:00 | |
| DO3MHA-11 | 2026-08-30 11:27:07 | 49.47078 | 12.59622 | 86° | 88km/h | 13257m | 6.3m/s | -54.5°C | 7.6% | 168.8hPa | 2.7V | 00:00:00 | 01:07:54 | 00:00:00 | |
| EDDB2-12 | 2026-08-30 11:27:05 | 49.47074 | 12.59554 | 85° | 88km/h | 13247m | 5.6m/s | -54.6°C | 4.2% | 169.2hPa | 2.7V | 00:00:00 | 00:00:00 | 00:00:00 | |
| EDDB2-11 | 2026-08-30 11:26:59 | 49.47054 | 12.59320 | 81° | 84km/h | 13206m | 4.6m/s | -54.6°C | 4.3% | 170.2hPa | 2.7V | 00:00:00 | 00:00:00 | 00:00:00 | |
| DO3MHA-11 | 2026-08-30 11:26:57 | 49.47051 | 12.59287 | 82° | 86km/h | 13200m | 7.1m/s | -54.6°C | 7.9% | 170.3hPa | 2.7V | 04:40:00 | 01:07:44 | 00:00:00 | |
| OE5MMP-10 | 2026-08-30 11:26:56 | 49.47047 | 12.59254 | 81° | 88km/h | 13195m | 3.8m/s | -54.5°C | 7.9% | 170.5hPa | 2.7V | 00:00:00 | 01:07:43 | 00:00:00 | |
| PG1ADW-2 | 2026-08-30 11:26:49 | 49.47020 | 12.59023 | 80° | 84km/h | 13157m | 4.3m/s | -54.5°C | 8.3% | 171.5hPa | 2.7V | 00:00:00 | 01:07:36 | 00:00:00 | |
| DO3MHA-11 | 2026-08-30 11:26:47 | 49.47012 | 12.58956 | 80° | 86km/h | 13146m | 8.2m/s | -54.5°C | 8.3% | 171.8hPa | 2.7V | 00:00:00 | 01:07:34 | 00:00:00 | |
| OE5MMP-10 | 2026-08-30 11:26:44 | 49.46996 | 12.58854 | 75° | 82km/h | 13128m | 5.3m/s | -54.5°C | 8.2% | 172.2hPa | 2.7V | 00:00:00 | 01:07:31 | 00:00:00 | |
| OE5DXL-15 | 2026-08-30 11:26:43 | 49.46990 | 12.58822 | 74° | 86km/h | 13123m | 5.2m/s | -54.6°C | 8.3% | 172.4hPa | 2.7V | 00:00:00 | 00:00:00 | 00:00:00 | |
| DO3MHA-11 | 2026-08-30 11:26:37 | 49.46958 | 12.58639 | 79° | 84km/h | 13088m | 8.0m/s | -54.6°C | 8.7% | 173.3hPa | 2.7V | 00:00:00 | 01:07:24 | 00:00:00 | |
| OE5DRO-10 | 2026-08-30 11:26:36 | 49.46954 | 12.58608 | 81° | 88km/h | 13082m | 4.8m/s | -54.5°C | 8.8% | 173.5hPa | 2.7V | 00:00:00 | 00:00:00 | 00:00:00 | |
| OE5MMP-10 | 2026-08-30 11:26:34 | 49.46947 | 12.58543 | 82° | 86km/h | 13070m | 4.7m/s | -54.5°C | 8.8% | 173.8hPa | 2.7V | 00:00:00 | 01:07:21 | 00:00:00 | |
| DO8TBO-1 | 2026-08-30 11:26:31 | 49.46938 | 12.58445 | 81° | 93km/h | 13052m | 6.1m/s | -54.5°C | 8.9% | 174.3hPa | 2.7V | 00:00:00 | 01:07:18 | 00:00:00 | |
| PG1ADW-2 | 2026-08-30 11:26:29 | 49.46930 | 12.58381 | 80° | 91km/h | 13041m | 6.9m/s | -54.5°C | 8.8% | 174.5hPa | 2.7V | 00:00:00 | 00:00:00 | 00:00:00 | |
| EDDB2-11 | 2026-08-30 11:26:28 | 49.46923 | 12.58316 | 81° | 86km/h | 13030m | 6.8m/s | -54.6°C | 5.2% | 175.0hPa | 2.7V | 00:00:00 | 00:00:00 | 00:00:00 | |
| DO3MHA-11 | 2026-08-30 11:26:27 | 49.46923 | 12.58316 | 82° | 89km/h | 13030m | 6.8m/s | -54.6°C | 9.0% | 174.9hPa | 2.7V | 00:00:00 | 01:07:14 | 00:00:00 | |
| OE5MMP-10 | 2026-08-30 11:26:24 | 49.46916 | 12.58214 | 85° | 91km/h | 13011m | 7.8m/s | -54.6°C | 9.1% | 175.4hPa | 2.7V | 00:00:00 | 01:07:11 | 00:00:00 | |
| OE5WHR-10 | 2026-08-30 11:26:21 | 49.46908 | 12.58112 | 84° | 97km/h | 12994m | 7.4m/s | -54.6°C | 9.1% | 175.9hPa | 2.7V | 00:00:00 | 00:00:00 | 00:00:00 | |
| DO3MHA-11 | 2026-08-30 11:26:17 | 49.46898 | 12.57973 | 85° | 95km/h | 12970m | 6.5m/s | -54.4°C | 9.1% | 176.4hPa | 2.7V | 00:00:00 | 01:07:04 | 00:00:00 | |
| DL6DJ-15 | 2026-08-30 11:26:14 | 49.46891 | 12.57866 | 82° | 93km/h | 12954m | 5.1m/s | -54.5°C | 5.4% | 177.0hPa | 2.7V | 00:00:00 | 00:00:00 | 00:00:00 | |
| OE5MMP-10 | 2026-08-30 11:26:13 | 49.46888 | 12.57830 | 81° | 99km/h | 12949m | 4.9m/s | -54.4°C | 9.1% | 177.0hPa | 2.7V | 04:41:00 | 01:07:00 | 00:00:00 | |
| SONDE2-11 | 2026-08-30 11:26:12 | 49.46880 | 12.57756 | 80° | 97km/h | 12938m | 4.7m/s | -54.4°C | 5.3% | 177.5hPa | 2.7V | 00:00:00 | 00:00:00 | 00:00:00 | |
| ANDY1245 | 2026-08-30 11:26:10 | 49.46876 | 12.57718 | 81° | 99km/h | 12932m | 5.9m/s | 0°C | 0% | 0hPa | 2.7V | 00:00:00 | 00:00:00 | 00:00:00 | |
| PG1ADW-2 | 2026-08-30 11:26:09 | 49.46871 | 12.57681 | 80° | 99km/h | 12926m | 7.4m/s | -54.4°C | 9.4% | 177.7hPa | 2.7V | 04:41:00 | 00:00:00 | 00:00:00 | |
| DO3MHA-11 | 2026-08-30 11:26:07 | 49.46862 | 12.57606 | 79° | 100km/h | 12913m | 6.7m/s | -54.5°C | 9.6% | 178.1hPa | 2.7V | 04:41:00 | 01:06:54 | 00:00:00 | |
| SONCRA | 2026-08-30 11:26:05 | 49.46847 | 12.57492 | 78° | 99km/h | 12897m | 5.6m/s | -54.6°C | 5.6% | 178.6hPa | 2.7V | 00:00:00 | 00:00:00 | 00:00:00 | |
| DO9HM | 2026-08-30 11:26:04 | 49.46847 | 12.57492 | 79° | 100km/h | 12898m | 5.6m/s | -54.6°C | 5.6% | 178.6hPa | 2.7V | 00:00:00 | 00:00:00 | 00:00:00 | |
| OE5MMP-10 | 2026-08-30 11:26:03 | 49.46841 | 12.57454 | 78° | 95km/h | 12892m | 5.2m/s | -54.6°C | 9.2% | 178.7hPa | 2.7V | 00:00:00 | 01:06:50 | 00:00:00 | |
| EDDB2-11 | 2026-08-30 11:25:57 | 49.46803 | 12.57189 | 79° | 97km/h | 12850m | 4.3m/s | -54.6°C | 5.3% | 179.9hPa | 2.7V | 00:00:00 | 00:00:00 | 00:00:00 | |
| OE5REO-15 | 2026-08-30 11:25:56 | 49.46808 | 12.57226 | 79° | 99km/h | 12856m | 8.8m/s | 0°C | 0% | 0hPa | 2.7V | 00:00:00 | 00:00:00 | 00:00:00 | |
| PG1ADW-2 | 2026-08-30 11:25:49 | 49.46770 | 12.56930 | 80° | 93km/h | 12812m | 5.3m/s | -54.6°C | 9.7% | 181.0hPa | 2.7V | 00:00:00 | 00:00:00 | 00:00:00 | |
| DO3MHA-11 | 2026-08-30 11:25:47 | 49.46761 | 12.56856 | 80° | 93km/h | 12799m | 3.9m/s | -54.5°C | 9.7% | 181.4hPa | 2.7V | 00:00:00 | 01:06:34 | 00:00:00 | |
| OE5DXL-15 | 2026-08-30 11:25:43 | 49.46744 | 12.56712 | 78° | 93km/h | 12776m | 8.2m/s | -54.5°C | 9.4% | 182.0hPa | 2.7V | 00:00:00 | 00:00:00 | 00:00:00 | |
| SONDE2-11 | 2026-08-30 11:25:41 | 49.46726 | 12.56610 | 72° | 91km/h | 12757m | 5.2m/s | -54.5°C | 5.5% | 182.6hPa | 2.7V | 00:00:00 | 00:00:00 | 00:00:00 | |
| OE5MMP-10 | 2026-08-30 11:25:40 | 49.46725 | 12.56610 | 73° | 93km/h | 12757m | 5.1m/s | 0°C | 0% | 0hPa | 2.7V | 00:00:00 | 01:06:27 | 00:00:00 | |
| OE5WHR-10 | 2026-08-30 11:25:39 | 49.46718 | 12.56576 | 71° | 91km/h | 12751m | 7.7m/s | -54.4°C | 9.4% | 182.7hPa | 2.7V | 00:00:00 | 00:00:00 | 00:00:00 | |
| DO3MHA-11 | 2026-08-30 11:25:37 | 49.46705 | 12.56509 | 74° | 95km/h | 12740m | 7.7m/s | -54.3°C | 9.9% | 183.0hPa | 2.7V | 00:00:00 | 01:06:24 | 00:00:00 | |
| ANDY1245 | 2026-08-30 11:25:36 | 49.46704 | 12.56509 | 75° | 89km/h | 12740m | 7.7m/s | 0°C | 0% | 0hPa | 2.7V | 00:00:00 | 00:00:00 | 00:00:00 | |
| SONCRA | 2026-08-30 11:25:34 | 49.46692 | 12.56368 | 86° | 97km/h | 12716m | 7.7m/s | -54.2°C | 6.1% | 183.7hPa | 2.7V | 00:00:00 | 00:00:00 | 00:00:00 | |
| EDDB2-12 | 2026-08-30 11:25:32 | 49.46690 | 12.56330 | 85° | 99km/h | 12709m | 4.7m/s | -54.1°C | 6.1% | 183.9hPa | 2.7V | 00:00:00 | 00:00:00 | 00:00:00 | |
| DO8TBO-1 | 2026-08-30 11:25:31 | 49.46688 | 12.56292 | 85° | 95km/h | 12703m | 7.5m/s | -54.1°C | 10.0% | 184.0hPa | 2.7V | 00:00:00 | 01:06:18 | 00:00:00 | |
| PG1ADW-2 | 2026-08-30 11:25:29 | 49.46682 | 12.56218 | 81° | 93km/h | 12692m | 7.1m/s | -54.1°C | 9.9% | 184.3hPa | 2.7V | 00:00:00 | 01:06:16 | 00:00:00 | |
| DO3MHA-11 | 2026-08-30 11:25:27 | 49.46673 | 12.56144 | 79° | 91km/h | 12681m | 6.9m/s | -54.0°C | 9.9% | 184.6hPa | 2.7V | 00:00:00 | 01:06:14 | 00:00:00 | |
| EDDB2-11 | 2026-08-30 11:25:26 | 49.46665 | 12.56072 | 81° | 93km/h | 12670m | 5.5m/s | -54.0°C | 6.0% | 185.0hPa | 2.7V | 00:00:00 | 00:00:00 | 00:00:00 | |
| OE5MMP-10 | 2026-08-30 11:25:20 | 49.46652 | 12.55896 | 86° | 93km/h | 12638m | 7.3m/s | 0°C | 0% | 0hPa | 2.7V | 00:00:00 | 01:06:07 | 00:00:00 | |
| OE5WHR-10 | 2026-08-30 11:25:18 | 49.46648 | 12.55828 | 85° | 95km/h | 12627m | 5.9m/s | -54.1°C | 9.9% | 186.2hPa | 2.7V | 00:00:00 | 00:00:00 | 00:00:00 | |
| DO3MHA-11 | 2026-08-30 11:25:17 | 49.46646 | 12.55793 | 85° | 93km/h | 12619m | 9.6m/s | -54.1°C | 10.1% | 186.4hPa | 2.7V | 04:42:00 | 01:06:04 | 00:00:00 | |
| OE5DXL-15 | 2026-08-30 11:25:13 | 49.46639 | 12.55649 | 87° | 100km/h | 12593m | 6.2m/s | -54.2°C | 10.6% | 187.0hPa | 2.7V | 00:00:00 | 00:00:00 | 00:00:00 | |
| DL6DJ-15 | 2026-08-30 11:25:12 | 49.46638 | 12.55613 | 88° | 93km/h | 12588m | 3.9m/s | -54.2°C | 6.8% | 187.3hPa | 2.7V | 00:00:00 | 00:00:00 | 00:00:00 | |
| SONDE2-11 | 2026-08-30 11:25:10 | 49.46637 | 12.55503 | 89° | 93km/h | 12573m | 5.7m/s | -54.3°C | 6.8% | 187.8hPa | 2.7V | 00:00:00 | 00:00:00 | 00:00:00 | |
| OE5MMP-10 | 2026-08-30 11:25:09 | 49.46637 | 12.55503 | 90° | 97km/h | 12573m | 5.6m/s | 0°C | 0% | 0hPa | 2.7V | 04:42:00 | 01:05:56 | 00:00:00 | |
| DO3MHA-11 | 2026-08-30 11:25:07 | 49.46637 | 12.55428 | 92° | 97km/h | 12560m | 3.5m/s | -54.1°C | 10.9% | 188.1hPa | 2.7V | 00:00:00 | 01:05:54 | 00:00:00 | |
| DO9HM | 2026-08-30 11:25:04 | 49.46637 | 12.55314 | 90° | 95km/h | 12544m | 5.2m/s | -54.4°C | 6.6% | 188.7hPa | 2.7V | 00:00:00 | 00:00:00 | 00:00:00 | |
| SONCRA | 2026-08-30 11:25:03 | 49.46637 | 12.55240 | 90° | 95km/h | 12530m | 4.5m/s | -54.5°C | 6.5% | 189.0hPa | 2.7V | 00:00:00 | 00:00:00 | 00:00:00 | |
| EDDB2-12 | 2026-08-30 11:25:01 | 49.46637 | 12.55203 | 89° | 93km/h | 12524m | 7.4m/s | -54.5°C | 6.5% | 189.2hPa | 2.7V | 00:00:00 | 00:00:00 | 00:00:00 | |
| EDDB2-11 | 2026-08-30 11:24:55 | 49.46634 | 12.54939 | 88° | 99km/h | 12486m | 8.0m/s | -54.6°C | 7.2% | 190.3hPa | 2.7V | 00:00:00 | 00:00:00 | 00:00:00 | |
| OE5MMP-10 | 2026-08-30 11:24:49 | 49.46627 | 12.54737 | 87° | 108km/h | 12460m | 7.8m/s | 0°C | 0% | 0hPa | 2.7V | 00:00:00 | 01:05:36 | 00:00:00 | |
| DO3MHA-11 | 2026-08-30 11:24:47 | 49.46624 | 12.54649 | 87° | 110km/h | 12449m | 6.2m/s | -54.7°C | 12.2% | 191.4hPa | 2.7V | 00:00:00 | 01:05:34 | 00:00:00 | |
| OE5DXL-15 | 2026-08-30 11:24:43 | 49.46619 | 12.54474 | 90° | 106km/h | 12429m | 5.4m/s | -54.7°C | 12.2% | 192.1hPa | 2.7V | 00:00:00 | 00:00:00 | 00:00:00 | |
| OE5DRO-10 | 2026-08-30 11:24:42 | 49.46619 | 12.54432 | 90° | 108km/h | 12424m | 3.8m/s | -54.7°C | 12.3% | 192.2hPa | 2.7V | 00:00:00 | 00:00:00 | 00:00:00 | |
| DL6DJ-15 | 2026-08-30 11:24:41 | 49.46619 | 12.54390 | 89° | 106km/h | 12419m | 5.5m/s | -54.7°C | 7.9% | 192.4hPa | 2.7V | 00:00:00 | 00:00:00 | 00:00:00 | |
| SONDE2-11 | 2026-08-30 11:24:39 | 49.46618 | 12.54266 | 87° | 106km/h | 12400m | 8.4m/s | -54.6°C | 8.2% | 192.9hPa | 2.7V | 00:00:00 | 00:00:00 | 00:00:00 | |
| DO3MHA-11 | 2026-08-30 11:24:37 | 49.46616 | 12.54224 | 87° | 108km/h | 12394m | 4.5m/s | -54.5°C | 12.8% | 193.1hPa | 2.7V | 00:00:00 | 01:05:24 | 00:00:00 | |
| OE5WHR-10 | 2026-08-30 11:24:36 | 49.46614 | 12.54183 | 87° | 104km/h | 12388m | 7.0m/s | -54.5°C | 12.9% | 193.2hPa | 2.7V | 00:00:00 | 00:00:00 | 00:00:00 | |
| ANDY1245 | 2026-08-30 11:24:35 | 49.46614 | 12.54183 | 88° | 108km/h | 12388m | 7.0m/s | 0°C | 0% | 0hPa | 2.7V | 00:00:00 | 00:00:00 | 00:00:00 | |
| DO9HM | 2026-08-30 11:24:34 | 49.46610 | 12.54100 | 86° | 108km/h | 12378m | 6.3m/s | -54.6°C | 8.6% | 193.6hPa | 2.7V | 00:00:00 | 00:00:00 | 00:00:00 | |
| DO8TBO-1 | 2026-08-30 11:24:31 | 49.46602 | 12.53974 | 84° | 104km/h | 12362m | 3.6m/s | -54.5°C | 13.5% | 194.0hPa | 2.7V | 00:00:00 | 01:05:18 | 00:00:00 | |
| EDDB2-12 | 2026-08-30 11:24:30 | 49.46599 | 12.53932 | 83° | 108km/h | 12358m | 3.9m/s | -54.5°C | 9.0% | 194.2hPa | 2.7V | 00:00:00 | 00:00:00 | 00:00:00 | |
| PG1ADW-2 | 2026-08-30 11:24:29 | 49.46596 | 12.53890 | 84° | 104km/h | 12353m | 4.8m/s | -54.4°C | 13.5% | 194.3hPa | 2.7V | 04:43:00 | 00:00:00 | 00:00:00 | |
| DO3MHA-11 | 2026-08-30 11:24:27 | 49.46592 | 12.53806 | 87° | 104km/h | 12342m | 2.9m/s | -54.5°C | 13.6% | 194.6hPa | 2.7V | 04:43:00 | 01:05:14 | 00:00:00 | |
| EDDB2-11 | 2026-08-30 11:24:24 | 49.46589 | 12.53644 | 91° | 102km/h | 12321m | 7.8m/s | -54.8°C | 8.9% | 195.3hPa | 2.7V | 00:00:00 | 00:00:00 | 00:00:00 | |
| OE5DRO-10 | 2026-08-30 11:24:23 | 49.46589 | 12.53644 | 92° | 102km/h | 12322m | 7.7m/s | -54.7°C | 13.5% | 195.2hPa | 2.7V | 00:00:00 | 00:00:00 | 00:00:00 | |
| DO3MHA-11 | 2026-08-30 11:24:17 | 49.46584 | 12.53404 | 83° | 102km/h | 12290m | 4.7m/s | -54.5°C | 13.9% | 196.2hPa | 2.7V | 00:00:00 | 01:05:04 | 00:00:00 | |
| OE5DXL-15 | 2026-08-30 11:24:13 | 49.46571 | 12.53245 | 85° | 100km/h | 12269m | 3.6m/s | -54.4°C | 14.7% | 196.9hPa | 2.9V | 00:00:00 | 00:00:00 | 00:00:00 | |
| DO9HM | 2026-08-30 11:24:11 | 49.46567 | 12.53166 | 87° | 100km/h | 12258m | 3.8m/s | -54.4°C | 10.1% | 197.2hPa | 2.9V | 00:00:00 | 00:00:00 | 00:00:00 | |
| DL6DJ-15 | 2026-08-30 11:24:10 | 49.46565 | 12.53127 | 86° | 100km/h | 12253m | 5.9m/s | -54.5°C | 10.0% | 197.3hPa | 2.9V | 00:00:00 | 00:00:00 | 00:00:00 | |
| PG1ADW-2 | 2026-08-30 11:24:09 | 49.46564 | 12.53088 | 87° | 100km/h | 12247m | 7.5m/s | -54.4°C | 15.0% | 197.6hPa | 2.9V | 00:00:00 | 01:04:56 | 00:00:00 | |
| SONDE2-11 | 2026-08-30 11:24:08 | 49.46560 | 12.53009 | 85° | 99km/h | 12235m | 6.7m/s | -54.4°C | 10.3% | 197.9hPa | 2.9V | 00:00:00 | 00:00:00 | 00:00:00 | |
| DO3MHA-11 | 2026-08-30 11:24:07 | 49.46560 | 12.53009 | 86° | 100km/h | 12235m | 6.6m/s | -54.3°C | 15.1% | 197.8hPa | 2.9V | 00:00:00 | 01:04:54 | 00:00:00 | |
| OE5MMP-10 | 2026-08-30 11:24:05 | 49.46556 | 12.52933 | 85° | 100km/h | 12224m | 6.3m/s | 0°C | 0% | 0hPa | 2.9V | 00:00:00 | 01:04:52 | 00:00:00 | |
| OE5DRO-10 | 2026-08-30 11:24:04 | 49.46554 | 12.52894 | 85° | 100km/h | 12219m | 2.9m/s | -54.4°C | 15.0% | 198.3hPa | 2.9V | 00:00:00 | 00:00:00 | 00:00:00 | |
| EDDB2-12 | 2026-08-30 11:23:59 | 49.46546 | 12.52698 | 86° | 102km/h | 12192m | 2.7m/s | -54.4°C | 11.2% | 199.2hPa | 2.7V | 00:00:00 | 00:00:00 | 00:00:00 | |
| DO3MHA-11 | 2026-08-30 11:23:57 | 49.46542 | 12.52619 | 85° | 100km/h | 12183m | 3.5m/s | -54.3°C | 16.7% | 199.4hPa | 2.7V | 00:00:00 | 01:04:44 | 00:00:00 | |
| OE5WHR-10 | 2026-08-30 11:23:55 | 49.46536 | 12.52543 | 83° | 97km/h | 12173m | 7.2m/s | -54.3°C | 16.9% | 199.7hPa | 2.7V | 00:00:00 | 00:00:00 | 00:00:00 | |
| OE5MMP-10 | 2026-08-30 11:23:52 | 49.46526 | 12.52428 | 82° | 97km/h | 12159m | 3.2m/s | 0°C | 0% | 0hPa | 2.7V | 00:00:00 | 01:04:39 | 00:00:00 | |
| PG1ADW-2 | 2026-08-30 11:23:49 | 49.46514 | 12.52312 | 83° | 95km/h | 12143m | 3.1m/s | -54.6°C | 18.2% | 200.7hPa | 2.7V | 00:00:00 | 00:00:00 | 00:00:00 | |
| DO3MHA-11 | 2026-08-30 11:23:47 | 49.46508 | 12.52235 | 84° | 95km/h | 12134m | 3.1m/s | -54.6°C | 18.5% | 201.0hPa | 2.7V | 00:00:00 | 01:04:34 | 00:00:00 | |
| OE5DRO-10 | 2026-08-30 11:23:45 | 49.46503 | 12.52160 | 84° | 93km/h | 12124m | 5.9m/s | -54.7°C | 19.0% | 201.4hPa | 2.7V | 04:43:00 | 00:00:00 | 00:00:00 | |
| OE5DXL-15 | 2026-08-30 11:23:43 | 49.46498 | 12.52086 | 87° | 91km/h | 12113m | 5.8m/s | -54.8°C | 19.7% | 201.7hPa | 2.7V | 04:43:00 | 00:00:00 | 00:00:00 | |
| DL6DJ-15 | 2026-08-30 11:23:39 | 49.46490 | 12.51939 | 81° | 89km/h | 12095m | 4.6m/s | -54.9°C | 15.1% | 202.2hPa | 2.7V | 00:00:00 | 00:00:00 | 00:00:00 | |
| DO3MHA-11 | 2026-08-30 11:23:37 | 49.46482 | 12.51871 | 79° | 93km/h | 12086m | 2.7m/s | -54.8°C | 21.2% | 202.5hPa | 2.7V | 04:43:00 | 01:04:24 | 00:00:00 | |
| SONDE2-11 | 2026-08-30 11:23:36 | 49.46477 | 12.51836 | 78° | 89km/h | 12082m | 5.6m/s | -54.9°C | 15.5% | 202.7hPa | 2.7V | 00:00:00 | 00:00:00 | 00:00:00 | |
| OE5WHR-10 | 2026-08-30 11:23:33 | 49.46468 | 12.51727 | 87° | 91km/h | 12069m | 2.4m/s | -54.8°C | 22.1% | 203.1hPa | 2.7V | 00:00:00 | 01:04:20 | 00:00:00 | |
| DO8TBO-1 | 2026-08-30 11:23:31 | 49.46466 | 12.51653 | 88° | 91km/h | 12060m | 5.8m/s | -54.9°C | 22.4% | 203.4hPa | 2.7V | 00:00:00 | 01:04:18 | 00:00:00 | |
| SONCRA | 2026-08-30 11:23:30 | 49.46464 | 12.51582 | 86° | 89km/h | 12048m | 7.6m/s | -55.0°C | 16.4% | 203.8hPa | 2.7V | 00:00:00 | 00:00:00 | 00:00:00 | |
| PG1ADW-2 | 2026-08-30 11:23:29 | 49.46464 | 12.51582 | 87° | 91km/h | 12049m | 7.6m/s | -55.0°C | 22.6% | 203.7hPa | 2.7V | 00:00:00 | 00:00:00 | 00:00:00 | |
| OE5MMP-10 | 2026-08-30 11:23:28 | 49.46462 | 12.51547 | 87° | 89km/h | 12043m | 3.2m/s | 0°C | 0% | 0hPa | 2.9V | 00:00:00 | 01:04:15 | 00:00:00 | |
| DO3MHA-11 | 2026-08-30 11:23:27 | 49.46461 | 12.51513 | 88° | 89km/h | 12038m | 5.8m/s | -54.9°C | 23.0% | 204.1hPa | 2.9V | 00:00:00 | 01:04:14 | 00:00:00 | |
| OE5DRO-10 | 2026-08-30 11:23:26 | 49.46460 | 12.51479 | 90° | 91km/h | 12034m | 3.0m/s | -54.9°C | 23.3% | 204.2hPa | 2.9V | 00:00:00 | 00:00:00 | 00:00:00 | |
| EDDB2-11 | 2026-08-30 11:23:21 | 49.46461 | 12.51309 | 90° | 89km/h | 12010m | 6.3m/s | -55.0°C | 17.7% | 205.1hPa | 2.9V | 00:00:00 | 00:00:00 | 00:00:00 | |
| DO3MHA-11 | 2026-08-30 11:23:17 | 49.46465 | 12.51167 | 94° | 93km/h | 11993m | 5.2m/s | -54.9°C | 25.0% | 205.7hPa | 2.9V | 00:00:00 | 01:04:04 | 00:00:00 | |
| OE5MMP-10 | 2026-08-30 11:23:15 | 49.46469 | 12.51094 | 96° | 95km/h | 11983m | 7.1m/s | 0°C | 0% | 0hPa | 2.9V | 00:00:00 | 01:04:02 | 00:00:00 | |
| OE5WHR-10 | 2026-08-30 11:23:12 | 49.46474 | 12.50985 | 95° | 93km/h | 11966m | 4.2m/s | -54.9°C | 26.8% | 206.5hPa | 2.9V | 00:00:00 | 00:00:00 | 00:00:00 | |
| PG1ADW-2 | 2026-08-30 11:23:09 | 49.46481 | 12.50880 | 98° | 93km/h | 11954m | 4.2m/s | -54.9°C | 27.3% | 206.9hPa | 2.7V | 00:00:00 | 00:00:00 | 00:00:00 | |
| DL6DJ-15 | 2026-08-30 11:23:08 | 49.46484 | 12.50844 | 99° | 91km/h | 11949m | 6.1m/s | -55.0°C | 20.5% | 207.1hPa | 2.7V | 00:00:00 | 00:00:00 | 00:00:00 | |
| DO3MHA-11 | 2026-08-30 11:23:07 | 49.46488 | 12.50808 | 100° | 93km/h | 11945m | 3.1m/s | -54.9°C | 27.7% | 207.2hPa | 2.7V | 00:00:00 | 01:03:54 | 00:00:00 | |
| ANDY1245 | 2026-08-30 11:23:06 | 49.46488 | 12.50808 | 100° | 93km/h | 11945m | 3.1m/s | 0°C | 0% | 0hPa | 2.7V | 00:00:00 | 00:00:00 | 00:00:00 | |
| SONDE2-11 | 2026-08-30 11:23:05 | 49.46495 | 12.50736 | 95° | 93km/h | 11934m | 4.4m/s | -54.9°C | 20.5% | 207.6hPa | 2.7V | 00:00:00 | 00:00:00 | 00:00:00 | |
| SONCRA | 2026-08-30 11:22:59 | 49.46503 | 12.50482 | 97° | 89km/h | 11906m | 4.3m/s | -55.1°C | 21.8% | 208.5hPa | 2.7V | 00:00:00 | 00:00:00 | 00:00:00 | |
| EDDB2-12 | 2026-08-30 11:22:57 | 49.46506 | 12.50448 | 99° | 88km/h | 11902m | 5.5m/s | -55.1°C | 21.8% | 208.7hPa | 2.7V | 00:00:00 | 00:00:00 | 00:00:00 | |
| EDDB2-11 | 2026-08-30 11:22:51 | 49.46548 | 12.50204 | 105° | 97km/h | 11864m | 3.4m/s | -54.9°C | 23.1% | 209.9hPa | 2.7V | 00:00:00 | 00:00:00 | 00:00:00 | |
| PG1ADW-2 | 2026-08-30 11:22:49 | 49.46555 | 12.50167 | 107° | 108km/h | 11859m | 6.3m/s | -54.9°C | 30.8% | 210.0hPa | 2.7V | 04:44:00 | 01:03:36 | 00:00:00 | |
| OE5MMP-10 | 2026-08-30 11:22:48 | 49.46562 | 12.50129 | 106° | 106km/h | 11855m | 3.5m/s | 0°C | 0% | 0hPa | 2.7V | 00:00:00 | 01:03:35 | 00:00:00 | |
| DO3MHA-11 | 2026-08-30 11:22:47 | 49.46568 | 12.50091 | 104° | 106km/h | 11851m | 4.8m/s | -55.0°C | 31.1% | 210.3hPa | 2.7V | 04:44:00 | 01:03:34 | 00:00:00 | |
| OE5DXL-15 | 2026-08-30 11:22:43 | 49.46586 | 12.49929 | 97° | 111km/h | 11834m | 2.9m/s | -55.1°C | 32.4% | 210.9hPa | 2.7V | 00:00:00 | 00:00:00 | 00:00:00 | |
| OE5MMP-10 | 2026-08-30 11:22:38 | 49.46607 | 12.49725 | 103° | 111km/h | 11817m | 3.7m/s | 0°C | 0% | 0hPa | 2.7V | 04:44:00 | 01:03:25 | 00:00:00 | |
| DO3MHA-11 | 2026-08-30 11:22:37 | 49.46613 | 12.49684 | 104° | 111km/h | 11813m | 4.1m/s | -55.0°C | 33.9% | 211.6hPa | 2.7V | 00:00:00 | 01:03:24 | 00:00:00 | |
| SONDE2-11 | 2026-08-30 11:22:34 | 49.46633 | 12.49558 | 103° | 111km/h | 11803m | 4.5m/s | -55.0°C | 26.4% | 211.9hPa | 2.7V | 00:00:00 | 00:00:00 | 00:00:00 | |
| DO8TBO-1 | 2026-08-30 11:22:31 | 49.46653 | 12.49430 | 102° | 115km/h | 11791m | 3.5m/s | -54.9°C | 35.4% | 212.3hPa | 2.7V | 04:44:00 | 01:03:18 | 00:00:00 | |
| OE5WHR-10 | 2026-08-30 11:22:29 | 49.46664 | 12.49345 | 102° | 113km/h | 11786m | 3.7m/s | -55.0°C | 35.3% | 212.5hPa | 2.7V | 00:00:00 | 01:03:16 | 00:00:00 | |
| DO3MHA-11 | 2026-08-30 11:22:27 | 49.46676 | 12.49262 | 104° | 113km/h | 11778m | 3.3m/s | -54.9°C | 36.0% | 212.8hPa | 2.7V | 00:00:00 | 01:03:14 | 00:00:00 | |
| EDDB2-12 | 2026-08-30 11:22:26 | 49.46683 | 12.49220 | 104° | 111km/h | 11774m | 3.7m/s | -55.1°C | 28.0% | 212.9hPa | 2.7V | 00:00:00 | 00:00:00 | 00:00:00 | |
| EDDB2-11 | 2026-08-30 11:22:19 | 49.46727 | 12.48916 | 101° | 111km/h | 11749m | 3.1m/s | -55.2°C | 31.1% | 213.8hPa | 2.7V | 00:00:00 | 00:00:00 | 00:00:00 | |
| DO3MHA-11 | 2026-08-30 11:22:17 | 49.46739 | 12.48830 | 103° | 117km/h | 11743m | 2.5m/s | -55.1°C | 40.5% | 213.9hPa | 2.7V | 00:00:00 | 01:03:04 | 00:00:00 | |
| DO9HM | 2026-08-30 11:22:14 | 49.46753 | 12.48746 | 106° | 111km/h | 11736m | 3.5m/s | -55.1°C | 32.1% | 214.2hPa | 2.9V | 00:00:00 | 00:00:00 | 00:00:00 | |
| OE5DXL-15 | 2026-08-30 11:22:13 | 49.46767 | 12.48660 | 104° | 124km/h | 11729m | 3.5m/s | -55.2°C | 42.6% | 214.4hPa | 2.9V | 00:00:00 | 00:00:00 | 00:00:00 | |
| OE5MMP-10 | 2026-08-30 11:22:12 | 49.46773 | 12.48616 | 102° | 119km/h | 11726m | 2.7m/s | 0°C | 0% | 0hPa | 2.9V | 00:00:00 | 01:02:59 | 00:00:00 | |
| OE5DRO-10 | 2026-08-30 11:22:10 | 49.46784 | 12.48525 | 100° | 122km/h | 11720m | 3.4m/s | -55.4°C | 43.7% | 214.7hPa | 2.9V | 04:45:00 | 00:00:00 | 00:00:00 | |
| PG1ADW-2 | 2026-08-30 11:22:09 | 49.46789 | 12.48479 | 100° | 122km/h | 11717m | 3.1m/s | -55.4°C | 44.1% | 214.9hPa | 2.9V | 00:00:00 | 00:00:00 | 00:00:00 | |
| DO3MHA-11 | 2026-08-30 11:22:07 | 49.46800 | 12.48387 | 102° | 120km/h | 11708m | 2.8m/s | -55.4°C | 45.1% | 215.1hPa | 2.9V | 00:00:00 | 01:02:54 | 00:00:00 | |
| DL6DJ-15 | 2026-08-30 11:22:06 | 49.46806 | 12.48342 | 100° | 117km/h | 11705m | 3.5m/s | -55.4°C | 35.8% | 215.3hPa | 2.9V | 00:00:00 | 00:00:00 | 00:00:00 | |
| SONDE2-11 | 2026-08-30 11:22:03 | 49.46821 | 12.48205 | 98° | 117km/h | 11694m | 4.2m/s | -55.5°C | 37.1% | 215.7hPa | 2.9V | 00:00:00 | 00:00:00 | 00:00:00 | |
| SONCRA | 2026-08-30 11:21:57 | 49.46857 | 12.47877 | 94° | 122km/h | 11662m | 3.6m/s | -55.6°C | 42.3% | 216.8hPa | 2.9V | 00:00:00 | 00:00:00 | 00:00:00 | |
| EDDB2-12 | 2026-08-30 11:21:55 | 49.46860 | 12.47829 | 94° | 124km/h | 11659m | 2.1m/s | -55.6°C | 42.8% | -1.0hPa | 2.9V | 00:00:00 | 00:00:00 | 00:00:00 | |
| EDDB2-11 | 2026-08-30 11:21:48 | 49.46893 | 12.47493 | 99° | 130km/h | 11627m | 6.4m/s | -55.7°C | 47.9% | 217.9hPa | 2.9V | 00:00:00 | 00:00:00 | 00:00:00 | |
| DO3MHA-11 | 2026-08-30 11:21:47 | 49.46897 | 12.47443 | 99° | 131km/h | 11623m | 2.4m/s | -55.6°C | 60.3% | 218.0hPa | 2.9V | 00:00:00 | 01:02:34 | 00:00:00 | |
| OE5WHR-10 | 2026-08-30 11:21:45 | 49.46907 | 12.47340 | 99° | 124km/h | 11613m | 3.2m/s | -55.7°C | 61.7% | 218.4hPa | 2.9V | 00:00:00 | 00:00:00 | 00:00:00 | |
| OE5MMP-10 | 2026-08-30 11:21:38 | 49.46944 | 12.46986 | 100° | 122km/h | 11579m | 7.8m/s | 0°C | 0% | 0hPa | 2.9V | 04:45:00 | 01:02:25 | 00:00:00 | |
| DO3MHA-11 | 2026-08-30 11:21:37 | 49.46949 | 12.46938 | 99° | 126km/h | 11574m | 3.4m/s | -55.8°C | 66.5% | 219.8hPa | 2.9V | 00:00:00 | 01:02:24 | 00:00:00 | |
| DL6DJ-15 | 2026-08-30 11:21:35 | 49.46960 | 12.46798 | 95° | 120km/h | 11559m | 5.9m/s | -55.9°C | 56.8% | 220.3hPa | 2.9V | 00:00:00 | 00:00:00 | 00:00:00 | |
| OE5DRO-10 | 2026-08-30 11:21:32 | 49.46966 | 12.46701 | 95° | 126km/h | 11551m | 2.8m/s | -55.8°C | 70.1% | 220.5hPa | 2.9V | 00:00:00 | 00:00:00 | 00:00:00 | |
| DO8TBO-1 | 2026-08-30 11:21:31 | 49.46969 | 12.46652 | 97° | 119km/h | 11548m | 5.2m/s | -55.8°C | 69.3% | 220.6hPa | 2.9V | 00:00:00 | 01:02:18 | 00:00:00 | |
| PG1ADW-2 | 2026-08-30 11:21:29 | 49.46979 | 12.46552 | 101° | 124km/h | 11537m | 7.0m/s | 0°C | 0% | 0hPa | 2.9V | 00:00:00 | 01:02:16 | 00:00:00 | |
| DO3MHA-11 | 2026-08-30 11:21:27 | 49.46992 | 12.46452 | 102° | 126km/h | 11528m | 6.0m/s | -55.7°C | 69.9% | 221.3hPa | 2.9V | 00:00:00 | 01:02:14 | 00:00:00 | |
| NBG1-10 | 2026-08-30 11:21:24 | 49.47007 | 12.46300 | 95° | 119km/h | 11513m | 6.5m/s | -55.6°C | 68.0% | 221.8hPa | 2.9V | 00:00:00 | 01:02:11 | 00:00:00 | |
| DO3MHA-11 | 2026-08-30 11:21:17 | 49.47018 | 12.45968 | 99° | 117km/h | 11470m | 4.9m/s | -55.3°C | 68.9% | 223.3hPa | 2.9V | 00:00:00 | 01:02:04 | 00:00:00 | |
| OE5DXL-15 | 2026-08-30 11:21:13 | 49.47037 | 12.45786 | 98° | 115km/h | 11449m | 3.9m/s | -55.1°C | 70.3% | 224.1hPa | 2.9V | 04:46:00 | 00:00:00 | 00:00:00 | |
| DO3MHA-11 | 2026-08-30 11:21:07 | 49.47048 | 12.45516 | 91° | 117km/h | 11417m | 4.9m/s | -54.9°C | 67.1% | 225.2hPa | 2.9V | 04:46:00 | 01:01:54 | 00:00:00 | |
| DL6DJ-15 | 2026-08-30 11:21:04 | 49.47054 | 12.45337 | 95° | 119km/h | 11393m | 7.2m/s | -54.8°C | 53.3% | 226.1hPa | 2.9V | 00:00:00 | 00:00:00 | 00:00:00 | |
| SONDE2-11 | 2026-08-30 11:21:01 | 49.47060 | 12.45245 | 95° | 117km/h | 11381m | 5.3m/s | -54.6°C | 53.6% | 226.6hPa | 2.9V | 00:00:00 | 00:00:00 | 00:00:00 | |
| SONCRA | 2026-08-30 11:20:54 | 49.47089 | 12.44706 | 92° | 117km/h | 11315m | 8.0m/s | -54.2°C | 52.4% | 228.8hPa | 2.9V | 00:00:00 | 00:00:00 | 00:00:00 | |
| EDDB2-11 | 2026-08-30 11:20:46 | 49.47093 | 12.44571 | 92° | 111km/h | 11297m | 4.4m/s | -54.0°C | 51.6% | 229.4hPa | 2.9V | 00:00:00 | 00:00:00 | 00:00:00 | |
| OE5DXL-15 | 2026-08-30 11:20:43 | 49.47097 | 12.44442 | 93° | 104km/h | 11279m | 8.0m/s | -53.9°C | 64.0% | 230.0hPa | 2.9V | 00:00:00 | 00:00:00 | 00:00:00 | |
| OE5MMP-10 | 2026-08-30 11:20:40 | 49.47102 | 12.44317 | 96° | 108km/h | 11262m | 4.5m/s | 0°C | 0% | 0hPa | 2.9V | 00:00:00 | 01:01:27 | 00:00:00 | |
| DO3MHA-11 | 2026-08-30 11:20:37 | 49.47110 | 12.44189 | 95° | 104km/h | 11247m | 4.3m/s | -53.7°C | 61.0% | 231.2hPa | 2.9V | 00:00:00 | 01:01:24 | 00:00:00 | |
| DO9HM | 2026-08-30 11:20:36 | 49.47110 | 12.44189 | 95° | 111km/h | 11247m | 4.3m/s | -53.7°C | 49.8% | 231.2hPa | 2.9V | 04:47:00 | 00:00:00 | 00:00:00 | |
| OE5DRO-10 | 2026-08-30 11:20:35 | 49.47113 | 12.44103 | 92° | 104km/h | 11234m | 5.1m/s | -53.5°C | 61.0% | 231.6hPa | 2.9V | 04:46:00 | 00:00:00 | 00:00:00 | |
| DL6DJ-15 | 2026-08-30 11:20:33 | 49.47115 | 12.43980 | 91° | 102km/h | 11215m | 7.4m/s | -53.5°C | 49.9% | 232.3hPa | 2.9V | 00:00:00 | 00:00:00 | 00:00:00 | |
| SONDE2-11 | 2026-08-30 11:20:30 | 49.47118 | 12.43902 | 94° | 97km/h | 11204m | 6.1m/s | -53.4°C | 50.4% | 232.7hPa | 2.9V | 00:00:00 | 00:00:00 | 00:00:00 | |
| DO8TBO-1 | 2026-08-30 11:20:29 | 49.47120 | 12.43864 | 97° | 102km/h | 11199m | 4.5m/s | -53.3°C | 61.7% | 232.9hPa | 2.9V | 00:00:00 | 01:01:16 | 00:00:00 | |
| OE5WHR-10 | 2026-08-30 11:20:28 | 49.47123 | 12.43826 | 96° | 102km/h | 11195m | 4.3m/s | -53.2°C | 62.0% | 233.0hPa | 2.9V | 04:47:00 | 00:00:00 | 00:00:00 | |
| DO3MHA-11 | 2026-08-30 11:20:27 | 49.47125 | 12.43786 | 96° | 102km/h | 11189m | 7.1m/s | -53.2°C | 62.3% | 233.2hPa | 2.9V | 00:00:00 | 01:01:14 | 00:00:00 | |
| OE5MMP-10 | 2026-08-30 11:20:26 | 49.47127 | 12.43747 | 94° | 104km/h | 11184m | 3.4m/s | 0°C | 0% | 0hPa | 2.9V | 04:47:00 | 01:01:13 | 00:00:00 | |
| SONCRA | 2026-08-30 11:20:23 | 49.47132 | 12.43623 | 93° | 104km/h | 11170m | 5.7m/s | -53.1°C | 49.0% | 234.0hPa | 2.9V | 00:00:00 | 00:00:00 | 00:00:00 | |
| DO3MHA-11 | 2026-08-30 11:20:17 | 49.47143 | 12.43390 | 97° | 102km/h | 11136m | 6.1m/s | -52.8°C | 58.7% | 235.1hPa | 2.9V | 04:47:00 | 01:01:04 | 00:00:00 | |
| OE5DRO-10 | 2026-08-30 11:20:16 | 49.47146 | 12.43350 | 98° | 104km/h | 11131m | 4.2m/s | -52.7°C | 58.5% | 235.3hPa | 2.9V | 00:00:00 | 00:00:00 | 00:00:00 | |
| DO9HM | 2026-08-30 11:20:15 | 49.47150 | 12.43310 | 100° | 102km/h | 11125m | 7.5m/s | -52.7°C | 47.7% | 235.6hPa | 2.9V | 04:47:00 | 00:00:00 | 00:00:00 | |
| OE5DXL-15 | 2026-08-30 11:20:13 | 49.47157 | 12.43232 | 97° | 104km/h | 11113m | 5.9m/s | -52.6°C | 58.5% | 236.0hPa | 2.9V | 00:00:00 | 00:00:00 | 00:00:00 | |
| NBG1-10 | 2026-08-30 11:20:11 | 49.47162 | 12.43154 | 94° | 104km/h | 11104m | 3.8m/s | -52.5°C | 56.8% | 236.3hPa | 2.9V | 00:00:00 | 01:00:58 | 00:00:00 | |
| DO3MHA-11 | 2026-08-30 11:20:07 | 49.47165 | 12.42994 | 93° | 106km/h | 11082m | 3.9m/s | -52.3°C | 52.8% | 237.2hPa | 2.9V | 00:00:00 | 01:00:54 | 00:00:00 | |
| OE3JTB-15 | 2026-08-30 11:20:05 | 49.47168 | 12.42913 | 93° | 106km/h | 11071m | 4.8m/s | 0°C | 0% | 0hPa | 2.9V | 00:00:00 | 00:00:00 | 00:00:00 | |
| DL6DJ-15 | 2026-08-30 11:20:02 | 49.47174 | 12.42749 | 95° | 106km/h | 11047m | 3.8m/s | -52.0°C | 42.1% | 238.5hPa | 2.9V | 00:00:00 | 00:00:00 | 00:00:00 | |
| SONDE2-11 | 2026-08-30 11:19:59 | 49.47180 | 12.42666 | 96° | 106km/h | 11037m | 4.6m/s | -52.0°C | 41.2% | 238.8hPa | 2.9V | 00:00:00 | 00:00:00 | 00:00:00 | |
| SONCRA | 2026-08-30 11:19:52 | 49.47206 | 12.42213 | 93° | 102km/h | 10986m | 5.8m/s | -51.5°C | 38.5% | 240.8hPa | 2.9V | 00:00:00 | 00:00:00 | 00:00:00 | |
| DO3MHA-11 | 2026-08-30 11:19:47 | 49.47207 | 12.42173 | 94° | 102km/h | 10981m | 4.7m/s | -51.4°C | 47.1% | 240.9hPa | 2.9V | 00:00:00 | 01:00:34 | 00:00:00 | |
| OE5WHR-10 | 2026-08-30 11:19:46 | 49.47208 | 12.42134 | 93° | 104km/h | 10976m | 5.3m/s | -51.4°C | 46.6% | 241.1hPa | 2.9V | 00:00:00 | 01:00:33 | 00:00:00 | |
| PG1ADW-2 | 2026-08-30 11:19:45 | 49.47210 | 12.42097 | 96° | 100km/h | 10970m | 6.3m/s | 0°C | 0% | 0hPa | 2.9V | 00:00:00 | 00:00:00 | 00:00:00 | |
| EDDB2-11 | 2026-08-30 11:19:44 | 49.47213 | 12.42060 | 97° | 95km/h | 10963m | 5.8m/s | -51.3°C | 38.3% | 241.6hPa | 2.9V | 00:00:00 | 00:00:00 | 00:00:00 | |
| OE5DXL-15 | 2026-08-30 11:19:43 | 49.47216 | 12.42023 | 98° | 100km/h | 10959m | 4.0m/s | -51.2°C | 47.0% | 241.7hPa | 2.9V | 00:00:00 | 00:00:00 | 00:00:00 | |
| OE5DRO-10 | 2026-08-30 11:19:38 | 49.47230 | 12.41820 | 97° | 102km/h | 10933m | 5.8m/s | -51.0°C | 45.7% | 242.6hPa | 2.9V | 00:00:00 | 00:00:00 | 00:00:00 | |
| DO3MHA-11 | 2026-08-30 11:19:37 | 49.47234 | 12.41777 | 98° | 102km/h | 10928m | 3.8m/s | -50.9°C | 45.8% | 242.9hPa | 2.9V | 00:00:00 | 01:00:24 | 00:00:00 | |
| NBG1-10 | 2026-08-30 11:19:35 | 49.47241 | 12.41693 | 98° | 99km/h | 10918m | 3.7m/s | -50.8°C | 45.3% | 243.2hPa | 2.9V | 04:47:00 | 01:00:22 | 00:00:00 | |
| DO9HM | 2026-08-30 11:19:34 | 49.47244 | 12.41653 | 98° | 100km/h | 10913m | 5.5m/s | -50.8°C | 36.2% | 243.4hPa | 2.9V | 04:47:00 | 00:00:00 | 00:00:00 | |
| DL6DJ-15 | 2026-08-30 11:19:30 | 49.47250 | 12.41499 | 89° | 100km/h | 10886m | 7.3m/s | -50.6°C | 35.2% | 244.5hPa | 2.9V | 00:00:00 | 00:00:00 | 00:00:00 | |
| OE3JTB-15 | 2026-08-30 11:19:29 | 49.47249 | 12.41459 | 89° | 97km/h | 10880m | 4.6m/s | 0°C | 0% | 0hPa | 2.9V | 00:00:00 | 00:00:00 | 00:00:00 | |
| SONDE2-11 | 2026-08-30 11:19:28 | 49.47248 | 12.41420 | 88° | 100km/h | 10874m | 5.9m/s | -50.4°C | 35.3% | 244.9hPa | 2.9V | 00:00:00 | 00:00:00 | 00:00:00 | |
| DO3MHA-11 | 2026-08-30 11:19:27 | 49.47248 | 12.41381 | 91° | 99km/h | 10869m | 4.7m/s | -50.4°C | 43.9% | 245.0hPa | 2.9V | 04:48:00 | 01:00:14 | 00:00:00 | |
| ANDY1245 | 2026-08-30 11:19:26 | 49.47248 | 12.41381 | 91° | 100km/h | 10869m | 4.8m/s | 0°C | 0% | 0hPa | 2.9V | 00:00:00 | 00:00:00 | 00:00:00 | |
| OE5WHR-10 | 2026-08-30 11:19:25 | 49.47251 | 12.41303 | 96° | 99km/h | 10860m | 4.7m/s | -50.3°C | 43.3% | 245.4hPa | 2.9V | 00:00:00 | 00:00:00 | 00:00:00 | |
| PG1ADW-2 | 2026-08-30 11:19:21 | 49.47261 | 12.41151 | 94° | 95km/h | 10835m | 4.9m/s | 0°C | 0% | 0hPa | 2.9V | 00:00:00 | 01:00:08 | 00:00:00 | |
| OE5DRO-10 | 2026-08-30 11:19:19 | 49.47264 | 12.41075 | 94° | 97km/h | 10824m | 4.7m/s | -49.9°C | 45.0% | 246.8hPa | 2.9V | 00:00:00 | 00:00:00 | 00:00:00 | |
| DO3MHA-11 | 2026-08-30 11:19:17 | 49.47266 | 12.40997 | 93° | 95km/h | 10815m | 3.5m/s | -49.9°C | 44.6% | 247.1hPa | 2.7V | 00:00:00 | 01:00:04 | 00:00:00 | |
| OE5DXL-15 | 2026-08-30 11:19:13 | 49.47272 | 12.40851 | 96° | 97km/h | 10791m | 6.4m/s | -49.7°C | 45.6% | 248.0hPa | 2.7V | 00:00:00 | 00:00:00 | 00:00:00 | |
| DO9HM | 2026-08-30 11:19:10 | 49.47278 | 12.40781 | 99° | 93km/h | 10779m | 5.8m/s | -49.6°C | 38.5% | 248.5hPa | 2.7V | 00:00:00 | 00:00:00 | 00:00:00 | |
| DO3MHA-11 | 2026-08-30 11:19:07 | 49.47293 | 12.40631 | 97° | 99km/h | 10759m | 4.2m/s | -49.4°C | 49.5% | 249.4hPa | 2.7V | 00:00:00 | 00:59:54 | 00:00:00 | |
| OE5WHR-10 | 2026-08-30 11:19:04 | 49.47300 | 12.40512 | 92° | 97km/h | 10741m | 7.6m/s | 0°C | 0% | 0hPa | 2.7V | 00:00:00 | 00:00:00 | 00:00:00 | |
| DL6DJ-15 | 2026-08-30 11:18:59 | 49.47297 | 12.40321 | 89° | 95km/h | 10710m | 6.3m/s | -49.3°C | 45.0% | 251.1hPa | 2.7V | 00:00:00 | 00:00:00 | 00:00:00 | |
| SONDE2-11 | 2026-08-30 11:18:57 | 49.47298 | 12.40247 | 93° | 95km/h | 10699m | 5.9m/s | -49.3°C | 45.3% | 251.6hPa | 2.7V | 00:00:00 | 00:00:00 | 00:00:00 | |
| SONCRA | 2026-08-30 11:18:50 | 49.47313 | 12.39989 | 90° | 97km/h | 10661m | 6.0m/s | -49.0°C | 50.7% | 253.1hPa | 2.7V | 00:00:00 | 00:00:00 | 00:00:00 | |
| DO9HM | 2026-08-30 11:18:48 | 49.47312 | 12.39951 | 90° | 97km/h | 10656m | 4.2m/s | -49.0°C | 50.5% | 253.3hPa | 2.7V | 00:00:00 | 00:00:00 | 00:00:00 | |
| DO3MHA-11 | 2026-08-30 11:18:47 | 49.47311 | 12.39878 | 89° | 100km/h | 10645m | 5.8m/s | -48.8°C | 60.5% | 253.7hPa | 2.7V | 00:00:00 | 00:59:34 | 00:00:00 | |
| PG1ADW-2 | 2026-08-30 11:18:45 | 49.47310 | 12.39806 | 90° | 100km/h | 10634m | 5.2m/s | 0°C | 0% | 0hPa | 2.7V | 00:00:00 | 00:00:00 | 00:00:00 | |
| OE5WHR-10 | 2026-08-30 11:18:43 | 49.47310 | 12.39732 | 90° | 100km/h | 10624m | 5.4m/s | 0°C | 0% | 0hPa | 2.7V | 04:48:00 | 00:59:30 | 00:00:00 | |
| EDDB2-11 | 2026-08-30 11:18:42 | 49.47309 | 12.39693 | 89° | 100km/h | 10619m | 5.6m/s | -48.6°C | 51.8% | 254.8hPa | 2.7V | 00:00:00 | 00:00:00 | 00:00:00 | |
| DO3MHA-11 | 2026-08-30 11:18:37 | 49.47308 | 12.39487 | 91° | 99km/h | 10590m | 7.0m/s | -48.4°C | 65.0% | 256.0hPa | 2.7V | 04:48:00 | 00:59:24 | 00:00:00 | |
| NBG1-10 | 2026-08-30 11:18:29 | 49.47324 | 12.39180 | 95° | 75km/h | 10548m | 5.4m/s | -48.1°C | 66.9% | 257.6hPa | 2.7V | 00:00:00 | 00:59:16 | 00:00:00 | |
| DO8TBO-1 | 2026-08-30 11:18:28 | 49.47325 | 12.39142 | 93° | 99km/h | 10541m | 8.9m/s | -48.1°C | 67.3% | 257.8hPa | 2.7V | 00:00:00 | 00:59:15 | 00:00:00 | |
| SONDE2-11 | 2026-08-30 11:18:26 | 49.47325 | 12.39067 | 88° | 97km/h | 10527m | 7.6m/s | -48.0°C | 57.0% | 258.3hPa | 2.7V | 00:00:00 | 00:00:00 | 00:00:00 | |
| PG1ADW-2 | 2026-08-30 11:18:24 | 49.47323 | 12.38990 | 87° | 104km/h | 10514m | 8.9m/s | 0°C | 0% | 0hPa | 2.7V | 00:00:00 | 00:00:00 | 00:00:00 | |
| OE5DRO-10 | 2026-08-30 11:18:22 | 49.47321 | 12.38912 | 89° | 102km/h | 10501m | 6.8m/s | -47.7°C | 68.3% | 259.3hPa | 2.7V | 00:00:00 | 00:00:00 | 00:00:00 | |
| DO3MHA-11 | 2026-08-30 11:18:17 | 49.47319 | 12.38703 | 88° | 100km/h | 10474m | 5.9m/s | -47.5°C | 66.8% | 260.3hPa | 2.9V | 00:00:00 | 00:59:04 | 00:00:00 | |
| OE5DXL-15 | 2026-08-30 11:18:13 | 49.47313 | 12.38546 | 87° | 97km/h | 10450m | 5.7m/s | -47.2°C | 64.5% | 261.3hPa | 2.9V | 00:00:00 | 00:00:00 | 00:00:00 | |
| OE5WHR-10 | 2026-08-30 11:18:12 | 49.47312 | 12.38508 | 90° | 99km/h | 10445m | 6.3m/s | 0°C | 0% | 0hPa | 2.9V | 00:00:00 | 00:00:00 | 00:00:00 | |
| EDDB2-11 | 2026-08-30 11:18:11 | 49.47312 | 12.38470 | 90° | 97km/h | 10438m | 7.3m/s | -47.2°C | -1.0% | -1.0hPa | 2.9V | 00:00:00 | 00:00:00 | 00:00:00 | |
| DO9HM | 2026-08-30 11:18:08 | 49.47316 | 12.38355 | 97° | 100km/h | 10417m | 5.7m/s | -47.0°C | 53.4% | 262.7hPa | 2.9V | 00:00:00 | 00:00:00 | 00:00:00 | |
| DO3MHA-11 | 2026-08-30 11:18:07 | 49.47318 | 12.38317 | 95° | 93km/h | 10412m | 5.4m/s | -46.9°C | 63.3% | 262.9hPa | 2.9V | 00:00:00 | 00:58:54 | 00:00:00 | |
| OE5DRO-10 | 2026-08-30 11:18:03 | 49.47324 | 12.38163 | 89° | 97km/h | 10390m | 5.1m/s | -46.7°C | 62.7% | 263.7hPa | 2.9V | 00:00:00 | 00:00:00 | 00:00:00 | |
| DL6DJ-15 | 2026-08-30 11:17:57 | 49.47319 | 12.37958 | 90° | 93km/h | 10358m | 4.2m/s | -46.4°C | 50.8% | 265.1hPa | 2.9V | 00:00:00 | 00:00:00 | 00:00:00 | |
| SONDE2-11 | 2026-08-30 11:17:55 | 49.47318 | 12.37882 | 89° | 100km/h | 10345m | 5.8m/s | -46.4°C | 48.9% | 265.6hPa | 2.9V | 00:00:00 | 00:00:00 | 00:00:00 | |
| OE3JTB-15 | 2026-08-30 11:17:48 | 49.47316 | 12.37602 | 93° | 93km/h | 10307m | 4.9m/s | 0°C | 0% | 0hPa | 2.9V | 00:00:00 | 00:00:00 | 00:00:00 | |
| DO3MHA-11 | 2026-08-30 11:17:47 | 49.47317 | 12.37565 | 94° | 93km/h | 10302m | 5.8m/s | -46.0°C | 55.0% | 267.2hPa | 2.9V | 04:49:00 | 00:58:34 | 00:00:00 | |
| OE5DRO-10 | 2026-08-30 11:17:43 | 49.47323 | 12.37416 | 93° | 91km/h | 10278m | 4.1m/s | -45.7°C | 55.2% | 268.2hPa | 2.7V | 00:00:00 | 00:00:00 | 00:00:00 | |
| OE5WHR-10 | 2026-08-30 11:17:38 | 49.47315 | 12.37238 | 85° | 89km/h | 10253m | 5.4m/s | 0°C | 0% | 0hPa | 2.7V | 00:00:00 | 00:00:00 | 00:00:00 | |
| DO3MHA-11 | 2026-08-30 11:17:37 | 49.47314 | 12.37204 | 87° | 95km/h | 10247m | 6.0m/s | -45.4°C | 52.7% | 269.4hPa | 2.7V | 00:00:00 | 00:58:24 | 00:00:00 | |
| DO8TBO-1 | 2026-08-30 11:17:28 | 49.47307 | 12.36874 | 88° | 89km/h | 10197m | 4.0m/s | -45.0°C | 51.2% | 271.4hPa | 2.7V | 04:50:00 | 00:58:15 | 00:00:00 | |
| DO3MHA-11 | 2026-08-30 11:17:27 | 49.47306 | 12.36839 | 86° | 88km/h | 10191m | 6.7m/s | -45.0°C | 50.8% | 271.7hPa | 2.7V | 00:00:00 | 00:58:14 | 00:00:00 | |
| DL6DJ-15 | 2026-08-30 11:17:26 | 49.47305 | 12.36806 | 87° | 82km/h | 10186m | 4.1m/s | -44.9°C | 42.8% | 271.9hPa | 2.7V | 00:00:00 | 00:00:00 | 00:00:00 | |
| SONDE2-11 | 2026-08-30 11:17:24 | 49.47304 | 12.36743 | 89° | 82km/h | 10174m | 5.2m/s | -44.9°C | 42.3% | 272.3hPa | 2.7V | 00:00:00 | 00:00:00 | 00:00:00 | |
| OE5DRO-10 | 2026-08-30 11:17:22 | 49.47303 | 12.36677 | 90° | 89km/h | 10163m | 5.1m/s | -44.7°C | 48.8% | 272.8hPa | 2.7V | 04:50:00 | 00:00:00 | 00:00:00 | |
| DO3MHA-11 | 2026-08-30 11:17:17 | 49.47305 | 12.36494 | 91° | 91km/h | 10132m | 4.4m/s | -44.4°C | 47.5% | 274.1hPa | 2.7V | 00:00:00 | 00:58:04 | 00:00:00 | |
| OE5DXL-15 | 2026-08-30 11:17:13 | 49.47301 | 12.36343 | 86° | 88km/h | 10112m | 6.2m/s | -44.2°C | 45.9% | 274.9hPa | 2.9V | 00:00:00 | 00:00:00 | 00:00:00 | |
| DO3MHA-11 | 2026-08-30 11:17:07 | 49.47301 | 12.36140 | 97° | 89km/h | 10077m | 3.7m/s | -43.9°C | 45.6% | 276.3hPa | 2.7V | 00:00:00 | 00:57:54 | 00:00:00 | |
| DO9HM | 2026-08-30 11:17:06 | 49.47301 | 12.36140 | 97° | 80km/h | 10077m | 3.8m/s | -44.0°C | 38.8% | 276.4hPa | 2.7V | 04:50:00 | 00:00:00 | 00:00:00 | |
| OE5DRO-10 | 2026-08-30 11:17:03 | 49.47304 | 12.36012 | 88° | 91km/h | 10058m | 5.4m/s | -43.7°C | 45.3% | 277.1hPa | 2.7V | 00:00:00 | 00:00:00 | 00:00:00 | |
| DL6DJ-15 | 2026-08-30 11:16:55 | 49.47294 | 12.35718 | 86° | 91km/h | 10015m | 5.4m/s | -43.4°C | 38.3% | 278.9hPa | 2.7V | 00:00:00 | 00:00:00 | 00:00:00 | |
| SONDE2-11 | 2026-08-30 11:16:53 | 49.47287 | 12.35612 | 83° | 91km/h | 9995m | 4.3m/s | -43.2°C | 38.8% | 279.7hPa | 2.7V | 00:00:00 | 00:00:00 | 00:00:00 | |
| SONCRA | 2026-08-30 11:16:46 | 49.47283 | 12.35409 | 90° | 80km/h | 9961m | 6.6m/s | -42.9°C | -1.0% | 281.2hPa | 2.7V | 00:00:00 | 00:00:00 | 00:00:00 | |
| DO9HM | 2026-08-30 11:16:45 | 49.47283 | 12.35409 | 91° | 80km/h | 9961m | 6.6m/s | -42.9°C | 38.7% | 281.2hPa | 2.7V | 00:00:00 | 00:00:00 | 00:00:00 | |
| OE5DRO-10 | 2026-08-30 11:16:44 | 49.47283 | 12.35348 | 90° | 84km/h | 9950m | 5.2m/s | -42.8°C | 47.1% | 281.6hPa | 2.7V | 00:00:00 | 00:00:00 | 00:00:00 | |
| OE5DXL-15 | 2026-08-30 11:16:43 | 49.47283 | 12.35317 | 89° | 88km/h | 9945m | 5.0m/s | -42.7°C | 48.1% | 281.8hPa | 2.7V | 00:00:00 | 00:00:00 | 00:00:00 | |
| DO3MHA-11 | 2026-08-30 11:16:37 | 49.47269 | 12.35108 | 86° | 84km/h | 9917m | 4.5m/s | -42.6°C | 55.6% | 283.0hPa | 2.7V | 00:00:00 | 00:57:24 | 00:00:00 | |
| DO8TBO-1 | 2026-08-30 11:16:28 | 49.47256 | 12.34820 | 87° | 91km/h | 9866m | 4.0m/s | -42.3°C | 62.0% | 285.0hPa | 2.7V | 00:00:00 | 00:57:15 | 00:00:00 | |
| DO3MHA-11 | 2026-08-30 11:16:27 | 49.47255 | 12.34785 | 86° | 89km/h | 9862m | 3.7m/s | -42.2°C | 61.6% | 285.3hPa | 2.9V | 00:00:00 | 00:57:14 | 00:00:00 | |
| OE5DRO-10 | 2026-08-30 11:16:25 | 49.47251 | 12.34713 | 87° | 89km/h | 9852m | 4.2m/s | -42.2°C | 60.8% | 285.7hPa | 2.9V | 00:00:00 | 00:00:00 | 00:00:00 | |
| DL6DJ-15 | 2026-08-30 11:16:24 | 49.47250 | 12.34677 | 85° | 93km/h | 9845m | 8.2m/s | -42.2°C | 52.4% | 285.9hPa | 2.9V | 00:00:00 | 00:00:00 | 00:00:00 | |
| SONDE2-11 | 2026-08-30 11:16:22 | 49.47245 | 12.34572 | 86° | 88km/h | 9826m | 6.1m/s | -42.0°C | 52.7% | 286.8hPa | 2.9V | 00:00:00 | 00:00:00 | 00:00:00 | |
| DO3MHA-11 | 2026-08-30 11:16:17 | 49.47243 | 12.34439 | 91° | 95km/h | 9807m | 5.8m/s | -41.7°C | 60.7% | 287.6hPa | 2.9V | 00:00:00 | 00:57:04 | 00:00:00 | |
| SONCRA | 2026-08-30 11:16:15 | 49.47242 | 12.34331 | 87° | 97km/h | 9794m | 5.4m/s | -41.7°C | -1.0% | 288.2hPa | 2.7V | 00:00:00 | 00:00:00 | 00:00:00 | |
| OE5DXL-15 | 2026-08-30 11:16:13 | 49.47240 | 12.34292 | 88° | 93km/h | 9788m | 5.0m/s | -41.6°C | 58.3% | 288.4hPa | 2.7V | 04:51:00 | 00:00:00 | 00:00:00 | |
| DO3MHA-11 | 2026-08-30 11:16:07 | 49.47237 | 12.34067 | 88° | 91km/h | 9756m | 4.9m/s | -41.3°C | 60.7% | 289.8hPa | 2.7V | 04:51:00 | 00:56:54 | 00:00:00 | |
| OE5DRO-10 | 2026-08-30 11:16:06 | 49.47236 | 12.34032 | 88° | 91km/h | 9752m | 3.3m/s | -41.3°C | 61.3% | 290.0hPa | 2.7V | 00:00:00 | 00:00:00 | 00:00:00 | |
| DO9HM | 2026-08-30 11:16:03 | 49.47235 | 12.33964 | 90° | 89km/h | 9743m | 4.7m/s | -41.3°C | 54.1% | 290.5hPa | 2.7V | 04:52:00 | 00:00:00 | 00:00:00 | |
| DL6DJ-15 | 2026-08-30 11:15:53 | 49.47226 | 12.33571 | 94° | 88km/h | 9685m | 6.1m/s | -41.0°C | 60.4% | 292.9hPa | 2.7V | 00:00:00 | 00:00:00 | 00:00:00 | |
| SONDE2-11 | 2026-08-30 11:15:51 | 49.47230 | 12.33465 | 91° | 93km/h | 9669m | 3.9m/s | -40.9°C | 62.9% | 293.6hPa | 2.7V | 00:00:00 | 00:00:00 | 00:00:00 | |
| OE5DRO-10 | 2026-08-30 11:15:45 | 49.47224 | 12.33286 | 83° | 91km/h | 9640m | 4.1m/s | -40.7°C | 73.8% | 294.8hPa | 2.7V | 04:51:00 | 00:00:00 | 00:00:00 | |
| SONCRA | 2026-08-30 11:15:44 | 49.47219 | 12.33220 | 84° | 86km/h | 9631m | 3.3m/s | -40.7°C | -1.0% | 295.3hPa | 2.7V | 00:00:00 | 00:00:00 | 00:00:00 | |
| OE5DXL-15 | 2026-08-30 11:15:43 | 49.47219 | 12.33220 | 85° | 89km/h | 9631m | 3.2m/s | -40.6°C | 73.6% | 295.3hPa | 2.7V | 00:00:00 | 00:00:00 | 00:00:00 | |
| DO9HM | 2026-08-30 11:15:41 | 49.47216 | 12.33152 | 89° | 91km/h | 9622m | 3.4m/s | -40.6°C | 63.9% | 295.7hPa | 2.9V | 04:52:00 | 00:00:00 | 00:00:00 | |
| DO8TBO-1 | 2026-08-30 11:15:28 | 49.47218 | 12.32686 | 89° | 91km/h | 9546m | 6.3m/s | -39.9°C | 66.4% | 298.9hPa | 2.9V | 00:00:00 | 00:56:15 | 00:00:00 | |
| DO3MHA-11 | 2026-08-30 11:15:27 | 49.47217 | 12.32650 | 87° | 88km/h | 9540m | 6.0m/s | -39.8°C | 67.3% | 299.2hPa | 2.9V | 00:00:00 | 00:56:14 | 00:00:00 | |
| DL6DJ-15 | 2026-08-30 11:15:22 | 49.47208 | 12.32473 | 87° | 84km/h | 9514m | 7.7m/s | -39.7°C | 61.2% | 300.4hPa | 2.9V | 00:00:00 | 00:00:00 | 00:00:00 | |
| DO9HM | 2026-08-30 11:15:19 | 49.47206 | 12.32409 | 89° | 82km/h | 9503m | 5.7m/s | -39.5°C | 62.7% | 300.9hPa | 2.9V | 04:52:00 | 00:00:00 | 00:00:00 | |
| DO3MHA-11 | 2026-08-30 11:15:17 | 49.47205 | 12.32313 | 88° | 89km/h | 9486m | 5.7m/s | -39.4°C | 73.1% | 301.6hPa | 2.9V | 04:52:00 | 00:56:04 | 00:00:00 | |
| OE5DXL-15 | 2026-08-30 11:15:13 | 49.47198 | 12.32171 | 84° | 95km/h | 9461m | 7.9m/s | -39.3°C | 73.7% | 302.7hPa | 2.9V | 00:00:00 | 00:00:00 | 00:00:00 | |
| OE5WHR-10 | 2026-08-30 11:15:11 | 49.47191 | 12.32103 | 82° | 95km/h | 9447m | 7.5m/s | 0°C | 0% | 0hPa | 2.9V | 04:52:00 | 00:00:00 | 00:00:00 | |
| DO3MHA-11 | 2026-08-30 11:15:07 | 49.47183 | 12.31969 | 89° | 99km/h | 9428m | 2.5m/s | -39.0°C | 77.5% | 304.2hPa | 2.9V | 00:00:00 | 00:55:54 | 00:00:00 | |
| DL6DJ-15 | 2026-08-30 11:14:51 | 49.47154 | 12.31363 | 83° | 95km/h | 9339m | 6.8m/s | -38.5°C | 62.5% | 308.2hPa | 2.9V | 00:00:00 | 00:00:00 | 00:00:00 | |
| OE5WHR-10 | 2026-08-30 11:14:49 | 49.47148 | 12.31291 | 83° | 91km/h | 9327m | 4.0m/s | 0°C | 0% | 0hPa | 2.9V | 00:00:00 | 00:55:36 | 00:00:00 | |
| DO3MHA-11 | 2026-08-30 11:14:47 | 49.47143 | 12.31220 | 86° | 95km/h | 9315m | 5.9m/s | -38.3°C | 62.7% | 309.1hPa | 2.9V | 00:00:00 | 00:55:34 | 00:00:00 | |
| OE5DXL-15 | 2026-08-30 11:14:43 | 49.47139 | 12.31077 | 88° | 91km/h | 9292m | 4.2m/s | -38.1°C | 56.5% | 310.3hPa | 2.7V | 00:00:00 | 00:00:00 | 00:00:00 | |
| SONCRA | 2026-08-30 11:14:42 | 49.47137 | 12.31001 | 88° | 99km/h | 9281m | 4.2m/s | 0°C | -1.0% | -1.0hPa | 2.7V | 00:00:00 | 00:00:00 | 00:00:00 | |
| DO3MHA-11 | 2026-08-30 11:14:37 | 49.47137 | 12.30853 | 92° | 91km/h | 9264m | 5.8m/s | -37.8°C | 47.8% | 311.6hPa | 2.7V | 00:00:00 | 00:55:24 | 00:00:00 | |
| DO8TBO-1 | 2026-08-30 11:14:28 | 49.47123 | 12.30502 | 78° | 91km/h | 9212m | 5.9m/s | -37.4°C | 42.1% | 313.9hPa | 2.7V | 00:00:00 | 00:55:14 | 00:00:00 | |
| DO3MHA-11 | 2026-08-30 11:14:27 | 49.47123 | 12.30502 | 78° | 91km/h | 9212m | 5.9m/s | -37.4°C | 42.1% | 313.9hPa | 2.7V | 04:53:00 | 00:55:14 | 00:00:00 | |
| DL6DJ-15 | 2026-08-30 11:14:20 | 49.47106 | 12.30256 | 90° | 89km/h | 9175m | 7.6m/s | -37.1°C | 34.7% | 315.6hPa | 2.7V | 00:00:00 | 00:00:00 | 00:00:00 | |
| DO3MHA-11 | 2026-08-30 11:14:17 | 49.47105 | 12.30151 | 88° | 91km/h | 9160m | 5.2m/s | -36.9°C | 39.3% | 316.3hPa | 2.7V | 00:00:00 | 00:55:04 | 00:00:00 | |
| OE5DXL-15 | 2026-08-30 11:14:13 | 49.47100 | 12.30010 | 87° | 91km/h | 9138m | 4.6m/s | -36.7°C | 38.8% | 317.2hPa | 2.9V | 00:00:00 | 00:00:00 | 00:00:00 | |
| SONCRA | 2026-08-30 11:14:11 | 49.47092 | 12.29829 | 82° | 88km/h | 9112m | 5.7m/s | 0°C | -1.0% | -1.0hPa | 2.9V | 00:00:00 | 00:00:00 | 00:00:00 | |
| DO3MHA-11 | 2026-08-30 11:14:07 | 49.47088 | 12.29796 | 81° | 91km/h | 9107m | 4.9m/s | -36.4°C | 37.8% | 318.6hPa | 2.9V | 00:00:00 | 00:54:54 | 00:00:00 | |
| DL6DJ-15 | 2026-08-30 11:13:49 | 49.47054 | 12.29142 | 84° | 97km/h | 9017m | 3.3m/s | -35.8°C | 28.4% | 323.0hPa | 2.9V | 00:00:00 | 00:00:00 | 00:00:00 | |
| DO3MHA-11 | 2026-08-30 11:13:47 | 49.47051 | 12.29104 | 84° | 86km/h | 9013m | 6.3m/s | -35.7°C | 32.6% | 323.1hPa | 2.9V | 00:00:00 | 00:54:34 | 00:00:00 | |
| OE5DXL-15 | 2026-08-30 11:13:43 | 49.47043 | 12.28971 | 86° | 86km/h | 8993m | 3.8m/s | -35.5°C | 33.2% | 324.1hPa | 2.9V | 04:53:00 | 00:00:00 | 00:00:00 | |
| SONCRA | 2026-08-30 11:13:40 | 49.47034 | 12.28772 | 85° | 88km/h | 8964m | 7.0m/s | 0°C | -1.0% | -1.0hPa | 2.9V | 00:00:00 | 00:00:00 | 00:00:00 | |
| DO3MHA-11 | 2026-08-30 11:13:37 | 49.47034 | 12.28771 | 86° | 89km/h | 8964m | 6.9m/s | -35.3°C | 30.5% | 325.4hPa | 2.9V | 04:53:00 | 00:54:24 | 00:00:00 | |
| DO3MHA-11 | 2026-08-30 11:13:27 | 49.47012 | 12.28425 | 82° | 82km/h | 8911m | 6.5m/s | -34.9°C | 26.6% | 327.9hPa | 2.9V | 00:00:00 | 00:54:14 | 00:00:00 | |
| DO8TBO-1 | 2026-08-30 11:13:26 | 49.47009 | 12.28393 | 83° | 84km/h | 8906m | 4.9m/s | -34.8°C | 26.6% | 328.2hPa | 2.9V | 00:00:00 | 00:54:13 | 00:00:00 | |
| DL6DJ-15 | 2026-08-30 11:13:18 | 49.46977 | 12.28114 | 88° | 88km/h | 8855m | 6.0m/s | -34.5°C | 23.1% | 330.5hPa | 2.9V | 00:00:00 | 00:00:00 | 00:00:00 | |
| DO3MHA-11 | 2026-08-30 11:13:17 | 49.46977 | 12.28114 | 89° | 86km/h | 8855m | 6.0m/s | -34.5°C | 26.5% | 330.5hPa | 2.9V | 00:00:00 | 00:54:04 | 00:00:00 | |
| DO9HM | 2026-08-30 11:13:13 | 49.46977 | 12.28008 | 90° | 91km/h | 8836m | 6.5m/s | -34.3°C | 22.0% | 331.4hPa | 2.7V | 00:00:00 | 00:00:00 | 00:00:00 | |
| OE5DXL-15 | 2026-08-30 11:13:11 | 49.46974 | 12.27905 | 86° | 84km/h | 8819m | 6.3m/s | -34.1°C | 23.6% | 332.2hPa | 2.7V | 00:00:00 | 00:00:00 | 00:00:00 | |
| DO3MHA-11 | 2026-08-30 11:13:07 | 49.46969 | 12.27781 | 88° | 88km/h | 8798m | 3.9m/s | -33.9°C | 21.9% | 333.2hPa | 2.7V | 00:00:00 | 00:53:54 | 00:00:00 | |
| OE5WHR-10 | 2026-08-30 11:13:03 | 49.46964 | 12.27656 | 84° | 86km/h | 8779m | 4.4m/s | 0°C | 0% | 0hPa | 2.7V | 00:00:00 | 00:53:50 | 00:00:00 | |
| DL6DJ-15 | 2026-08-30 11:12:47 | 49.46925 | 12.27085 | 81° | 84km/h | 8699m | 6.6m/s | -33.1°C | 19.4% | 338.0hPa | 2.7V | 00:00:00 | 00:00:00 | 00:00:00 | |
| OE5DXL-15 | 2026-08-30 11:12:41 | 49.46916 | 12.26922 | 91° | 89km/h | 8676m | 5.2m/s | -32.9°C | 22.0% | 339.1hPa | 2.7V | 00:00:00 | 00:00:00 | 00:00:00 | |
| OE5DRO-10 | 2026-08-30 11:12:40 | 49.46917 | 12.26889 | 92° | 88km/h | 8672m | 4.1m/s | 0°C | 0% | 0hPa | 2.9V | 00:00:00 | 00:00:00 | 00:00:00 | |
| DO3MHA-11 | 2026-08-30 11:12:37 | 49.46917 | 12.26786 | 89° | 93km/h | 8657m | 4.0m/s | -32.7°C | 21.7% | 340.1hPa | 2.9V | 00:00:00 | 00:53:24 | 00:00:00 | |
| DO9HM | 2026-08-30 11:12:28 | 49.46895 | 12.26501 | 80° | 93km/h | 8611m | 7.1m/s | -32.3°C | 18.9% | 342.3hPa | 2.9V | 04:55:00 | 00:00:00 | 00:00:00 | |
| DO3MHA-11 | 2026-08-30 11:12:27 | 49.46888 | 12.26431 | 83° | 86km/h | 8601m | 5.5m/s | -32.2°C | 22.1% | 342.8hPa | 2.9V | 00:00:00 | 00:53:14 | 00:00:00 | |
| DO8TBO-1 | 2026-08-30 11:12:26 | 49.46886 | 12.26395 | 87° | 86km/h | 8595m | 5.3m/s | -32.2°C | 22.0% | 343.0hPa | 2.9V | 04:55:00 | 00:53:13 | 00:00:00 | |
| OE5DRO-10 | 2026-08-30 11:12:20 | 49.46882 | 12.26199 | 86° | 78km/h | 8555m | 7.7m/s | 0°C | 0% | 0hPa | 2.9V | 04:55:00 | 00:00:00 | 00:00:00 | |
| DO3MHA-11 | 2026-08-30 11:12:17 | 49.46872 | 12.26103 | 78° | 89km/h | 8536m | 5.9m/s | -31.9°C | 23.7% | 345.8hPa | 2.9V | 00:00:00 | 00:53:04 | 00:00:00 | |
| DL6DJ-15 | 2026-08-30 11:12:16 | 49.46863 | 12.26036 | 79° | 89km/h | 8524m | 7.9m/s | -31.9°C | 21.6% | 346.5hPa | 2.9V | 00:00:00 | 00:00:00 | 00:00:00 | |
| OE5DXL-15 | 2026-08-30 11:12:11 | 49.46853 | 12.25897 | 89° | 82km/h | 8498m | 5.5m/s | -31.7°C | 24.9% | 347.7hPa | 2.9V | 00:00:00 | 00:00:00 | 00:00:00 | |
| DO9HM | 2026-08-30 11:12:09 | 49.46853 | 12.25826 | 93° | 91km/h | 8485m | 8.0m/s | -31.6°C | 22.2% | 348.4hPa | 2.9V | 04:55:00 | 00:00:00 | 00:00:00 | |
| DO3MHA-11 | 2026-08-30 11:12:07 | 49.46854 | 12.25757 | 91° | 82km/h | 8472m | 7.3m/s | -31.5°C | 25.7% | 349.0hPa | 2.9V | 00:00:00 | 00:52:54 | 00:00:00 | |
| DO3MHA-11 | 2026-08-30 11:11:57 | 49.46822 | 12.25442 | 84° | 86km/h | 8409m | 6.2m/s | -31.0°C | 26.7% | 352.1hPa | 2.9V | 04:55:00 | 00:52:44 | 00:00:00 | |
| DO8TBO-1 | 2026-08-30 11:11:56 | 49.46820 | 12.25408 | 86° | 78km/h | 8403m | 5.2m/s | -31.0°C | 26.5% | 352.4hPa | 2.9V | 00:00:00 | 00:52:43 | 00:00:00 | |
| DO3MHA-11 | 2026-08-30 11:11:47 | 49.46806 | 12.25114 | 89° | 75km/h | 8350m | 4.8m/s | -30.5°C | 26.5% | 355.1hPa | 2.9V | 00:00:00 | 00:52:34 | 00:00:00 | |
| DL6DJ-15 | 2026-08-30 11:11:44 | 49.46805 | 12.25031 | 87° | 68km/h | 8332m | 5.2m/s | -30.4°C | 23.1% | 356.0hPa | 2.9V | 00:00:00 | 00:00:00 | 00:00:00 | |
| OE5DXL-15 | 2026-08-30 11:11:41 | 49.46801 | 12.24949 | 85° | 80km/h | 8314m | 5.1m/s | -30.2°C | 25.8% | 356.9hPa | 2.9V | 00:00:00 | 00:00:00 | 00:00:00 | |
| DO3MHA-11 | 2026-08-30 11:11:37 | 49.46792 | 12.24825 | 82° | 80km/h | 8286m | 7.9m/s | -30.0°C | 25.3% | 358.3hPa | 2.9V | 00:00:00 | 00:52:24 | 00:00:00 | |
| DO3MHA-11 | 2026-08-30 11:11:27 | 49.46765 | 12.24519 | 95° | 78km/h | 8225m | 5.2m/s | -29.5°C | 25.6% | 361.3hPa | 2.9V | 00:00:00 | 00:52:14 | 00:00:00 | |
| DO8TBO-1 | 2026-08-30 11:11:24 | 49.46769 | 12.24426 | 92° | 78km/h | 8207m | 6.0m/s | -29.3°C | 25.4% | 362.3hPa | 2.9V | 00:00:00 | 00:52:11 | 00:00:00 | |
| DO3MHA-11 | 2026-08-30 11:11:17 | 49.46755 | 12.24216 | 82° | 80km/h | 8159m | 3.7m/s | -28.9°C | 23.9% | 364.8hPa | 2.9V | 00:00:00 | 00:52:04 | 00:00:00 | |
| DL6DJ-15 | 2026-08-30 11:11:13 | 49.46747 | 12.24091 | 86° | 86km/h | 8135m | 8.7m/s | -28.7°C | 20.0% | 366.0hPa | 2.9V | 00:00:00 | 00:00:00 | 00:00:00 | |
| OE5DXL-15 | 2026-08-30 11:11:11 | 49.46746 | 12.24025 | 89° | 80km/h | 8122m | 4.4m/s | -28.5°C | 21.7% | 366.6hPa | 2.9V | 04:56:00 | 00:00:00 | 00:00:00 | |
| DO3MHA-11 | 2026-08-30 11:11:07 | 49.46746 | 12.23903 | 88° | 80km/h | 8095m | 6.7m/s | -28.4°C | 21.0% | 367.9hPa | 2.9V | 04:56:00 | 00:51:54 | 00:00:00 | |
| DO9HM | 2026-08-30 11:10:57 | 49.46721 | 12.23562 | 87° | 84km/h | 8031m | 6.2m/s | -28.0°C | 18.3% | 371.3hPa | 2.9V | 00:00:00 | 00:00:00 | 00:00:00 | |
| DO8TBO-1 | 2026-08-30 11:10:54 | 49.46718 | 12.23497 | 84° | 77km/h | 8019m | 7.0m/s | -27.8°C | 20.1% | 371.9hPa | 2.9V | 00:00:00 | 00:51:41 | 00:00:00 | |
| DO3MHA-11 | 2026-08-30 11:10:47 | 49.46699 | 12.23285 | 84° | 78km/h | 7981m | 5.5m/s | -27.4°C | 19.7% | 374.0hPa | 2.9V | 00:00:00 | 00:51:34 | 00:00:00 | |
| DL6DJ-15 | 2026-08-30 11:10:42 | 49.46687 | 12.23135 | 84° | 80km/h | 7956m | 4.0m/s | -27.3°C | 17.6% | 375.3hPa | 2.9V | 00:00:00 | 00:00:00 | 00:00:00 | |
| OE5DXL-15 | 2026-08-30 11:10:41 | 49.46685 | 12.23104 | 85° | 78km/h | 7951m | 5.9m/s | -27.2°C | 19.7% | 375.4hPa | 2.9V | 00:00:00 | 00:00:00 | 00:00:00 | |
| DO3MHA-11 | 2026-08-30 11:10:37 | 49.46673 | 12.22982 | 81° | 80km/h | 7932m | 5.3m/s | -27.1°C | 19.3% | 376.4hPa | 2.9V | 00:00:00 | 00:51:24 | 00:00:00 | |
| DO9HM | 2026-08-30 11:10:31 | 49.46666 | 12.22821 | 93° | 80km/h | 7908m | 4.8m/s | -27.0°C | 16.5% | 377.7hPa | 2.9V | 00:00:00 | 00:00:00 | 00:00:00 | |
| DO3MHA-11 | 2026-08-30 11:10:27 | 49.46662 | 12.22676 | 82° | 75km/h | 7883m | 5.0m/s | -26.7°C | 18.3% | 378.9hPa | 2.9V | 00:00:00 | 00:51:14 | 00:00:00 | |
| DO8TBO-1 | 2026-08-30 11:10:23 | 49.46645 | 12.22565 | 76° | 78km/h | 7867m | 3.1m/s | -26.6°C | 18.5% | 379.7hPa | 2.9V | 00:00:00 | 00:51:10 | 00:00:00 | |
| DO3MHA-11 | 2026-08-30 11:10:17 | 49.46632 | 12.22391 | 89° | 80km/h | 7827m | 7.0m/s | -26.2°C | 17.8% | 381.7hPa | 2.7V | 04:57:00 | 00:51:04 | 00:00:00 | |
| OE5DXL-15 | 2026-08-30 11:10:11 | 49.46632 | 12.22196 | 86° | 75km/h | 7789m | 7.9m/s | -25.9°C | 17.8% | 383.9hPa | 2.9V | 00:00:00 | 00:00:00 | 00:00:00 | |
| DO3MHA-11 | 2026-08-30 11:10:07 | 49.46619 | 12.22082 | 79° | 77km/h | 7763m | 5.7m/s | -25.7°C | 17.6% | 385.3hPa | 2.9V | 00:00:00 | 00:50:54 | 00:00:00 | |
| DO3MHA-11 | 2026-08-30 11:09:57 | 49.46610 | 12.21784 | 82° | 73km/h | 7713m | 4.3m/s | -25.3°C | 18.9% | 388.1hPa | 2.9V | 00:00:00 | 00:50:44 | 00:00:00 | |
| DO8TBO-1 | 2026-08-30 11:09:53 | 49.46596 | 12.21668 | 81° | 73km/h | 7697m | 3.3m/s | -25.2°C | 19.5% | 389.0hPa | 2.9V | 04:57:00 | 00:50:40 | 00:00:00 | |
| DO9HM | 2026-08-30 11:09:49 | 49.46589 | 12.21586 | 86° | 71km/h | 7685m | 2.9m/s | -25.1°C | 17.6% | 389.7hPa | 2.9V | 04:58:00 | 00:00:00 | 00:00:00 | |
| DO3MHA-11 | 2026-08-30 11:09:47 | 49.46584 | 12.21501 | 87° | 77km/h | 7673m | 3.2m/s | -24.9°C | 19.5% | 390.2hPa | 2.9V | 00:00:00 | 00:50:34 | 00:00:00 | |
| OE5DXL-15 | 2026-08-30 11:09:41 | 49.46578 | 12.21328 | 84° | 75km/h | 7647m | 5.3m/s | -24.8°C | 19.3% | 391.7hPa | 2.9V | 00:00:00 | 00:00:00 | 00:00:00 | |
| DL6DJ-15 | 2026-08-30 11:09:40 | 49.46575 | 12.21298 | 81° | 78km/h | 7642m | 3.8m/s | -24.7°C | 17.6% | 391.9hPa | 2.7V | 00:00:00 | 00:00:00 | 00:00:00 | |
| DO3MHA-11 | 2026-08-30 11:09:37 | 49.46567 | 12.21206 | 83° | 75km/h | 7629m | 4.1m/s | -24.6°C | 19.3% | 392.6hPa | 2.7V | 00:00:00 | 00:50:24 | 00:00:00 | |
| DO9HM | 2026-08-30 11:09:29 | 49.46549 | 12.20973 | 84° | 71km/h | 7595m | 3.2m/s | -24.5°C | 20.6% | 394.5hPa | 2.7V | 04:58:00 | 00:00:00 | 00:00:00 | |
| DO3MHA-11 | 2026-08-30 11:09:27 | 49.46545 | 12.20918 | 85° | 77km/h | 7588m | 4.7m/s | -24.4°C | 22.6% | 394.8hPa | 2.7V | 04:58:00 | 00:50:14 | 00:00:00 | |
| DO3MHA-11 | 2026-08-30 11:09:17 | 49.46516 | 12.20623 | 81° | 68km/h | 7546m | 2.5m/s | -24.1°C | 22.6% | 397.0hPa | 2.7V | 00:00:00 | 00:50:04 | 00:00:00 | |
| OE5DXL-15 | 2026-08-30 11:09:11 | 49.46508 | 12.20471 | 85° | 75km/h | 7522m | 3.0m/s | -23.9°C | 22.6% | 398.2hPa | 2.9V | 00:00:00 | 00:00:00 | 00:00:00 | |
| DL6DJ-15 | 2026-08-30 11:09:09 | 49.46504 | 12.20418 | 81° | 71km/h | 7511m | 6.3m/s | -24.0°C | 19.9% | 398.8hPa | 2.9V | 00:00:00 | 00:00:00 | 00:00:00 | |
| DO3MHA-11 | 2026-08-30 11:09:07 | 49.46499 | 12.20361 | 84° | 73km/h | 7497m | 7.2m/s | -23.8°C | 19.8% | 399.6hPa | 2.9V | 00:00:00 | 00:49:54 | 00:00:00 | |
| NBG1-10 | 2026-08-30 11:09:01 | 49.46494 | 12.20194 | 83° | 75km/h | 7458m | 5.7m/s | -23.4°C | 15.1% | 401.8hPa | 2.9V | 00:00:00 | 00:49:48 | 00:00:00 | |
| DO3MHA-11 | 2026-08-30 11:08:57 | 49.46478 | 12.20078 | 77° | 77km/h | 7435m | 4.4m/s | -23.2°C | 13.9% | 402.9hPa | 2.9V | 00:00:00 | 00:49:44 | 00:00:00 | |
| OE5DRO-10 | 2026-08-30 11:08:56 | 49.46473 | 12.20049 | 77° | 77km/h | 7431m | 4.6m/s | 0°C | 0% | 0hPa | 2.9V | 00:00:00 | 00:00:00 | 00:00:00 | |
| DO8TBO-1 | 2026-08-30 11:08:52 | 49.46460 | 12.19932 | 83° | 73km/h | 7412m | 6.2m/s | -23.0°C | 11.4% | 404.2hPa | 2.9V | 00:00:00 | 00:49:39 | 00:00:00 | |
| DB0NH | 2026-08-30 11:08:49 | 49.46451 | 12.19845 | 80° | 75km/h | 7398m | 4.1m/s | -22.8°C | 11.2% | 405.1hPa | 2.9V | 00:00:00 | 00:49:36 | 00:00:00 | |
| DO9HM | 2026-08-30 11:08:47 | 49.46448 | 12.19815 | 79° | 78km/h | 7394m | 4.7m/s | -22.8°C | 9.9% | 405.4hPa | 2.9V | 04:58:00 | 00:00:00 | 00:00:00 | |
| OE5DXL-15 | 2026-08-30 11:08:41 | 49.46422 | 12.19603 | 79° | 75km/h | 7365m | 2.8m/s | -22.5°C | 10.8% | 406.9hPa | 2.9V | 04:58:00 | 00:00:00 | 00:00:00 | |
| DL6DJ-15 | 2026-08-30 11:08:38 | 49.46412 | 12.19519 | 79° | 73km/h | 7354m | 3.5m/s | -22.5°C | 9.8% | 407.6hPa | 2.9V | 00:00:00 | 00:00:00 | 00:00:00 | |
| OE5DRO-10 | 2026-08-30 11:08:33 | 49.46395 | 12.19373 | 82° | 75km/h | 7336m | 4.1m/s | 0°C | 0% | 0hPa | 2.9V | 00:00:00 | 00:00:00 | 00:00:00 | |
| DO9HM | 2026-08-30 11:08:26 | 49.46380 | 12.19207 | 80° | 73km/h | 7314m | 4.3m/s | -22.2°C | 11.6% | 409.9hPa | 2.9V | 04:59:00 | 00:00:00 | 00:00:00 | |
| DO8TBO-1 | 2026-08-30 11:08:22 | 49.46359 | 12.19067 | 79° | 69km/h | 7294m | 3.9m/s | -22.0°C | 13.1% | 410.9hPa | 2.9V | 00:00:00 | 00:49:09 | 00:00:00 | |
| DB0NH | 2026-08-30 11:08:18 | 49.46345 | 12.18953 | 82° | 73km/h | 7278m | 3.3m/s | -21.9°C | 14.5% | 411.9hPa | 2.7V | 00:00:00 | 00:49:05 | 00:00:00 | |
| OE5DRO-10 | 2026-08-30 11:08:14 | 49.46330 | 12.18835 | 78° | 75km/h | 7265m | 3.2m/s | 0°C | 0% | 0hPa | 2.9V | 00:00:00 | 00:00:00 | 00:00:00 | |
| OE5DXL-15 | 2026-08-30 11:08:11 | 49.46318 | 12.18749 | 79° | 73km/h | 7254m | 4.2m/s | -21.8°C | 16.6% | 413.3hPa | 2.9V | 00:00:00 | 00:00:00 | 00:00:00 | |
| NBG1-10 | 2026-08-30 11:08:08 | 49.46307 | 12.18662 | 80° | 73km/h | 7241m | 3.6m/s | -21.7°C | 17.4% | 414.0hPa | 2.9V | 00:00:00 | 00:48:55 | 00:00:00 | |
| DO3MHA-11 | 2026-08-30 11:08:07 | 49.46304 | 12.18634 | 80° | 75km/h | 7237m | 4.3m/s | -21.6°C | 17.3% | 414.2hPa | 2.9V | 00:00:00 | 00:48:54 | 00:00:00 | |
| DO9HM | 2026-08-30 11:08:05 | 49.46297 | 12.18580 | 79° | 73km/h | 7230m | 4.6m/s | -21.6°C | 15.2% | 414.6hPa | 2.9V | 04:59:00 | 00:00:00 | 00:00:00 | |
| DO3MHA-11 | 2026-08-30 11:08:00 | 49.46266 | 12.18352 | 78° | 69km/h | 7200m | 3.9m/s | -21.3°C | 15.9% | 416.3hPa | 2.9V | 00:00:00 | 00:48:44 | 00:00:00 | |
| OE5DRO-10 | 2026-08-30 11:07:54 | 49.46254 | 12.18270 | 79° | 66km/h | 7190m | 3.5m/s | 0°C | 0% | 0hPa | 2.9V | 00:00:00 | 00:00:00 | 00:00:00 | |
| DB0NH | 2026-08-30 11:07:48 | 49.46232 | 12.18113 | 80° | 69km/h | 7168m | 2.6m/s | -21.1°C | 18.0% | 418.1hPa | 2.9V | 00:00:00 | 00:48:35 | 00:00:00 | |
| DO3MHA-11 | 2026-08-30 11:07:47 | 49.46229 | 12.18086 | 81° | 71km/h | 7165m | 4.1m/s | -21.1°C | 17.8% | 418.3hPa | 2.9V | 04:59:00 | 00:48:34 | 00:00:00 | |
| DO9HM | 2026-08-30 11:07:44 | 49.46224 | 12.18034 | 84° | 68km/h | 7156m | 4.1m/s | -21.1°C | 16.7% | 418.9hPa | 2.9V | 04:59:00 | 00:00:00 | 00:00:00 | |
| OE5DXL-15 | 2026-08-30 11:07:41 | 49.46214 | 12.17926 | 81° | 69km/h | 7142m | 3.6m/s | -20.9°C | 19.2% | 419.7hPa | 2.9V | 00:00:00 | 00:00:00 | 00:00:00 | |
| DO3MHA-11 | 2026-08-30 11:07:37 | 49.46203 | 12.17811 | 82° | 71km/h | 7127m | 4.1m/s | -20.8°C | 20.6% | 420.6hPa | 2.9V | 00:00:00 | 00:48:24 | 00:00:00 | |
| DL6DJ-15 | 2026-08-30 11:07:36 | 49.46197 | 12.17756 | 80° | 68km/h | 7120m | 2.7m/s | -20.8°C | 20.1% | 421.1hPa | 2.9V | 00:00:00 | 00:00:00 | 00:00:00 | |
| NBG1-10 | 2026-08-30 11:07:35 | 49.46197 | 12.17756 | 81° | 68km/h | 7120m | 2.7m/s | -20.7°C | 21.8% | 421.0hPa | 2.9V | 04:59:00 | 00:48:22 | 00:00:00 | |
| DO3MHA-11 | 2026-08-30 11:07:27 | 49.46175 | 12.17542 | 86° | 68km/h | 7092m | 3.5m/s | -20.6°C | 23.4% | 422.7hPa | 2.9V | 00:00:00 | 00:48:14 | 00:00:00 | |
| DO9HM | 2026-08-30 11:07:23 | 49.46170 | 12.17463 | 83° | 68km/h | 7082m | 2.9m/s | -20.5°C | 22.8% | 423.4hPa | 2.9V | 00:00:00 | 00:00:00 | 00:00:00 | |
| DB0NH | 2026-08-30 11:07:18 | 49.46156 | 12.17310 | 83° | 69km/h | 7060m | 3.7m/s | -20.3°C | 23.8% | 424.6hPa | 2.9V | 00:00:00 | 00:48:05 | 00:00:00 | |
| DO3MHA-11 | 2026-08-30 11:07:17 | 49.46154 | 12.17283 | 83° | 68km/h | 7057m | 2.9m/s | -20.3°C | 23.7% | 424.7hPa | 2.9V | 00:00:00 | 00:48:04 | 00:00:00 | |
| DO8TBO-1 | 2026-08-30 11:07:16 | 49.46151 | 12.17256 | 84° | 68km/h | 7053m | 3.9m/s | -20.3°C | 23.6% | 424.9hPa | 2.9V | 00:00:00 | 00:48:03 | 00:00:00 | |
| OE5DXL-15 | 2026-08-30 11:07:11 | 49.46139 | 12.17123 | 79° | 68km/h | 7036m | 3.4m/s | -20.1°C | 22.8% | 425.9hPa | 2.9V | 00:00:00 | 00:00:00 | 00:00:00 | |
| DO3MHA-11 | 2026-08-30 11:07:07 | 49.46125 | 12.17029 | 78° | 69km/h | 7023m | 3.7m/s | -20.0°C | 21.7% | 426.8hPa | 2.9V | 00:00:00 | 00:47:54 | 00:00:00 | |
| DL6DJ-15 | 2026-08-30 11:07:05 | 49.46114 | 12.16960 | 77° | 64km/h | 7013m | 4.4m/s | -20.0°C | 21.9% | 427.4hPa | 2.9V | 00:00:00 | 00:00:00 | 00:00:00 | |
| DO9HM | 2026-08-30 11:07:02 | 49.46111 | 12.16935 | 80° | 68km/h | 7009m | 3.9m/s | -20.0°C | 21.2% | 427.6hPa | 2.9V | 00:00:00 | 00:00:00 | 00:00:00 | |
| NBG1-10 | 2026-08-30 11:07:00 | 49.46103 | 12.16850 | 84° | 64km/h | 6998m | 3.2m/s | -19.8°C | 21.0% | 428.2hPa | 2.9V | 00:00:00 | 00:47:47 | 00:00:00 | |
| DO3MHA-11 | 2026-08-30 11:06:57 | 49.46099 | 12.16758 | 90° | 68km/h | 6988m | 2.4m/s | -19.8°C | 22.0% | 428.6hPa | 2.9V | 00:00:00 | 00:47:44 | 00:00:00 | |
| DO3MHA-11 | 2026-08-30 11:06:47 | 49.46088 | 12.16501 | 74° | 68km/h | 6927m | 6.8m/s | -19.4°C | 22.8% | 432.1hPa | 2.9V | 05:00:00 | 00:47:34 | 00:00:00 | |
| DO8TBO-1 | 2026-08-30 11:06:45 | 49.46077 | 12.16447 | 71° | 71km/h | 6914m | 7.5m/s | -19.3°C | 24.0% | 432.8hPa | 2.7V | 00:00:00 | 00:47:32 | 00:00:00 | |
| OE5DXL-15 | 2026-08-30 11:06:41 | 49.46056 | 12.16343 | 78° | 64km/h | 6892m | 6.2m/s | -19.1°C | 25.0% | 434.0hPa | 2.7V | 05:00:00 | 00:00:00 | 00:00:00 | |
| DO3MHA-11 | 2026-08-30 11:06:37 | 49.46048 | 12.16252 | 86° | 58km/h | 6869m | 5.4m/s | -18.9°C | 26.3% | 435.4hPa | 3.0V | 00:00:00 | 00:47:24 | 00:00:00 | |
| DL6DJ-15 | 2026-08-30 11:06:34 | 49.46038 | 12.16165 | 76° | 58km/h | 6850m | 5.2m/s | -18.8°C | 23.7% | 436.5hPa | 3.0V | 00:00:00 | 00:00:00 | 00:00:00 | |
| DO3MHA-11 | 2026-08-30 11:06:27 | 49.46019 | 12.16030 | 82° | 68km/h | 6821m | 4.9m/s | -18.5°C | 24.9% | 438.3hPa | 3.0V | 00:00:00 | 00:47:14 | 00:00:00 | |
| NBG1-10 | 2026-08-30 11:06:20 | 49.46009 | 12.15848 | 86° | 68km/h | 6795m | 3.1m/s | -18.2°C | 25.1% | 439.9hPa | 3.0V | 00:00:00 | 00:47:07 | 00:00:00 | |
| DO9HM | 2026-08-30 11:06:19 | 49.46009 | 12.15848 | 87° | 68km/h | 6795m | 3.2m/s | -18.3°C | 23.4% | 440.0hPa | 2.9V | 05:01:00 | 00:00:00 | 00:00:00 | |
| DO3MHA-11 | 2026-08-30 11:06:17 | 49.46004 | 12.15768 | 84° | 66km/h | 6783m | 4.5m/s | -18.2°C | 24.8% | 440.6hPa | 2.9V | 00:00:00 | 00:47:04 | 00:00:00 | |
| OE5DXL-15 | 2026-08-30 11:06:11 | 49.45985 | 12.15616 | 76° | 73km/h | 6762m | 3.4m/s | -18.0°C | 25.2% | 441.8hPa | 2.9V | 00:00:00 | 00:00:00 | 00:00:00 | |
| DO3MHA-11 | 2026-08-30 11:06:07 | 49.45971 | 12.15519 | 80° | 77km/h | 6750m | 3.1m/s | -17.9°C | 26.4% | 442.5hPa | 2.9V | 00:00:00 | 00:46:54 | 00:00:00 | |
| DL6DJ-15 | 2026-08-30 11:06:03 | 49.45948 | 12.15377 | 75° | 84km/h | 6732m | 4.6m/s | -17.8°C | 23.1% | 443.6hPa | 2.9V | 00:00:00 | 00:00:00 | 00:00:00 | |
| OE5DRO-10 | 2026-08-30 11:06:02 | 49.45948 | 12.15377 | 76° | 82km/h | 6732m | 4.5m/s | 0°C | 0% | 0hPa | 2.9V | 00:00:00 | 00:00:00 | 00:00:00 | |
| DO9HM | 2026-08-30 11:05:59 | 49.45940 | 12.15314 | 82° | 82km/h | 6725m | 3.2m/s | -17.7°C | 23.3% | 444.0hPa | 2.9V | 05:01:00 | 00:00:00 | 00:00:00 | |
| DO3MHA-11 | 2026-08-30 11:05:57 | 49.45930 | 12.15225 | 81° | 71km/h | 6709m | 6.1m/s | -17.6°C | 24.3% | 444.9hPa | 2.9V | 00:00:00 | 00:46:44 | 00:00:00 | |
| DO3MHA-11 | 2026-08-30 11:05:47 | 49.45886 | 12.14954 | 77° | 71km/h | 6654m | 3.6m/s | -17.0°C | 22.6% | 448.3hPa | 2.9V | 05:01:00 | 00:46:34 | 00:00:00 | |
| OE5DXL-15 | 2026-08-30 11:05:41 | 49.45856 | 12.14790 | 72° | 69km/h | 6628m | 3.8m/s | -16.8°C | 23.1% | 449.9hPa | 2.9V | 00:00:00 | 00:00:00 | 00:00:00 | |
| DO9HM | 2026-08-30 11:05:38 | 49.45845 | 12.14740 | 75° | 69km/h | 6618m | 4.6m/s | -16.7°C | 22.3% | 450.4hPa | 2.9V | 05:02:00 | 00:00:00 | 00:00:00 | |
| DO3MHA-11 | 2026-08-30 11:05:37 | 49.45838 | 12.14688 | 83° | 68km/h | 6612m | 3.3m/s | -16.6°C | 23.8% | 450.8hPa | 2.9V | 00:00:00 | 00:46:24 | 00:00:00 | |
| NBG1-10 | 2026-08-30 11:05:33 | 49.45831 | 12.14584 | 86° | 69km/h | 6597m | 3.0m/s | -16.5°C | 23.1% | 451.7hPa | 2.9V | 00:00:00 | 00:46:20 | 00:00:00 | |
| DL6DJ-15 | 2026-08-30 11:05:32 | 49.45828 | 12.14532 | 83° | 66km/h | 6591m | 4.4m/s | -16.5°C | 21.5% | 452.1hPa | 2.9V | 00:00:00 | 00:00:00 | 00:00:00 | |
| DO3MHA-11 | 2026-08-30 11:05:27 | 49.45816 | 12.14428 | 78° | 68km/h | 6575m | 3.0m/s | -16.3°C | 22.1% | 453.1hPa | 2.9V | 00:00:00 | 00:46:14 | 00:00:00 | |
| DO9HM | 2026-08-30 11:05:19 | 49.45775 | 12.14231 | 77° | 69km/h | 6545m | 4.5m/s | -16.1°C | 19.9% | 454.9hPa | 2.9V | 05:02:00 | 00:00:00 | 00:00:00 | |
| DO3MHA-11 | 2026-08-30 11:05:17 | 49.45767 | 12.14177 | 80° | 77km/h | 6532m | 6.8m/s | -16.0°C | 20.8% | 455.6hPa | 2.9V | 00:00:00 | 00:46:04 | 00:00:00 | |
| OE5DXL-15 | 2026-08-30 11:05:11 | 49.45747 | 12.14006 | 80° | 69km/h | 6501m | 4.9m/s | -15.7°C | 20.2% | 457.5hPa | 2.9V | 00:00:00 | 00:00:00 | 00:00:00 | |
| DO3MHA-11 | 2026-08-30 11:05:07 | 49.45733 | 12.13884 | 79° | 69km/h | 6482m | 2.7m/s | -15.6°C | 20.1% | 458.5hPa | 2.9V | 00:00:00 | 00:45:54 | 00:00:00 | |
| DL6DJ-15 | 2026-08-30 11:05:01 | 49.45695 | 12.13697 | 69° | 57km/h | 6457m | 2.5m/s | -15.4°C | 18.4% | 460.1hPa | 2.9V | 00:00:00 | 00:00:00 | 00:00:00 | |
| DO9HM | 2026-08-30 11:04:58 | 49.45686 | 12.13656 | 75° | 55km/h | 6450m | 4.1m/s | -15.3°C | 18.4% | 460.5hPa | 2.9V | 05:03:00 | 00:00:00 | 00:00:00 | |
| DO3MHA-11 | 2026-08-30 11:04:57 | 49.45682 | 12.13635 | 76° | 69km/h | 6447m | 3.1m/s | -15.2°C | 19.7% | 460.7hPa | 2.9V | 00:00:00 | 00:45:44 | 00:00:00 | |
| NBG1-10 | 2026-08-30 11:04:56 | 49.45678 | 12.13613 | 77° | 69km/h | 6443m | 5.1m/s | -15.2°C | 19.5% | 460.8hPa | 2.9V | 00:00:00 | 00:45:43 | 00:00:00 | |
| DO3MHA-11 | 2026-08-30 11:04:47 | 49.45642 | 12.13369 | 80° | 69km/h | 6393m | 3.5m/s | -14.7°C | 18.6% | 463.8hPa | 2.9V | 05:02:00 | 00:45:34 | 00:00:00 | |
| OE5DXL-15 | 2026-08-30 11:04:41 | 49.45623 | 12.13220 | 77° | 69km/h | 6372m | 1.9m/s | -14.5°C | 18.7% | 465.2hPa | 2.9V | 00:00:00 | 00:00:00 | 00:00:00 | |
| DO9HM | 2026-08-30 11:04:38 | 49.45607 | 12.13135 | 71° | 80km/h | 6363m | 2.7m/s | -14.5°C | 17.5% | 465.8hPa | 2.9V | 05:03:00 | 00:00:00 | 00:00:00 | |
| DO3MHA-11 | 2026-08-30 11:04:37 | 49.45601 | 12.13106 | 71° | 69km/h | 6360m | 3.0m/s | -14.4°C | 18.4% | 465.9hPa | 2.9V | 00:00:00 | 00:45:24 | 00:00:00 | |
| DO8TBO-1 | 2026-08-30 11:04:36 | 49.45594 | 12.13077 | 70° | 69km/h | 6357m | 2.9m/s | -14.4°C | 18.6% | 466.0hPa | 2.9V | 00:00:00 | 00:45:23 | 00:00:00 | |
| DL6DJ-15 | 2026-08-30 11:04:30 | 49.45555 | 12.12895 | 75° | 60km/h | 6322m | 7.3m/s | -14.1°C | 14.1% | 468.3hPa | 2.7V | 00:00:00 | 00:00:00 | 00:00:00 | |
| DO3MHA-11 | 2026-08-30 11:04:27 | 49.45548 | 12.12849 | 81° | 71km/h | 6311m | 4.6m/s | -13.9°C | 10.6% | 469.0hPa | 2.7V | 00:00:00 | 00:45:14 | 00:00:00 | |
| DO3MHA-11 | 2026-08-30 11:04:17 | 49.45512 | 12.12576 | 83° | 68km/h | 6262m | 4.4m/s | -13.6°C | 10.3% | 472.0hPa | 2.7V | 00:00:00 | 00:45:04 | 00:00:00 | |
| OE5DXL-15 | 2026-08-30 11:04:11 | 49.45502 | 12.12428 | 82° | 71km/h | 6242m | 4.3m/s | 0°C | 0% | 0hPa | 2.9V | 00:00:00 | 00:44:58 | 00:00:00 | |
| DO3MHA-11 | 2026-08-30 11:04:07 | 49.45492 | 12.12317 | 84° | 69km/h | 6220m | 3.5m/s | -13.4°C | 8.4% | 474.7hPa | 2.9V | 00:00:00 | 00:44:54 | 00:00:00 | |
| DL6DJ-15 | 2026-08-30 11:03:59 | 49.45450 | 12.12084 | 79° | 73km/h | 6192m | 3.9m/s | -13.3°C | 8.1% | 476.4hPa | 2.9V | 00:00:00 | 00:00:00 | 00:00:00 | |
| DO9HM | 2026-08-30 11:03:58 | 49.45449 | 12.12084 | 81° | 75km/h | 6192m | 3.9m/s | -13.3°C | 8.2% | 476.4hPa | 2.9V | 05:04:00 | 00:00:00 | 00:00:00 | |
| DO3MHA-11 | 2026-08-30 11:03:57 | 49.45447 | 12.12055 | 84° | 73km/h | 6188m | 4.2m/s | -13.2°C | 8.7% | 476.6hPa | 2.9V | 00:00:00 | 00:44:44 | 00:00:00 | |
| DO3MHA-11 | 2026-08-30 11:03:47 | 49.45429 | 12.11775 | 79° | 68km/h | 6129m | 5.6m/s | -12.8°C | 8.7% | 480.3hPa | 2.9V | 05:03:00 | 00:44:34 | 00:00:00 | |
| OE5DXL-15 | 2026-08-30 11:03:41 | 49.45405 | 12.11620 | 78° | 68km/h | 6103m | 2.8m/s | 0°C | 0% | 0hPa | 3.0V | 00:00:00 | 00:00:00 | 00:00:00 | |
| DO3MHA-11 | 2026-08-30 11:03:37 | 49.45391 | 12.11516 | 78° | 66km/h | 6088m | 2.5m/s | -12.6°C | 8.6% | 482.8hPa | 3.0V | 00:00:00 | 00:44:24 | 00:00:00 | |
| DO9HM | 2026-08-30 11:03:36 | 49.45391 | 12.11516 | 79° | 71km/h | 6088m | 2.6m/s | -12.6°C | 8.0% | 482.9hPa | 3.0V | 05:04:00 | 00:00:00 | 00:00:00 | |
| DO8TBO-1 | 2026-08-30 11:03:28 | 49.45354 | 12.11292 | 73° | 69km/h | 6057m | 4.2m/s | -12.3°C | 8.4% | 484.8hPa | 3.0V | 00:00:00 | 00:44:15 | 00:00:00 | |
| DO3MHA-11 | 2026-08-30 11:03:27 | 49.45350 | 12.11268 | 79° | 69km/h | 6053m | 3.3m/s | -12.3°C | 8.5% | 485.2hPa | 3.0V | 00:00:00 | 00:44:14 | 00:00:00 | |
| DO3MHA-11 | 2026-08-30 11:03:17 | 49.45338 | 12.10995 | 81° | 71km/h | 6014m | 4.5m/s | -12.0°C | 8.4% | 487.5hPa | 3.0V | 00:00:00 | 00:44:04 | 00:00:00 | |
| DO9HM | 2026-08-30 11:03:16 | 49.45338 | 12.10995 | 81° | 84km/h | 6014m | 4.6m/s | -12.0°C | 7.8% | 487.5hPa | 3.0V | 05:04:00 | 00:00:00 | 00:00:00 | |
| NBG1-10 | 2026-08-30 11:03:08 | 49.45301 | 12.10755 | 84° | 68km/h | 5958m | 5.7m/s | 0°C | 0% | 0hPa | 3.0V | 00:00:00 | 00:43:55 | 00:00:00 | |
| DO3MHA-11 | 2026-08-30 11:03:07 | 49.45299 | 12.10729 | 83° | 66km/h | 5953m | 4.0m/s | -11.6°C | 7.9% | 491.5hPa | 3.0V | 00:00:00 | 00:43:54 | 00:00:00 | |
| DL6DJ-15 | 2026-08-30 11:02:56 | 49.45265 | 12.10453 | 81° | 71km/h | 5909m | 5.4m/s | -11.6°C | 8.5% | 494.3hPa | 3.0V | 00:00:00 | 00:00:00 | 00:00:00 | |
| DO3MHA-11 | 2026-08-30 11:02:47 | 49.45242 | 12.10206 | 90° | 68km/h | 5862m | 6.6m/s | -11.3°C | 9.7% | 497.3hPa | 3.0V | 05:04:00 | 00:43:34 | 00:00:00 | |
| DO9HM | 2026-08-30 11:02:37 | 49.45219 | 12.09923 | 82° | 68km/h | 5806m | 4.9m/s | -10.8°C | 8.8% | 501.0hPa | 3.0V | 05:04:00 | 00:00:00 | 00:00:00 | |
| NBG1-10 | 2026-08-30 11:02:35 | 49.45216 | 12.09897 | 82° | 66km/h | 5802m | 4.1m/s | -10.7°C | 9.3% | 501.2hPa | 3.0V | 00:00:00 | 00:43:22 | 00:00:00 | |
| DO8TBO-1 | 2026-08-30 11:02:28 | 49.45199 | 12.09724 | 82° | 66km/h | 5776m | 3.7m/s | -10.5°C | 9.1% | 503.0hPa | 3.0V | 00:00:00 | 00:43:15 | 00:00:00 | |
| DO3MHA-11 | 2026-08-30 11:02:27 | 49.45197 | 12.09699 | 82° | 66km/h | 5773m | 3.6m/s | -10.5°C | 9.1% | 503.2hPa | 3.0V | 00:00:00 | 00:43:14 | 00:00:00 | |
| DL6DJ-15 | 2026-08-30 11:02:25 | 49.45193 | 12.09650 | 83° | 62km/h | 5764m | 5.1m/s | -10.5°C | 8.6% | 503.8hPa | 3.0V | 00:00:00 | 00:00:00 | 00:00:00 | |
| DO3MHA-11 | 2026-08-30 11:02:17 | 49.45171 | 12.09446 | 78° | 66km/h | 5734m | 4.7m/s | -10.4°C | 9.4% | 505.8hPa | 3.0V | 00:00:00 | 00:43:04 | 00:00:00 | |
| DO9HM | 2026-08-30 11:02:15 | 49.45164 | 12.09395 | 80° | 66km/h | 5725m | 4.2m/s | -10.3°C | 8.7% | 506.4hPa | 3.0V | 05:05:00 | 00:00:00 | 00:00:00 | |
| DO3MHA-11 | 2026-08-30 11:02:07 | 49.45141 | 12.09192 | 84° | 66km/h | 5692m | 3.5m/s | -10.1°C | 8.1% | 508.7hPa | 3.0V | 00:00:00 | 00:42:54 | 00:00:00 | |
| NBG1-10 | 2026-08-30 11:02:02 | 49.45133 | 12.09060 | 87° | 66km/h | 5670m | 3.8m/s | -10.0°C | 7.8% | 510.1hPa | 3.0V | 00:00:00 | 00:42:49 | 00:00:00 | |
| DO8TBO-1 | 2026-08-30 11:01:58 | 49.45123 | 12.08962 | 77° | 62km/h | 5653m | 4.0m/s | -10.0°C | 7.7% | 511.1hPa | 3.0V | 00:00:00 | 00:42:45 | 00:00:00 | |
| DO3MHA-11 | 2026-08-30 11:01:57 | 49.45119 | 12.08939 | 75° | 66km/h | 5649m | 4.3m/s | -9.9°C | 7.8% | 511.4hPa | 3.0V | 00:00:00 | 00:42:44 | 00:00:00 | |
| DO9HM | 2026-08-30 11:01:54 | 49.45103 | 12.08868 | 71° | 62km/h | 5638m | 5.1m/s | -10.0°C | 7.6% | 512.2hPa | 3.0V | 05:05:00 | 00:00:00 | 00:00:00 | |
| DO3MHA-11 | 2026-08-30 11:01:47 | 49.45096 | 12.08685 | 91° | 75km/h | 5596m | 4.9m/s | -9.7°C | 7.9% | 514.8hPa | 3.0V | 05:05:00 | 00:42:34 | 00:00:00 | |
| DO3MHA-11 | 2026-08-30 11:01:37 | 49.45078 | 12.08402 | 76° | 55km/h | 5542m | 6.0m/s | -9.5°C | 8.3% | 518.5hPa | 2.9V | 00:00:00 | 00:42:24 | 00:00:00 | |
| DO9HM | 2026-08-30 11:01:33 | 49.45071 | 12.08323 | 86° | 53km/h | 5521m | 5.1m/s | -9.3°C | 7.9% | 520.0hPa | 2.9V | 05:06:00 | 00:00:00 | 00:00:00 | |
| NBG1-10 | 2026-08-30 11:01:29 | 49.45061 | 12.08237 | 79° | 66km/h | 5496m | 6.6m/s | -9.1°C | 8.2% | 521.5hPa | 2.9V | 00:00:00 | 00:42:16 | 00:00:00 | |
| DO3MHA-11 | 2026-08-30 11:01:27 | 49.45054 | 12.08190 | 77° | 66km/h | 5484m | 6.3m/s | -9.0°C | 8.1% | 522.3hPa | 2.9V | 00:00:00 | 00:42:14 | 00:00:00 | |
| DO8TBO-1 | 2026-08-30 11:01:23 | 49.45040 | 12.08094 | 79° | 64km/h | 5461m | 5.8m/s | -8.8°C | 8.2% | 523.9hPa | 2.9V | 00:00:00 | 00:42:10 | 00:00:00 | |
| DO3MHA-11 | 2026-08-30 11:01:17 | 49.45024 | 12.07938 | 86° | 64km/h | 5426m | 6.3m/s | -8.7°C | 8.6% | 526.3hPa | 3.0V | 00:00:00 | 00:42:04 | 00:00:00 | |
| DO9HM | 2026-08-30 11:01:12 | 49.45021 | 12.07841 | 88° | 57km/h | 5398m | 5.5m/s | -8.5°C | 8.2% | 528.2hPa | 3.0V | 05:06:00 | 00:00:00 | 00:00:00 | |
| DO3MHA-11 | 2026-08-30 11:01:07 | 49.45019 | 12.07689 | 93° | 66km/h | 5370m | 5.1m/s | -8.3°C | 8.6% | 530.2hPa | 3.0V | 00:00:00 | 00:41:54 | 00:00:00 | |
| DL6DJ-15 | 2026-08-30 11:00:52 | 49.45042 | 12.07316 | 97° | 60km/h | 5305m | 4.3m/s | -7.9°C | 10.1% | 534.6hPa | 3.0V | 00:00:00 | 00:00:00 | 00:00:00 | |
| DO9HM | 2026-08-30 11:00:51 | 49.45042 | 12.07316 | 98° | 60km/h | 5305m | 4.3m/s | -7.9°C | 10.1% | 534.6hPa | 3.0V | 05:06:00 | 00:00:00 | 00:00:00 | |
| DO3MHA-11 | 2026-08-30 11:00:47 | 49.45050 | 12.07197 | 94° | 66km/h | 5286m | 4.4m/s | -7.8°C | 11.4% | 535.9hPa | 3.0V | 05:06:00 | 00:41:34 | 00:00:00 | |
| DO3MHA-11 | 2026-08-30 11:00:37 | 49.45061 | 12.06946 | 90° | 57km/h | 5242m | 3.2m/s | -7.5°C | 12.5% | 538.8hPa | 3.0V | 00:00:00 | 00:41:24 | 00:00:00 | |
| DO3MHA-11 | 2026-08-30 11:00:27 | 49.45065 | 12.06725 | 97° | 58km/h | 5188m | 5.7m/s | -7.0°C | 11.6% | 542.5hPa | 3.0V | 00:00:00 | 00:41:14 | 00:00:00 | |
| NBG1-10 | 2026-08-30 11:00:23 | 49.45064 | 12.06633 | 82° | 62km/h | 5167m | 4.5m/s | -6.9°C | 11.5% | 544.0hPa | 3.0V | 00:00:00 | 00:41:10 | 00:00:00 | |
| DL6DJ-15 | 2026-08-30 11:00:21 | 49.45059 | 12.06589 | 80° | 58km/h | 5158m | 4.1m/s | -6.8°C | 11.1% | 544.8hPa | 3.0V | 00:00:00 | 00:00:00 | 00:00:00 | |
| DO3MHA-11 | 2026-08-30 11:00:17 | 49.45051 | 12.06501 | 84° | 64km/h | 5139m | 6.4m/s | -6.7°C | 11.0% | 545.9hPa | 3.0V | 00:00:00 | 00:41:04 | 00:00:00 | |
| DO9HM | 2026-08-30 11:00:10 | 49.45037 | 12.06358 | 87° | 68km/h | 5102m | 4.5m/s | -6.4°C | 9.6% | 548.8hPa | 3.0V | 05:07:00 | 00:00:00 | 00:00:00 | |
| DO3MHA-11 | 2026-08-30 11:00:07 | 49.45036 | 12.06250 | 91° | 60km/h | 5082m | 5.0m/s | -6.2°C | 9.6% | 550.0hPa | 3.0V | 00:00:00 | 00:40:54 | 00:00:00 | |
| DO3MHA-11 | 2026-08-30 10:59:57 | 49.45039 | 12.06019 | 97° | 64km/h | 5035m | 5.2m/s | -6.1°C | 11.2% | 553.4hPa | 3.0V | 00:00:00 | 00:40:44 | 00:00:00 | |
| DO8TBO-1 | 2026-08-30 10:59:53 | 49.45043 | 12.05922 | 91° | 66km/h | 5004m | 8.2m/s | -5.9°C | 11.7% | 555.5hPa | 3.0V | 05:07:00 | 00:40:40 | 00:00:00 | |
| NBG1-10 | 2026-08-30 10:59:50 | 49.45040 | 12.05844 | 86° | 66km/h | 4985m | 5.9m/s | -5.8°C | 13.2% | 557.0hPa | 3.0V | 00:00:00 | 00:40:37 | 00:00:00 | |
| DO9HM | 2026-08-30 10:59:49 | 49.45040 | 12.05844 | 86° | 68km/h | 4985m | 5.9m/s | -5.8°C | 12.8% | 557.0hPa | 3.0V | 05:08:00 | 00:00:00 | 00:00:00 | |
| DO3MHA-11 | 2026-08-30 10:59:47 | 49.45038 | 12.05771 | 92° | 64km/h | 4969m | 3.8m/s | -5.7°C | 13.5% | 558.1hPa | 3.0V | 05:07:00 | 00:40:34 | 00:00:00 | |
| DO3MHA-11 | 2026-08-30 10:59:37 | 49.45026 | 12.05525 | 81° | 68km/h | 4930m | 3.5m/s | -5.4°C | 11.8% | 560.9hPa | 3.0V | 00:00:00 | 00:40:24 | 00:00:00 | |
| DO9HM | 2026-08-30 10:59:28 | 49.45021 | 12.05321 | 91° | 69km/h | 4881m | 6.6m/s | -5.2°C | 11.9% | 564.5hPa | 3.0V | 05:08:00 | 00:00:00 | 00:00:00 | |
| DO3MHA-11 | 2026-08-30 10:59:27 | 49.45021 | 12.05265 | 89° | 64km/h | 4870m | 5.8m/s | -5.1°C | 12.8% | 565.4hPa | 3.0V | 00:00:00 | 00:40:14 | 00:00:00 | |
| DO8TBO-1 | 2026-08-30 10:59:23 | 49.45016 | 12.05161 | 85° | 68km/h | 4851m | 5.3m/s | -4.9°C | 13.4% | 566.8hPa | 3.0V | 00:00:00 | 00:40:10 | 00:00:00 | |
| DB0NH | 2026-08-30 10:59:19 | 49.45010 | 12.05065 | 86° | 62km/h | 4833m | 4.1m/s | -4.7°C | 13.6% | 568.1hPa | 3.0V | 00:00:00 | 00:40:06 | 00:00:00 | |
| DO3MHA-11 | 2026-08-30 10:59:17 | 49.45009 | 12.05016 | 90° | 66km/h | 4822m | 5.2m/s | -4.7°C | 13.2% | 568.8hPa | 3.0V | 00:00:00 | 00:40:04 | 00:00:00 | |
| DO3MHA-11 | 2026-08-30 10:59:07 | 49.44993 | 12.04760 | 78° | 73km/h | 4785m | 3.4m/s | -4.4°C | 13.6% | 571.5hPa | 3.0V | 00:00:00 | 00:39:54 | 00:00:00 | |
| DO3MHA-11 | 2026-08-30 10:58:57 | 49.44987 | 12.04475 | 89° | 66km/h | 4731m | 6.2m/s | -4.0°C | 13.1% | 575.5hPa | 3.0V | 00:00:00 | 00:39:44 | 00:00:00 | |
| DO8TBO-1 | 2026-08-30 10:58:53 | 49.44988 | 12.04375 | 92° | 64km/h | 4707m | 6.0m/s | -3.8°C | 12.9% | 577.3hPa | 3.0V | 00:00:00 | 00:39:40 | 00:00:00 | |
| DO9HM | 2026-08-30 10:58:48 | 49.44984 | 12.04251 | 88° | 69km/h | 4685m | 4.1m/s | -3.6°C | 12.9% | 579.0hPa | 3.0V | 05:09:00 | 00:00:00 | 00:00:00 | |
| DO3MHA-11 | 2026-08-30 10:58:47 | 49.44983 | 12.04223 | 88° | 60km/h | 4681m | 3.2m/s | -3.5°C | 13.4% | 579.2hPa | 3.0V | 05:08:00 | 00:39:34 | 00:00:00 | |
| NBG1-10 | 2026-08-30 10:58:44 | 49.44985 | 12.04145 | 98° | 66km/h | 4670m | 3.4m/s | -3.4°C | 13.4% | 580.1hPa | 3.0V | 00:00:00 | 00:39:31 | 00:00:00 | |
| DB0NH | 2026-08-30 10:58:37 | 49.44990 | 12.03995 | 81° | 69km/h | 4643m | 4.5m/s | -3.3°C | 13.2% | 581.8hPa | 3.0V | 00:00:00 | 00:39:24 | 00:00:00 | |
| DO3MHA-11 | 2026-08-30 10:58:27 | 49.44975 | 12.03748 | 83° | 71km/h | 4587m | 3.9m/s | -3.0°C | 13.2% | 586.1hPa | 3.0V | 00:00:00 | 00:39:14 | 00:00:00 | |
| DO9HM | 2026-08-30 10:58:26 | 49.44975 | 12.03748 | 84° | 64km/h | 4587m | 4.0m/s | -3.0°C | 12.8% | 586.1hPa | 3.0V | 05:09:00 | 00:00:00 | 00:00:00 | |
| DO8TBO-1 | 2026-08-30 10:58:23 | 49.44964 | 12.03642 | 81° | 66km/h | 4570m | 2.5m/s | -2.9°C | 13.4% | 587.2hPa | 3.0V | 00:00:00 | 00:39:10 | 00:00:00 | |
| DO3MHA-11 | 2026-08-30 10:58:17 | 49.44945 | 12.03472 | 81° | 71km/h | 4547m | 6.6m/s | -2.8°C | 13.6% | 588.8hPa | 3.0V | 00:00:00 | 00:39:04 | 00:00:00 | |
| NBG1-10 | 2026-08-30 10:58:11 | 49.44931 | 12.03301 | 87° | 57km/h | 4515m | 5.8m/s | -2.6°C | 13.7% | 591.1hPa | 3.0V | 00:00:00 | 00:38:58 | 00:00:00 | |
| DO3MHA-11 | 2026-08-30 10:58:07 | 49.44931 | 12.03200 | 93° | 62km/h | 4495m | 4.6m/s | -2.4°C | 13.7% | 592.8hPa | 3.0V | 00:00:00 | 00:38:54 | 00:00:00 | |
| DO9HM | 2026-08-30 10:58:06 | 49.44931 | 12.03175 | 90° | 64km/h | 4490m | 5.2m/s | -2.5°C | 13.4% | 593.2hPa | 3.0V | 05:10:00 | 00:00:00 | 00:00:00 | |
| DL6DJ-15 | 2026-08-30 10:57:46 | 49.44890 | 12.02723 | 80° | 55km/h | 4401m | 6.5m/s | -2.4°C | 6.4% | 599.7hPa | 3.0V | 00:00:00 | 00:00:00 | 00:00:00 | |
| DO9HM | 2026-08-30 10:57:45 | 49.44890 | 12.02723 | 81° | 55km/h | 4401m | 6.5m/s | -2.4°C | 6.4% | 599.7hPa | 3.0V | 05:10:00 | 00:00:00 | 00:00:00 | |
| NBG1-10 | 2026-08-30 10:57:38 | 49.44874 | 12.02576 | 89° | 58km/h | 4369m | 3.8m/s | -2.5°C | 8.4% | 602.2hPa | 3.0V | 05:09:00 | 00:38:25 | 00:00:00 | |
| DO3MHA-11 | 2026-08-30 10:57:37 | 49.44874 | 12.02554 | 90° | 60km/h | 4366m | 3.4m/s | -2.5°C | 8.5% | 602.6hPa | 3.0V | 00:00:00 | 00:38:24 | 00:00:00 | |
| DB0NH | 2026-08-30 10:57:36 | 49.44874 | 12.02530 | 90° | 58km/h | 4363m | 2.8m/s | -2.5°C | 9.1% | 602.8hPa | 3.0V | 05:09:00 | 00:38:23 | 00:00:00 | |
| DO3MHA-11 | 2026-08-30 10:57:27 | 49.44863 | 12.02326 | 88° | 55km/h | 4326m | 3.6m/s | -2.4°C | 10.4% | 605.5hPa | 3.0V | 00:00:00 | 00:38:14 | 00:00:00 | |
| DO9HM | 2026-08-30 10:57:24 | 49.44863 | 12.02269 | 93° | 49km/h | 4316m | 3.6m/s | -2.4°C | 10.3% | 606.3hPa | 3.0V | 05:10:00 | 00:00:00 | 00:00:00 | |
| DO3MHA-11 | 2026-08-30 10:57:22 | 49.44858 | 12.02111 | 78° | 60km/h | 4281m | 3.6m/s | -2.2°C | 11.2% | 608.8hPa | 3.0V | 00:00:00 | 00:38:04 | 00:00:00 | |
| DL6DJ-15 | 2026-08-30 10:57:21 | 49.44847 | 12.02054 | 72° | 51km/h | 4269m | 3.6m/s | -2.2°C | 10.3% | 609.8hPa | 3.0V | 00:00:00 | 00:00:00 | 00:00:00 | |
| DO3MHA-11 | 2026-08-30 10:57:11 | 49.44816 | 12.01880 | 81° | 57km/h | 4247m | 3.0m/s | -2.1°C | 10.6% | 611.5hPa | 3.0V | 00:00:00 | 00:37:54 | 00:00:00 | |
| DB0NH | 2026-08-30 10:57:10 | 49.44813 | 12.01854 | 82° | 57km/h | 4243m | 4.8m/s | -2.1°C | 10.3% | 611.7hPa | 3.0V | 00:00:00 | 00:37:53 | 00:00:00 | |
| NBG1-10 | 2026-08-30 10:57:07 | 49.44811 | 12.01831 | 80° | 55km/h | 4237m | 6.3m/s | -2.2°C | 9.1% | 612.2hPa | 3.0V | 00:00:00 | 00:37:52 | 00:00:00 | |
| DO9HM | 2026-08-30 10:57:02 | 49.44806 | 12.01789 | 80° | 49km/h | 4226m | 5.3m/s | -2.4°C | 0% | 0hPa | 3.0V | 05:10:00 | 00:00:00 | 00:00:00 | |
| DO3MHA-11 | 2026-08-30 10:56:57 | 49.44780 | 12.01672 | 76° | 55km/h | 4205m | 4.9m/s | -2.2°C | 9.8% | 614.8hPa | 3.0V | 00:00:00 | 00:37:44 | 00:00:00 | |
| DO3MHA-11 | 2026-08-30 10:56:47 | 49.44756 | 12.01465 | 84° | 62km/h | 4148m | 6.9m/s | -2.2°C | 13.9% | 619.2hPa | 3.0V | 05:10:00 | 00:37:34 | 00:00:00 | |
| DO8TBO-1 | 2026-08-30 10:56:46 | 49.44754 | 12.01441 | 84° | 66km/h | 4142m | 5.7m/s | 0°C | 0% | 0hPa | 3.0V | 00:00:00 | 00:37:33 | 00:00:00 | |
| DL6DJ-15 | 2026-08-30 10:56:44 | 49.44748 | 12.01365 | 81° | 62km/h | 4129m | 3.0m/s | -2.1°C | 13.6% | 620.8hPa | 3.0V | 00:00:00 | 00:00:00 | 00:00:00 | |
| DO9HM | 2026-08-30 10:56:41 | 49.44745 | 12.01341 | 78° | 64km/h | 4126m | 3.4m/s | 0°C | 0% | 0hPa | 3.0V | 05:10:00 | 00:00:00 | 00:00:00 | |
| DO3MHA-11 | 2026-08-30 10:56:37 | 49.44719 | 12.01239 | 61° | 51km/h | 4100m | 4.1m/s | -1.9°C | 13.2% | 623.1hPa | 3.0V | 00:00:00 | 00:37:24 | 00:00:00 | |
| DB0NH | 2026-08-30 10:56:36 | 49.44714 | 12.01225 | 61° | 49km/h | 4096m | 4.7m/s | -1.9°C | 13.0% | 623.5hPa | 3.0V | 00:00:00 | 00:37:23 | 00:00:00 | |
| NBG1-10 | 2026-08-30 10:56:32 | 49.44702 | 12.01159 | 82° | 55km/h | 4080m | 5.3m/s | -1.8°C | 13.0% | 624.6hPa | 3.0V | 00:00:00 | 00:37:19 | 00:00:00 | |
| DO3MHA-11 | 2026-08-30 10:56:27 | 49.44687 | 12.01046 | 78° | 51km/h | 4050m | 6.9m/s | -1.5°C | 12.7% | 627.0hPa | 3.0V | 00:00:00 | 00:37:14 | 00:00:00 | |
| DO9HM | 2026-08-30 10:56:20 | 49.44667 | 12.00938 | 64° | 51km/h | 4020m | 4.5m/s | 0°C | 0% | 0hPa | 3.0V | 05:11:00 | 00:00:00 | 00:00:00 | |
| DO3MHA-11 | 2026-08-30 10:56:17 | 49.44639 | 12.00865 | 61° | 51km/h | 4004m | 3.5m/s | -1.1°C | 12.4% | 630.6hPa | 3.0V | 00:00:00 | 00:37:04 | 00:00:00 | |
| DL6DJ-15 | 2026-08-30 10:56:12 | 49.44617 | 12.00782 | 84° | 46km/h | 3981m | 5.1m/s | -0.9°C | 12.0% | 632.5hPa | 3.0V | 00:00:00 | 00:00:00 | 00:00:00 | |
| DO3MHA-11 | 2026-08-30 10:56:07 | 49.44604 | 12.00672 | 70° | 58km/h | 3954m | 7.2m/s | -0.6°C | 12.0% | 634.7hPa | 3.0V | 00:00:00 | 00:36:54 | 00:00:00 | |
| DO9HM | 2026-08-30 10:56:00 | 49.44566 | 12.00544 | 72° | 57km/h | 3915m | 7.2m/s | 0°C | 0% | 0hPa | 3.0V | 05:11:00 | 00:00:00 | 00:00:00 | |
| NBG1-10 | 2026-08-30 10:55:59 | 49.44558 | 12.00503 | 73° | 51km/h | 3901m | 8.4m/s | -0.1°C | 11.5% | 639.1hPa | 3.0V | 00:00:00 | 00:36:46 | 00:00:00 | |
| DO3MHA-11 | 2026-08-30 10:55:57 | 49.44549 | 12.00463 | 71° | 51km/h | 3886m | 7.4m/s | 0.0°C | 11.5% | 640.2hPa | 3.0V | 00:00:00 | 00:36:44 | 00:00:00 | |
| DO3MHA-11 | 2026-08-30 10:55:47 | 49.44510 | 12.00272 | 71° | 47km/h | 3837m | 4.6m/s | 0.5°C | 11.3% | 644.2hPa | 3.0V | 05:11:00 | 00:36:34 | 00:00:00 | |
| DL6DJ-15 | 2026-08-30 10:55:41 | 49.44494 | 12.00156 | 83° | 42km/h | 3809m | 5.4m/s | 0.7°C | 11.1% | 646.4hPa | 3.0V | 00:00:00 | 00:00:00 | 00:00:00 | |
| DO9HM | 2026-08-30 10:55:40 | 49.44494 | 12.00156 | 85° | 44km/h | 3809m | 5.4m/s | 0°C | 0% | 0hPa | 3.0V | 05:12:00 | 00:00:00 | 00:00:00 | |
| DO3MHA-11 | 2026-08-30 10:55:37 | 49.44490 | 12.00091 | 88° | 55km/h | 3791m | 5.5m/s | 0.8°C | 11.2% | 647.9hPa | 3.0V | 00:00:00 | 00:36:24 | 00:00:00 | |
| DO3MHA-11 | 2026-08-30 10:55:27 | 49.44470 | 11.99884 | 66° | 60km/h | 3727m | 6.7m/s | 0.7°C | 11.9% | 652.9hPa | 3.0V | 00:00:00 | 00:36:14 | 00:00:00 | |
| NBG1-10 | 2026-08-30 10:55:26 | 49.44464 | 11.99867 | 61° | 58km/h | 3721m | 5.8m/s | 0.7°C | 11.8% | 653.4hPa | 3.0V | 00:00:00 | 00:36:13 | 00:00:00 | |
| DO3MHA-11 | 2026-08-30 10:55:17 | 49.44419 | 11.99663 | 84° | 51km/h | 3663m | 8.7m/s | 0.9°C | 12.0% | 658.0hPa | 3.0V | 00:00:00 | 00:36:04 | 00:00:00 | |
| DO9HM | 2026-08-30 10:55:15 | 49.44416 | 11.99622 | 86° | 49km/h | 3650m | 5.6m/s | 0°C | 0% | 0hPa | 3.0V | 05:12:00 | 00:00:00 | 00:00:00 | |
| DL6DJ-15 | 2026-08-30 10:55:10 | 49.44400 | 11.99535 | 66° | 53km/h | 3622m | 6.2m/s | 1.1°C | 12.0% | 661.4hPa | 3.0V | 00:00:00 | 00:00:00 | 00:00:00 | |
| DO3MHA-11 | 2026-08-30 10:55:07 | 49.44383 | 11.99474 | 70° | 58km/h | 3603m | 7.3m/s | 1.1°C | 12.2% | 662.9hPa | 3.0V | 00:00:00 | 00:35:54 | 00:00:00 | |
| DO3MHA-11 | 2026-08-30 10:54:57 | 49.44351 | 11.99253 | 74° | 64km/h | 3534m | 5.5m/s | 1.5°C | 13.5% | 668.6hPa | 3.0V | 00:00:00 | 00:35:44 | 00:00:00 | |
| NBG1-10 | 2026-08-30 10:54:53 | 49.44335 | 11.99151 | 85° | 58km/h | 3515m | 5.7m/s | 1.5°C | 14.6% | 670.4hPa | 3.0V | 00:00:00 | 00:35:40 | 00:00:00 | |
| DO9HM | 2026-08-30 10:54:48 | 49.44337 | 11.99060 | 98° | 58km/h | 3486m | 6.5m/s | 0°C | 0% | 0hPa | 3.0V | 05:13:00 | 00:00:00 | 00:00:00 | |
| DO3MHA-11 | 2026-08-30 10:54:47 | 49.44339 | 11.99012 | 89° | 60km/h | 3473m | 5.3m/s | 1.8°C | 15.7% | 673.8hPa | 3.0V | 05:12:00 | 00:35:34 | 00:00:00 | |
| DL6DJ-15 | 2026-08-30 10:54:42 | 49.44312 | 11.98824 | 87° | 47km/h | 3415m | 7.7m/s | 2.3°C | 12.5% | 678.7hPa | 3.0V | 00:00:00 | 00:00:00 | 00:00:00 | |
| DO3MHA-11 | 2026-08-30 10:54:37 | 49.44313 | 11.98785 | 96° | 58km/h | 3401m | 6.3m/s | 2.3°C | 13.0% | 679.8hPa | 3.0V | 00:00:00 | 00:35:24 | 00:00:00 | |
| DO3MHA-11 | 2026-08-30 10:54:27 | 49.44282 | 11.98561 | 76° | 58km/h | 3334m | 6.1m/s | 2.6°C | 13.9% | 685.4hPa | 3.0V | 00:00:00 | 00:35:14 | 00:00:00 | |
| DO9HM | 2026-08-30 10:54:23 | 49.44273 | 11.98497 | 80° | 55km/h | 3310m | 8.1m/s | 0°C | 0% | 0hPa | 3.0V | 05:13:00 | 00:00:00 | 00:00:00 | |
| NBG1-10 | 2026-08-30 10:54:20 | 49.44263 | 11.98407 | 81° | 62km/h | 3283m | 5.8m/s | 2.7°C | 14.3% | 689.8hPa | 3.0V | 05:13:00 | 00:35:07 | 00:00:00 | |
| DO3MHA-11 | 2026-08-30 10:54:17 | 49.44256 | 11.98338 | 84° | 62km/h | 3267m | 6.1m/s | 2.7°C | 14.5% | 691.1hPa | 3.0V | 00:00:00 | 00:35:04 | 00:00:00 | |
| DO3MHA-11 | 2026-08-30 10:54:07 | 49.44244 | 11.98091 | 87° | 58km/h | 3216m | 4.3m/s | 2.5°C | 16.3% | 695.4hPa | 3.0V | 00:00:00 | 00:34:54 | 00:00:00 | |
| DO9HM | 2026-08-30 10:54:03 | 49.44247 | 11.97989 | 96° | 55km/h | 3195m | 6.7m/s | 0°C | 0% | 0hPa | 3.0V | 00:00:00 | 00:00:00 | 00:00:00 | |
| DO3MHA-11 | 2026-08-30 10:53:57 | 49.44237 | 11.97865 | 85° | 62km/h | 3156m | 8.4m/s | 2.5°C | 16.9% | 700.5hPa | 3.0V | 00:00:00 | 00:34:44 | 00:00:00 | |
| DO3MHA-11 | 2026-08-30 10:53:47 | 49.44208 | 11.97630 | 79° | 69km/h | 3094m | 7.1m/s | 1.9°C | 38.4% | 705.9hPa | 3.0V | 05:13:00 | 00:34:34 | 00:00:00 | |
| DO3MHA-11 | 2026-08-30 10:53:37 | 49.44197 | 11.97358 | 79° | 58km/h | 3037m | 4.0m/s | 2.0°C | 50.8% | 710.7hPa | 3.0V | 00:00:00 | 00:34:24 | 00:00:00 | |
| DO9HM | 2026-08-30 10:53:33 | 49.44186 | 11.97266 | 84° | 55km/h | 3023m | 4.3m/s | 0°C | 0% | 0hPa | 3.0V | 00:00:00 | 00:00:00 | 00:00:00 | |
| DO3MHA-11 | 2026-08-30 10:53:17 | 49.44184 | 11.96877 | 86° | 82km/h | 2957m | 2.8m/s | 2.9°C | 0% | 717.7hPa | 3.0V | 00:00:00 | 00:34:04 | 00:00:00 | |
| NBG1-10 | 2026-08-30 10:53:14 | 49.44178 | 11.96780 | 85° | 68km/h | 2948m | 3.9m/s | 3.0°C | 0% | 718.4hPa | 3.0V | 00:00:00 | 00:34:01 | 00:00:00 | |
| DO9HM | 2026-08-30 10:53:11 | 49.44175 | 11.96715 | 88° | 84km/h | 2940m | 3.8m/s | 0°C | 0% | 0hPa | 3.0V | 05:15:00 | 00:00:00 | 00:00:00 | |
| DO3MHA-11 | 2026-08-30 10:53:07 | 49.44180 | 11.96563 | 97° | 60km/h | 2915m | 7.5m/s | 3.4°C | 0% | 721.2hPa | 3.0V | 00:00:00 | 00:33:54 | 00:00:00 | |
| DL6DJ-15 | 2026-08-30 10:53:06 | 49.44183 | 11.96517 | 92° | 51km/h | 2903m | 5.4m/s | 3.5°C | 100.0% | 722.3hPa | 3.0V | 00:00:00 | 00:00:00 | 00:00:00 | |
| DO3MHA-11 | 2026-08-30 10:52:57 | 49.44165 | 11.96328 | 81° | 69km/h | 2861m | 6.1m/s | 3.6°C | 0% | 726.1hPa | 3.0V | 00:00:00 | 00:33:44 | 00:00:00 | |
| DO3MHA-11 | 2026-08-30 10:52:47 | 49.44148 | 11.96064 | 72° | 62km/h | 2802m | 3.9m/s | 3.8°C | 0% | 731.5hPa | 3.0V | 05:14:00 | 00:33:34 | 00:00:00 | |
| NBG1-10 | 2026-08-30 10:52:41 | 49.44135 | 11.95926 | 87° | 60km/h | 2771m | 6.4m/s | 4.1°C | 0% | 734.2hPa | 3.0V | 00:00:00 | 00:33:28 | 00:00:00 | |
| DO3MHA-11 | 2026-08-30 10:52:37 | 49.44124 | 11.95825 | 75° | 58km/h | 2746m | 7.3m/s | 4.3°C | 0% | 736.3hPa | 3.0V | 00:00:00 | 00:33:24 | 00:00:00 | |
| DB0NH | 2026-08-30 10:52:33 | 49.44110 | 11.95737 | 80° | 60km/h | 2721m | 6.1m/s | 4.4°C | 0% | 738.7hPa | 3.0V | 00:00:00 | 00:33:20 | 00:00:00 | |
| DO3MHA-11 | 2026-08-30 10:52:27 | 49.44096 | 11.95607 | 95° | 64km/h | 2685m | 5.1m/s | 4.6°C | 0% | 741.9hPa | 3.0V | 00:00:00 | 00:33:14 | 00:00:00 | |
| DO9HM | 2026-08-30 10:52:26 | 49.44096 | 11.95607 | 95° | 53km/h | 2685m | 5.1m/s | 0°C | 0% | 0hPa | 3.0V | 05:15:00 | 00:00:00 | 00:00:00 | |
| DO3MHA-11 | 2026-08-30 10:52:17 | 49.44067 | 11.95359 | 75° | 58km/h | 2637m | 4.3m/s | 4.8°C | 0% | 746.1hPa | 3.0V | 00:00:00 | 00:33:04 | 00:00:00 | |
| NBG1-10 | 2026-08-30 10:52:08 | 49.44043 | 11.95161 | 65° | 55km/h | 2607m | 4.8m/s | 5.0°C | 0% | 749.0hPa | 3.0V | 00:00:00 | 00:32:55 | 00:00:00 | |
| DO3MHA-11 | 2026-08-30 10:52:07 | 49.44037 | 11.95142 | 65° | 57km/h | 2602m | 4.4m/s | 5.0°C | 0% | 749.4hPa | 3.0V | 00:00:00 | 00:32:54 | 00:00:00 | |
| DL6DJ-15 | 2026-08-30 10:52:04 | 49.44018 | 11.95078 | 66° | 64km/h | 2590m | 5.5m/s | 5.1°C | 100.0% | 750.6hPa | 3.0V | 00:00:00 | 00:00:00 | 00:00:00 | |
| DB0NH | 2026-08-30 10:52:03 | 49.44012 | 11.95055 | 68° | 53km/h | 2585m | 4.6m/s | 5.1°C | 0% | 751.1hPa | 3.0V | 00:00:00 | 00:32:50 | 00:00:00 | |
| DO3MHA-11 | 2026-08-30 10:51:57 | 49.43992 | 11.94934 | 80° | 55km/h | 2554m | 5.4m/s | 5.1°C | 0% | 754.1hPa | 3.0V | 00:00:00 | 00:32:44 | 00:00:00 | |
| DO3MHA-11 | 2026-08-30 10:51:47 | 49.43960 | 11.94727 | 66° | 55km/h | 2505m | 4.4m/s | 5.4°C | 0% | 758.4hPa | 3.0V | 05:15:00 | 00:32:34 | 00:00:00 | |
| DO3MHA-11 | 2026-08-30 10:51:37 | 49.43914 | 11.94523 | 68° | 37km/h | 2452m | 6.9m/s | 5.6°C | 0% | 763.3hPa | 3.0V | 00:00:00 | 00:32:24 | 00:00:00 | |
| NBG1-10 | 2026-08-30 10:51:35 | 49.43906 | 11.94492 | 76° | 42km/h | 2441m | 4.9m/s | 5.7°C | 0% | 764.6hPa | 3.0V | 00:00:00 | 00:32:22 | 00:00:00 | |
| DB0NH | 2026-08-30 10:51:33 | 49.43905 | 11.94465 | 91° | 42km/h | 2434m | 3.3m/s | 5.7°C | 0% | 765.2hPa | 3.0V | 05:15:00 | 00:32:20 | 00:00:00 | |
| DO3MHA-11 | 2026-08-30 10:51:27 | 49.43904 | 11.94381 | 84° | 46km/h | 2404m | 6.8m/s | 5.9°C | 0% | 768.1hPa | 3.0V | 00:00:00 | 00:32:14 | 00:00:00 | |
| DO3MHA-11 | 2026-08-30 10:51:17 | 49.43877 | 11.94210 | 78° | 44km/h | 2344m | 4.2m/s | 6.2°C | 0% | 773.8hPa | 3.0V | 00:00:00 | 00:32:04 | 00:00:00 | |
| DO3MHA-11 | 2026-08-30 10:51:07 | 49.43827 | 11.94058 | 73° | 44km/h | 2292m | 5.1m/s | 6.5°C | 0% | 778.6hPa | 3.0V | 00:00:00 | 00:31:54 | 00:00:00 | |
| DB0NH | 2026-08-30 10:51:03 | 49.43809 | 11.94001 | 56° | 40km/h | 2270m | 6.1m/s | 6.6°C | 0% | 780.7hPa | 3.0V | 00:00:00 | 00:31:50 | 00:00:00 | |
| NBG1-10 | 2026-08-30 10:51:02 | 49.43802 | 11.93986 | 53° | 40km/h | 2264m | 6.0m/s | 6.6°C | 0% | 781.2hPa | 3.0V | 05:16:00 | 00:31:49 | 00:00:00 | |
| DO3MHA-11 | 2026-08-30 10:50:57 | 49.43771 | 11.93918 | 60° | 38km/h | 2234m | 5.4m/s | 6.8°C | 99.1% | 784.3hPa | 3.0V | 00:00:00 | 00:31:44 | 00:00:00 | |
| DO3MHA-11 | 2026-08-30 10:50:47 | 49.43736 | 11.93777 | 60° | 37km/h | 2174m | 5.3m/s | 7.4°C | 95.4% | 789.7hPa | 3.0V | 05:16:00 | 00:31:34 | 00:00:00 | |
| DO3MHA-11 | 2026-08-30 10:50:37 | 49.43703 | 11.93645 | 66° | 44km/h | 2115m | 5.8m/s | 7.4°C | 98.1% | 795.4hPa | 3.0V | 00:00:00 | 00:31:24 | 00:00:00 | |
| DB0NH | 2026-08-30 10:50:33 | 49.43692 | 11.93584 | 82° | 35km/h | 2091m | 6.3m/s | 7.6°C | 97.3% | 797.6hPa | 3.0V | 00:00:00 | 00:31:20 | 00:00:00 | |
| DL6DJ-15 | 2026-08-30 10:50:31 | 49.43683 | 11.93533 | 68° | 46km/h | 2073m | 4.9m/s | 0°C | -1.0% | -1.0hPa | 3.0V | 00:00:00 | 00:00:00 | 00:00:00 | |
| NBG1-10 | 2026-08-30 10:50:29 | 49.43679 | 11.93517 | 68° | 31km/h | 2067m | 6.6m/s | 7.7°C | 97.3% | 800.0hPa | 3.0V | 00:00:00 | 00:31:16 | 00:00:00 | |
| DO3MHA-11 | 2026-08-30 10:50:27 | 49.43671 | 11.93484 | 79° | 33km/h | 2054m | 6.3m/s | 7.9°C | 96.8% | 801.3hPa | 3.0V | 00:00:00 | 00:31:14 | 00:00:00 | |
| DO3MHA-11 | 2026-08-30 10:50:17 | 49.43671 | 11.93361 | 79° | 33km/h | 1989m | 9.1m/s | 8.7°C | 91.1% | 807.7hPa | 3.0V | 00:00:00 | 00:31:04 | 00:00:00 | |
| DO3MHA-11 | 2026-08-30 10:50:07 | 49.43667 | 11.93238 | 75° | 24km/h | 1930m | 6.4m/s | 8.9°C | 93.0% | 813.6hPa | 3.0V | 00:00:00 | 00:30:54 | 00:00:00 | |
| DB0NH | 2026-08-30 10:50:03 | 49.43655 | 11.93204 | 53° | 29km/h | 1908m | 4.3m/s | 9.2°C | 91.1% | 815.7hPa | 3.0V | 00:00:00 | 00:30:50 | 00:00:00 | |
| DO3MHA-11 | 2026-08-30 10:49:57 | 49.43645 | 11.93151 | 92° | 26km/h | 1877m | 5.6m/s | 9.4°C | 91.4% | 818.7hPa | 2.9V | 00:00:00 | 00:30:44 | 00:00:00 | |
| NBG1-10 | 2026-08-30 10:49:56 | 49.43646 | 11.93137 | 101° | 31km/h | 1871m | 6.4m/s | 9.3°C | 93.0% | 819.3hPa | 2.9V | 00:00:00 | 00:30:43 | 00:00:00 | |
| DO3MHA-11 | 2026-08-30 10:49:47 | 49.43648 | 11.93058 | 92° | 38km/h | 1820m | 7.4m/s | 9.5°C | 95.5% | 824.1hPa | 2.9V | 05:17:00 | 00:30:34 | 00:00:00 | |
| DO3MHA-11 | 2026-08-30 10:49:37 | 49.43633 | 11.92914 | 74° | 31km/h | 1762m | 5.5m/s | 10.2°C | 90.7% | 830.2hPa | 3.0V | 00:00:00 | 00:30:24 | 00:00:00 | |
| DB0NH | 2026-08-30 10:49:33 | 49.43632 | 11.92879 | 97° | 33km/h | 1739m | 4.7m/s | 10.4°C | 88.3% | 832.3hPa | 3.0V | 00:00:00 | 00:30:20 | 00:00:00 | |
| DO3MHA-11 | 2026-08-30 10:49:27 | 49.43623 | 11.92798 | 62° | 35km/h | 1708m | 4.5m/s | 10.7°C | 87.9% | 835.4hPa | 3.0V | 00:00:00 | 00:30:14 | 00:00:00 | |
| NBG1-10 | 2026-08-30 10:49:23 | 49.43610 | 11.92756 | 83° | 31km/h | 1685m | 6.6m/s | 10.9°C | 86.0% | 837.7hPa | 3.0V | 00:00:00 | 00:30:10 | 00:00:00 | |
| DO3MHA-11 | 2026-08-30 10:49:17 | 49.43598 | 11.92675 | 59° | 33km/h | 1649m | 5.0m/s | 11.2°C | 85.0% | 841.5hPa | 3.0V | 00:00:00 | 00:30:04 | 00:00:00 | |
| DO3MHA-11 | 2026-08-30 10:49:07 | 49.43579 | 11.92554 | 60° | 31km/h | 1596m | 5.9m/s | 11.8°C | 82.4% | 846.7hPa | 3.0V | 00:00:00 | 00:29:54 | 00:00:00 | |
| DB0NH | 2026-08-30 10:49:03 | 49.43568 | 11.92519 | 87° | 29km/h | 1573m | 4.7m/s | 0°C | 0% | 0hPa | 3.0V | 00:00:00 | 00:29:50 | 00:00:00 | |
| DO3MHA-11 | 2026-08-30 10:48:57 | 49.43558 | 11.92441 | 59° | 24km/h | 1546m | 4.4m/s | 12.2°C | 80.9% | 851.7hPa | 3.0V | 00:00:00 | 00:29:44 | 00:00:00 | |
| NBG1-10 | 2026-08-30 10:48:50 | 49.43532 | 11.92387 | 77° | 29km/h | 1512m | 5.4m/s | 12.6°C | 78.9% | 855.0hPa | 3.0V | 00:00:00 | 00:29:37 | 00:00:00 | |
| DO3MHA-11 | 2026-08-30 10:48:47 | 49.43530 | 11.92367 | 80° | 29km/h | 1501m | 4.7m/s | 12.6°C | 79.5% | 856.3hPa | 3.0V | 05:18:00 | 00:29:34 | 00:00:00 | |
| DO3MHA-11 | 2026-08-30 10:48:37 | 49.43496 | 11.92264 | 44° | 38km/h | 1441m | 6.7m/s | 13.1°C | 80.2% | 862.5hPa | 0V | 00:00:00 | 00:29:24 | 00:00:00 | |
| DB0NH | 2026-08-30 10:48:33 | 49.43465 | 11.92221 | 47° | 33km/h | 1421m | 5.4m/s | 0°C | 0% | 0hPa | 0V | 00:00:00 | 00:29:20 | 00:00:00 | |
| DO3MHA-11 | 2026-08-30 10:48:27 | 49.43442 | 11.92153 | 83° | 26km/h | 1387m | 6.0m/s | 0°C | 0% | 0hPa | 0V | 00:00:00 | 00:29:14 | 00:00:00 | |
| NBG1-10 | 2026-08-30 10:48:17 | 49.43405 | 11.92073 | 54° | 33km/h | 1329m | 5.0m/s | 0°C | 0% | 0hPa | 0V | 00:00:00 | 00:29:04 | 00:00:00 | |
| DO3MHA-11 | 2026-08-30 10:48:17 | 49.43405 | 11.92073 | 54° | 40km/h | 1329m | 5.0m/s | 0°C | 0% | 0hPa | 0V | 00:00:00 | 00:29:04 | 00:00:00 | |
| DO3MHA-11 | 2026-08-30 10:48:07 | 49.43356 | 11.91937 | 51° | 29km/h | 1281m | 6.5m/s | 0°C | 0% | 0hPa | 0V | 00:00:00 | 00:28:54 | 00:00:00 | |
| DO3MHA-11 | 2026-08-30 10:47:57 | 49.43338 | 11.91834 | 87° | 27km/h | 1229m | 4.5m/s | 0°C | 0% | 0hPa | 0V | 00:00:00 | 00:28:44 | 00:00:00 | |
| DO3MHA-11 | 2026-08-30 10:47:47 | 49.43311 | 11.91743 | 50° | 35km/h | 1174m | 6.1m/s | 0°C | 0% | 0hPa | 0V | 00:00:00 | 00:28:34 | 00:00:00 |